
Distance (Route):
Temperature : -14.4°C
Humidity : 92.4%
Pressure : 0hPa| Receiver | Frames | First received | Last received |
|---|---|---|---|
| DL1XH-west | 399 | 2026-09-02 06:47:03 | 2026-09-02 08:00:19 |
| DO2SHX-10 | 350 | 2026-09-02 07:14:12 | 2026-09-02 07:51:14 |
| DL1XH1-15 | 337 | 2026-09-02 06:47:45 | 2026-09-02 08:00:15 |
| AA1-15 | 314 | 2026-09-02 06:56:37 | 2026-09-02 07:58:04 |
| DM0DOS-11 | 246 | 2026-09-02 07:03:19 | 2026-09-02 07:54:42 |
| DJ2DS-15 | 111 | 2026-09-02 06:55:43 | 2026-09-02 07:57:07 |
| DL1XH-15 | 54 | 2026-09-02 07:12:56 | 2026-09-02 07:52:27 |
| SONDE2-11 | 8 | 2026-09-02 07:35:05 | 2026-09-02 07:44:55 |
| BIOWL1-15 | 7 | 2026-09-02 07:08:51 | 2026-09-02 07:37:04 |
| D01LWL | 1 | 2026-09-02 07:24:25 | 2026-09-02 07:24:25 |
| GOEST3-10 | 1 | 2026-09-02 07:40:34 | 2026-09-02 07:40:34 |
| Receiver | Date | Latitude | Longitude | Direction | Speed | Altitude | Climb | Temperature | Humidity | Pressure | Voltage | Killtimer | Uptime | BKT | XDATA |
|---|---|---|---|---|---|---|---|---|---|---|---|---|---|---|---|
| DL1XH-west | 2026-09-02 08:00:19 | 56.31064 | 10.04497 | 89° | 62km/h | 5062m | -13.1m/s | -14.4°C | 92.4% | 0hPa | 2.6V | 08:14:11 | 01:42:29 | 00:00:00 | |
| DL1XH1-15 | 2026-09-02 08:00:15 | 56.31060 | 10.04222 | 90° | 60km/h | 5200m | -14.7m/s | -15.4°C | 87.2% | 0hPa | 2.6V | 08:13:01 | 01:42:19 | 00:00:00 | |
| DL1XH-west | 2026-09-02 08:00:09 | 56.31060 | 10.04222 | 91° | 60km/h | 5200m | -14.7m/s | -15.4°C | 91.2% | 0hPa | 2.6V | 08:14:11 | 01:42:19 | 00:00:00 | |
| DL1XH-west | 2026-09-02 07:59:58 | 56.31055 | 10.03920 | 90° | 60km/h | 5350m | -13.2m/s | -16.5°C | 92.7% | 0hPa | 2.5V | 08:14:11 | 01:42:08 | 00:00:00 | |
| DL1XH-west | 2026-09-02 07:59:22 | 56.31047 | 10.02940 | 89° | 57km/h | 5844m | -12.6m/s | -20.1°C | 89.7% | 0hPa | 2.5V | 08:14:11 | 01:41:32 | 00:00:00 | |
| DL1XH-west | 2026-09-02 07:59:11 | 56.31038 | 10.02648 | 87° | 58km/h | 5991m | -13m/s | -21.1°C | 89.6% | 0hPa | 2.6V | 08:14:11 | 01:41:21 | 00:00:00 | |
| DL1XH-west | 2026-09-02 07:59:01 | 56.31029 | 10.02387 | 85° | 58km/h | 6126m | -14.4m/s | -22.1°C | 89.4% | 0hPa | 2.6V | 08:14:11 | 01:41:11 | 00:00:00 | |
| DL1XH1-15 | 2026-09-02 07:59:00 | 56.31023 | 10.02205 | 84° | 57km/h | 6220m | -13.1m/s | -22.6°C | 81.8% | 0hPa | 2.6V | 08:14:16 | 01:41:04 | 00:00:00 | |
| DL1XH-west | 2026-09-02 07:58:51 | 56.31019 | 10.02126 | 86° | 57km/h | 6260m | -13.3m/s | -23°C | 85% | 0hPa | 2.6V | 08:15:02 | 01:41:01 | 00:00:00 | |
| DL1XH1-15 | 2026-09-02 07:58:49 | 56.31010 | 10.01941 | 84° | 60km/h | 6353m | -14.5m/s | -23.7°C | 79.1% | 0hPa | 2.6V | 08:14:26 | 01:40:54 | 00:00:00 | |
| DL1XH-west | 2026-09-02 07:58:41 | 56.31006 | 10.01858 | 87° | 60km/h | 6394m | -14.2m/s | -24.1°C | 84.6% | 0hPa | 2.5V | 08:15:02 | 01:40:51 | 00:00:00 | |
| DL1XH1-15 | 2026-09-02 07:58:40 | 56.30997 | 10.01666 | 85° | 62km/h | 6493m | -14.7m/s | -25°C | 79.5% | 0hPa | 2.6V | 08:14:36 | 01:40:44 | 00:00:00 | |
| DL1XH-west | 2026-09-02 07:58:31 | 56.30995 | 10.01581 | 88° | 60km/h | 6537m | -14.8m/s | -25.3°C | 78.7% | 0hPa | 2.5V | 08:15:02 | 01:40:41 | 00:00:00 | |
| DL1XH1-15 | 2026-09-02 07:58:30 | 56.30991 | 10.01385 | 87° | 62km/h | 6635m | -13.7m/s | -26.2°C | 75.7% | 0hPa | 2.5V | 08:14:46 | 01:40:34 | 00:00:00 | |
| DL1XH-west | 2026-09-02 07:58:20 | 56.30991 | 10.01273 | 89° | 60km/h | 6693m | -14.9m/s | -26.7°C | 79.1% | 0hPa | 2.6V | 08:15:02 | 01:40:30 | 00:00:00 | |
| DL1XH1-15 | 2026-09-02 07:58:14 | 56.30989 | 10.00965 | 89° | 64km/h | 6849m | -13.3m/s | -28°C | 77.8% | 0hPa | 2.5V | 08:15:01 | 01:40:19 | 00:00:00 | |
| DL1XH-west | 2026-09-02 07:58:11 | 56.30990 | 10.00994 | 90° | 64km/h | 6836m | -12.8m/s | -27.8°C | 82.2% | 0hPa | 2.6V | 08:15:02 | 01:40:20 | 00:00:00 | |
| DL1XH1-15 | 2026-09-02 07:58:04 | 56.30987 | 10.00683 | 90° | 60km/h | 6982m | -13.5m/s | -28.9°C | 78.8% | 0hPa | 2.6V | 08:15:11 | 01:40:09 | 00:00:00 | |
| AA1-15 | 2026-09-02 07:58:04 | 56.30989 | 10.00824 | 87° | 60km/h | 6917m | -13.5m/s | -28.5°C | 85.2% | 0hPa | 2.6V | 08:16:44 | 01:40:14 | 00:00:00 | |
| DL1XH-west | 2026-09-02 07:58:00 | 56.30987 | 10.00711 | 91° | 62km/h | 6969m | -13.2m/s | -28.8°C | 84.7% | 0hPa | 2.6V | 08:15:53 | 01:40:10 | 00:00:00 | |
| DL1XH1-15 | 2026-09-02 07:57:54 | 56.30984 | 10.00405 | 88° | 60km/h | 7119m | -13.8m/s | -30.1°C | 74% | 0hPa | 2.6V | 08:15:21 | 01:39:59 | 00:00:00 | |
| DL1XH-west | 2026-09-02 07:57:49 | 56.30985 | 10.00405 | 89° | 60km/h | 7119m | -13.8m/s | -30.1°C | 80.1% | 0hPa | 2.6V | 08:15:53 | 01:39:59 | 00:00:00 | |
| DL1XH1-15 | 2026-09-02 07:57:44 | 56.30977 | 10.00126 | 87° | 62km/h | 7256m | -13.6m/s | -31.4°C | 78.6% | 0hPa | 2.6V | 08:15:31 | 01:39:49 | 00:00:00 | |
| DL1XH-west | 2026-09-02 07:57:39 | 56.30977 | 10.00126 | 88° | 62km/h | 7256m | -13.6m/s | -31.4°C | 84.1% | 0hPa | 2.6V | 08:15:53 | 01:39:49 | 00:00:00 | |
| DL1XH1-15 | 2026-09-02 07:57:34 | 56.30970 | 9.99849 | 88° | 62km/h | 7397m | -14.8m/s | -32.6°C | 79% | 0hPa | 2.6V | 08:15:41 | 01:39:39 | 00:00:00 | |
| DL1XH-west | 2026-09-02 07:57:29 | 56.30970 | 9.99849 | 89° | 62km/h | 7397m | -14.8m/s | -32.6°C | 84.9% | 0hPa | 2.6V | 08:15:53 | 01:39:39 | 00:00:00 | |
| AA1-15 | 2026-09-02 07:57:25 | 56.30967 | 9.99737 | 86° | 64km/h | 7454m | -13.2m/s | -33.1°C | 85.1% | 0hPa | 2.5V | 08:16:44 | 01:39:35 | 00:00:00 | |
| DL1XH1-15 | 2026-09-02 07:57:24 | 56.30960 | 9.99560 | 85° | 64km/h | 7532m | -13m/s | -33.6°C | 76.5% | 0hPa | 2.5V | 08:15:51 | 01:39:29 | 00:00:00 | |
| DL1XH-west | 2026-09-02 07:57:19 | 56.30961 | 9.99560 | 85° | 64km/h | 7532m | -13m/s | -33.6°C | 81.1% | 0hPa | 2.5V | 08:15:53 | 01:39:29 | 00:00:00 | |
| DL1XH1-15 | 2026-09-02 07:57:14 | 56.30941 | 9.99249 | 82° | 69km/h | 7663m | -14.5m/s | -34.7°C | 75.9% | 0hPa | 2.5V | 08:16:01 | 01:39:19 | 00:00:00 | |
| DL1XH-west | 2026-09-02 07:57:08 | 56.30938 | 9.99217 | 81° | 69km/h | 7677m | -14.4m/s | -34.8°C | 81.9% | 0hPa | 2.5V | 08:16:44 | 01:39:18 | 00:00:00 | |
| DJ2DS-15 | 2026-09-02 07:57:07 | 56.30936 | 9.99186 | 81° | 58km/h | 7692m | -15.0m/s | -34.9°C | 76.4% | 0hPa | 2.5V | 00:00:00 | 01:39:17 | 00:00:00 | |
| DJ2DS-15 | 2026-09-02 07:57:05 | 56.30929 | 9.99123 | 80° | 69km/h | 7720m | -13.8m/s | -35.2°C | 72.8% | -1.0hPa | 2.5V | 00:00:00 | 00:00:00 | 00:00:00 | |
| DL1XH1-15 | 2026-09-02 07:57:04 | 56.30906 | 9.98933 | 77° | 71km/h | 7803m | -13.1m/s | -35.7°C | 73.1% | 0hPa | 2.5V | 08:16:11 | 01:39:09 | 00:00:00 | |
| DL1XH-west | 2026-09-02 07:56:58 | 56.30901 | 9.98901 | 78° | 73km/h | 7816m | -13.7m/s | -35.8°C | 77.2% | 0hPa | 2.5V | 08:16:44 | 01:39:08 | 00:00:00 | |
| DL1XH-west | 2026-09-02 07:56:47 | 56.30854 | 9.98560 | 78° | 69km/h | 7981m | -15.2m/s | -37.2°C | 79.3% | 0hPa | 2.6V | 08:16:44 | 01:38:57 | 00:00:00 | |
| DL1XH1-15 | 2026-09-02 07:56:44 | 56.30840 | 9.98442 | 77° | 66km/h | 8042m | -16m/s | -37.7°C | 72.5% | 0hPa | 2.6V | 08:16:27 | 01:38:53 | 00:00:00 | |
| DL1XH-west | 2026-09-02 07:56:37 | 56.30823 | 9.98265 | 81° | 64km/h | 8134m | -15m/s | -38.2°C | 68.5% | 0hPa | 2.6V | 08:16:44 | 01:38:47 | 00:00:00 | |
| DL1XH1-15 | 2026-09-02 07:56:34 | 56.30816 | 9.98152 | 82° | 60km/h | 8196m | -15.8m/s | -38.6°C | 57.9% | 0hPa | 2.5V | 08:16:37 | 01:38:43 | 00:00:00 | |
| DL1XH-west | 2026-09-02 07:56:26 | 56.30804 | 9.97965 | 82° | 57km/h | 8305m | -16.4m/s | -39.4°C | 61.6% | 0hPa | 2.6V | 08:16:44 | 01:38:36 | 00:00:00 | |
| DL1XH1-15 | 2026-09-02 07:56:24 | 56.30798 | 9.97888 | 82° | 58km/h | 8354m | -16.3m/s | -39.8°C | 54.3% | 0hPa | 2.5V | 08:16:47 | 01:38:33 | 00:00:00 | |
| DL1XH-west | 2026-09-02 07:56:15 | 56.30784 | 9.97690 | 84° | 53km/h | 8487m | -17.4m/s | -40.9°C | 50.1% | 0hPa | 2.5V | 08:17:35 | 01:38:25 | 00:00:00 | |
| DL1XH1-15 | 2026-09-02 07:56:14 | 56.30780 | 9.97641 | 82° | 55km/h | 8520m | -16.4m/s | -41.2°C | 41.6% | 0hPa | 2.6V | 08:16:57 | 01:38:23 | 00:00:00 | |
| DL1XH-west | 2026-09-02 07:56:05 | 56.30772 | 9.97444 | 87° | 55km/h | 8652m | -16.7m/s | -42.3°C | 55.7% | 0hPa | 2.5V | 08:17:35 | 01:38:15 | 00:00:00 | |
| DL1XH1-15 | 2026-09-02 07:56:04 | 56.30770 | 9.97392 | 87° | 58km/h | 8686m | -17.1m/s | -42.6°C | 51% | 0hPa | 2.5V | 08:17:07 | 01:38:13 | 00:00:00 | |
| AA1-15 | 2026-09-02 07:56:04 | 56.30771 | 9.97418 | 88° | 57km/h | 8669m | -17.2m/s | -42.5°C | 57% | 0hPa | 2.5V | 08:17:35 | 01:38:14 | 00:00:00 | |
| DJ2DS-15 | 2026-09-02 07:55:59 | 56.30770 | 9.97288 | 91° | 57km/h | 8755m | -16.7m/s | -43.2°C | 55.5% | 0hPa | 2.5V | 00:00:00 | 01:38:09 | 00:00:00 | |
| DL1XH1-15 | 2026-09-02 07:55:54 | 56.30771 | 9.97128 | 92° | 58km/h | 8854m | -16.9m/s | -44.1°C | 61.9% | 0hPa | 2.5V | 08:17:17 | 01:38:03 | 00:00:00 | |
| DL1XH-west | 2026-09-02 07:55:54 | 56.30771 | 9.97155 | 92° | 58km/h | 8837m | -16.8m/s | -44°C | 69.2% | 0hPa | 2.5V | 08:17:35 | 01:38:04 | 00:00:00 | |
| AA1-15 | 2026-09-02 07:55:53 | 56.30771 | 9.97129 | 93° | 58km/h | 8854m | -16.9m/s | -44.2°C | 69.8% | 0hPa | 2.5V | 08:17:35 | 01:38:03 | 00:00:00 | |
| DL1XH1-15 | 2026-09-02 07:55:44 | 56.30770 | 9.96870 | 89° | 55km/h | 9028m | -18.4m/s | -45.8°C | 69.4% | 0hPa | 2.5V | 08:17:27 | 01:37:53 | 00:00:00 | |
| DL1XH-west | 2026-09-02 07:55:43 | 56.30770 | 9.96870 | 89° | 55km/h | 9028m | -18.4m/s | -45.8°C | 78.2% | 0hPa | 2.5V | 08:17:35 | 01:37:53 | 00:00:00 | |
| AA1-15 | 2026-09-02 07:55:42 | 56.30769 | 9.96845 | 87° | 55km/h | 9045m | -17.5m/s | -46°C | 78.7% | 0hPa | 2.5V | 08:17:35 | 01:37:52 | 00:00:00 | |
| DJ2DS-15 | 2026-09-02 07:55:39 | 56.30768 | 9.96769 | 89° | 62km/h | 9097m | -17.6m/s | -46.4°C | 71.8% | 0hPa | 2.6V | 00:00:00 | 01:37:49 | 00:00:00 | |
| DL1XH1-15 | 2026-09-02 07:55:34 | 56.30767 | 9.96616 | 90° | 57km/h | 9206m | -17.7m/s | -47.4°C | 72.1% | 0hPa | 2.6V | 08:17:37 | 01:37:43 | 00:00:00 | |
| DL1XH-west | 2026-09-02 07:55:33 | 56.30767 | 9.96616 | 90° | 57km/h | 9206m | -17.7m/s | -47.4°C | 80.2% | 0hPa | 2.6V | 08:18:26 | 01:37:43 | 00:00:00 | |
| AA1-15 | 2026-09-02 07:55:31 | 56.30767 | 9.96566 | 90° | 55km/h | 9242m | -18.6m/s | -47.8°C | 81.4% | 0hPa | 2.6V | 08:18:26 | 01:37:41 | 00:00:00 | |
| DL1XH1-15 | 2026-09-02 07:55:24 | 56.30761 | 9.96369 | 84° | 57km/h | 9388m | -18.3m/s | -49.1°C | 74.4% | 0hPa | 2.5V | 08:17:47 | 01:37:33 | 00:00:00 | |
| DL1XH-west | 2026-09-02 07:55:22 | 56.30760 | 9.96343 | 87° | 55km/h | 9406m | -18.6m/s | -49.3°C | 82% | 0hPa | 2.6V | 08:18:26 | 01:37:32 | 00:00:00 | |
| AA1-15 | 2026-09-02 07:55:20 | 56.30757 | 9.96293 | 84° | 58km/h | 9445m | -19.1m/s | -49.5°C | 80.1% | 0hPa | 2.6V | 08:18:26 | 01:37:30 | 00:00:00 | |
| DJ2DS-15 | 2026-09-02 07:55:17 | 56.30754 | 9.96213 | 85° | 60km/h | 9502m | -18.7m/s | -49.9°C | 63.4% | -1.0hPa | 2.5V | 00:00:00 | 00:00:00 | 00:00:00 | |
| DL1XH1-15 | 2026-09-02 07:55:14 | 56.30748 | 9.96101 | 86° | 62km/h | 9575m | -17.8m/s | -50.3°C | 66.1% | 0hPa | 2.5V | 08:17:57 | 01:37:23 | 00:00:00 | |
| DL1XH-west | 2026-09-02 07:55:12 | 56.30747 | 9.96073 | 84° | 62km/h | 9594m | -18.6m/s | -50.5°C | 74.1% | 0hPa | 2.5V | 08:18:26 | 01:37:22 | 00:00:00 | |
| AA1-15 | 2026-09-02 07:55:09 | 56.30742 | 9.95986 | 85° | 64km/h | 9649m | -18.4m/s | -50.8°C | 73% | 0hPa | 2.6V | 08:18:26 | 01:37:19 | 00:00:00 | |
| DL1XH-west | 2026-09-02 07:55:02 | 56.30731 | 9.95774 | 85° | 68km/h | 9782m | -19.4m/s | -51.9°C | 71.2% | 0hPa | 2.5V | 08:18:26 | 01:37:12 | 00:00:00 | |
| AA1-15 | 2026-09-02 07:54:58 | 56.30726 | 9.95649 | 86° | 71km/h | 9858m | -18.4m/s | -52.5°C | 68.8% | 0hPa | 2.6V | 08:18:26 | 01:37:08 | 00:00:00 | |
| DL1XH-west | 2026-09-02 07:54:51 | 56.30720 | 9.95434 | 86° | 68km/h | 9989m | -20.6m/s | -53.7°C | 64.1% | 0hPa | 2.5V | 08:18:26 | 01:37:01 | 00:00:00 | |
| AA1-15 | 2026-09-02 07:54:47 | 56.30715 | 9.95314 | 85° | 68km/h | 10067m | -18.8m/s | -54.5°C | 60.4% | 0hPa | 2.6V | 08:18:26 | 01:36:57 | 00:00:00 | |
| DL1XH1-15 | 2026-09-02 07:54:44 | 56.30708 | 9.95199 | 85° | 64km/h | 10142m | -18.6m/s | -55.1°C | 53.1% | 0hPa | 2.6V | 08:18:27 | 01:36:53 | 00:00:00 | |
| DM0DOS-11 | 2026-09-02 07:54:42 | 56.30704 | 9.95115 | 82° | 62km/h | 10199m | -18.4m/s | -55.5°C | 50.7% | 0hPa | 2.5V | 08:18:30 | 01:36:50 | 00:00:00 | |
| DL1XH-west | 2026-09-02 07:54:41 | 56.30706 | 9.95142 | 82° | 62km/h | 10180m | -18.5m/s | -55.4°C | 53.1% | 0hPa | 2.5V | 08:19:17 | 01:36:51 | 00:00:00 | |
| AA1-15 | 2026-09-02 07:54:37 | 56.30695 | 9.95032 | 80° | 62km/h | 10255m | -18.8m/s | -55.7°C | 48.9% | 0hPa | 2.6V | 08:19:17 | 01:36:47 | 00:00:00 | |
| DL1XH1-15 | 2026-09-02 07:54:34 | 56.30682 | 9.94914 | 77° | 66km/h | 10328m | -19.8m/s | -55.9°C | 42.4% | 0hPa | 2.5V | 08:18:37 | 01:36:43 | 00:00:00 | |
| DM0DOS-11 | 2026-09-02 07:54:32 | 56.30671 | 9.94820 | 77° | 73km/h | 10384m | -18.4m/s | -56°C | 39.4% | 0hPa | 2.5V | 08:18:40 | 01:36:40 | 00:00:00 | |
| DL1XH-west | 2026-09-02 07:54:30 | 56.30671 | 9.94820 | 78° | 73km/h | 10384m | -18.4m/s | -56°C | 39.4% | 0hPa | 2.5V | 08:19:17 | 01:36:40 | 00:00:00 | |
| AA1-15 | 2026-09-02 07:54:26 | 56.30659 | 9.94687 | 83° | 77km/h | 10460m | -18.4m/s | -56.2°C | 34.9% | 0hPa | 2.6V | 08:19:17 | 01:36:36 | 00:00:00 | |
| DL1XH1-15 | 2026-09-02 07:54:24 | 56.30652 | 9.94583 | 84° | 78km/h | 10514m | -17.7m/s | -56.5°C | 32.8% | 0hPa | 2.5V | 08:18:47 | 01:36:33 | 00:00:00 | |
| DL1XH-west | 2026-09-02 07:54:19 | 56.30647 | 9.94435 | 87° | 82km/h | 10589m | -20.4m/s | -56.3°C | 24.8% | 0hPa | 2.5V | 08:19:17 | 01:36:29 | 00:00:00 | |
| AA1-15 | 2026-09-02 07:54:15 | 56.30644 | 9.94283 | 88° | 80km/h | 10668m | -20.8m/s | -56.4°C | 19.1% | 0hPa | 2.5V | 08:19:17 | 01:36:25 | 00:00:00 | |
| DM0DOS-11 | 2026-09-02 07:54:12 | 56.30642 | 9.94096 | 89° | 82km/h | 10769m | -20.1m/s | -56.1°C | 15% | 0hPa | 2.6V | 08:19:00 | 01:36:20 | 00:00:00 | |
| DL1XH-west | 2026-09-02 07:54:08 | 56.30644 | 9.94021 | 93° | 80km/h | 10809m | -20.3m/s | -56°C | 11.2% | 0hPa | 2.5V | 08:19:17 | 01:36:18 | 00:00:00 | |
| DL1XH1-15 | 2026-09-02 07:54:04 | 56.30648 | 9.93841 | 94° | 78km/h | 10908m | -18.9m/s | -55.1°C | 10.9% | 0hPa | 2.5V | 08:19:07 | 01:36:13 | 00:00:00 | |
| AA1-15 | 2026-09-02 07:54:04 | 56.30647 | 9.93877 | 94° | 80km/h | 10889m | -19m/s | -55.1°C | 8.9% | 0hPa | 2.5V | 08:19:17 | 01:36:14 | 00:00:00 | |
| DM0DOS-11 | 2026-09-02 07:54:02 | 56.30653 | 9.93731 | 96° | 82km/h | 10965m | -18.9m/s | -54.6°C | 9.7% | 0hPa | 2.6V | 08:19:10 | 01:36:10 | 00:00:00 | |
| DL1XH-west | 2026-09-02 07:53:57 | 56.30660 | 9.93625 | 94° | 77km/h | 11021m | -19.7m/s | -54°C | 6% | 0hPa | 2.5V | 08:19:17 | 01:36:07 | 00:00:00 | |
| DL1XH1-15 | 2026-09-02 07:53:54 | 56.30664 | 9.93489 | 90° | 73km/h | 11101m | -20.7m/s | -53.4°C | 7.3% | 0hPa | 2.5V | 08:19:17 | 01:36:03 | 00:00:00 | |
| AA1-15 | 2026-09-02 07:53:53 | 56.30665 | 9.93489 | 91° | 73km/h | 11101m | -20.7m/s | -53.4°C | 4.8% | 0hPa | 2.5V | 08:19:17 | 01:36:03 | 00:00:00 | |
| DL1XH-west | 2026-09-02 07:53:46 | 56.30669 | 9.93253 | 93° | 75km/h | 11242m | -19.5m/s | -52.2°C | 3.1% | 0hPa | 2.6V | 08:20:08 | 01:35:56 | 00:00:00 | |
| DL1XH1-15 | 2026-09-02 07:53:44 | 56.30674 | 9.93155 | 95° | 71km/h | 11300m | -20.6m/s | -51.4°C | 5.1% | 0hPa | 2.5V | 08:19:27 | 01:35:53 | 00:00:00 | |
| AA1-15 | 2026-09-02 07:53:42 | 56.30675 | 9.93123 | 94° | 69km/h | 11321m | -21m/s | -51.2°C | 2.5% | 0hPa | 2.5V | 08:20:08 | 01:35:52 | 00:00:00 | |
| DL1XH-west | 2026-09-02 07:53:36 | 56.30685 | 9.92946 | 95° | 64km/h | 11443m | -19m/s | -50.9°C | 2% | 0hPa | 2.5V | 08:20:08 | 01:35:46 | 00:00:00 | |
| DL1XH1-15 | 2026-09-02 07:53:34 | 56.30688 | 9.92860 | 91° | 64km/h | 11501m | -18.3m/s | -50.3°C | 4.5% | 0hPa | 2.6V | 08:19:37 | 01:35:43 | 00:00:00 | |
| AA1-15 | 2026-09-02 07:53:31 | 56.30689 | 9.92804 | 92° | 60km/h | 11539m | -19.5m/s | -50.1°C | 1.6% | 0hPa | 2.5V | 08:20:08 | 01:35:41 | 00:00:00 | |
| DL1XH-west | 2026-09-02 07:53:26 | 56.30691 | 9.92666 | 90° | 58km/h | 11636m | -18.6m/s | -49.9°C | 1.4% | 0hPa | 2.5V | 08:20:08 | 01:35:36 | 00:00:00 | |
| DL1XH1-15 | 2026-09-02 07:53:24 | 56.30690 | 9.92586 | 88° | 57km/h | 11690m | -20.4m/s | -49.9°C | 4.2% | 0hPa | 2.5V | 08:19:47 | 01:35:33 | 00:00:00 | |
| DM0DOS-11 | 2026-09-02 07:53:22 | 56.30689 | 9.92533 | 87° | 60km/h | 11731m | -20.1m/s | -49.4°C | 4% | 0hPa | 2.5V | 08:19:49 | 01:35:31 | 00:00:00 | |
| AA1-15 | 2026-09-02 07:53:21 | 56.30689 | 9.92533 | 88° | 60km/h | 11731m | -20.1m/s | -49.4°C | 1.2% | 0hPa | 2.5V | 08:20:08 | 01:35:31 | 00:00:00 | |
| DL1XH-west | 2026-09-02 07:53:15 | 56.30687 | 9.92364 | 90° | 64km/h | 11852m | -20.7m/s | -49°C | 1% | 0hPa | 2.5V | 08:20:08 | 01:35:25 | 00:00:00 | |
| DL1XH1-15 | 2026-09-02 07:53:14 | 56.30686 | 9.92307 | 87° | 62km/h | 11891m | -19.8m/s | -48.9°C | 3.8% | 0hPa | 2.6V | 08:19:57 | 01:35:23 | 00:00:00 | |
| DM0DOS-11 | 2026-09-02 07:53:12 | 56.30686 | 9.92250 | 89° | 60km/h | 11928m | -19.7m/s | -48.4°C | 3.5% | 0hPa | 2.5V | 08:19:59 | 01:35:21 | 00:00:00 | |
| AA1-15 | 2026-09-02 07:53:11 | 56.30686 | 9.92250 | 90° | 60km/h | 11928m | -19.7m/s | -48.4°C | 0.7% | 0hPa | 2.5V | 08:20:08 | 01:35:21 | 00:00:00 | |
| DL1XH1-15 | 2026-09-02 07:53:04 | 56.30688 | 9.92040 | 90° | 55km/h | 12092m | -21.7m/s | -47.7°C | 3.2% | 0hPa | 2.7V | 08:20:07 | 01:35:13 | 00:00:00 | |
| DL1XH-west | 2026-09-02 07:53:04 | 56.30688 | 9.92065 | 93° | 55km/h | 12071m | -21.1m/s | -47.8°C | 0.3% | 0hPa | 2.5V | 08:20:08 | 01:35:14 | 00:00:00 | |
| DM0DOS-11 | 2026-09-02 07:53:02 | 56.30688 | 9.91989 | 91° | 57km/h | 12133m | -19.6m/s | -47.6°C | 3.1% | 0hPa | 2.5V | 08:20:09 | 01:35:11 | 00:00:00 | |
| AA1-15 | 2026-09-02 07:53:00 | 56.30689 | 9.91963 | 93° | 55km/h | 12153m | -20.1m/s | -47.5°C | 0.2% | 0hPa | 2.5V | 08:20:59 | 01:35:10 | 00:00:00 | |
| DL1XH1-15 | 2026-09-02 07:52:54 | 56.30691 | 9.91790 | 90° | 53km/h | 12294m | -19.1m/s | -47.5°C | 3.1% | 0hPa | 2.7V | 08:20:17 | 01:35:03 | 00:00:00 | |
| DL1XH-west | 2026-09-02 07:52:53 | 56.30691 | 9.91791 | 90° | 53km/h | 12294m | -19.2m/s | -47.5°C | 0.2% | 0hPa | 2.7V | 08:20:59 | 01:35:03 | 00:00:00 | |
| DM0DOS-11 | 2026-09-02 07:52:52 | 56.30692 | 9.91742 | 92° | 53km/h | 12332m | -19.4m/s | -47.5°C | 3.1% | 0hPa | 2.5V | 08:20:19 | 01:35:01 | 00:00:00 | |
| AA1-15 | 2026-09-02 07:52:49 | 56.30694 | 9.91695 | 95° | 53km/h | 12371m | -19.4m/s | -47.6°C | 0.2% | 0hPa | 2.5V | 08:20:59 | 01:34:59 | 00:00:00 | |
| DL1XH-west | 2026-09-02 07:52:42 | 56.30705 | 9.91538 | 97° | 47km/h | 12502m | -16.9m/s | -48.4°C | 0.3% | 0hPa | 2.7V | 08:20:59 | 01:34:52 | 00:00:00 | |
| DM0DOS-11 | 2026-09-02 07:52:42 | 56.30706 | 9.91518 | 95° | 46km/h | 12519m | -18m/s | -48.4°C | 3.2% | 0hPa | 2.6V | 08:20:29 | 01:34:51 | 00:00:00 | |
| AA1-15 | 2026-09-02 07:52:38 | 56.30709 | 9.91458 | 95° | 44km/h | 12575m | -18.5m/s | -48.4°C | 0.3% | 0hPa | 2.5V | 08:20:59 | 01:34:48 | 00:00:00 | |
| DL1XH1-15 | 2026-09-02 07:52:34 | 56.30713 | 9.91358 | 87° | 44km/h | 12671m | -19.9m/s | -48°C | 3.1% | 0hPa | 2.5V | 08:20:37 | 01:34:43 | 00:00:00 | |
| DM0DOS-11 | 2026-09-02 07:52:32 | 56.30713 | 9.91317 | 88° | 46km/h | 12708m | -18.2m/s | -48°C | 3.1% | 0hPa | 2.5V | 08:20:39 | 01:34:41 | 00:00:00 | |
| DL1XH-west | 2026-09-02 07:52:31 | 56.30712 | 9.91317 | 89° | 46km/h | 12708m | -18.2m/s | -48°C | 0.2% | 0hPa | 2.5V | 08:20:59 | 01:34:41 | 00:00:00 | |
| DL1XH-15 | 2026-09-02 07:52:27 | 56.30703 | 9.91127 | 84° | 49km/h | 12871m | -17.7m/s | -48.7°C | 3.3% | 0hPa | 2.6V | 08:20:48 | 01:34:32 | 00:00:00 | |
| AA1-15 | 2026-09-02 07:52:27 | 56.30708 | 9.91237 | 86° | 47km/h | 12782m | -18.4m/s | -48.6°C | 0.2% | 0hPa | 2.5V | 08:20:59 | 01:34:37 | 00:00:00 | |
| DL1XH1-15 | 2026-09-02 07:52:24 | 56.30704 | 9.91150 | 85° | 49km/h | 12854m | -17.6m/s | -48.9°C | 3.3% | 0hPa | 2.7V | 08:20:47 | 01:34:33 | 00:00:00 | |
| DL1XH-west | 2026-09-02 07:52:21 | 56.30702 | 9.91104 | 84° | 51km/h | 12889m | -17.9m/s | -48.8°C | 0.2% | 0hPa | 2.5V | 08:20:59 | 01:34:31 | 00:00:00 | |
| DL1XH-15 | 2026-09-02 07:52:17 | 56.30700 | 9.90891 | 91° | 53km/h | 13058m | -17.8m/s | -48.7°C | 3.2% | 0hPa | 2.5V | 08:20:58 | 01:34:22 | 00:00:00 | |
| AA1-15 | 2026-09-02 07:52:16 | 56.30699 | 9.90988 | 93° | 53km/h | 12981m | -19.4m/s | -48.6°C | 0.2% | 0hPa | 2.6V | 08:20:59 | 01:34:26 | 00:00:00 | |
| DL1XH1-15 | 2026-09-02 07:52:14 | 56.30700 | 9.90916 | 91° | 55km/h | 13040m | -19.1m/s | -48.7°C | 3.2% | 0hPa | 2.5V | 08:20:57 | 01:34:23 | 00:00:00 | |
| DM0DOS-11 | 2026-09-02 07:52:12 | 56.30701 | 9.90866 | 91° | 55km/h | 13077m | -19.3m/s | -48.6°C | 3.2% | 0hPa | 2.7V | 08:20:59 | 01:34:21 | 00:00:00 | |
| DL1XH-west | 2026-09-02 07:52:10 | 56.30701 | 9.90842 | 92° | 53km/h | 13096m | -20.5m/s | -48.6°C | 0.1% | 0hPa | 2.6V | 08:21:50 | 01:34:20 | 00:00:00 | |
| DL1XH-15 | 2026-09-02 07:52:07 | 56.30709 | 9.90641 | 96° | 60km/h | 13261m | -19.9m/s | -48.3°C | 3.1% | 0hPa | 2.5V | 08:21:08 | 01:34:12 | 00:00:00 | |
| AA1-15 | 2026-09-02 07:52:05 | 56.30705 | 9.90719 | 94° | 58km/h | 13198m | -20m/s | -48.4°C | 0.1% | 0hPa | 2.7V | 08:21:50 | 01:34:15 | 00:00:00 | |
| DL1XH1-15 | 2026-09-02 07:52:04 | 56.30708 | 9.90667 | 96° | 58km/h | 13239m | -21.2m/s | -48.4°C | 3.1% | 0hPa | 2.5V | 08:21:07 | 01:34:13 | 00:00:00 | |
| DM0DOS-11 | 2026-09-02 07:52:02 | 56.30711 | 9.90614 | 97° | 58km/h | 13280m | -19.3m/s | -48.1°C | 3% | 0hPa | 2.5V | 08:21:09 | 01:34:11 | 00:00:00 | |
| DL1XH-west | 2026-09-02 07:51:59 | 56.30715 | 9.90563 | 99° | 57km/h | 13322m | -21.3m/s | -48.1°C | 0% | 0hPa | 2.7V | 08:21:50 | 01:34:09 | 00:00:00 | |
| DL1XH1-15 | 2026-09-02 07:51:54 | 56.30732 | 9.90408 | 99° | 57km/h | 13443m | -22.1m/s | -47.9°C | 3% | 0hPa | 2.6V | 08:21:17 | 01:34:03 | 00:00:00 | |
| AA1-15 | 2026-09-02 07:51:54 | 56.30729 | 9.90434 | 99° | 58km/h | 13422m | -21.1m/s | -48°C | 0% | 0hPa | 2.7V | 08:21:50 | 01:34:04 | 00:00:00 | |
| DM0DOS-11 | 2026-09-02 07:51:52 | 56.30736 | 9.90357 | 100° | 58km/h | 13487m | -21.1m/s | -48.1°C | 3.1% | 0hPa | 2.5V | 08:21:19 | 01:34:01 | 00:00:00 | |
| DL1XH-west | 2026-09-02 07:51:49 | 56.30742 | 9.90305 | 100° | 58km/h | 13528m | -20.6m/s | -48.2°C | 0.1% | 0hPa | 2.6V | 08:21:50 | 01:33:59 | 00:00:00 | |
| AA1-15 | 2026-09-02 07:51:43 | 56.30751 | 9.90146 | 97° | 60km/h | 13652m | -18.3m/s | -48.7°C | 0.1% | 0hPa | 2.6V | 08:21:50 | 01:33:53 | 00:00:00 | |
| DM0DOS-11 | 2026-09-02 07:51:42 | 56.30754 | 9.90092 | 96° | 57km/h | 13690m | -20.4m/s | -48.5°C | 3.2% | 0hPa | 2.5V | 08:21:29 | 01:33:51 | 00:00:00 | |
| DL1XH-west | 2026-09-02 07:51:38 | 56.30760 | 9.90015 | 97° | 55km/h | 13754m | -21.3m/s | -47.5°C | 0% | 0hPa | 2.7V | 08:21:50 | 01:33:48 | 00:00:00 | |
| DL1XH1-15 | 2026-09-02 07:51:34 | 56.30773 | 9.89896 | 105° | 51km/h | 13855m | -19.9m/s | -47°C | 2.8% | 0hPa | 2.5V | 08:21:37 | 01:33:43 | 00:00:00 | |
| AA1-15 | 2026-09-02 07:51:32 | 56.30776 | 9.89873 | 103° | 53km/h | 13875m | -20.8m/s | -47°C | 0% | 0hPa | 2.5V | 08:21:50 | 01:33:42 | 00:00:00 | |
| DM0DOS-11 | 2026-09-02 07:51:32 | 56.30779 | 9.89850 | 105° | 51km/h | 13895m | -20.1m/s | -47°C | 2.9% | 0hPa | 2.5V | 08:21:39 | 01:33:41 | 00:00:00 | |
| DL1XH-west | 2026-09-02 07:51:27 | 56.30790 | 9.89759 | 101° | 51km/h | 13975m | -21.5m/s | -47.1°C | 0% | 0hPa | 2.5V | 08:21:50 | 01:33:37 | 00:00:00 | |
| DL1XH1-15 | 2026-09-02 07:51:24 | 56.30795 | 9.89668 | 90° | 51km/h | 14060m | -20.9m/s | -47.1°C | 2.8% | 0hPa | 2.7V | 08:21:47 | 01:33:33 | 00:00:00 | |
| AA1-15 | 2026-09-02 07:51:21 | 56.30795 | 9.89622 | 89° | 51km/h | 14104m | -21.6m/s | -47.4°C | 0% | 0hPa | 2.5V | 08:21:50 | 01:33:31 | 00:00:00 | |
| DL1XH-15 | 2026-09-02 07:51:19 | 56.30796 | 9.89512 | 92° | 46km/h | 14211m | -21.6m/s | -47°C | 2.8% | 0hPa | 2.5V | 08:21:54 | 01:33:26 | 00:00:00 | |
| DL1XH-west | 2026-09-02 07:51:16 | 56.30796 | 9.89512 | 93° | 46km/h | 14211m | -21.6m/s | -47.1°C | 0% | 0hPa | 2.5V | 08:22:41 | 01:33:26 | 00:00:00 | |
| DL1XH1-15 | 2026-09-02 07:51:14 | 56.30799 | 9.89450 | 100° | 44km/h | 14276m | -21.4m/s | -47.1°C | 2.9% | 0hPa | 2.6V | 08:21:57 | 01:33:23 | 00:00:00 | |
| DO2SHX-10 | 2026-09-02 07:51:14 | 56.30797 | 9.89470 | 99° | 46km/h | 14254m | -21.3m/s | -47.1°C | 2.8% | 0hPa | 2.7V | 08:21:00 | 01:33:24 | 00:00:00 | |
| DM0DOS-11 | 2026-09-02 07:51:12 | 56.30802 | 9.89410 | 97° | 42km/h | 14320m | -23.2m/s | -47.3°C | 2.9% | 0hPa | 2.5V | 08:21:59 | 01:33:21 | 00:00:00 | |
| AA1-15 | 2026-09-02 07:51:11 | 56.30802 | 9.89410 | 97° | 42km/h | 14320m | -23.2m/s | -47.3°C | 0% | 0hPa | 2.5V | 08:22:41 | 01:33:21 | 00:00:00 | |
| DL1XH-west | 2026-09-02 07:51:05 | 56.30809 | 9.89286 | 94° | 47km/h | 14448m | -22.7m/s | -47.1°C | 0% | 0hPa | 2.7V | 08:22:41 | 01:33:15 | 00:00:00 | |
| DO2SHX-10 | 2026-09-02 07:51:05 | 56.30809 | 9.89286 | 94° | 49km/h | 14448m | -22.6m/s | -47.1°C | 2.8% | 0hPa | 2.5V | 00:00:00 | 01:33:15 | 00:00:00 | |
| DL1XH1-15 | 2026-09-02 07:51:04 | 56.30810 | 9.89241 | 91° | 51km/h | 14493m | -23.5m/s | -47.4°C | 2.8% | 0hPa | 2.5V | 08:22:07 | 01:33:13 | 00:00:00 | |
| DM0DOS-11 | 2026-09-02 07:51:02 | 56.30811 | 9.89194 | 91° | 55km/h | 14539m | -24.3m/s | -47.5°C | 2.8% | 0hPa | 2.5V | 08:22:09 | 01:33:11 | 00:00:00 | |
| AA1-15 | 2026-09-02 07:51:01 | 56.30811 | 9.89194 | 91° | 55km/h | 14539m | -24.3m/s | -47.5°C | 0% | 0hPa | 2.5V | 08:22:41 | 01:33:11 | 00:00:00 | |
| DL1XH-15 | 2026-09-02 07:50:59 | 56.30812 | 9.89075 | 90° | 51km/h | 14660m | -22.6m/s | -47.4°C | 2.9% | 0hPa | 2.5V | 08:22:14 | 01:33:06 | 00:00:00 | |
| DO2SHX-10 | 2026-09-02 07:50:59 | 56.30811 | 9.89145 | 90° | 53km/h | 14588m | -24.3m/s | -47.6°C | 2.9% | 0hPa | 2.7V | 00:00:00 | 01:33:09 | 00:00:00 | |
| DL1XH1-15 | 2026-09-02 07:50:55 | 56.30814 | 9.89008 | 96° | 47km/h | 14731m | -24.8m/s | -47°C | 2.7% | 0hPa | 2.7V | 08:22:17 | 01:33:03 | 00:00:00 | |
| DL1XH-west | 2026-09-02 07:50:54 | 56.30813 | 9.89030 | 95° | 49km/h | 14706m | -25.4m/s | -47°C | 0% | 0hPa | 2.7V | 08:22:41 | 01:33:04 | 00:00:00 | |
| DM0DOS-11 | 2026-09-02 07:50:52 | 56.30817 | 9.88964 | 98° | 49km/h | 14780m | -25.1m/s | -47.3°C | 2.8% | 0hPa | 2.5V | 08:22:19 | 01:33:01 | 00:00:00 | |
| AA1-15 | 2026-09-02 07:50:50 | 56.30820 | 9.88942 | 103° | 51km/h | 14804m | -23.4m/s | -47.4°C | 0% | 0hPa | 2.5V | 08:22:41 | 01:33:00 | 00:00:00 | |
| DO2SHX-10 | 2026-09-02 07:50:49 | 56.30822 | 9.88920 | 105° | 49km/h | 14828m | -22.7m/s | -47.6°C | 2.8% | 0hPa | 2.5V | 00:00:00 | 01:32:59 | 00:00:00 | |
| DO2SHX-10 | 2026-09-02 07:50:45 | 56.30835 | 9.88836 | 108° | 46km/h | 14920m | -23.1m/s | -48.0°C | 3.0% | 0hPa | 2.5V | 00:00:00 | 01:32:55 | 00:00:00 | |
| DL1XH1-15 | 2026-09-02 07:50:44 | 56.30842 | 9.88798 | 108° | 46km/h | 14968m | -23.9m/s | -47.8°C | 2.9% | 0hPa | 2.5V | 08:22:27 | 01:32:53 | 00:00:00 | |
| DL1XH-west | 2026-09-02 07:50:43 | 56.30842 | 9.88798 | 109° | 46km/h | 14968m | -24m/s | -47.8°C | 0% | 0hPa | 2.5V | 08:22:41 | 01:32:53 | 00:00:00 | |
| DM0DOS-11 | 2026-09-02 07:50:42 | 56.30849 | 9.88760 | 108° | 46km/h | 15017m | -24.2m/s | -47.8°C | 2.9% | 0hPa | 2.7V | 08:22:29 | 01:32:51 | 00:00:00 | |
| DJ2DS-15 | 2026-09-02 07:50:42 | 56.30845 | 9.88779 | 109° | 44km/h | 14992m | -24.0m/s | -47.7°C | 2.9% | 0hPa | 2.7V | 00:00:00 | 01:32:52 | 00:00:00 | |
| DO2SHX-10 | 2026-09-02 07:50:40 | 56.30852 | 9.88740 | 108° | 44km/h | 15042m | -24.9m/s | -47.8°C | 2.9% | 0hPa | 2.7V | 08:22:00 | 01:32:50 | 00:00:00 | |
| DL1XH-15 | 2026-09-02 07:50:39 | 56.30862 | 9.88682 | 106° | 42km/h | 15116m | -24.7m/s | -48.1°C | 3% | 0hPa | 2.5V | 08:22:33 | 01:32:47 | 00:00:00 | |
| AA1-15 | 2026-09-02 07:50:39 | 56.30856 | 9.88720 | 105° | 46km/h | 15067m | -25.7m/s | -47.9°C | 0% | 0hPa | 2.7V | 08:22:41 | 01:32:49 | 00:00:00 | |
| DO2SHX-10 | 2026-09-02 07:50:36 | 56.30865 | 9.88663 | 104° | 46km/h | 15140m | -23.0m/s | -48.1°C | 2.9% | 0hPa | 2.7V | 00:00:00 | 01:32:46 | 00:00:00 | |
| DL1XH1-15 | 2026-09-02 07:50:34 | 56.30879 | 9.88543 | 98° | 44km/h | 15283m | -22.4m/s | -48.6°C | 3.1% | 0hPa | 2.7V | 08:22:40 | 01:32:40 | 00:00:00 | |
| DO2SHX-10 | 2026-09-02 07:50:33 | 56.30872 | 9.88603 | 102° | 44km/h | 15214m | -24.5m/s | -48.4°C | 3.0% | 0hPa | 2.5V | 00:00:00 | 01:32:43 | 00:00:00 | |
| DM0DOS-11 | 2026-09-02 07:50:32 | 56.30877 | 9.88562 | 102° | 44km/h | 15261m | -23.9m/s | -48.6°C | 3.1% | 0hPa | 2.5V | 08:22:39 | 01:32:41 | 00:00:00 | |
| DL1XH-west | 2026-09-02 07:50:32 | 56.30874 | 9.88583 | 102° | 47km/h | 15238m | -24.9m/s | -48.5°C | 0% | 0hPa | 2.5V | 08:22:41 | 01:32:42 | 00:00:00 | |
| DL1XH-15 | 2026-09-02 07:50:29 | 56.30883 | 9.88487 | 97° | 42km/h | 15356m | -23.2m/s | -48.5°C | 3% | 0hPa | 2.5V | 08:22:43 | 01:32:37 | 00:00:00 | |
| AA1-15 | 2026-09-02 07:50:28 | 56.30882 | 9.88506 | 100° | 42km/h | 15333m | -24.9m/s | -48.5°C | 0.1% | 0hPa | 2.7V | 08:23:32 | 01:32:38 | 00:00:00 | |
| DL1XH-west | 2026-09-02 07:50:22 | 56.30890 | 9.88393 | 97° | 44km/h | 15472m | -23.7m/s | -48.9°C | 0.1% | 0hPa | 2.7V | 08:24:23 | 01:32:32 | 00:00:00 | |
| DJ2DS-15 | 2026-09-02 07:50:22 | 56.30890 | 9.88393 | 97° | 35km/h | 15472m | -23.6m/s | -48.8°C | 3.1% | 0hPa | 2.7V | 00:00:00 | 01:32:32 | 00:00:00 | |
| DO2SHX-10 | 2026-09-02 07:50:20 | 56.30893 | 9.88355 | 100° | 42km/h | 15522m | -25.7m/s | -48.4°C | 3.0% | 0hPa | 2.7V | 00:00:00 | 01:32:30 | 00:00:00 | |
| DL1XH-15 | 2026-09-02 07:50:19 | 56.30899 | 9.88302 | 102° | 40km/h | 15599m | -26.5m/s | -48.1°C | 2.9% | 0hPa | 2.7V | 08:22:53 | 01:32:27 | 00:00:00 | |
| AA1-15 | 2026-09-02 07:50:17 | 56.30899 | 9.88302 | 102° | 40km/h | 15599m | -26.5m/s | -48.1°C | 0% | 0hPa | 2.7V | 08:23:32 | 01:32:27 | 00:00:00 | |
| DO2SHX-10 | 2026-09-02 07:50:16 | 56.30901 | 9.88284 | 106° | 38km/h | 15625m | -26.2m/s | -48.2°C | 3.0% | 0hPa | 2.5V | 00:00:00 | 01:32:26 | 00:00:00 | |
| DO2SHX-10 | 2026-09-02 07:50:11 | 56.30913 | 9.88208 | 103° | 33km/h | 15758m | -26.0m/s | -48.9°C | 3.1% | 0hPa | 2.7V | 00:00:00 | 01:32:21 | 00:00:00 | |
| DL1XH-15 | 2026-09-02 07:50:09 | 56.30920 | 9.88153 | 100° | 31km/h | 15858m | -24.8m/s | -48.9°C | 3.1% | 0hPa | 2.7V | 08:23:03 | 01:32:17 | 00:00:00 | |
| AA1-15 | 2026-09-02 07:50:06 | 56.30921 | 9.88139 | 98° | 31km/h | 15883m | -25.5m/s | -49°C | 0% | 0hPa | 2.7V | 08:23:32 | 01:32:16 | 00:00:00 | |
| DL1XH-west | 2026-09-02 07:50:05 | 56.30922 | 9.88125 | 98° | 29km/h | 15909m | -26.1m/s | -49.1°C | 0% | 0hPa | 2.7V | 08:24:23 | 01:32:15 | 00:00:00 | |
| DO2SHX-10 | 2026-09-02 07:50:04 | 56.30923 | 9.88111 | 98° | 31km/h | 15935m | -26.6m/s | -49.2°C | 3.1% | 0hPa | 2.5V | 08:23:00 | 01:32:14 | 00:00:00 | |
| DJ2DS-15 | 2026-09-02 07:50:02 | 56.30925 | 9.88083 | 93° | 27km/h | 15989m | -26.1m/s | -49.4°C | 3.2% | 0hPa | 2.5V | 00:00:00 | 01:32:12 | 00:00:00 | |
| DO2SHX-10 | 2026-09-02 07:50:01 | 56.30925 | 9.88069 | 95° | 31km/h | 16015m | -26.2m/s | -49.1°C | 3.1% | 0hPa | 2.5V | 00:00:00 | 01:32:11 | 00:00:00 | |
| DL1XH-15 | 2026-09-02 07:49:59 | 56.30931 | 9.88016 | 101° | 27km/h | 16121m | -26.6m/s | -49.1°C | 3.1% | 0hPa | 2.5V | 08:23:13 | 01:32:07 | 00:00:00 | |
| AA1-15 | 2026-09-02 07:49:55 | 56.30934 | 9.87992 | 103° | 26km/h | 16175m | -27.4m/s | -49.3°C | 0% | 0hPa | 2.7V | 08:23:32 | 01:32:05 | 00:00:00 | |
| DL1XH-west | 2026-09-02 07:49:54 | 56.30936 | 9.87980 | 100° | 27km/h | 16201m | -25.1m/s | -49.4°C | 0.1% | 0hPa | 2.7V | 08:24:23 | 01:32:04 | 00:00:00 | |
| DL1XH1-15 | 2026-09-02 07:49:53 | 56.30945 | 9.87909 | 98° | 26km/h | 16356m | -26.2m/s | -49.6°C | 3.2% | 0hPa | 2.7V | 08:23:22 | 01:31:58 | 00:00:00 | |
| DJ2DS-15 | 2026-09-02 07:49:53 | 56.30939 | 9.87956 | 103° | 27km/h | 16253m | -25.7m/s | -49.6°C | 1.0% | -1.0hPa | 2.5V | 00:00:00 | 00:00:00 | 00:00:00 | |
| DM0DOS-11 | 2026-09-02 07:49:52 | 56.30941 | 9.87944 | 108° | 26km/h | 16279m | -25.2m/s | -49.7°C | 3.2% | 0hPa | 2.5V | 08:23:19 | 01:32:01 | 00:00:00 | |
| DO2SHX-10 | 2026-09-02 07:49:52 | 56.30939 | 9.87956 | 104° | 27km/h | 16253m | -25.6m/s | -49.6°C | 3.2% | 0hPa | 2.7V | 00:00:00 | 01:32:02 | 00:00:00 | |
| DO2SHX-10 | 2026-09-02 07:49:49 | 56.30944 | 9.87921 | 105° | 27km/h | 16330m | -26.2m/s | -49.5°C | 3.2% | 0hPa | 2.7V | 00:00:00 | 01:31:59 | 00:00:00 | |
| DL1XH-15 | 2026-09-02 07:49:48 | 56.30950 | 9.87845 | 93° | 29km/h | 16486m | -26.1m/s | -49°C | 3.1% | 0hPa | 2.7V | 08:23:27 | 01:31:53 | 00:00:00 | |
| AA1-15 | 2026-09-02 07:49:45 | 56.30948 | 9.87872 | 98° | 29km/h | 16436m | -25.3m/s | -49.3°C | 0% | 0hPa | 2.5V | 08:23:32 | 01:31:55 | 00:00:00 | |
| DL1XH-west | 2026-09-02 07:49:44 | 56.30949 | 9.87858 | 95° | 31km/h | 16461m | -24.8m/s | -49.1°C | 0% | 0hPa | 2.7V | 08:24:23 | 01:31:54 | 00:00:00 | |
| DO2SHX-10 | 2026-09-02 07:49:43 | 56.30950 | 9.87845 | 94° | 31km/h | 16487m | -26.0m/s | -48.9°C | 3.1% | 0hPa | 2.5V | 00:00:00 | 01:31:53 | 00:00:00 | |
| DM0DOS-11 | 2026-09-02 07:49:42 | 56.30951 | 9.87816 | 95° | 31km/h | 16537m | -25.3m/s | -49°C | 3% | 0hPa | 2.5V | 08:23:29 | 01:31:51 | 00:00:00 | |
| DJ2DS-15 | 2026-09-02 07:49:42 | 56.30950 | 9.87831 | 92° | 38km/h | 16512m | -25.0m/s | -48.9°C | 3.0% | 0hPa | 2.7V | 00:00:00 | 01:31:52 | 00:00:00 | |
| DO2SHX-10 | 2026-09-02 07:49:40 | 56.30951 | 9.87802 | 92° | 33km/h | 16562m | -24.7m/s | -48.8°C | 3.0% | 0hPa | 2.7V | 00:00:00 | 01:31:50 | 00:00:00 | |
| DL1XH-15 | 2026-09-02 07:49:38 | 56.30944 | 9.87691 | 80° | 40km/h | 16730m | -22.3m/s | -49.1°C | 3.2% | 0hPa | 2.7V | 08:23:37 | 01:31:43 | 00:00:00 | |
| AA1-15 | 2026-09-02 07:49:34 | 56.30945 | 9.87709 | 80° | 38km/h | 16708m | -22.7m/s | -49°C | 0% | 0hPa | 2.5V | 08:24:23 | 01:31:44 | 00:00:00 | |
| DL1XH-west | 2026-09-02 07:49:33 | 56.30944 | 9.87691 | 80° | 40km/h | 16730m | -22.3m/s | -49.1°C | 0% | 0hPa | 2.7V | 08:24:23 | 01:31:43 | 00:00:00 | |
| DM0DOS-11 | 2026-09-02 07:49:32 | 56.30940 | 9.87655 | 81° | 42km/h | 16775m | -23.3m/s | -49.1°C | 3.2% | 0hPa | 2.7V | 08:23:39 | 01:31:41 | 00:00:00 | |
| DO2SHX-10 | 2026-09-02 07:49:31 | 56.30940 | 9.87655 | 82° | 42km/h | 16776m | -23.2m/s | -49.1°C | 3.2% | 0hPa | 2.5V | 00:00:00 | 01:31:41 | 00:00:00 | |
| DL1XH1-15 | 2026-09-02 07:49:30 | 56.30935 | 9.87542 | 87° | 40km/h | 16928m | -25.8m/s | -49.2°C | 3.2% | 0hPa | 2.5V | 08:23:45 | 01:31:35 | 00:00:00 | |
| DL1XH-15 | 2026-09-02 07:49:28 | 56.30935 | 9.87506 | 94° | 40km/h | 16980m | -27.5m/s | -49.1°C | 3.1% | 0hPa | 2.7V | 08:23:47 | 01:31:33 | 00:00:00 | |
| DL1XH-west | 2026-09-02 07:49:23 | 56.30935 | 9.87506 | 94° | 40km/h | 16980m | -27.5m/s | -49.1°C | 0% | 0hPa | 2.7V | 08:24:23 | 01:31:33 | 00:00:00 | |
| DM0DOS-11 | 2026-09-02 07:49:22 | 56.30936 | 9.87468 | 90° | 40km/h | 17037m | -27.9m/s | -49.3°C | 3.2% | 0hPa | 2.5V | 08:23:49 | 01:31:31 | 00:00:00 | |
| DO2SHX-10 | 2026-09-02 07:49:22 | 56.30935 | 9.87487 | 91° | 42km/h | 17009m | -28.8m/s | -49.2°C | 3.2% | 0hPa | 2.5V | 00:00:00 | 01:31:32 | 00:00:00 | |
| DO2SHX-10 | 2026-09-02 07:49:19 | 56.30936 | 9.87431 | 91° | 44km/h | 17090m | -24.8m/s | -49.3°C | 3.3% | 0hPa | 2.5V | 00:00:00 | 01:31:29 | 00:00:00 | |
| DJ2DS-15 | 2026-09-02 07:49:17 | 56.30938 | 9.87373 | 92° | 42km/h | 17163m | -24.1m/s | -48.8°C | 0.9% | -1.0hPa | 2.7V | 00:00:00 | 00:00:00 | 00:00:00 | |
| DO2SHX-10 | 2026-09-02 07:49:16 | 56.30938 | 9.87373 | 93° | 40km/h | 17163m | -24.0m/s | -48.7°C | 3.1% | 0hPa | 2.7V | 00:00:00 | 01:31:26 | 00:00:00 | |
| DL1XH1-15 | 2026-09-02 07:49:14 | 56.30940 | 9.87302 | 95° | 38km/h | 17264m | -26m/s | -48.3°C | 3% | 0hPa | 2.7V | 08:23:58 | 01:31:22 | 00:00:00 | |
| DO2SHX-10 | 2026-09-02 07:49:13 | 56.30939 | 9.87319 | 92° | 38km/h | 17239m | -25.5m/s | -48.1°C | 2.9% | 0hPa | 2.7V | 00:00:00 | 01:31:23 | 00:00:00 | |
| DM0DOS-11 | 2026-09-02 07:49:12 | 56.30941 | 9.87284 | 92° | 37km/h | 17289m | -24.4m/s | -48.2°C | 3% | 0hPa | 2.7V | 08:23:59 | 01:31:21 | 00:00:00 | |
| AA1-15 | 2026-09-02 07:49:12 | 56.30940 | 9.87302 | 95° | 40km/h | 17264m | -26m/s | -48.3°C | 0% | 0hPa | 2.7V | 08:24:23 | 01:31:22 | 00:00:00 | |
| DL1XH-west | 2026-09-02 07:49:10 | 56.30941 | 9.87268 | 94° | 37km/h | 17313m | -23.6m/s | -48.2°C | 0% | 0hPa | 2.7V | 08:24:23 | 01:31:20 | 00:00:00 | |
| DO2SHX-10 | 2026-09-02 07:49:10 | 56.30941 | 9.87268 | 94° | 35km/h | 17313m | -23.5m/s | -48.1°C | 2.9% | 0hPa | 2.7V | 08:24:00 | 01:31:20 | 00:00:00 | |
| DL1XH-15 | 2026-09-02 07:49:09 | 56.30944 | 9.87223 | 97° | 31km/h | 17384m | -23.9m/s | -48.3°C | 2.9% | 0hPa | 2.6V | 08:24:03 | 01:31:17 | 00:00:00 | |
| DO2SHX-10 | 2026-09-02 07:49:07 | 56.30944 | 9.87223 | 98° | 29km/h | 17384m | -23.9m/s | -48.2°C | 2.9% | 0hPa | 2.6V | 00:00:00 | 01:31:17 | 00:00:00 | |
| DL1XH1-15 | 2026-09-02 07:49:04 | 56.30952 | 9.87160 | 104° | 27km/h | 17512m | -24.6m/s | -47.4°C | 2.8% | 0hPa | 2.6V | 08:24:08 | 01:31:12 | 00:00:00 | |
| DO2SHX-10 | 2026-09-02 07:49:04 | 56.30948 | 9.87185 | 102° | 27km/h | 17463m | -26.1m/s | -48.0°C | 3.0% | 0hPa | 2.7V | 00:00:00 | 01:31:14 | 00:00:00 | |
| DM0DOS-11 | 2026-09-02 07:49:02 | 56.30954 | 9.87149 | 109° | 24km/h | 17538m | -27.1m/s | -47.5°C | 2.8% | 0hPa | 2.7V | 08:24:09 | 01:31:11 | 00:00:00 | |
| AA1-15 | 2026-09-02 07:49:01 | 56.30954 | 9.87149 | 110° | 24km/h | 17538m | -27.1m/s | -47.5°C | 0% | 0hPa | 2.7V | 08:24:23 | 01:31:11 | 00:00:00 | |
| DL1XH-west | 2026-09-02 07:49:00 | 56.30956 | 9.87138 | 105° | 26km/h | 17566m | -28m/s | -47.7°C | 0% | 0hPa | 2.7V | 08:24:23 | 01:31:10 | 00:00:00 | |
| DL1XH-15 | 2026-09-02 07:48:59 | 56.30962 | 9.87097 | 99° | 20km/h | 17679m | -26.7m/s | -48.4°C | 2.9% | 0hPa | 2.6V | 08:24:14 | 01:31:06 | 00:00:00 | |
| DO2SHX-10 | 2026-09-02 07:48:58 | 56.30959 | 9.87117 | 105° | 22km/h | 17623m | -29.0m/s | -48.1°C | 2.9% | 0hPa | 2.5V | 00:00:00 | 01:31:08 | 00:00:00 | |
| DO2SHX-10 | 2026-09-02 07:48:55 | 56.30962 | 9.87088 | 102° | 22km/h | 17705m | -24.3m/s | -48.5°C | 2.9% | 0hPa | 2.5V | 00:00:00 | 01:31:05 | 00:00:00 | |
| DL1XH1-15 | 2026-09-02 07:48:54 | 56.30963 | 9.87057 | 92° | 22km/h | 17780m | -25.8m/s | -48.9°C | 3.1% | 0hPa | 2.5V | 08:24:18 | 01:31:02 | 00:00:00 | |
| DM0DOS-11 | 2026-09-02 07:48:52 | 56.30963 | 9.87047 | 85° | 22km/h | 17804m | -24.1m/s | -48.6°C | 3% | 0hPa | 2.5V | 08:24:19 | 01:31:01 | 00:00:00 | |
| AA1-15 | 2026-09-02 07:48:50 | 56.30963 | 9.87036 | 88° | 26km/h | 17827m | -21.8m/s | -48.4°C | 0% | 0hPa | 2.6V | 08:24:23 | 01:31:00 | 00:00:00 | |
| DL1XH-15 | 2026-09-02 07:48:49 | 56.30963 | 9.86989 | 90° | 26km/h | 17919m | -24.2m/s | -48.6°C | 3% | 0hPa | 2.6V | 08:24:24 | 01:30:56 | 00:00:00 | |
| DL1XH-west | 2026-09-02 07:48:49 | 56.30963 | 9.87024 | 88° | 26km/h | 17848m | -23.2m/s | -48.5°C | 0% | 0hPa | 2.7V | 08:24:23 | 01:30:59 | 00:00:00 | |
| DO2SHX-10 | 2026-09-02 07:48:49 | 56.30963 | 9.87024 | 89° | 26km/h | 17849m | -23.1m/s | -48.5°C | 3.0% | 0hPa | 2.6V | 00:00:00 | 01:30:59 | 00:00:00 | |
| DO2SHX-10 | 2026-09-02 07:48:46 | 56.30963 | 9.86988 | 91° | 26km/h | 17919m | -24.2m/s | -48.5°C | 3.0% | 0hPa | 2.6V | 00:00:00 | 01:30:56 | 00:00:00 | |
| DL1XH1-15 | 2026-09-02 07:48:44 | 56.30966 | 9.86941 | 91° | 26km/h | 18013m | -23.6m/s | -48.7°C | 3% | 0hPa | 2.6V | 08:24:28 | 01:30:52 | 00:00:00 | |
| DO2SHX-10 | 2026-09-02 07:48:43 | 56.30965 | 9.86953 | 94° | 26km/h | 17990m | -24.4m/s | -48.6°C | 3.0% | 0hPa | 2.5V | 08:24:00 | 01:30:53 | 00:00:00 | |
| DM0DOS-11 | 2026-09-02 07:48:42 | 56.30966 | 9.86929 | 92° | 27km/h | 18036m | -22.3m/s | -48.6°C | 3% | 0hPa | 2.6V | 08:24:29 | 01:30:51 | 00:00:00 | |
| AA1-15 | 2026-09-02 07:48:39 | 56.30967 | 9.86903 | 90° | 27km/h | 18085m | -26.2m/s | -48.6°C | 0% | 0hPa | 2.7V | 08:25:14 | 01:30:49 | 00:00:00 | |
| DL1XH-west | 2026-09-02 07:48:38 | 56.30967 | 9.86891 | 89° | 27km/h | 18111m | -27.3m/s | -48.6°C | 0% | 0hPa | 2.7V | 08:25:14 | 01:30:48 | 00:00:00 | |
| DO2SHX-10 | 2026-09-02 07:48:37 | 56.30967 | 9.86878 | 92° | 29km/h | 18138m | -26.4m/s | -48.4°C | 3.0% | 0hPa | 2.7V | 00:00:00 | 01:30:47 | 00:00:00 | |
| DL1XH1-15 | 2026-09-02 07:48:34 | 56.30963 | 9.86812 | 79° | 29km/h | 18264m | -23.4m/s | -49.1°C | 3% | 0hPa | 2.7V | 08:24:38 | 01:30:42 | 00:00:00 | |
| DJ2DS-15 | 2026-09-02 07:48:34 | 56.30966 | 9.86839 | 82° | 29km/h | 18215m | -25.6m/s | -48.7°C | 3.0% | 0hPa | 2.7V | 08:24:00 | 01:30:44 | 00:00:00 | |
| DO2SHX-10 | 2026-09-02 07:48:33 | 56.30964 | 9.86825 | 83° | 29km/h | 18240m | -24.5m/s | -48.9°C | 3.0% | 0hPa | 2.7V | 00:00:00 | 01:30:43 | 00:00:00 | |
| DM0DOS-11 | 2026-09-02 07:48:32 | 56.30962 | 9.86799 | 79° | 29km/h | 18288m | -24m/s | -49.2°C | 3.1% | 0hPa | 2.5V | 08:24:39 | 01:30:41 | 00:00:00 | |
| DL1XH-west | 2026-09-02 07:48:28 | 56.30958 | 9.86760 | 85° | 29km/h | 18361m | -23.5m/s | -49.5°C | 0.1% | 0hPa | 2.7V | 08:25:14 | 01:30:38 | 00:00:00 | |
| DO2SHX-10 | 2026-09-02 07:48:27 | 56.30957 | 9.86747 | 84° | 27km/h | 18386m | -24.9m/s | -49.4°C | 3.2% | 0hPa | 2.7V | 00:00:00 | 01:30:37 | 00:00:00 | |
| DO2SHX-10 | 2026-09-02 07:48:24 | 56.30955 | 9.86711 | 79° | 26km/h | 18457m | -23.9m/s | -49.6°C | 3.2% | 0hPa | 2.7V | 00:00:00 | 01:30:34 | 00:00:00 | |
| DM0DOS-11 | 2026-09-02 07:48:22 | 56.30951 | 9.86676 | 66° | 26km/h | 18528m | -24m/s | -49.6°C | 3.2% | 0hPa | 2.5V | 08:24:49 | 01:30:31 | 00:00:00 | |
| DL1XH-west | 2026-09-02 07:48:17 | 56.30938 | 9.86634 | 58° | 27km/h | 18622m | -24.5m/s | -49.5°C | 0.1% | 0hPa | 2.7V | 08:25:14 | 01:30:27 | 00:00:00 | |
| AA1-15 | 2026-09-02 07:48:14 | 56.30927 | 9.86601 | 63° | 29km/h | 18693m | -22.8m/s | -49.6°C | 0.1% | 0hPa | 2.6V | 08:25:14 | 01:30:24 | 00:00:00 | |
| DL1XH1-15 | 2026-09-02 07:48:14 | 56.30921 | 9.86578 | 66° | 29km/h | 18736m | -21.8m/s | -49.9°C | 3.3% | 0hPa | 2.7V | 08:24:58 | 01:30:22 | 00:00:00 | |
| DO2SHX-10 | 2026-09-02 07:48:12 | 56.30921 | 9.86578 | 67° | 29km/h | 18736m | -21.8m/s | -49.8°C | 3.3% | 0hPa | 2.7V | 00:00:00 | 01:30:22 | 00:00:00 | |
| DL1XH-15 | 2026-09-02 07:48:09 | 56.30912 | 9.86511 | 85° | 31km/h | 18851m | -22.9m/s | -49°C | 3.1% | 0hPa | 2.7V | 08:25:03 | 01:30:17 | 00:00:00 | |
| DL1XH-west | 2026-09-02 07:48:06 | 56.30912 | 9.86496 | 85° | 31km/h | 18874m | -24m/s | -49.1°C | 0% | 0hPa | 2.7V | 08:25:14 | 01:30:16 | 00:00:00 | |
| DJ2DS-15 | 2026-09-02 07:48:05 | 56.30910 | 9.86469 | 84° | 31km/h | 18921m | -22.7m/s | -49.3°C | 0.9% | -1.0hPa | 2.7V | 00:00:00 | 00:00:00 | 00:00:00 | |
| DL1XH1-15 | 2026-09-02 07:48:04 | 56.30908 | 9.86441 | 80° | 31km/h | 18967m | -25.5m/s | -49.3°C | 3.2% | 0hPa | 2.7V | 08:25:08 | 01:30:12 | 00:00:00 | |
| AA1-15 | 2026-09-02 07:48:04 | 56.30910 | 9.86469 | 85° | 31km/h | 18921m | -22.7m/s | -49.3°C | 0.1% | 0hPa | 2.6V | 08:25:14 | 01:30:14 | 00:00:00 | |
| DO2SHX-10 | 2026-09-02 07:48:03 | 56.30909 | 9.86454 | 84° | 31km/h | 18943m | -23.6m/s | -49.3°C | 3.2% | 0hPa | 2.5V | 00:00:00 | 01:30:13 | 00:00:00 | |
| DM0DOS-11 | 2026-09-02 07:48:02 | 56.30907 | 9.86427 | 75° | 31km/h | 18991m | -23.2m/s | -49.2°C | 3.2% | 0hPa | 2.5V | 08:25:09 | 01:30:11 | 00:00:00 | |
| DO2SHX-10 | 2026-09-02 07:48:00 | 56.30905 | 9.86414 | 72° | 31km/h | 19014m | -23.3m/s | -49.2°C | 3.2% | 0hPa | 2.7V | 00:00:00 | 01:30:10 | 00:00:00 | |
| DL1XH-15 | 2026-09-02 07:47:59 | 56.30896 | 9.86374 | 68° | 33km/h | 19091m | -26.4m/s | -49°C | 3.1% | 0hPa | 2.7V | 08:25:13 | 01:30:07 | 00:00:00 | |
| DL1XH-west | 2026-09-02 07:47:55 | 56.30891 | 9.86345 | 73° | 31km/h | 19143m | -26.5m/s | -49.2°C | 0% | 0hPa | 2.6V | 08:26:05 | 01:30:05 | 00:00:00 | |
| DL1XH1-15 | 2026-09-02 07:47:54 | 56.30883 | 9.86305 | 71° | 31km/h | 19223m | -25.5m/s | -49.5°C | 3.2% | 0hPa | 2.7V | 08:25:18 | 01:30:02 | 00:00:00 | |
| AA1-15 | 2026-09-02 07:47:53 | 56.30886 | 9.86319 | 70° | 31km/h | 19196m | -26.6m/s | -49.5°C | 0.1% | 0hPa | 2.6V | 08:26:05 | 01:30:03 | 00:00:00 | |
| DM0DOS-11 | 2026-09-02 07:47:52 | 56.30880 | 9.86293 | 69° | 27km/h | 19248m | -26.4m/s | -49.3°C | 3.2% | 0hPa | 2.7V | 08:25:19 | 01:30:01 | 00:00:00 | |
| DO2SHX-10 | 2026-09-02 07:47:51 | 56.30880 | 9.86293 | 70° | 26km/h | 19249m | -26.4m/s | -49.3°C | 3.2% | 0hPa | 2.6V | 00:00:00 | 01:30:01 | 00:00:00 | |
| DJ2DS-15 | 2026-09-02 07:47:49 | 56.30876 | 9.86269 | 72° | 24km/h | 19297m | -22.1m/s | -49.1°C | 3.1% | 0hPa | 2.6V | 00:00:00 | 01:29:59 | 00:00:00 | |
| DO2SHX-10 | 2026-09-02 07:47:48 | 56.30874 | 9.86259 | 72° | 20km/h | 19320m | -21.8m/s | -49.2°C | 3.2% | 0hPa | 2.6V | 08:25:00 | 01:29:58 | 00:00:00 | |
| DO2SHX-10 | 2026-09-02 07:47:45 | 56.30869 | 9.86233 | 61° | 18km/h | 19384m | -23.1m/s | -48.8°C | 3.0% | 0hPa | 2.7V | 00:00:00 | 01:29:55 | 00:00:00 | |
| DL1XH1-15 | 2026-09-02 07:47:44 | 56.30862 | 9.86211 | 48° | 18km/h | 19451m | -22.8m/s | -49°C | 3% | 0hPa | 2.7V | 08:25:28 | 01:29:52 | 00:00:00 | |
| DL1XH-west | 2026-09-02 07:47:44 | 56.30867 | 9.86225 | 63° | 18km/h | 19407m | -22.4m/s | -48.9°C | 0% | 0hPa | 2.6V | 08:26:05 | 01:29:54 | 00:00:00 | |
| DM0DOS-11 | 2026-09-02 07:47:42 | 56.30859 | 9.86204 | 45° | 20km/h | 19473m | -22.3m/s | -49°C | 3.1% | 0hPa | 2.7V | 08:25:29 | 01:29:51 | 00:00:00 | |
| AA1-15 | 2026-09-02 07:47:42 | 56.30862 | 9.86211 | 49° | 18km/h | 19451m | -22.8m/s | -49°C | 0% | 0hPa | 2.7V | 08:26:05 | 01:29:52 | 00:00:00 | |
| DO2SHX-10 | 2026-09-02 07:47:42 | 56.30862 | 9.86210 | 49° | 20km/h | 19451m | -22.8m/s | -48.9°C | 3.0% | 0hPa | 2.7V | 00:00:00 | 01:29:52 | 00:00:00 | |
| DL1XH-15 | 2026-09-02 07:47:39 | 56.30843 | 9.86174 | 47° | 26km/h | 19565m | -23.4m/s | -49.2°C | 3.2% | 0hPa | 2.7V | 08:25:33 | 01:29:47 | 00:00:00 | |
| DO2SHX-10 | 2026-09-02 07:47:39 | 56.30852 | 9.86190 | 43° | 26km/h | 19519m | -24.1m/s | -49.2°C | 3.1% | 0hPa | 2.6V | 00:00:00 | 01:29:49 | 00:00:00 | |
| DO2SHX-10 | 2026-09-02 07:47:36 | 56.30838 | 9.86166 | 44° | 26km/h | 19587m | -21.3m/s | -49.2°C | 3.1% | 0hPa | 2.6V | 00:00:00 | 01:29:46 | 00:00:00 | |
| DL1XH1-15 | 2026-09-02 07:47:34 | 56.30822 | 9.86131 | 53° | 26km/h | 19678m | -26.1m/s | -49.4°C | 3.2% | 0hPa | 2.6V | 08:25:38 | 01:29:42 | 00:00:00 | |
| DL1XH-west | 2026-09-02 07:47:34 | 56.30830 | 9.86149 | 47° | 26km/h | 19629m | -22.2m/s | -49.3°C | 0% | 0hPa | 2.5V | 08:26:05 | 01:29:44 | 00:00:00 | |
| DO2SHX-10 | 2026-09-02 07:47:33 | 56.30825 | 9.86140 | 51° | 26km/h | 19654m | -25.8m/s | -49.3°C | 3.1% | 0hPa | 2.7V | 00:00:00 | 01:29:43 | 00:00:00 | |
| DM0DOS-11 | 2026-09-02 07:47:32 | 56.30818 | 9.86122 | 56° | 26km/h | 19705m | -27m/s | -49.5°C | 3.2% | 0hPa | 2.7V | 08:25:39 | 01:29:41 | 00:00:00 | |
| AA1-15 | 2026-09-02 07:47:32 | 56.30818 | 9.86122 | 57° | 26km/h | 19705m | -27m/s | -49.5°C | 0.1% | 0hPa | 2.7V | 08:26:05 | 01:29:41 | 00:00:00 | |
| DO2SHX-10 | 2026-09-02 07:47:30 | 56.30814 | 9.86112 | 60° | 27km/h | 19732m | -25.8m/s | -49.5°C | 3.2% | 0hPa | 2.7V | 00:00:00 | 01:29:40 | 00:00:00 | |
| DL1XH-15 | 2026-09-02 07:47:29 | 56.30798 | 9.86047 | 65° | 27km/h | 19873m | -24.4m/s | -49.7°C | 3.3% | 0hPa | 2.7V | 08:25:46 | 01:29:34 | 00:00:00 | |
| DJ2DS-15 | 2026-09-02 07:47:29 | 56.30809 | 9.86091 | 62° | 26km/h | 19780m | -22.9m/s | -49.6°C | 0.9% | -1.0hPa | 2.5V | 00:00:00 | 00:00:00 | 00:00:00 | |
| DO2SHX-10 | 2026-09-02 07:47:27 | 56.30806 | 9.86080 | 70° | 27km/h | 19803m | -22.4m/s | -49.6°C | 3.2% | 0hPa | 2.5V | 00:00:00 | 01:29:37 | 00:00:00 | |
| DL1XH1-15 | 2026-09-02 07:47:24 | 56.30792 | 9.86027 | 60° | 24km/h | 19925m | -26.9m/s | -49.5°C | 3.2% | 0hPa | 2.5V | 08:25:48 | 01:29:32 | 00:00:00 | |
| DL1XH-west | 2026-09-02 07:47:23 | 56.30795 | 9.86036 | 62° | 26km/h | 19898m | -26.3m/s | -49.6°C | 0.2% | 0hPa | 2.7V | 08:26:05 | 01:29:33 | 00:00:00 | |
| DM0DOS-11 | 2026-09-02 07:47:22 | 56.30789 | 9.86016 | 58° | 26km/h | 19951m | -24.8m/s | -49.7°C | 3.3% | 0hPa | 2.6V | 08:25:49 | 01:29:31 | 00:00:00 | |
| AA1-15 | 2026-09-02 07:47:20 | 56.30786 | 9.86006 | 62° | 26km/h | 19974m | -21.3m/s | -49.8°C | 0.1% | 0hPa | 2.6V | 08:26:05 | 01:29:30 | 00:00:00 | |
| DO2SHX-10 | 2026-09-02 07:47:18 | 56.30779 | 9.85986 | 60° | 27km/h | 20020m | -24.4m/s | -49.4°C | 3.2% | 0hPa | 2.6V | 00:00:00 | 01:29:28 | 00:00:00 | |
| DO2SHX-10 | 2026-09-02 07:47:15 | 56.30769 | 9.85953 | 66° | 27km/h | 20095m | -25.2m/s | -49.3°C | 3.2% | 0hPa | 2.6V | 00:00:00 | 01:29:25 | 00:00:00 | |
| DL1XH1-15 | 2026-09-02 07:47:14 | 56.30766 | 9.85918 | 89° | 26km/h | 20165m | -24.7m/s | -49.5°C | 3.2% | 0hPa | 2.6V | 08:25:58 | 01:29:22 | 00:00:00 | |
| DM0DOS-11 | 2026-09-02 07:47:12 | 56.30765 | 9.85907 | 92° | 26km/h | 20189m | -23.7m/s | -49.5°C | 3.1% | 0hPa | 2.6V | 08:25:59 | 01:29:21 | 00:00:00 | |
| DL1XH-west | 2026-09-02 07:47:12 | 56.30765 | 9.85918 | 90° | 26km/h | 20165m | -24.7m/s | -49.5°C | 0.1% | 0hPa | 2.6V | 08:26:05 | 01:29:22 | 00:00:00 | |
| AA1-15 | 2026-09-02 07:47:09 | 56.30768 | 9.85882 | 106° | 31km/h | 20236m | -23.8m/s | -49.3°C | 0% | 0hPa | 2.7V | 08:26:05 | 01:29:19 | 00:00:00 | |
| DL1XH-15 | 2026-09-02 07:47:09 | 56.30785 | 9.85818 | 121° | 31km/h | 20355m | -21.3m/s | -49.2°C | 3.1% | 0hPa | 2.7V | 08:26:06 | 01:29:14 | 00:00:00 | |
| DJ2DS-15 | 2026-09-02 07:47:09 | 56.30768 | 9.85882 | 106° | 26km/h | 20236m | -23.8m/s | -49.3°C | 3.1% | 0hPa | 2.7V | 00:00:00 | 01:29:19 | 00:00:00 | |
| DO2SHX-10 | 2026-09-02 07:47:06 | 56.30777 | 9.85843 | 123° | 33km/h | 20310m | -25.4m/s | -49.2°C | 3.1% | 0hPa | 2.7V | 00:00:00 | 01:29:16 | 00:00:00 | |
| DL1XH1-15 | 2026-09-02 07:47:04 | 56.30794 | 9.85795 | 127° | 29km/h | 20397m | -19.8m/s | -49.1°C | 3% | 0hPa | 2.7V | 08:26:08 | 01:29:12 | 00:00:00 | |
| DO2SHX-10 | 2026-09-02 07:47:03 | 56.30789 | 9.85806 | 127° | 29km/h | 20377m | -21.5m/s | -49.1°C | 3.0% | 0hPa | 2.7V | 00:00:00 | 01:29:13 | 00:00:00 | |
| DM0DOS-11 | 2026-09-02 07:47:02 | 56.30798 | 9.85785 | 128° | 27km/h | 20417m | -20.3m/s | -49°C | 3% | 0hPa | 2.6V | 08:26:09 | 01:29:11 | 00:00:00 | |
| DL1XH-west | 2026-09-02 07:47:02 | 56.30794 | 9.85795 | 128° | 29km/h | 20397m | -19.8m/s | -49.1°C | 0% | 0hPa | 2.7V | 08:26:56 | 01:29:12 | 00:00:00 | |
| DO2SHX-10 | 2026-09-02 07:47:00 | 56.30802 | 9.85775 | 128° | 26km/h | 20439m | -23.4m/s | -49.0°C | 3.0% | 0hPa | 2.6V | 00:00:00 | 01:29:10 | 00:00:00 | |
| DL1XH-15 | 2026-09-02 07:46:59 | 56.30822 | 9.85727 | 117° | 16km/h | 20568m | -21.5m/s | -49.4°C | 3% | 0hPa | 2.6V | 08:26:16 | 01:29:04 | 00:00:00 | |
| AA1-15 | 2026-09-02 07:46:58 | 56.30810 | 9.85757 | 136° | 24km/h | 20483m | -21.2m/s | -49.2°C | 0% | 0hPa | 2.7V | 08:26:56 | 01:29:08 | 00:00:00 | |
| DJ2DS-15 | 2026-09-02 07:46:53 | 56.30824 | 9.85714 | 96° | 15km/h | 20617m | -25.9m/s | -49.7°C | 0.8% | -1.0hPa | 2.7V | 00:00:00 | 00:00:00 | 00:00:00 | |
| DM0DOS-11 | 2026-09-02 07:46:52 | 56.30824 | 9.85707 | 93° | 15km/h | 20642m | -25.1m/s | -49.9°C | 3.2% | 0hPa | 2.7V | 08:26:19 | 01:29:01 | 00:00:00 | |
| DL1XH-west | 2026-09-02 07:46:52 | 56.30824 | 9.85714 | 96° | 15km/h | 20617m | -25.9m/s | -49.7°C | 0.1% | 0hPa | 2.7V | 08:26:56 | 01:29:02 | 00:00:00 | |
| DO2SHX-10 | 2026-09-02 07:46:51 | 56.30824 | 9.85707 | 94° | 16km/h | 20643m | -25.0m/s | -49.9°C | 3.2% | 0hPa | 2.7V | 00:00:00 | 01:29:01 | 00:00:00 | |
| DL1XH-15 | 2026-09-02 07:46:49 | 56.30820 | 9.85643 | 91° | 24km/h | 20814m | -26.4m/s | -50.5°C | 3.3% | 0hPa | 2.7V | 08:26:26 | 01:28:54 | 00:00:00 | |
| AA1-15 | 2026-09-02 07:46:47 | 56.30823 | 9.85674 | 78° | 22km/h | 20737m | -24.2m/s | -50.4°C | 0.2% | 0hPa | 2.7V | 08:26:56 | 01:28:57 | 00:00:00 | |
| DO2SHX-10 | 2026-09-02 07:46:45 | 56.30821 | 9.85653 | 84° | 24km/h | 20788m | -24.2m/s | -50.4°C | 3.2% | 0hPa | 2.6V | 00:00:00 | 01:28:55 | 00:00:00 | |
| DL1XH1-15 | 2026-09-02 07:46:44 | 56.30820 | 9.85620 | 97° | 27km/h | 20863m | -23.2m/s | -50.6°C | 3.4% | 0hPa | 2.6V | 08:26:28 | 01:28:52 | 00:00:00 | |
| DL1XH-west | 2026-09-02 07:46:41 | 56.30822 | 9.85608 | 103° | 26km/h | 20886m | -23.3m/s | -50.6°C | 0.2% | 0hPa | 2.6V | 08:26:56 | 01:28:51 | 00:00:00 | |
| DL1XH-15 | 2026-09-02 07:46:39 | 56.30836 | 9.85536 | 120° | 18km/h | 21055m | -24.8m/s | -50.4°C | 3.2% | 0hPa | 2.6V | 08:26:36 | 01:28:44 | 00:00:00 | |
| AA1-15 | 2026-09-02 07:46:36 | 56.30832 | 9.85553 | 111° | 24km/h | 21004m | -24.8m/s | -50.4°C | 0.1% | 0hPa | 2.6V | 08:26:56 | 01:28:46 | 00:00:00 | |
| DO2SHX-10 | 2026-09-02 07:46:36 | 56.30832 | 9.85553 | 111° | 22km/h | 21004m | -24.7m/s | -50.4°C | 3.2% | 0hPa | 2.6V | 00:00:00 | 01:28:46 | 00:00:00 | |
| DL1XH1-15 | 2026-09-02 07:46:34 | 56.30841 | 9.85523 | 130° | 16km/h | 21104m | -25.3m/s | -50.5°C | 3.2% | 0hPa | 2.7V | 08:26:38 | 01:28:42 | 00:00:00 | |
| DO2SHX-10 | 2026-09-02 07:46:33 | 56.30839 | 9.85529 | 123° | 16km/h | 21080m | -24.7m/s | -50.4°C | 3.2% | 0hPa | 2.7V | 00:00:00 | 01:28:43 | 00:00:00 | |
| DM0DOS-11 | 2026-09-02 07:46:32 | 56.30844 | 9.85518 | 135° | 15km/h | 21129m | -25.6m/s | -50.6°C | 3.3% | 0hPa | 2.7V | 08:26:39 | 01:28:41 | 00:00:00 | |
| DL1XH-west | 2026-09-02 07:46:30 | 56.30847 | 9.85513 | 134° | 13km/h | 21155m | -26.2m/s | -50.7°C | 0.2% | 0hPa | 2.6V | 08:26:56 | 01:28:40 | 00:00:00 | |
| DO2SHX-10 | 2026-09-02 07:46:30 | 56.30847 | 9.85513 | 135° | 13km/h | 21155m | -26.1m/s | -50.6°C | 3.3% | 0hPa | 2.6V | 00:00:00 | 01:28:40 | 00:00:00 | |
| DL1XH-15 | 2026-09-02 07:46:29 | 56.30863 | 9.85506 | 218° | 7km/h | 21298m | -25.6m/s | -50.8°C | 3.3% | 0hPa | 2.6V | 08:26:46 | 01:28:34 | 00:00:00 | |
| AA1-15 | 2026-09-02 07:46:25 | 56.30861 | 9.85504 | 187° | 11km/h | 21273m | -24.9m/s | -50.7°C | 0.2% | 0hPa | 2.7V | 08:26:56 | 01:28:35 | 00:00:00 | |
| DL1XH1-15 | 2026-09-02 07:46:24 | 56.30866 | 9.85511 | 241° | 9km/h | 21347m | -24.3m/s | -51°C | 3.4% | 0hPa | 2.6V | 08:26:48 | 01:28:32 | 00:00:00 | |
| DO2SHX-10 | 2026-09-02 07:46:24 | 56.30863 | 9.85506 | 219° | 9km/h | 21299m | -25.6m/s | -50.8°C | 3.3% | 0hPa | 2.7V | 00:00:00 | 01:28:34 | 00:00:00 | |
| DM0DOS-11 | 2026-09-02 07:46:22 | 56.30867 | 9.85516 | 275° | 11km/h | 21370m | -23.4m/s | -51°C | 3.4% | 0hPa | 2.7V | 08:26:49 | 01:28:31 | 00:00:00 | |
| DL1XH-west | 2026-09-02 07:46:20 | 56.30867 | 9.85520 | 298° | 11km/h | 21394m | -25.4m/s | -51.2°C | 0.3% | 0hPa | 2.7V | 08:26:56 | 01:28:30 | 00:00:00 | |
| DL1XH-15 | 2026-09-02 07:46:19 | 56.30851 | 9.85535 | 5° | 15km/h | 21557m | -24.6m/s | -52°C | 3.7% | 0hPa | 2.7V | 08:26:56 | 01:28:24 | 00:00:00 | |
| AA1-15 | 2026-09-02 07:46:14 | 56.30851 | 9.85535 | 6° | 15km/h | 21557m | -24.6m/s | -52°C | 0.5% | 0hPa | 2.7V | 08:26:56 | 01:28:24 | 00:00:00 | |
| DL1XH1-15 | 2026-09-02 07:46:14 | 56.30845 | 9.85532 | 24° | 13km/h | 21603m | -22.1m/s | -52.1°C | 3.8% | 0hPa | 2.6V | 08:26:58 | 01:28:22 | 00:00:00 | |
| DM0DOS-11 | 2026-09-02 07:46:12 | 56.30842 | 9.85529 | 42° | 13km/h | 21625m | -22.2m/s | -52°C | 3.7% | 0hPa | 2.7V | 08:26:59 | 01:28:21 | 00:00:00 | |
| DL1XH-west | 2026-09-02 07:46:10 | 56.30840 | 9.85524 | 56° | 15km/h | 21648m | -23.1m/s | -51.9°C | 0.5% | 0hPa | 2.7V | 08:27:47 | 01:28:20 | 00:00:00 | |
| DO2SHX-10 | 2026-09-02 07:46:09 | 56.30838 | 9.85520 | 55° | 11km/h | 21670m | -21.7m/s | -51.5°C | 3.7% | 0hPa | 2.6V | 00:00:00 | 01:28:19 | 00:00:00 | |
| DO2SHX-10 | 2026-09-02 07:46:06 | 56.30834 | 9.85509 | 58° | 5km/h | 21741m | -23.0m/s | -51.2°C | 3.5% | 0hPa | 2.7V | 00:00:00 | 01:28:16 | 00:00:00 | |
| DL1XH1-15 | 2026-09-02 07:46:04 | 56.30829 | 9.85503 | 21° | 7km/h | 21837m | -24.4m/s | -50.9°C | 3.4% | 0hPa | 2.7V | 08:27:08 | 01:28:12 | 00:00:00 | |
| AA1-15 | 2026-09-02 07:46:03 | 56.30831 | 9.85504 | 18° | 7km/h | 21813m | -23.8m/s | -51.1°C | 0.3% | 0hPa | 2.6V | 08:27:47 | 01:28:13 | 00:00:00 | |
| DO2SHX-10 | 2026-09-02 07:46:03 | 56.30831 | 9.85504 | 18° | 7km/h | 21813m | -23.8m/s | -51.1°C | 3.5% | 0hPa | 2.7V | 00:00:00 | 01:28:13 | 00:00:00 | |
| DM0DOS-11 | 2026-09-02 07:46:02 | 56.30827 | 9.85502 | 17° | 7km/h | 21862m | -24.8m/s | -50.7°C | 3.4% | 0hPa | 2.7V | 08:27:09 | 01:28:11 | 00:00:00 | |
| DO2SHX-10 | 2026-09-02 07:46:00 | 56.30825 | 9.85501 | 6° | 7km/h | 21889m | -28.3m/s | -50.7°C | 3.4% | 0hPa | 2.7V | 08:27:00 | 01:28:10 | 00:00:00 | |
| DL1XH-15 | 2026-09-02 07:45:59 | 56.30811 | 9.85498 | 26° | 9km/h | 22040m | -24.5m/s | -50.5°C | 3.3% | 0hPa | 2.7V | 08:27:16 | 01:28:04 | 00:00:00 | |
| DL1XH-west | 2026-09-02 07:45:59 | 56.30824 | 9.85501 | 8° | 9km/h | 21915m | -25m/s | -50.7°C | 0.2% | 0hPa | 2.6V | 08:27:47 | 01:28:09 | 00:00:00 | |
| DO2SHX-10 | 2026-09-02 07:45:57 | 56.30819 | 9.85501 | 6° | 9km/h | 21965m | -23.1m/s | -50.5°C | 3.3% | 0hPa | 2.6V | 00:00:00 | 01:28:07 | 00:00:00 | |
| DL1XH1-15 | 2026-09-02 07:45:55 | 56.30806 | 9.85494 | 37° | 9km/h | 22090m | -25.2m/s | -50.6°C | 3.3% | 0hPa | 2.6V | 08:27:18 | 01:28:02 | 00:00:00 | |
| AA1-15 | 2026-09-02 07:45:53 | 56.30809 | 9.85496 | 30° | 11km/h | 22064m | -24.7m/s | -50.5°C | 0.1% | 0hPa | 2.6V | 08:27:47 | 01:28:03 | 00:00:00 | |
| DM0DOS-11 | 2026-09-02 07:45:52 | 56.30804 | 9.85491 | 33° | 13km/h | 22115m | -26.8m/s | -50.6°C | 3.3% | 0hPa | 2.6V | 08:27:19 | 01:28:01 | 00:00:00 | |
| DO2SHX-10 | 2026-09-02 07:45:51 | 56.30804 | 9.85491 | 34° | 13km/h | 22116m | -26.8m/s | -50.6°C | 3.3% | 0hPa | 2.6V | 00:00:00 | 01:28:01 | 00:00:00 | |
| DJ2DS-15 | 2026-09-02 07:45:49 | 56.30799 | 9.85484 | 42° | 13km/h | 22170m | -27.1m/s | -50.8°C | 3.3% | 0hPa | 2.7V | 00:00:00 | 01:27:59 | 00:00:00 | |
| DL1XH-15 | 2026-09-02 07:45:48 | 56.30787 | 9.85457 | 61° | 15km/h | 22300m | -26m/s | -51°C | 3.3% | 0hPa | 2.7V | 08:27:26 | 01:27:54 | 00:00:00 | |
| DL1XH-west | 2026-09-02 07:45:48 | 56.30796 | 9.85479 | 48° | 16km/h | 22196m | -24.6m/s | -50.9°C | 0.2% | 0hPa | 2.7V | 08:27:47 | 01:27:58 | 00:00:00 | |
| DO2SHX-10 | 2026-09-02 07:45:48 | 56.30796 | 9.85479 | 48° | 15km/h | 22196m | -24.5m/s | -50.9°C | 3.3% | 0hPa | 2.7V | 00:00:00 | 01:27:58 | 00:00:00 | |
| DO2SHX-10 | 2026-09-02 07:45:45 | 56.30789 | 9.85463 | 53° | 15km/h | 22275m | -25.4m/s | -51.0°C | 3.4% | 0hPa | 2.7V | 00:00:00 | 01:27:55 | 00:00:00 | |
| DL1XH1-15 | 2026-09-02 07:45:44 | 56.30784 | 9.85447 | 59° | 13km/h | 22351m | -24.5m/s | -50.9°C | 3.4% | 0hPa | 2.7V | 08:27:28 | 01:27:52 | 00:00:00 | |
| AA1-15 | 2026-09-02 07:45:42 | 56.30784 | 9.85447 | 59° | 13km/h | 22351m | -24.5m/s | -50.9°C | 0.3% | 0hPa | 2.7V | 08:27:47 | 01:27:52 | 00:00:00 | |
| DM0DOS-11 | 2026-09-02 07:45:42 | 56.30782 | 9.85441 | 64° | 15km/h | 22375m | -23.9m/s | -50.8°C | 3.3% | 0hPa | 2.6V | 08:27:29 | 01:27:51 | 00:00:00 | |
| DO2SHX-10 | 2026-09-02 07:45:42 | 56.30784 | 9.85447 | 60° | 13km/h | 22351m | -24.5m/s | -50.9°C | 3.4% | 0hPa | 2.7V | 00:00:00 | 01:27:52 | 00:00:00 | |
| DJ2DS-15 | 2026-09-02 07:45:41 | 56.30781 | 9.85436 | 75° | 11km/h | 22398m | -22.8m/s | -50.8°C | 0.9% | -1.0hPa | 2.6V | 00:00:00 | 00:00:00 | 00:00:00 | |
| DO2SHX-10 | 2026-09-02 07:45:39 | 56.30780 | 9.85431 | 63° | 9km/h | 22420m | -21.5m/s | -50.7°C | 3.3% | 0hPa | 2.6V | 00:00:00 | 01:27:49 | 00:00:00 | |
| DL1XH-15 | 2026-09-02 07:45:38 | 56.30775 | 9.85412 | 54° | 9km/h | 22532m | -24.2m/s | -51.1°C | 3.4% | 0hPa | 2.6V | 08:27:36 | 01:27:44 | 00:00:00 | |
| DL1XH-west | 2026-09-02 07:45:37 | 56.30779 | 9.85423 | 64° | 9km/h | 22463m | -22.3m/s | -50.9°C | 0.2% | 0hPa | 2.7V | 08:27:47 | 01:27:47 | 00:00:00 | |
| DO2SHX-10 | 2026-09-02 07:45:36 | 56.30777 | 9.85419 | 54° | 9km/h | 22486m | -24.0m/s | -50.9°C | 3.4% | 0hPa | 2.6V | 00:00:00 | 01:27:46 | 00:00:00 | |
| DO2SHX-10 | 2026-09-02 07:45:33 | 56.30773 | 9.85409 | 34° | 11km/h | 22556m | -22.8m/s | -51.1°C | 3.4% | 0hPa | 2.6V | 08:27:00 | 01:27:43 | 00:00:00 | |
| DM0DOS-11 | 2026-09-02 07:45:32 | 56.30768 | 9.85403 | 25° | 13km/h | 22599m | -22.8m/s | -51.2°C | 3.4% | 0hPa | 2.7V | 08:27:39 | 01:27:41 | 00:00:00 | |
| AA1-15 | 2026-09-02 07:45:31 | 56.30768 | 9.85403 | 25° | 13km/h | 22599m | -22.8m/s | -51.2°C | 0.3% | 0hPa | 2.7V | 08:27:47 | 01:27:41 | 00:00:00 | |
| DO2SHX-10 | 2026-09-02 07:45:30 | 56.30765 | 9.85401 | 17° | 13km/h | 22623m | -24.1m/s | -51.2°C | 3.4% | 0hPa | 2.6V | 00:00:00 | 01:27:40 | 00:00:00 | |
| DJ2DS-15 | 2026-09-02 07:45:29 | 56.30762 | 9.85399 | 15° | 22km/h | 22648m | -25.2m/s | -51.3°C | 3.5% | 0hPa | 2.6V | 08:27:00 | 01:27:39 | 00:00:00 | |
| DL1XH-15 | 2026-09-02 07:45:28 | 56.30742 | 9.85391 | 25° | 20km/h | 22778m | -29m/s | -51.8°C | 3.5% | 0hPa | 2.7V | 08:27:46 | 01:27:34 | 00:00:00 | |
| DL1XH-west | 2026-09-02 07:45:27 | 56.30754 | 9.85397 | 3° | 16km/h | 22697m | -24.8m/s | -51.6°C | 0.3% | 0hPa | 2.7V | 08:27:47 | 01:27:37 | 00:00:00 | |
| DO2SHX-10 | 2026-09-02 07:45:27 | 56.30754 | 9.85397 | 4° | 16km/h | 22697m | -24.8m/s | -51.5°C | 3.5% | 0hPa | 2.7V | 00:00:00 | 01:27:37 | 00:00:00 | |
| DO2SHX-10 | 2026-09-02 07:45:24 | 56.30741 | 9.85391 | 26° | 20km/h | 22779m | -29.0m/s | -51.8°C | 3.5% | 0hPa | 2.7V | 00:00:00 | 01:27:34 | 00:00:00 | |
| DM0DOS-11 | 2026-09-02 07:45:22 | 56.30728 | 9.85376 | 41° | 22km/h | 22864m | -25.9m/s | -51.9°C | 3.7% | 0hPa | 2.6V | 08:27:49 | 01:27:31 | 00:00:00 | |
| AA1-15 | 2026-09-02 07:45:21 | 56.30728 | 9.85376 | 41° | 22km/h | 22864m | -25.9m/s | -51.9°C | 0.4% | 0hPa | 2.6V | 08:28:38 | 01:27:31 | 00:00:00 | |
| DO2SHX-10 | 2026-09-02 07:45:21 | 56.30728 | 9.85376 | 42° | 26km/h | 22864m | -25.9m/s | -51.9°C | 3.7% | 0hPa | 2.6V | 00:00:00 | 01:27:31 | 00:00:00 | |
| DL1XH-15 | 2026-09-02 07:45:18 | 56.30700 | 9.85296 | 72° | 33km/h | 23018m | -25.3m/s | -51.7°C | 3.7% | 0hPa | 2.6V | 08:27:56 | 01:27:24 | 00:00:00 | |
| DL1XH-west | 2026-09-02 07:45:16 | 56.30706 | 9.85323 | 63° | 33km/h | 22972m | -19.5m/s | -51.8°C | 0.5% | 0hPa | 2.7V | 08:28:38 | 01:27:26 | 00:00:00 | |
| DL1XH1-15 | 2026-09-02 07:45:15 | 56.30696 | 9.85270 | 83° | 27km/h | 23068m | -23.8m/s | -51.6°C | 3.7% | 0hPa | 2.6V | 08:27:58 | 01:27:22 | 00:00:00 | |
| AA1-15 | 2026-09-02 07:45:10 | 56.30695 | 9.85245 | 89° | 26km/h | 23115m | -22.9m/s | -51.6°C | 0.5% | 0hPa | 2.7V | 08:28:38 | 01:27:20 | 00:00:00 | |
| DJ2DS-15 | 2026-09-02 07:45:09 | 56.30695 | 9.85233 | 91° | 13km/h | 23137m | -20.7m/s | -51.5°C | 3.7% | 0hPa | 2.7V | 00:00:00 | 01:27:19 | 00:00:00 | |
| DL1XH-15 | 2026-09-02 07:45:08 | 56.30696 | 9.85199 | 91° | 9km/h | 23253m | -25.4m/s | -51.4°C | 3.6% | 0hPa | 2.7V | 08:28:06 | 01:27:14 | 00:00:00 | |
| DL1XH-west | 2026-09-02 07:45:06 | 56.30695 | 9.85208 | 95° | 16km/h | 23204m | -22.5m/s | -51.5°C | 0.4% | 0hPa | 2.6V | 08:28:38 | 01:27:16 | 00:00:00 | |
| DO2SHX-10 | 2026-09-02 07:45:06 | 56.30695 | 9.85208 | 96° | 11km/h | 23205m | -22.4m/s | -51.5°C | 3.7% | 0hPa | 2.6V | 08:28:00 | 01:27:16 | 00:00:00 | |
| DL1XH1-15 | 2026-09-02 07:45:04 | 56.30696 | 9.85192 | 82° | 7km/h | 23303m | -25.1m/s | -51.2°C | 3.6% | 0hPa | 2.6V | 08:28:08 | 01:27:12 | 00:00:00 | |
| DO2SHX-10 | 2026-09-02 07:45:03 | 56.30696 | 9.85195 | 95° | 7km/h | 23278m | -25.2m/s | -51.3°C | 3.6% | 0hPa | 2.6V | 00:00:00 | 01:27:13 | 00:00:00 | |
| DM0DOS-11 | 2026-09-02 07:45:02 | 56.30696 | 9.85188 | 94° | 7km/h | 23328m | -25.2m/s | -51.2°C | 3.6% | 0hPa | 2.6V | 08:28:09 | 01:27:11 | 00:00:00 | |
| AA1-15 | 2026-09-02 07:45:00 | 56.30696 | 9.85184 | 72° | 9km/h | 23352m | -22.1m/s | -51.2°C | 0.4% | 0hPa | 2.6V | 08:28:38 | 01:27:10 | 00:00:00 | |
| DL1XH-west | 2026-09-02 07:44:55 | 56.30694 | 9.85157 | 87° | 13km/h | 23469m | -22m/s | -50.5°C | 0.2% | 0hPa | 2.6V | 08:28:38 | 01:27:05 | 00:00:00 | |
| SONDE2-11 | 2026-09-02 07:44:55 | 56.30698 | 9.85112 | 100° | 11km/h | 23661m | -24.6m/s | -50.3°C | 0.9% | -1.0hPa | 2.7V | 00:00:00 | 00:00:00 | 00:00:00 | |
| DL1XH1-15 | 2026-09-02 07:44:54 | 56.30694 | 9.85140 | 100° | 13km/h | 23542m | -23.8m/s | -50.4°C | 3.4% | 0hPa | 2.7V | 08:28:18 | 01:27:02 | 00:00:00 | |
| DO2SHX-10 | 2026-09-02 07:44:54 | 56.30693 | 9.85151 | 91° | 13km/h | 23494m | -25.4m/s | -50.3°C | 3.4% | 0hPa | 2.7V | 00:00:00 | 01:27:04 | 00:00:00 | |
| DM0DOS-11 | 2026-09-02 07:44:52 | 56.30695 | 9.85134 | 99° | 11km/h | 23566m | -24.2m/s | -50.4°C | 3.4% | 0hPa | 2.7V | 08:28:19 | 01:27:01 | 00:00:00 | |
| AA1-15 | 2026-09-02 07:44:49 | 56.30696 | 9.85123 | 101° | 11km/h | 23615m | -23.6m/s | -50.4°C | 0.2% | 0hPa | 2.6V | 08:28:38 | 01:26:59 | 00:00:00 | |
| DJ2DS-15 | 2026-09-02 07:44:49 | 56.30696 | 9.85123 | 102° | 7km/h | 23615m | -23.5m/s | -50.4°C | 3.4% | 0hPa | 2.6V | 00:00:00 | 01:26:59 | 00:00:00 | |
| DO2SHX-10 | 2026-09-02 07:44:48 | 56.30697 | 9.85118 | 118° | 11km/h | 23638m | -22.5m/s | -50.3°C | 3.4% | 0hPa | 2.6V | 00:00:00 | 01:26:58 | 00:00:00 | |
| DO2SHX-10 | 2026-09-02 07:44:45 | 56.30699 | 9.85103 | 114° | 7km/h | 23711m | -25.4m/s | -50.1°C | 3.3% | 0hPa | 2.6V | 00:00:00 | 01:26:55 | 00:00:00 | |
| DL1XH1-15 | 2026-09-02 07:44:44 | 56.30703 | 9.85094 | 132° | 9km/h | 23787m | -25.7m/s | -50.3°C | 3.4% | 0hPa | 2.6V | 08:28:28 | 01:26:52 | 00:00:00 | |
| DL1XH-west | 2026-09-02 07:44:44 | 56.30701 | 9.85100 | 122° | 9km/h | 23735m | -25.3m/s | -50.2°C | 0.2% | 0hPa | 2.6V | 08:28:38 | 01:26:54 | 00:00:00 | |
| DM0DOS-11 | 2026-09-02 07:44:42 | 56.30704 | 9.85092 | 125° | 4km/h | 23812m | -24.6m/s | -50.3°C | 3.4% | 0hPa | 2.7V | 08:28:29 | 01:26:51 | 00:00:00 | |
| AA1-15 | 2026-09-02 07:44:38 | 56.30706 | 9.85088 | 113° | 2km/h | 23888m | -26.9m/s | -50.2°C | 0.2% | 0hPa | 2.6V | 08:28:38 | 01:26:48 | 00:00:00 | |
| DL1XH-west | 2026-09-02 07:44:34 | 56.30708 | 9.85086 | 153° | 2km/h | 23986m | -25.8m/s | -50°C | 0.2% | 0hPa | 2.7V | 08:28:38 | 01:26:44 | 00:00:00 | |
| DO2SHX-10 | 2026-09-02 07:44:33 | 56.30709 | 9.85085 | 174° | 7km/h | 24011m | -23.5m/s | -49.9°C | 3.3% | 0hPa | 2.6V | 00:00:00 | 01:26:43 | 00:00:00 | |
| DM0DOS-11 | 2026-09-02 07:44:32 | 56.30713 | 9.85082 | 157° | 9km/h | 24055m | -22.6m/s | -49.9°C | 3.3% | 0hPa | 2.6V | 08:28:39 | 01:26:41 | 00:00:00 | |
| AA1-15 | 2026-09-02 07:44:27 | 56.30726 | 9.85074 | 171° | 15km/h | 24144m | -22.2m/s | -49.9°C | 0.3% | 0hPa | 2.7V | 08:29:29 | 01:26:37 | 00:00:00 | |
| DO2SHX-10 | 2026-09-02 07:44:27 | 56.30726 | 9.85074 | 171° | 13km/h | 24145m | -22.1m/s | -49.9°C | 3.4% | 0hPa | 2.7V | 00:00:00 | 01:26:37 | 00:00:00 | |
| DL1XH1-15 | 2026-09-02 07:44:24 | 56.30737 | 9.85080 | 257° | 9km/h | 24266m | -25m/s | -50°C | 3.4% | 0hPa | 2.7V | 08:28:48 | 01:26:32 | 00:00:00 | |
| DL1XH-west | 2026-09-02 07:44:23 | 56.30736 | 9.85077 | 249° | 7km/h | 24242m | -26m/s | -50°C | 0.2% | 0hPa | 2.7V | 08:29:29 | 01:26:33 | 00:00:00 | |
| AA1-15 | 2026-09-02 07:44:16 | 56.30728 | 9.85109 | 317° | 11km/h | 24414m | -29.4m/s | -49.3°C | 0.1% | 0hPa | 2.7V | 08:29:29 | 01:26:26 | 00:00:00 | |
| DO2SHX-10 | 2026-09-02 07:44:15 | 56.30725 | 9.85112 | 331° | 9km/h | 24444m | -27.9m/s | -49.2°C | 3.1% | 0hPa | 2.6V | 00:00:00 | 01:26:25 | 00:00:00 | |
| DL1XH1-15 | 2026-09-02 07:44:14 | 56.30721 | 9.85117 | 6° | 4km/h | 24522m | -24.7m/s | -49.4°C | 3.1% | 0hPa | 2.6V | 08:28:58 | 01:26:22 | 00:00:00 | |
| DM0DOS-11 | 2026-09-02 07:44:13 | 56.30720 | 9.85117 | 40° | 2km/h | 24546m | -23.6m/s | -49.4°C | 3.1% | 0hPa | 2.7V | 08:28:59 | 01:26:21 | 00:00:00 | |
| DL1XH-west | 2026-09-02 07:44:12 | 56.30721 | 9.85117 | 6° | 4km/h | 24522m | -24.7m/s | -49.4°C | 0.1% | 0hPa | 2.6V | 08:29:29 | 01:26:22 | 00:00:00 | |
| AA1-15 | 2026-09-02 07:44:05 | 56.30726 | 9.85121 | 240° | 7km/h | 24699m | -27.1m/s | -49.5°C | 0.1% | 0hPa | 2.7V | 08:29:29 | 01:26:15 | 00:00:00 | |
| DL1XH1-15 | 2026-09-02 07:44:04 | 56.30729 | 9.85130 | 246° | 9km/h | 24767m | -20.5m/s | -49.3°C | 3.2% | 0hPa | 2.6V | 08:29:08 | 01:26:12 | 00:00:00 | |
| DO2SHX-10 | 2026-09-02 07:44:03 | 56.30728 | 9.85126 | 247° | 9km/h | 24746m | -21.7m/s | -49.4°C | 3.2% | 0hPa | 2.7V | 00:00:00 | 01:26:13 | 00:00:00 | |
| DM0DOS-11 | 2026-09-02 07:44:02 | 56.30729 | 9.85134 | 272° | 7km/h | 24788m | -22.4m/s | -49.2°C | 3.1% | 0hPa | 2.6V | 08:29:09 | 01:26:11 | 00:00:00 | |
| DL1XH-west | 2026-09-02 07:44:02 | 56.30729 | 9.85130 | 247° | 9km/h | 24767m | -20.5m/s | -49.3°C | 0.2% | 0hPa | 2.6V | 08:29:29 | 01:26:12 | 00:00:00 | |
| DO2SHX-10 | 2026-09-02 07:44:00 | 56.30729 | 9.85138 | 268° | 11km/h | 24810m | -22.5m/s | -49.2°C | 3.2% | 0hPa | 2.7V | 00:00:00 | 01:26:10 | 00:00:00 | |
| DO2SHX-10 | 2026-09-02 07:43:57 | 56.30728 | 9.85153 | 288° | 16km/h | 24877m | -21.2m/s | -49.5°C | 3.2% | 0hPa | 2.7V | 00:00:00 | 01:26:07 | 00:00:00 | |
| DL1XH1-15 | 2026-09-02 07:43:54 | 56.30717 | 9.85186 | 313° | 16km/h | 25006m | -30m/s | -49.8°C | 3.2% | 0hPa | 2.7V | 08:29:18 | 01:26:02 | 00:00:00 | |
| AA1-15 | 2026-09-02 07:43:54 | 56.30723 | 9.85173 | 302° | 18km/h | 24946m | -27.5m/s | -49.8°C | 0.1% | 0hPa | 2.6V | 08:29:29 | 01:26:04 | 00:00:00 | |
| SONDE2-11 | 2026-09-02 07:43:53 | 56.30718 | 9.85186 | 313° | 16km/h | 25006m | -30.0m/s | -49.8°C | 0.8% | -1.0hPa | 2.7V | 00:00:00 | 00:00:00 | 00:00:00 | |
| DM0DOS-11 | 2026-09-02 07:43:52 | 56.30714 | 9.85192 | 318° | 18km/h | 25035m | -29.4m/s | -49.9°C | 3.2% | 0hPa | 2.7V | 08:29:19 | 01:26:01 | 00:00:00 | |
| DL1XH-west | 2026-09-02 07:43:51 | 56.30714 | 9.85192 | 319° | 18km/h | 25035m | -29.4m/s | -49.9°C | 0.2% | 0hPa | 2.7V | 08:29:29 | 01:26:01 | 00:00:00 | |
| DO2SHX-10 | 2026-09-02 07:43:51 | 56.30714 | 9.85192 | 319° | 20km/h | 25036m | -29.3m/s | -49.8°C | 3.2% | 0hPa | 2.7V | 00:00:00 | 01:26:01 | 00:00:00 | |
| DJ2DS-15 | 2026-09-02 07:43:49 | 56.30706 | 9.85203 | 322° | 26km/h | 25088m | -22.8m/s | -49.9°C | 3.3% | 0hPa | 2.7V | 00:00:00 | 01:25:59 | 00:00:00 | |
| DO2SHX-10 | 2026-09-02 07:43:48 | 56.30703 | 9.85209 | 323° | 20km/h | 25109m | -19.9m/s | -49.9°C | 3.3% | 0hPa | 2.7V | 00:00:00 | 01:25:58 | 00:00:00 | |
| DO2SHX-10 | 2026-09-02 07:43:45 | 56.30690 | 9.85225 | 329° | 24km/h | 25158m | -13.7m/s | -49.9°C | 3.4% | 0hPa | 2.7V | 08:29:00 | 01:25:55 | 00:00:00 | |
| DL1XH1-15 | 2026-09-02 07:43:44 | 56.30674 | 9.85238 | 347° | 27km/h | 25206m | -20.9m/s | -50.1°C | 3.5% | 0hPa | 2.6V | 08:29:28 | 01:25:52 | 00:00:00 | |
| AA1-15 | 2026-09-02 07:43:43 | 56.30680 | 9.85235 | 343° | 26km/h | 25187m | -18.5m/s | -50.1°C | 0.3% | 0hPa | 2.6V | 08:29:29 | 01:25:53 | 00:00:00 | |
| DM0DOS-11 | 2026-09-02 07:43:42 | 56.30667 | 9.85240 | 351° | 26km/h | 25227m | -21.2m/s | -50.2°C | 3.5% | 0hPa | 2.7V | 08:29:29 | 01:25:51 | 00:00:00 | |
| DL1XH-west | 2026-09-02 07:43:41 | 56.30667 | 9.85240 | 352° | 26km/h | 25227m | -21.2m/s | -50.2°C | 0.3% | 0hPa | 2.7V | 08:29:29 | 01:25:51 | 00:00:00 | |
| DO2SHX-10 | 2026-09-02 07:43:36 | 56.30630 | 9.85224 | 29° | 29km/h | 25316m | -18.0m/s | -50.1°C | 3.5% | 0hPa | 2.6V | 00:00:00 | 01:25:46 | 00:00:00 | |
| DL1XH1-15 | 2026-09-02 07:43:34 | 56.30611 | 9.85188 | 71° | 22km/h | 25411m | -25.8m/s | -49.5°C | 3.3% | 0hPa | 2.6V | 08:30:00 | 01:25:42 | 00:00:00 | |
| AA1-15 | 2026-09-02 07:43:32 | 56.30611 | 9.85188 | 71° | 22km/h | 25411m | -25.8m/s | -49.5°C | 0.2% | 0hPa | 2.6V | 18:12:15 | 01:25:42 | 00:00:00 | |
| DM0DOS-11 | 2026-09-02 07:43:32 | 56.30610 | 9.85179 | 71° | 20km/h | 25436m | -23.7m/s | -49.3°C | 3.3% | 0hPa | 2.6V | 08:30:00 | 01:25:41 | 00:00:00 | |
| DL1XH-west | 2026-09-02 07:43:30 | 56.30608 | 9.85170 | 74° | 20km/h | 25460m | -25.9m/s | -49.2°C | 0.1% | 0hPa | 2.6V | 18:12:15 | 01:25:40 | 00:00:00 | |
| DO2SHX-10 | 2026-09-02 07:43:30 | 56.30608 | 9.85170 | 75° | 20km/h | 25461m | -25.8m/s | -49.1°C | 3.2% | 0hPa | 2.7V | 00:00:00 | 01:25:40 | 00:00:00 | |
| DJ2DS-15 | 2026-09-02 07:43:29 | 56.30607 | 9.85161 | 77° | 24km/h | 25486m | -25.9m/s | -49.1°C | 3.3% | 0hPa | 2.7V | 00:00:00 | 01:25:39 | 00:00:00 | |
| DO2SHX-10 | 2026-09-02 07:43:27 | 56.30605 | 9.85144 | 79° | 20km/h | 25534m | -24.4m/s | -49.1°C | 3.3% | 0hPa | 2.7V | 00:00:00 | 01:25:37 | 00:00:00 | |
| DL1XH1-15 | 2026-09-02 07:43:24 | 56.30593 | 9.85095 | 66° | 27km/h | 25650m | -26m/s | -48.7°C | 3.2% | 0hPa | 2.7V | 08:30:00 | 01:25:32 | 00:00:00 | |
| DO2SHX-10 | 2026-09-02 07:43:24 | 56.30599 | 9.85116 | 67° | 27km/h | 25604m | -23.5m/s | -48.9°C | 3.2% | 0hPa | 2.7V | 00:00:00 | 01:25:34 | 00:00:00 | |
| DM0DOS-11 | 2026-09-02 07:43:22 | 56.30590 | 9.85083 | 69° | 29km/h | 25676m | -25.9m/s | -48.8°C | 3.2% | 0hPa | 2.7V | 08:30:00 | 01:25:31 | 00:00:00 | |
| AA1-15 | 2026-09-02 07:43:21 | 56.30590 | 9.85083 | 70° | 29km/h | 25676m | -25.9m/s | -48.8°C | 0.1% | 0hPa | 2.7V | 18:12:15 | 01:25:31 | 00:00:00 | |
| DL1XH-west | 2026-09-02 07:43:19 | 56.30585 | 9.85058 | 76° | 29km/h | 25727m | -25.5m/s | -48.9°C | 0.2% | 0hPa | 2.6V | 18:12:15 | 01:25:29 | 00:00:00 | |
| DO2SHX-10 | 2026-09-02 07:43:18 | 56.30584 | 9.85046 | 77° | 22km/h | 25751m | -23.4m/s | -48.8°C | 3.3% | 0hPa | 2.6V | 00:00:00 | 01:25:28 | 08:30:00 | |
| DJ2DS-15 | 2026-09-02 07:43:16 | 56.30581 | 9.85027 | 80° | 20km/h | 25798m | -20.7m/s | -48.7°C | 0.8% | -1.0hPa | 2.6V | 00:00:00 | 00:00:00 | 00:00:00 | |
| DO2SHX-10 | 2026-09-02 07:43:15 | 56.30580 | 9.85018 | 83° | 20km/h | 25820m | -22.4m/s | -48.4°C | 3.2% | 0hPa | 2.6V | 00:00:00 | 01:25:25 | 00:00:00 | |
| DL1XH1-15 | 2026-09-02 07:43:14 | 56.30577 | 9.84989 | 69° | 22km/h | 25885m | -23.8m/s | -48°C | 3% | 0hPa | 2.6V | 08:30:00 | 01:25:22 | 00:00:00 | |
| DM0DOS-11 | 2026-09-02 07:43:12 | 56.30575 | 9.84980 | 70° | 24km/h | 25910m | -23.6m/s | -48°C | 3% | 0hPa | 2.7V | 08:30:00 | 01:25:21 | 00:00:00 | |
| AA1-15 | 2026-09-02 07:43:10 | 56.30573 | 9.84969 | 72° | 27km/h | 25934m | -23.8m/s | -48°C | 0% | 0hPa | 2.7V | 18:12:15 | 01:25:20 | 00:00:00 | |
| DL1XH-west | 2026-09-02 07:43:08 | 56.30569 | 9.84943 | 77° | 29km/h | 25980m | -21.2m/s | -48°C | 0.1% | 0hPa | 2.6V | 18:12:15 | 01:25:18 | 00:00:00 | |
| DO2SHX-10 | 2026-09-02 07:43:06 | 56.30567 | 9.84916 | 93° | 31km/h | 26024m | -21.7m/s | -47.9°C | 3.1% | 0hPa | 2.6V | 00:00:00 | 01:25:16 | 00:00:00 | |
| DL1XH-15 | 2026-09-02 07:43:05 | 56.30583 | 9.84840 | 132° | 26km/h | 26159m | -30.7m/s | -48°C | 0% | 0hPa | 2.6V | 08:30:00 | 01:25:10 | 00:00:00 | |
| DL1XH1-15 | 2026-09-02 07:43:04 | 56.30575 | 9.84861 | 119° | 31km/h | 26105m | -23.3m/s | -47.9°C | 3% | 0hPa | 2.6V | 08:30:00 | 01:25:12 | 00:00:00 | |
| DM0DOS-11 | 2026-09-02 07:43:03 | 56.30579 | 9.84849 | 125° | 29km/h | 26130m | -26.9m/s | -48°C | 3% | 0hPa | 2.6V | 08:30:00 | 01:25:11 | 00:00:00 | |
| AA1-15 | 2026-09-02 07:42:59 | 56.30587 | 9.84832 | 125° | 20km/h | 26191m | -32.6m/s | -47.9°C | 0% | 0hPa | 2.7V | 18:12:15 | 01:25:09 | 00:00:00 | |
| DL1XH-west | 2026-09-02 07:42:57 | 56.30592 | 9.84818 | 118° | 16km/h | 26251m | -27.1m/s | -48°C | 0% | 0hPa | 2.7V | 18:12:15 | 01:25:07 | 00:00:00 | |
| DO2SHX-10 | 2026-09-02 07:42:57 | 56.30592 | 9.84818 | 119° | 15km/h | 26251m | -27.0m/s | -47.9°C | 3.0% | 0hPa | 2.6V | 00:00:00 | 01:25:07 | 00:00:00 | |
| DL1XH-15 | 2026-09-02 07:42:55 | 56.30593 | 9.84772 | 78° | 18km/h | 26449m | -28.6m/s | -48.3°C | 0% | 0hPa | 2.6V | 08:30:00 | 01:25:00 | 00:00:00 | |
| DL1XH1-15 | 2026-09-02 07:42:54 | 56.30595 | 9.84787 | 78° | 15km/h | 26390m | -29.6m/s | -48.1°C | 3% | 0hPa | 2.7V | 08:30:00 | 01:25:02 | 00:00:00 | |
| DO2SHX-10 | 2026-09-02 07:42:54 | 56.30595 | 9.84800 | 91° | 15km/h | 26335m | -25.7m/s | -48.0°C | 3.0% | 0hPa | 2.7V | 00:00:00 | 01:25:04 | 00:00:00 | |
| DM0DOS-11 | 2026-09-02 07:42:52 | 56.30594 | 9.84780 | 78° | 16km/h | 26419m | -29.7m/s | -48.2°C | 3% | 0hPa | 2.7V | 08:30:00 | 01:25:01 | 00:00:00 | |
| AA1-15 | 2026-09-02 07:42:48 | 56.30592 | 9.84756 | 82° | 18km/h | 26501m | -23.7m/s | -48.4°C | 0.1% | 0hPa | 2.6V | 18:12:15 | 01:24:58 | 00:00:00 | |
| DL1XH-west | 2026-09-02 07:42:47 | 56.30591 | 9.84748 | 82° | 20km/h | 26523m | -19.8m/s | -48.4°C | 0.1% | 0hPa | 2.7V | 18:12:15 | 01:24:57 | 00:00:00 | |
| DO2SHX-10 | 2026-09-02 07:42:45 | 56.30590 | 9.84729 | 89° | 22km/h | 26558m | -16.5m/s | -48.2°C | 3.0% | 0hPa | 2.7V | 00:00:00 | 01:24:55 | 00:00:00 | |
| DM0DOS-11 | 2026-09-02 07:42:42 | 56.30591 | 9.84689 | 95° | 22km/h | 26622m | -10.9m/s | -48.2°C | 3% | 0hPa | 2.7V | 08:30:00 | 01:24:51 | 00:00:00 | |
| DO2SHX-10 | 2026-09-02 07:42:42 | 56.30590 | 9.84699 | 95° | 22km/h | 26608m | -19.8m/s | -48.2°C | 3.0% | 0hPa | 2.6V | 00:00:00 | 01:24:52 | 00:00:00 | |
| DJ2DS-15 | 2026-09-02 07:42:40 | 56.30592 | 9.84679 | 95° | 22km/h | 26629m | -1.2m/s | -48.2°C | 0.7% | -1.0hPa | 2.7V | 00:00:00 | 00:00:00 | 00:00:00 | |
| DO2SHX-10 | 2026-09-02 07:42:39 | 56.30592 | 9.84669 | 95° | 26km/h | 26625m | 8.0m/s | -48.2°C | 3.1% | 0hPa | 2.7V | 00:00:00 | 01:24:49 | 00:00:00 | |
| DL1XH-15 | 2026-09-02 07:42:38 | 56.30585 | 9.84623 | 64° | 26km/h | 26596m | 8m/s | -48.2°C | 0% | 0hPa | 2.7V | 08:30:00 | 01:24:45 | 00:00:00 | |
| AA1-15 | 2026-09-02 07:42:38 | 56.30592 | 9.84659 | 83° | 26km/h | 26617m | 7.2m/s | -48.1°C | 0% | 0hPa | 2.6V | 18:12:15 | 01:24:48 | 00:00:00 | |
| DL1XH-west | 2026-09-02 07:42:37 | 56.30590 | 9.84647 | 75° | 29km/h | 26610m | 7.1m/s | -48.1°C | 0% | 0hPa | 2.6V | 18:12:15 | 01:24:47 | 00:00:00 | |
| AA1-15 | 2026-09-02 07:42:27 | 56.30570 | 9.84560 | 83° | 18km/h | 26539m | 8.1m/s | -48.3°C | 0% | 0hPa | 2.7V | 18:12:15 | 01:24:37 | 00:00:00 | |
| DL1XH-west | 2026-09-02 07:42:26 | 56.30569 | 9.84551 | 82° | 22km/h | 26531m | 7.7m/s | -48.4°C | 0.1% | 0hPa | 2.6V | 18:12:15 | 01:24:36 | 00:00:00 | |
| DL1XH1-15 | 2026-09-02 07:42:24 | 56.30564 | 9.84518 | 62° | 16km/h | 26503m | 6.3m/s | -48.4°C | 3.1% | 0hPa | 2.7V | 08:30:00 | 01:24:32 | 00:00:00 | |
| AA1-15 | 2026-09-02 07:42:17 | 56.30548 | 9.84484 | 51° | 13km/h | 26461m | 8.2m/s | -48.4°C | 0.1% | 0hPa | 2.7V | 18:12:15 | 01:24:26 | 00:00:00 | |
| DL1XH-west | 2026-09-02 07:42:15 | 56.30546 | 9.84479 | 71° | 15km/h | 26453m | 6.6m/s | -48.3°C | 0.1% | 0hPa | 2.7V | 18:12:15 | 01:24:25 | 00:00:00 | |
| DO2SHX-10 | 2026-09-02 07:42:15 | 56.30546 | 9.84479 | 72° | 13km/h | 26454m | 6.6m/s | -48.3°C | 3.1% | 0hPa | 2.7V | 00:00:00 | 01:24:25 | 00:00:00 | |
| DL1XH1-15 | 2026-09-02 07:42:14 | 56.30547 | 9.84463 | 117° | 11km/h | 26432m | 6.2m/s | -48.2°C | 3.1% | 0hPa | 2.6V | 08:30:00 | 01:24:22 | 00:00:00 | |
| DM0DOS-11 | 2026-09-02 07:42:12 | 56.30548 | 9.84457 | 115° | 15km/h | 26425m | 6.7m/s | -48.2°C | 3.1% | 0hPa | 2.7V | 08:30:00 | 01:24:21 | 00:00:00 | |
| DO2SHX-10 | 2026-09-02 07:42:12 | 56.30547 | 9.84462 | 118° | 15km/h | 26432m | 6.2m/s | -48.1°C | 3.1% | 0hPa | 2.7V | 00:00:00 | 01:24:22 | 00:00:00 | |
| DJ2DS-15 | 2026-09-02 07:42:09 | 56.30551 | 9.84443 | 102° | 18km/h | 26411m | 6.6m/s | -48.1°C | 3.1% | 0hPa | 2.7V | 00:00:00 | 01:24:19 | 00:00:00 | |
| DL1XH-15 | 2026-09-02 07:42:08 | 56.30551 | 9.84418 | 74° | 11km/h | 26383m | 6.9m/s | -48.1°C | 0% | 0hPa | 2.7V | 08:30:00 | 01:24:15 | 00:00:00 | |
| AA1-15 | 2026-09-02 07:42:05 | 56.30551 | 9.84418 | 75° | 11km/h | 26383m | 6.9m/s | -48.1°C | 0% | 0hPa | 2.7V | 18:12:15 | 01:24:15 | 00:00:00 | |
| DL1XH1-15 | 2026-09-02 07:42:05 | 56.30549 | 9.84401 | 94° | 11km/h | 26361m | 8.4m/s | -48.1°C | 3% | 0hPa | 2.6V | 08:30:00 | 01:24:12 | 00:00:00 | |
| DL1XH-west | 2026-09-02 07:42:04 | 56.30550 | 9.84413 | 73° | 15km/h | 26376m | 8.1m/s | -48.1°C | 0.1% | 0hPa | 2.7V | 18:12:15 | 01:24:14 | 00:00:00 | |
| DO2SHX-10 | 2026-09-02 07:42:03 | 56.30549 | 9.84407 | 84° | 11km/h | 26369m | 5.9m/s | -47.9°C | 3.1% | 0hPa | 2.6V | 00:00:00 | 01:24:13 | 00:00:00 | |
| DM0DOS-11 | 2026-09-02 07:42:02 | 56.30550 | 9.84397 | 123° | 11km/h | 26354m | 7.4m/s | -48.1°C | 3.1% | 0hPa | 2.6V | 08:30:00 | 01:24:11 | 00:00:00 | |
| DO2SHX-10 | 2026-09-02 07:42:00 | 56.30552 | 9.84392 | 138° | 20km/h | 26348m | 4.9m/s | -48.0°C | 3.1% | 0hPa | 2.6V | 00:00:00 | 01:24:10 | 00:00:00 | |
| DL1XH-15 | 2026-09-02 07:41:58 | 56.30572 | 9.84357 | 133° | 22km/h | 26312m | 4.3m/s | -48°C | 0% | 0hPa | 2.6V | 08:30:00 | 01:24:05 | 00:00:00 | |
| DL1XH1-15 | 2026-09-02 07:41:54 | 56.30581 | 9.84329 | 105° | 24km/h | 26291m | 6.3m/s | -48.1°C | 3.1% | 0hPa | 2.7V | 08:30:00 | 01:24:02 | 00:00:00 | |
| AA1-15 | 2026-09-02 07:41:54 | 56.30576 | 9.84349 | 126° | 24km/h | 26305m | 7.9m/s | -48°C | 0% | 0hPa | 2.6V | 18:12:15 | 01:24:04 | 00:00:00 | |
| DL1XH-west | 2026-09-02 07:41:53 | 56.30579 | 9.84339 | 114° | 26km/h | 26298m | 7.9m/s | -48°C | 0% | 0hPa | 2.7V | 18:12:15 | 01:24:03 | 00:00:00 | |
| DM0DOS-11 | 2026-09-02 07:41:52 | 56.30582 | 9.84319 | 107° | 22km/h | 26283m | 8.4m/s | -48°C | 3% | 0hPa | 2.7V | 08:30:00 | 01:24:01 | 00:00:00 | |
| DO2SHX-10 | 2026-09-02 07:41:51 | 56.30582 | 9.84319 | 108° | 22km/h | 26283m | 8.4m/s | -48.0°C | 3.0% | 0hPa | 2.6V | 00:00:00 | 01:24:01 | 00:00:00 | |
| DJ2DS-15 | 2026-09-02 07:41:49 | 56.30586 | 9.84301 | 115° | 26km/h | 26269m | 7.3m/s | -48.0°C | 3.0% | 0hPa | 2.6V | 00:00:00 | 01:23:59 | 00:00:00 | |
| DO2SHX-10 | 2026-09-02 07:41:48 | 56.30589 | 9.84290 | 117° | 26km/h | 26262m | 7.3m/s | -47.9°C | 3.0% | 0hPa | 2.6V | 00:00:00 | 01:23:58 | 00:00:00 | |
| DO2SHX-10 | 2026-09-02 07:41:45 | 56.30600 | 9.84262 | 136° | 22km/h | 26242m | 7.4m/s | -47.9°C | 3.0% | 0hPa | 2.6V | 00:00:00 | 01:23:55 | 00:00:00 | |
| DL1XH1-15 | 2026-09-02 07:41:44 | 56.30613 | 9.84242 | 131° | 24km/h | 26221m | 7.8m/s | -48°C | 3.1% | 0hPa | 2.6V | 08:30:00 | 01:23:52 | 00:00:00 | |
| AA1-15 | 2026-09-02 07:41:43 | 56.30609 | 9.84250 | 141° | 22km/h | 26228m | 6.4m/s | -48°C | 0% | 0hPa | 2.6V | 18:12:15 | 01:23:53 | 00:00:00 | |
| DM0DOS-11 | 2026-09-02 07:41:42 | 56.30616 | 9.84233 | 120° | 26km/h | 26214m | 6.3m/s | -48°C | 3.1% | 0hPa | 2.7V | 08:30:00 | 01:23:51 | 00:00:00 | |
| DL1XH-west | 2026-09-02 07:41:42 | 56.30613 | 9.84242 | 132° | 24km/h | 26221m | 7.8m/s | -48°C | 0% | 0hPa | 2.6V | 18:12:15 | 01:23:52 | 00:00:00 | |
| DO2SHX-10 | 2026-09-02 07:41:42 | 56.30613 | 9.84242 | 132° | 26km/h | 26222m | 7.8m/s | -48.0°C | 3.1% | 0hPa | 2.7V | 00:00:00 | 01:23:52 | 00:00:00 | |
| DO2SHX-10 | 2026-09-02 07:41:39 | 56.30621 | 9.84212 | 107° | 24km/h | 26201m | 8.8m/s | -48.1°C | 3.1% | 0hPa | 2.7V | 00:00:00 | 01:23:49 | 00:00:00 | |
| DO2SHX-10 | 2026-09-02 07:41:36 | 56.30623 | 9.84179 | 91° | 27km/h | 26178m | 6.9m/s | -48.1°C | 3.1% | 0hPa | 2.6V | 00:00:00 | 01:23:46 | 00:00:00 | |
| DL1XH1-15 | 2026-09-02 07:41:34 | 56.30623 | 9.84132 | 96° | 24km/h | 26150m | 6.7m/s | -48.1°C | 3.1% | 0hPa | 2.6V | 08:30:00 | 01:23:42 | 00:00:00 | |
| AA1-15 | 2026-09-02 07:41:32 | 56.30623 | 9.84132 | 96° | 24km/h | 26150m | 6.7m/s | -48.1°C | 0.1% | 0hPa | 2.6V | 18:12:15 | 01:23:42 | 00:00:00 | |
| DM0DOS-11 | 2026-09-02 07:41:32 | 56.30624 | 9.84121 | 102° | 26km/h | 26142m | 8.6m/s | -48°C | 3% | 0hPa | 2.6V | 08:30:00 | 01:23:41 | 00:00:00 | |
| DL1XH-west | 2026-09-02 07:41:31 | 56.30624 | 9.84121 | 102° | 26km/h | 26143m | 8.6m/s | -48°C | 0% | 0hPa | 2.6V | 18:12:15 | 01:23:41 | 00:00:00 | |
| DO2SHX-10 | 2026-09-02 07:41:30 | 56.30626 | 9.84109 | 107° | 24km/h | 26135m | 6.3m/s | -47.9°C | 3.0% | 0hPa | 2.6V | 00:00:00 | 01:23:40 | 08:30:00 | |
| DJ2DS-15 | 2026-09-02 07:41:29 | 56.30628 | 9.84098 | 110° | 27km/h | 26129m | 6.4m/s | -47.9°C | 3.0% | 0hPa | 2.7V | 00:00:00 | 01:23:39 | 00:00:00 | |
| DJ2DS-15 | 2026-09-02 07:41:28 | 56.30630 | 9.84089 | 109° | 20km/h | 26122m | 7.8m/s | -48.0°C | 0.7% | -1.0hPa | 2.7V | 00:00:00 | 00:00:00 | 00:00:00 | |
| DO2SHX-10 | 2026-09-02 07:41:27 | 56.30632 | 9.84080 | 108° | 24km/h | 26115m | 5.2m/s | -47.8°C | 3.0% | 0hPa | 2.7V | 00:00:00 | 01:23:37 | 00:00:00 | |
| DL1XH1-15 | 2026-09-02 07:41:24 | 56.30639 | 9.84020 | 92° | 29km/h | 26081m | 7.3m/s | -48°C | 3% | 0hPa | 2.7V | 08:30:00 | 01:23:32 | 00:00:00 | |
| DO2SHX-10 | 2026-09-02 07:41:24 | 56.30636 | 9.84047 | 103° | 29km/h | 26095m | 5.4m/s | -47.8°C | 3.0% | 0hPa | 2.7V | 00:00:00 | 01:23:34 | 00:00:00 | |
| DM0DOS-11 | 2026-09-02 07:41:22 | 56.30639 | 9.84006 | 87° | 31km/h | 26074m | 6.2m/s | -48°C | 3.1% | 0hPa | 2.7V | 08:30:00 | 01:23:31 | 00:00:00 | |
| DO2SHX-10 | 2026-09-02 07:41:21 | 56.30639 | 9.84006 | 88° | 35km/h | 26074m | 6.2m/s | -48.0°C | 3.1% | 0hPa | 2.7V | 00:00:00 | 01:23:31 | 00:00:00 | |
| DL1XH-west | 2026-09-02 07:41:21 | 56.30639 | 9.84006 | 87° | 31km/h | 26074m | 6.2m/s | -48°C | 0.1% | 0hPa | 2.7V | 18:12:15 | 01:23:31 | 00:00:00 | |
| DO2SHX-10 | 2026-09-02 07:41:18 | 56.30636 | 9.83959 | 82° | 29km/h | 26054m | 6.8m/s | -48.0°C | 3.1% | 0hPa | 2.6V | 00:00:00 | 01:23:28 | 00:00:00 | |
| SONDE2-11 | 2026-09-02 07:41:17 | 56.30635 | 9.83945 | 77° | 29km/h | 26046m | 9.4m/s | -48.0°C | 0.7% | -1.0hPa | 2.6V | 00:00:00 | 00:00:00 | 00:00:00 | |
| DO2SHX-10 | 2026-09-02 07:41:15 | 56.30632 | 9.83922 | 86° | 27km/h | 26033m | 7.7m/s | -47.9°C | 3.0% | 0hPa | 2.6V | 00:00:00 | 01:23:25 | 00:00:00 | |
| DL1XH1-15 | 2026-09-02 07:41:14 | 56.30632 | 9.83886 | 87° | 26km/h | 26011m | 9.1m/s | -48°C | 3% | 0hPa | 2.6V | 08:30:00 | 01:23:22 | 00:00:00 | |
| DM0DOS-11 | 2026-09-02 07:41:12 | 56.30632 | 9.83874 | 82° | 26km/h | 26003m | 6.1m/s | -48.1°C | 3% | 0hPa | 2.7V | 08:30:00 | 01:23:21 | 00:00:00 | |
| DL1XH-west | 2026-09-02 07:41:10 | 56.30631 | 9.83863 | 84° | 27km/h | 25997m | 7m/s | -48°C | 0% | 0hPa | 2.7V | 18:12:15 | 01:23:20 | 00:00:00 | |
| DJ2DS-15 | 2026-09-02 07:41:09 | 56.30630 | 9.83850 | 87° | 26km/h | 25990m | 7.4m/s | -47.8°C | 3.0% | 0hPa | 2.6V | 00:00:00 | 01:23:19 | 00:00:00 | |
| DO2SHX-10 | 2026-09-02 07:41:06 | 56.30627 | 9.83814 | 70° | 26km/h | 25969m | 6.2m/s | -48.0°C | 3.0% | 0hPa | 2.6V | 00:00:00 | 01:23:16 | 00:00:00 | |
| DL1XH1-15 | 2026-09-02 07:41:04 | 56.30620 | 9.83770 | 79° | 22km/h | 25943m | 7.1m/s | -48°C | 3% | 0hPa | 2.6V | 08:30:00 | 01:23:12 | 00:00:00 | |
| DO2SHX-10 | 2026-09-02 07:41:03 | 56.30621 | 9.83781 | 79° | 24km/h | 25950m | 5.3m/s | -47.9°C | 3.0% | 0hPa | 2.7V | 00:00:00 | 01:23:13 | 08:30:00 | |
| DM0DOS-11 | 2026-09-02 07:41:02 | 56.30619 | 9.83761 | 77° | 20km/h | 25936m | 7.3m/s | -48°C | 3% | 0hPa | 2.6V | 08:30:00 | 01:23:11 | 00:00:00 | |
| AA1-15 | 2026-09-02 07:41:00 | 56.30618 | 9.83751 | 79° | 22km/h | 25930m | 4.7m/s | -48°C | 0% | 0hPa | 2.6V | 18:12:15 | 01:23:10 | 00:00:00 | |
| DL1XH-west | 2026-09-02 07:40:59 | 56.30617 | 9.83741 | 82° | 24km/h | 25925m | 6.5m/s | -48.1°C | 0% | 0hPa | 2.7V | 18:12:15 | 01:23:09 | 00:00:00 | |
| DO2SHX-10 | 2026-09-02 07:40:57 | 56.30616 | 9.83717 | 91° | 27km/h | 25913m | 5.1m/s | -48.0°C | 2.9% | 0hPa | 2.7V | 00:00:00 | 01:23:07 | 00:00:00 | |
| DL1XH1-15 | 2026-09-02 07:40:54 | 56.30612 | 9.83661 | 72° | 27km/h | 25881m | 7.9m/s | -48.1°C | 3% | 0hPa | 2.7V | 08:30:00 | 01:23:02 | 00:00:00 | |
| DO2SHX-10 | 2026-09-02 07:40:54 | 56.30615 | 9.83682 | 79° | 26km/h | 25893m | 6.2m/s | -48.1°C | 3.0% | 0hPa | 2.6V | 00:00:00 | 01:23:04 | 00:00:00 | |
| DM0DOS-11 | 2026-09-02 07:40:52 | 56.30610 | 9.83648 | 72° | 31km/h | 25874m | 6.2m/s | -48.1°C | 3% | 0hPa | 2.6V | 08:30:00 | 01:23:01 | 00:00:00 | |
| AA1-15 | 2026-09-02 07:40:49 | 56.30604 | 9.83622 | 68° | 27km/h | 25861m | 8.4m/s | -48.4°C | 0% | 0hPa | 2.7V | 18:12:15 | 01:22:59 | 00:00:00 | |
| DL1XH-west | 2026-09-02 07:40:48 | 56.30602 | 9.83611 | 66° | 26km/h | 25854m | 6.1m/s | -48.6°C | 0.1% | 0hPa | 2.7V | 18:12:15 | 01:22:58 | 00:00:00 | |
| SONDE2-11 | 2026-09-02 07:40:46 | 56.30597 | 9.83590 | 66° | 26km/h | 25839m | 7.3m/s | -48.6°C | 0.7% | -1.0hPa | 2.7V | 00:00:00 | 00:00:00 | 00:00:00 | |
| DO2SHX-10 | 2026-09-02 07:40:45 | 56.30594 | 9.83579 | 65° | 20km/h | 25833m | 4.8m/s | -48.6°C | 3.1% | 0hPa | 2.7V | 00:00:00 | 01:22:55 | 00:00:00 | |
| DL1XH1-15 | 2026-09-02 07:40:44 | 56.30588 | 9.83555 | 66° | 18km/h | 25812m | 7.1m/s | -48.9°C | 3.1% | 0hPa | 2.6V | 08:30:00 | 01:22:52 | 00:00:00 | |
| DM0DOS-11 | 2026-09-02 07:40:42 | 56.30585 | 9.83546 | 66° | 24km/h | 25804m | 8.5m/s | -49°C | 3.2% | 0hPa | 2.7V | 08:30:00 | 01:22:51 | 00:00:00 | |
| DL1XH-west | 2026-09-02 07:40:38 | 56.30576 | 9.83516 | 51° | 24km/h | 25785m | 8.8m/s | -48.9°C | 0.1% | 0hPa | 2.6V | 18:12:15 | 01:22:48 | 00:00:00 | |
| DO2SHX-10 | 2026-09-02 07:40:36 | 56.30567 | 9.83499 | 47° | 27km/h | 25771m | 9.2m/s | -49.0°C | 3.1% | 0hPa | 2.7V | 00:00:00 | 01:22:46 | 08:30:00 | |
| GOEST3-10 | 2026-09-02 07:40:34 | 56.30558 | 9.83480 | 51° | 26km/h | 25758m | 5.3m/s | 0°C | 0% | 0hPa | 2.6V | 00:00:00 | 01:22:44 | 00:00:00 | |
| DO2SHX-10 | 2026-09-02 07:40:33 | 56.30554 | 9.83472 | 49° | 18km/h | 25751m | 9.0m/s | -49.1°C | 3.2% | 0hPa | 2.6V | 00:00:00 | 01:22:43 | 00:00:00 | |
| DM0DOS-11 | 2026-09-02 07:40:32 | 56.30549 | 9.83459 | 66° | 18km/h | 25736m | 8.2m/s | -49°C | 3.2% | 0hPa | 2.6V | 08:30:00 | 01:22:41 | 00:00:00 | |
| DL1XH-west | 2026-09-02 07:40:28 | 56.30546 | 9.83435 | 83° | 16km/h | 25716m | 8.1m/s | -48.9°C | 0.1% | 0hPa | 2.7V | 18:12:15 | 01:22:38 | 00:00:00 | |
| AA1-15 | 2026-09-02 07:40:27 | 56.30546 | 9.83427 | 78° | 16km/h | 25708m | 6.7m/s | -48.9°C | 0.1% | 0hPa | 2.7V | 18:12:15 | 01:22:37 | 00:00:00 | |
| DO2SHX-10 | 2026-09-02 07:40:27 | 56.30545 | 9.83427 | 79° | 20km/h | 25709m | 6.6m/s | -48.8°C | 3.1% | 0hPa | 2.7V | 00:00:00 | 01:22:37 | 00:00:00 | |
| DL1XH1-15 | 2026-09-02 07:40:24 | 56.30531 | 9.83385 | 42° | 24km/h | 25675m | 6.6m/s | -48.9°C | 3.1% | 0hPa | 2.7V | 08:30:00 | 01:22:32 | 00:00:00 | |
| DL1XH-west | 2026-09-02 07:40:17 | 56.30516 | 9.83338 | 93° | 18km/h | 25643m | 7.2m/s | -49.1°C | 0.1% | 0hPa | 2.6V | 18:12:15 | 01:22:27 | 00:00:00 | |
| AA1-15 | 2026-09-02 07:40:16 | 56.30517 | 9.83330 | 106° | 18km/h | 25636m | 6m/s | -49.2°C | 0.1% | 0hPa | 2.7V | 18:12:15 | 01:22:26 | 00:00:00 | |
| DJ2DS-15 | 2026-09-02 07:40:16 | 56.30517 | 9.83330 | 106° | 16km/h | 25636m | 6.0m/s | -49.2°C | 0.8% | -1.0hPa | 2.6V | 00:00:00 | 00:00:00 | 00:00:00 | |
| SONDE2-11 | 2026-09-02 07:40:15 | 56.30518 | 9.83321 | 107° | 18km/h | 25630m | 7.2m/s | -49.1°C | 0.8% | -1.0hPa | 2.6V | 00:00:00 | 00:00:00 | 00:00:00 | |
| DM0DOS-11 | 2026-09-02 07:40:12 | 56.30518 | 9.83287 | 72° | 16km/h | 25602m | 6.1m/s | -49°C | 3.1% | 0hPa | 2.6V | 08:30:00 | 01:22:21 | 00:00:00 | |
| DL1XH-west | 2026-09-02 07:40:07 | 56.30511 | 9.83244 | 81° | 29km/h | 25578m | 6.4m/s | -49.1°C | 0.1% | 0hPa | 2.6V | 18:12:15 | 01:22:17 | 00:00:00 | |
| AA1-15 | 2026-09-02 07:40:06 | 56.30510 | 9.83220 | 84° | 26km/h | 25564m | 5.3m/s | -49.2°C | 0.1% | 0hPa | 2.6V | 18:12:15 | 01:22:15 | 00:00:00 | |
| DO2SHX-10 | 2026-09-02 07:40:06 | 56.30510 | 9.83231 | 85° | 26km/h | 25571m | 8.3m/s | -49.1°C | 3.2% | 0hPa | 2.7V | 00:00:00 | 01:22:16 | 00:00:00 | |
| DL1XH1-15 | 2026-09-02 07:40:04 | 56.30507 | 9.83185 | 81° | 24km/h | 25545m | 6m/s | -49.4°C | 3.1% | 0hPa | 2.7V | 08:30:00 | 01:22:12 | 00:00:00 | |
| DL1XH-west | 2026-09-02 07:39:56 | 56.30495 | 9.83140 | 51° | 22km/h | 25504m | 7.4m/s | -49.3°C | 0% | 0hPa | 2.7V | 18:12:15 | 01:22:06 | 00:00:00 | |
| AA1-15 | 2026-09-02 07:39:54 | 56.30488 | 9.83123 | 58° | 27km/h | 25492m | 5.3m/s | -49.4°C | 0% | 0hPa | 2.6V | 18:12:15 | 01:22:04 | 00:00:00 | |
| DL1XH1-15 | 2026-09-02 07:39:54 | 56.30480 | 9.83099 | 57° | 37km/h | 25477m | 6.6m/s | -49.5°C | 3.1% | 0hPa | 2.7V | 08:30:00 | 01:22:02 | 00:00:00 | |
| DO2SHX-10 | 2026-09-02 07:39:54 | 56.30488 | 9.83123 | 58° | 31km/h | 25492m | 5.2m/s | -49.3°C | 3.0% | 0hPa | 2.7V | 00:00:00 | 01:22:04 | 00:00:00 | |
| DM0DOS-11 | 2026-09-02 07:39:52 | 56.30475 | 9.83086 | 56° | 35km/h | 25471m | 7.2m/s | -49.6°C | 3.2% | 0hPa | 2.7V | 08:30:00 | 01:22:01 | 00:00:00 | |
| DL1XH-west | 2026-09-02 07:39:45 | 56.30443 | 9.83028 | 31° | 24km/h | 25430m | 9.5m/s | -50°C | 0.1% | 0hPa | 2.7V | 18:12:15 | 01:21:55 | 00:00:00 | |
| SONDE2-11 | 2026-09-02 07:39:45 | 56.30437 | 9.83023 | 26° | 20km/h | 25423m | 5.0m/s | -50.0°C | 0.8% | -1.0hPa | 2.6V | 00:00:00 | 00:00:00 | 00:00:00 | |
| DL1XH1-15 | 2026-09-02 07:39:44 | 56.30427 | 9.83013 | 32° | 24km/h | 25409m | 6.9m/s | -50.2°C | 3.3% | 0hPa | 2.6V | 08:30:00 | 01:21:52 | 00:00:00 | |
| AA1-15 | 2026-09-02 07:39:43 | 56.30432 | 9.83019 | 27° | 24km/h | 25416m | 7.4m/s | -50.1°C | 0.2% | 0hPa | 2.6V | 18:12:15 | 01:21:53 | 00:00:00 | |
| DM0DOS-11 | 2026-09-02 07:39:42 | 56.30422 | 9.83007 | 38° | 24km/h | 25403m | 5.7m/s | -50.3°C | 3.3% | 0hPa | 2.6V | 08:30:00 | 01:21:51 | 00:00:00 | |
| DO2SHX-10 | 2026-09-02 07:39:42 | 56.30427 | 9.83013 | 33° | 24km/h | 25410m | 6.9m/s | -50.1°C | 3.3% | 0hPa | 2.6V | 00:00:00 | 01:21:52 | 08:30:00 | |
| DJ2DS-15 | 2026-09-02 07:39:40 | 56.30418 | 9.83000 | 42° | 20km/h | 25396m | 8.0m/s | -50.4°C | 0.8% | -1.0hPa | 2.7V | 00:00:00 | 00:00:00 | 00:00:00 | |
| DO2SHX-10 | 2026-09-02 07:39:39 | 56.30414 | 9.82994 | 46° | 24km/h | 25390m | 6.0m/s | -50.3°C | 3.4% | 0hPa | 2.7V | 00:00:00 | 01:21:49 | 00:00:00 | |
| DO2SHX-10 | 2026-09-02 07:39:36 | 56.30399 | 9.82972 | 31° | 31km/h | 25372m | 4.7m/s | -50.3°C | 3.3% | 0hPa | 2.7V | 00:00:00 | 01:21:46 | 00:00:00 | |
| DL1XH1-15 | 2026-09-02 07:39:34 | 56.30371 | 9.82958 | 5° | 29km/h | 25347m | 5.9m/s | -50.3°C | 3.4% | 0hPa | 2.7V | 08:30:00 | 01:21:42 | 00:00:00 | |
| DL1XH-west | 2026-09-02 07:39:34 | 56.30385 | 9.82962 | 15° | 29km/h | 25360m | 8.2m/s | -50.5°C | 0.3% | 0hPa | 2.7V | 18:12:15 | 01:21:44 | 00:00:00 | |
| DO2SHX-10 | 2026-09-02 07:39:33 | 56.30378 | 9.82959 | 7° | 29km/h | 25353m | 6.0m/s | -50.3°C | 3.4% | 0hPa | 2.7V | 00:00:00 | 01:21:43 | 00:00:00 | |
| AA1-15 | 2026-09-02 07:39:33 | 56.30371 | 9.82958 | 6° | 29km/h | 25347m | 5.9m/s | -50.3°C | 0.2% | 0hPa | 2.7V | 18:12:15 | 01:21:42 | 00:00:00 | |
| DM0DOS-11 | 2026-09-02 07:39:32 | 56.30364 | 9.82956 | 9° | 29km/h | 25340m | 8.3m/s | -50.4°C | 3.4% | 0hPa | 2.6V | 08:30:00 | 01:21:41 | 00:00:00 | |
| DO2SHX-10 | 2026-09-02 07:39:30 | 56.30357 | 9.82954 | 10° | 26km/h | 25333m | 5.5m/s | -50.4°C | 3.4% | 0hPa | 2.6V | 00:00:00 | 01:21:40 | 00:00:00 | |
| DJ2DS-15 | 2026-09-02 07:39:29 | 56.30351 | 9.82953 | 4° | 22km/h | 25326m | 7.7m/s | -50.5°C | 3.5% | 0hPa | 2.6V | 00:00:00 | 01:21:39 | 08:30:00 | |
| DO2SHX-10 | 2026-09-02 07:39:27 | 56.30339 | 9.82953 | 355° | 22km/h | 25313m | 4.8m/s | -50.4°C | 3.4% | 0hPa | 2.7V | 00:00:00 | 01:21:37 | 00:00:00 | |
| DL1XH1-15 | 2026-09-02 07:39:24 | 56.30311 | 9.82957 | 342° | 24km/h | 25280m | 6.6m/s | -50.5°C | 3.4% | 0hPa | 2.7V | 08:30:00 | 01:21:32 | 00:00:00 | |
| DL1XH-west | 2026-09-02 07:39:23 | 56.30317 | 9.82954 | 353° | 24km/h | 25287m | 8m/s | -50.6°C | 0.3% | 0hPa | 2.6V | 18:12:15 | 01:21:33 | 00:00:00 | |
| DM0DOS-11 | 2026-09-02 07:39:22 | 56.30305 | 9.82960 | 340° | 24km/h | 25274m | 5.9m/s | -50.4°C | 3.4% | 0hPa | 2.7V | 08:30:00 | 01:21:31 | 00:00:00 | |
| AA1-15 | 2026-09-02 07:39:21 | 56.30305 | 9.82960 | 340° | 24km/h | 25274m | 5.9m/s | -50.4°C | 0.3% | 0hPa | 2.7V | 18:12:15 | 01:21:31 | 00:00:00 | |
| DO2SHX-10 | 2026-09-02 07:39:21 | 56.30305 | 9.82960 | 341° | 24km/h | 25274m | 5.9m/s | -50.3°C | 3.4% | 0hPa | 2.7V | 00:00:00 | 01:21:31 | 00:00:00 | |
| DO2SHX-10 | 2026-09-02 07:39:18 | 56.30288 | 9.82968 | 345° | 22km/h | 25254m | 6.3m/s | -50.3°C | 3.4% | 0hPa | 2.7V | 00:00:00 | 01:21:28 | 00:00:00 | |
| DO2SHX-10 | 2026-09-02 07:39:15 | 56.30272 | 9.82981 | 336° | 20km/h | 25236m | 7.0m/s | -50.2°C | 3.4% | 0hPa | 2.7V | 00:00:00 | 01:21:25 | 08:30:00 | |
| DL1XH1-15 | 2026-09-02 07:39:14 | 56.30258 | 9.82991 | 334° | 20km/h | 25215m | 8.8m/s | -50.1°C | 3.3% | 0hPa | 2.6V | 08:30:00 | 01:21:22 | 00:00:00 | |
| DL1XH-west | 2026-09-02 07:39:13 | 56.30263 | 9.82987 | 341° | 20km/h | 25222m | 4.8m/s | -50.1°C | 0.2% | 0hPa | 2.6V | 18:12:15 | 01:21:23 | 00:00:00 | |
| DM0DOS-11 | 2026-09-02 07:39:12 | 56.30253 | 9.82995 | 326° | 22km/h | 25208m | 5.9m/s | -50.1°C | 3.3% | 0hPa | 2.6V | 08:30:00 | 01:21:21 | 00:00:00 | |
| AA1-15 | 2026-09-02 07:39:10 | 56.30249 | 9.83001 | 328° | 20km/h | 25202m | 6.1m/s | -50.1°C | 0.2% | 0hPa | 2.7V | 18:12:15 | 01:21:20 | 00:00:00 | |
| DJ2DS-15 | 2026-09-02 07:39:09 | 56.30244 | 9.83005 | 333° | 18km/h | 25195m | 7.6m/s | -50.0°C | 3.2% | 0hPa | 2.6V | 00:00:00 | 01:21:19 | 00:00:00 | |
| DO2SHX-10 | 2026-09-02 07:39:06 | 56.30233 | 9.83021 | 310° | 18km/h | 25174m | 6.5m/s | -50.0°C | 3.3% | 0hPa | 2.6V | 00:00:00 | 01:21:16 | 00:00:00 | |
| DL1XH1-15 | 2026-09-02 07:39:04 | 56.30221 | 9.83042 | 317° | 16km/h | 25148m | 7.3m/s | -50.2°C | 3.4% | 0hPa | 2.6V | 08:30:00 | 01:21:12 | 00:00:00 | |
| DL1XH-west | 2026-09-02 07:39:03 | 56.30224 | 9.83038 | 322° | 15km/h | 25154m | 4.8m/s | -50.1°C | 0.2% | 0hPa | 2.7V | 18:12:15 | 01:21:13 | 00:00:00 | |
| DO2SHX-10 | 2026-09-02 07:39:03 | 56.30224 | 9.83038 | 323° | 16km/h | 25154m | 4.8m/s | -50.1°C | 3.4% | 0hPa | 2.6V | 00:00:00 | 01:21:13 | 00:00:00 | |
| DM0DOS-11 | 2026-09-02 07:39:02 | 56.30219 | 9.83048 | 311° | 16km/h | 25140m | 7.5m/s | -50.2°C | 3.4% | 0hPa | 2.6V | 08:30:00 | 01:21:11 | 00:00:00 | |
| AA1-15 | 2026-09-02 07:38:59 | 56.30212 | 9.83058 | 326° | 16km/h | 25126m | 9.2m/s | -50.2°C | 0.3% | 0hPa | 2.7V | 18:12:15 | 01:21:09 | 00:00:00 | |
| DO2SHX-10 | 2026-09-02 07:38:57 | 56.30205 | 9.83065 | 325° | 20km/h | 25115m | 5.8m/s | -50.2°C | 3.4% | 0hPa | 2.6V | 00:00:00 | 01:21:07 | 00:00:00 | |
| DL1XH1-15 | 2026-09-02 07:38:54 | 56.30188 | 9.83102 | 304° | 22km/h | 25081m | 5.2m/s | -50.5°C | 3.4% | 0hPa | 2.7V | 08:30:00 | 01:21:02 | 00:00:00 | |
| DO2SHX-10 | 2026-09-02 07:38:54 | 56.30195 | 9.83086 | 309° | 22km/h | 25095m | 7.2m/s | -50.4°C | 3.4% | 0hPa | 2.7V | 00:00:00 | 01:21:04 | 00:00:00 | |
| DM0DOS-11 | 2026-09-02 07:38:52 | 56.30185 | 9.83111 | 298° | 24km/h | 25074m | 9.1m/s | -50.4°C | 3.4% | 0hPa | 2.7V | 08:30:00 | 01:21:01 | 00:00:00 | |
| DL1XH-west | 2026-09-02 07:38:52 | 56.30188 | 9.83102 | 304° | 22km/h | 25081m | 5.2m/s | -50.5°C | 0.3% | 0hPa | 2.7V | 18:12:15 | 01:21:02 | 00:00:00 | |
| AA1-15 | 2026-09-02 07:38:48 | 56.30178 | 9.83136 | 302° | 15km/h | 25054m | 6.6m/s | -50.2°C | 0.3% | 0hPa | 2.7V | 18:12:15 | 01:20:58 | 00:00:00 | |
| DO2SHX-10 | 2026-09-02 07:38:48 | 56.30178 | 9.83136 | 302° | 13km/h | 25055m | 6.6m/s | -50.2°C | 3.4% | 0hPa | 2.7V | 00:00:00 | 01:20:58 | 08:30:00 | |
| DO2SHX-10 | 2026-09-02 07:38:45 | 56.30173 | 9.83151 | 292° | 13km/h | 25034m | 6.1m/s | -50.2°C | 3.4% | 0hPa | 2.7V | 00:00:00 | 01:20:55 | 00:00:00 | |
| DM0DOS-11 | 2026-09-02 07:38:42 | 56.30166 | 9.83170 | 305° | 15km/h | 25009m | 6.8m/s | -50.2°C | 3.4% | 0hPa | 2.7V | 08:30:00 | 01:20:51 | 00:00:00 | |
| DL1XH-west | 2026-09-02 07:38:42 | 56.30168 | 9.83165 | 313° | 11km/h | 25015m | 5.2m/s | -50.3°C | 0.2% | 0hPa | 2.7V | 18:12:15 | 01:20:52 | 00:00:00 | |
| AA1-15 | 2026-09-02 07:38:37 | 56.30159 | 9.83201 | 293° | 16km/h | 24984m | 7.9m/s | -50.1°C | 0.3% | 0hPa | 2.7V | 18:12:15 | 01:20:47 | 00:00:00 | |
| DO2SHX-10 | 2026-09-02 07:38:36 | 56.30158 | 9.83207 | 287° | 15km/h | 24978m | 5.2m/s | -50.0°C | 3.4% | 0hPa | 2.7V | 00:00:00 | 01:20:46 | 00:00:00 | |
| DO2SHX-10 | 2026-09-02 07:38:33 | 56.30158 | 9.83227 | 257° | 13km/h | 24958m | 5.7m/s | -49.9°C | 3.3% | 0hPa | 2.7V | 00:00:00 | 01:20:43 | 00:00:00 | |
| DM0DOS-11 | 2026-09-02 07:38:32 | 56.30159 | 9.83238 | 262° | 9km/h | 24944m | 5.7m/s | -49.9°C | 3.3% | 0hPa | 2.7V | 08:30:00 | 01:20:41 | 00:00:00 | |
| DL1XH-west | 2026-09-02 07:38:31 | 56.30160 | 9.83238 | 263° | 9km/h | 24944m | 5.7m/s | -49.9°C | 0.2% | 0hPa | 2.7V | 18:12:15 | 01:20:41 | 00:00:00 | |
| AA1-15 | 2026-09-02 07:38:26 | 56.30154 | 9.83270 | 312° | 18km/h | 24913m | 7.8m/s | -49.7°C | 0.2% | 0hPa | 2.6V | 18:12:15 | 01:20:36 | 00:00:00 | |
| DL1XH1-15 | 2026-09-02 07:38:24 | 56.30147 | 9.83290 | 232° | 9km/h | 24888m | 5.5m/s | -49.7°C | 3.1% | 0hPa | 2.6V | 08:30:00 | 01:20:32 | 00:00:00 | |
| DL1XH-west | 2026-09-02 07:38:20 | 56.30151 | 9.83293 | 177° | 11km/h | 24874m | 6.1m/s | -49.7°C | 0.1% | 0hPa | 2.6V | 18:12:15 | 01:20:30 | 00:00:00 | |
| AA1-15 | 2026-09-02 07:38:16 | 56.30162 | 9.83302 | 245° | 13km/h | 24849m | 6.2m/s | -49.6°C | 0.2% | 0hPa | 2.6V | 18:12:15 | 01:20:26 | 00:00:00 | |
| DO2SHX-10 | 2026-09-02 07:38:15 | 56.30163 | 9.83307 | 266° | 13km/h | 24842m | 8.4m/s | -49.6°C | 3.2% | 0hPa | 2.7V | 00:00:00 | 01:20:25 | 00:00:00 | |
| DL1XH1-15 | 2026-09-02 07:38:14 | 56.30159 | 9.83322 | 305° | 15km/h | 24820m | 7m/s | -49.8°C | 3.2% | 0hPa | 2.7V | 08:30:00 | 01:20:22 | 00:00:00 | |
| DM0DOS-11 | 2026-09-02 07:38:12 | 56.30157 | 9.83327 | 300° | 13km/h | 24815m | 4.9m/s | -49.9°C | 3.2% | 0hPa | 2.7V | 08:30:00 | 01:20:21 | 00:00:00 | |
| DL1XH-west | 2026-09-02 07:38:09 | 56.30155 | 9.83331 | 21° | 2km/h | 24802m | 8.5m/s | -50.1°C | 0.2% | 0hPa | 2.6V | 18:12:15 | 01:20:19 | 00:00:00 | |
| AA1-15 | 2026-09-02 07:38:05 | 56.30165 | 9.83322 | 164° | 18km/h | 24774m | 6m/s | -50°C | 0.2% | 0hPa | 2.7V | 18:12:15 | 01:20:15 | 00:00:00 | |
| DL1XH1-15 | 2026-09-02 07:38:04 | 56.30176 | 9.83314 | 164° | 11km/h | 24754m | 7.2m/s | -50°C | 3.3% | 0hPa | 2.6V | 08:30:00 | 01:20:12 | 00:00:00 | |
| DM0DOS-11 | 2026-09-02 07:38:02 | 56.30178 | 9.83314 | 190° | 5km/h | 24746m | 7.1m/s | -50°C | 3.4% | 0hPa | 2.7V | 08:30:00 | 01:20:11 | 00:00:00 | |
| DL1XH-west | 2026-09-02 07:37:59 | 56.30177 | 9.83315 | 358° | 7km/h | 24733m | 8.4m/s | -50.1°C | 0.2% | 0hPa | 2.7V | 18:12:15 | 01:20:09 | 00:00:00 | |
| AA1-15 | 2026-09-02 07:37:55 | 56.30161 | 9.83320 | 345° | 7km/h | 24700m | 8m/s | -50.1°C | 0.2% | 0hPa | 2.7V | 18:12:15 | 01:20:04 | 00:00:00 | |
| DL1XH1-15 | 2026-09-02 07:37:55 | 56.30161 | 9.83320 | 170° | 5km/h | 24686m | 6.2m/s | -50.1°C | 3.3% | 0hPa | 2.6V | 08:30:00 | 01:20:02 | 00:00:00 | |
| DO2SHX-10 | 2026-09-02 07:37:54 | 56.30161 | 9.83320 | 345° | 4km/h | 24700m | 7.9m/s | -50.0°C | 3.3% | 0hPa | 2.7V | 00:00:00 | 01:20:04 | 08:30:00 | |
| DM0DOS-11 | 2026-09-02 07:37:52 | 56.30162 | 9.83320 | 192° | 7km/h | 24679m | 8.5m/s | -50.2°C | 3.3% | 0hPa | 2.6V | 08:30:00 | 01:20:01 | 00:00:00 | |
| DL1XH-west | 2026-09-02 07:37:48 | 56.30168 | 9.83323 | 186° | 4km/h | 24658m | 6.9m/s | -50.3°C | 0.2% | 0hPa | 2.7V | 18:12:15 | 01:19:58 | 00:00:00 | |
| AA1-15 | 2026-09-02 07:37:43 | 56.30159 | 9.83332 | 349° | 16km/h | 24625m | 8.1m/s | -50.2°C | 0.2% | 0hPa | 2.6V | 18:12:15 | 01:19:53 | 00:00:00 | |
| DM0DOS-11 | 2026-09-02 07:37:42 | 56.30153 | 9.83334 | 343° | 11km/h | 24613m | 6.5m/s | -50.2°C | 3.3% | 0hPa | 2.7V | 08:30:00 | 01:19:51 | 00:00:00 | |
| DL1XH-west | 2026-09-02 07:37:37 | 56.30151 | 9.83346 | 230° | 5km/h | 24584m | 7m/s | -50.2°C | 0.3% | 0hPa | 2.7V | 18:12:15 | 01:19:47 | 00:00:00 | |
| DO2SHX-10 | 2026-09-02 07:37:36 | 56.30152 | 9.83348 | 230° | 7km/h | 24578m | 4.6m/s | -50.1°C | 3.4% | 0hPa | 2.7V | 00:00:00 | 01:19:46 | 00:00:00 | |
| DL1XH1-15 | 2026-09-02 07:37:34 | 56.30151 | 9.83362 | 307° | 9km/h | 24551m | 7.7m/s | -50.2°C | 3.3% | 0hPa | 2.7V | 08:30:00 | 01:19:42 | 00:00:00 | |
| AA1-15 | 2026-09-02 07:37:32 | 56.30151 | 9.83362 | 308° | 9km/h | 24551m | 7.7m/s | -50.2°C | 0.2% | 0hPa | 2.7V | 18:12:15 | 01:19:42 | 00:00:00 | |
| DL1XH-west | 2026-09-02 07:37:26 | 56.30129 | 9.83377 | 349° | 16km/h | 24511m | 7.2m/s | -50.1°C | 0.2% | 0hPa | 2.7V | 18:12:15 | 01:19:36 | 00:00:00 | |
| DL1XH1-15 | 2026-09-02 07:37:24 | 56.30122 | 9.83387 | 266° | 13km/h | 24485m | 6.4m/s | -50°C | 3.3% | 0hPa | 2.7V | 08:30:00 | 01:19:32 | 00:00:00 | |
| AA1-15 | 2026-09-02 07:37:21 | 56.30123 | 9.83393 | 255° | 15km/h | 24478m | 6.2m/s | -50°C | 0.2% | 0hPa | 2.7V | 18:12:15 | 01:19:31 | 00:00:00 | |
| DL1XH-west | 2026-09-02 07:37:15 | 56.30124 | 9.83431 | 304° | 15km/h | 24436m | 8.2m/s | -50.2°C | 0.2% | 0hPa | 2.7V | 18:12:15 | 01:19:25 | 00:00:00 | |
| DO2SHX-10 | 2026-09-02 07:37:15 | 56.30124 | 9.83431 | 304° | 15km/h | 24436m | 8.1m/s | -50.2°C | 3.3% | 0hPa | 2.6V | 00:00:00 | 01:19:25 | 00:00:00 | |
| DL1XH1-15 | 2026-09-02 07:37:14 | 56.30116 | 9.83445 | 321° | 18km/h | 24415m | 8.5m/s | -50.4°C | 3.3% | 0hPa | 2.6V | 08:30:00 | 01:19:22 | 00:00:00 | |
| DM0DOS-11 | 2026-09-02 07:37:12 | 56.30112 | 9.83450 | 316° | 15km/h | 24408m | 5m/s | -50.4°C | 3.3% | 0hPa | 2.6V | 08:30:00 | 01:19:21 | 00:00:00 | |
| AA1-15 | 2026-09-02 07:37:11 | 56.30112 | 9.83450 | 317° | 15km/h | 24408m | 5m/s | -50.4°C | 0.2% | 0hPa | 2.6V | 18:12:15 | 01:19:21 | 00:00:00 | |
| DL1XH-west | 2026-09-02 07:37:05 | 56.30117 | 9.83473 | 210° | 16km/h | 24365m | 8.9m/s | -50.3°C | 0.2% | 0hPa | 2.6V | 18:12:15 | 01:19:15 | 00:00:00 | |
| DL1XH1-15 | 2026-09-02 07:37:04 | 56.30126 | 9.83481 | 225° | 11km/h | 24344m | 7.7m/s | -50.5°C | 3.4% | 0hPa | 2.7V | 08:30:00 | 01:19:12 | 00:00:00 | |
| BIOWL1-15 | 2026-09-02 07:37:04 | 56.30120 | 9.83476 | 201° | 15km/h | 24357m | 6.2m/s | 0°C | 0% | 0hPa | 2.7V | 18:12:15 | 01:19:14 | 00:00:00 | |
| DO2SHX-10 | 2026-09-02 07:37:03 | 56.30123 | 9.83478 | 208° | 9km/h | 24352m | 5.9m/s | -50.3°C | 3.4% | 0hPa | 2.6V | 00:00:00 | 01:19:13 | 00:00:00 | |
| DM0DOS-11 | 2026-09-02 07:37:02 | 56.30127 | 9.83484 | 255° | 5km/h | 24338m | 5.6m/s | -50.4°C | 3.3% | 0hPa | 2.6V | 08:30:00 | 01:19:11 | 00:00:00 | |
| AA1-15 | 2026-09-02 07:37:00 | 56.30127 | 9.83486 | 312° | 4km/h | 24331m | 7.1m/s | -50.4°C | 0.3% | 0hPa | 2.6V | 18:12:15 | 01:19:10 | 00:00:00 | |
| DO2SHX-10 | 2026-09-02 07:37:00 | 56.30127 | 9.83486 | 312° | 4km/h | 24332m | 7.0m/s | -50.3°C | 3.4% | 0hPa | 2.6V | 00:00:00 | 01:19:10 | 08:30:00 | |
| DO2SHX-10 | 2026-09-02 07:36:57 | 56.30125 | 9.83483 | 67° | 5km/h | 24311m | 7.0m/s | -50.3°C | 3.4% | 0hPa | 2.7V | 00:00:00 | 01:19:07 | 00:00:00 | |
| DL1XH1-15 | 2026-09-02 07:36:54 | 56.30138 | 9.83479 | 162° | 20km/h | 24279m | 6.1m/s | -50.4°C | 3.4% | 0hPa | 2.7V | 08:30:00 | 01:19:02 | 00:00:00 | |
| DL1XH-west | 2026-09-02 07:36:54 | 56.30130 | 9.83483 | 176° | 15km/h | 24293m | 7.7m/s | -50.5°C | 0.3% | 0hPa | 2.6V | 18:12:15 | 01:19:04 | 00:00:00 | |
| DO2SHX-10 | 2026-09-02 07:36:54 | 56.30130 | 9.83483 | 176° | 18km/h | 24293m | 7.6m/s | -50.4°C | 3.4% | 0hPa | 2.7V | 00:00:00 | 01:19:04 | 00:00:00 | |
| DM0DOS-11 | 2026-09-02 07:36:52 | 56.30143 | 9.83477 | 162° | 18km/h | 24272m | 8.7m/s | -50.4°C | 3.4% | 0hPa | 2.7V | 08:30:00 | 01:19:01 | 00:00:00 | |
| AA1-15 | 2026-09-02 07:36:51 | 56.30147 | 9.83475 | 163° | 16km/h | 24265m | 5m/s | -50.3°C | 0.3% | 0hPa | 2.7V | 18:12:15 | 01:19:00 | 00:00:00 | |
| BIOWL1-15 | 2026-09-02 07:36:49 | 56.30151 | 9.83472 | 161° | 18km/h | 24258m | 8.2m/s | 0°C | 0% | 0hPa | 2.6V | 18:12:15 | 01:18:59 | 00:00:00 | |
| DJ2DS-15 | 2026-09-02 07:36:48 | 56.30155 | 9.83469 | 162° | 9km/h | 24251m | 7.0m/s | -50.3°C | 3.4% | 0hPa | 2.6V | 00:00:00 | 01:18:58 | 00:00:00 | |
| DO2SHX-10 | 2026-09-02 07:36:45 | 56.30163 | 9.83464 | 150° | 7km/h | 24230m | 5.0m/s | -50.2°C | 3.4% | 0hPa | 2.6V | 00:00:00 | 01:18:55 | 00:00:00 | |
| DL1XH1-15 | 2026-09-02 07:36:44 | 56.30168 | 9.83455 | 111° | 11km/h | 24211m | 4.9m/s | -50.2°C | 3.4% | 0hPa | 2.6V | 08:30:00 | 01:18:52 | 00:00:00 | |
| DL1XH-west | 2026-09-02 07:36:43 | 56.30166 | 9.83459 | 127° | 9km/h | 24216m | 6.8m/s | -50.2°C | 0.3% | 0hPa | 2.6V | 18:12:15 | 01:18:53 | 00:00:00 | |
| DM0DOS-11 | 2026-09-02 07:36:42 | 56.30169 | 9.83451 | 101° | 9km/h | 24204m | 8m/s | -50.3°C | 3.4% | 0hPa | 2.6V | 08:30:00 | 01:18:51 | 00:00:00 | |
| AA1-15 | 2026-09-02 07:36:39 | 56.30170 | 9.83443 | 128° | 9km/h | 24191m | 6.1m/s | -50.2°C | 0.3% | 0hPa | 2.7V | 18:12:15 | 01:18:49 | 00:00:00 | |
| DO2SHX-10 | 2026-09-02 07:36:39 | 56.30170 | 9.83443 | 128° | 13km/h | 24191m | 6.1m/s | -50.1°C | 3.4% | 0hPa | 2.6V | 00:00:00 | 01:18:49 | 00:00:00 | |
| SONDE2-11 | 2026-09-02 07:36:38 | 56.30172 | 9.83440 | 142° | 13km/h | 24184m | 7.3m/s | -50.2°C | 0.9% | -1.0hPa | 2.6V | 00:00:00 | 00:00:00 | 00:00:00 | |
| DO2SHX-10 | 2026-09-02 07:36:36 | 56.30179 | 9.83432 | 150° | 13km/h | 24172m | 6.9m/s | -50.2°C | 3.3% | 0hPa | 2.6V | 00:00:00 | 01:18:46 | 00:00:00 | |
| DL1XH1-15 | 2026-09-02 07:36:34 | 56.30188 | 9.83421 | 146° | 11km/h | 24143m | 6.5m/s | -50.1°C | 3.3% | 0hPa | 2.6V | 08:30:00 | 01:18:42 | 00:00:00 | |
| DL1XH-west | 2026-09-02 07:36:32 | 56.30188 | 9.83421 | 146° | 11km/h | 24143m | 6.5m/s | -50.1°C | 0.3% | 0hPa | 2.6V | 18:12:15 | 01:18:42 | 00:00:00 | |
| DM0DOS-11 | 2026-09-02 07:36:32 | 56.30190 | 9.83418 | 136° | 7km/h | 24137m | 5.6m/s | -50.2°C | 3.3% | 0hPa | 2.6V | 08:30:00 | 01:18:41 | 00:00:00 | |
| AA1-15 | 2026-09-02 07:36:28 | 56.30190 | 9.83414 | 63° | 2km/h | 24115m | 7.4m/s | -50.1°C | 0.2% | 0hPa | 2.6V | 18:12:15 | 01:18:38 | 00:00:00 | |
| DJ2DS-15 | 2026-09-02 07:36:28 | 56.30190 | 9.83414 | 64° | 7km/h | 24116m | 7.3m/s | -50.1°C | 3.3% | 0hPa | 2.6V | 00:00:00 | 01:18:38 | 08:30:00 | |
| DO2SHX-10 | 2026-09-02 07:36:27 | 56.30190 | 9.83413 | 118° | 5km/h | 24108m | 7.5m/s | -50.1°C | 3.3% | 0hPa | 2.6V | 00:00:00 | 01:18:37 | 00:00:00 | |
| DO2SHX-10 | 2026-09-02 07:36:24 | 56.30192 | 9.83408 | 150° | 9km/h | 24087m | 5.8m/s | -50.1°C | 3.3% | 0hPa | 2.6V | 00:00:00 | 01:18:34 | 00:00:00 | |
| DM0DOS-11 | 2026-09-02 07:36:22 | 56.30200 | 9.83400 | 148° | 16km/h | 24066m | 5.3m/s | -50.2°C | 3.3% | 0hPa | 2.7V | 08:30:00 | 01:18:31 | 00:00:00 | |
| DL1XH-west | 2026-09-02 07:36:21 | 56.30200 | 9.83400 | 149° | 16km/h | 24066m | 5.3m/s | -50.2°C | 0.2% | 0hPa | 2.7V | 18:12:15 | 01:18:31 | 00:00:00 | |
| AA1-15 | 2026-09-02 07:36:17 | 56.30208 | 9.83388 | 90° | 5km/h | 24041m | 4.9m/s | -50.3°C | 0.2% | 0hPa | 2.7V | 18:12:15 | 01:18:27 | 00:00:00 | |
| DO2SHX-10 | 2026-09-02 07:36:15 | 56.30208 | 9.83382 | 92° | 7km/h | 24028m | 5.5m/s | -50.2°C | 3.3% | 0hPa | 2.6V | 00:00:00 | 01:18:25 | 00:00:00 | |
| DL1XH1-15 | 2026-09-02 07:36:14 | 56.30207 | 9.83375 | 55° | 2km/h | 24007m | 5.7m/s | -50.3°C | 3.4% | 0hPa | 2.7V | 08:30:00 | 01:18:22 | 00:00:00 | |
| DL1XH-west | 2026-09-02 07:36:10 | 56.30208 | 9.83373 | 146° | 7km/h | 23993m | 7.4m/s | -50.3°C | 0.3% | 0hPa | 2.6V | 18:12:15 | 01:18:20 | 00:00:00 | |
| AA1-15 | 2026-09-02 07:36:06 | 56.30213 | 9.83369 | 149° | 5km/h | 23966m | 7.2m/s | -50.3°C | 0.2% | 0hPa | 2.7V | 18:12:15 | 01:18:16 | 00:00:00 | |
| DO2SHX-10 | 2026-09-02 07:36:06 | 56.30213 | 9.83369 | 149° | 5km/h | 23966m | 7.1m/s | -50.3°C | 3.3% | 0hPa | 2.7V | 00:00:00 | 01:18:16 | 08:30:00 | |
| DL1XH1-15 | 2026-09-02 07:36:04 | 56.30215 | 9.83360 | 37° | 7km/h | 23937m | 5.4m/s | -50.4°C | 3.4% | 0hPa | 2.6V | 08:30:00 | 01:18:12 | 00:00:00 | |
| DJ2DS-15 | 2026-09-02 07:36:04 | 56.30216 | 9.83362 | 90° | 4km/h | 23945m | 9.3m/s | -50.4°C | 0.9% | -1.0hPa | 2.7V | 00:00:00 | 00:00:00 | 00:00:00 | |
| DO2SHX-10 | 2026-09-02 07:36:03 | 56.30216 | 9.83362 | 91° | 7km/h | 23945m | 9.3m/s | -50.4°C | 3.3% | 0hPa | 2.7V | 00:00:00 | 01:18:13 | 00:00:00 | |
| DM0DOS-11 | 2026-09-02 07:36:02 | 56.30214 | 9.83358 | 47° | 9km/h | 23931m | 6.7m/s | -50.3°C | 3.3% | 0hPa | 2.7V | 08:30:00 | 01:18:11 | 00:00:00 | |
| DL1XH-west | 2026-09-02 07:35:59 | 56.30212 | 9.83351 | 79° | 7km/h | 23917m | 3.7m/s | -50.3°C | 0.2% | 0hPa | 2.7V | 18:12:15 | 01:18:09 | 00:00:00 | |
| AA1-15 | 2026-09-02 07:35:55 | 56.30211 | 9.83338 | 109° | 11km/h | 23890m | 8.5m/s | -50.5°C | 0.3% | 0hPa | 2.7V | 18:12:15 | 01:18:05 | 00:00:00 | |
| DL1XH1-15 | 2026-09-02 07:35:54 | 56.30216 | 9.83328 | 155° | 9km/h | 23869m | 5.8m/s | -50.5°C | 3.4% | 0hPa | 2.6V | 08:30:00 | 01:18:02 | 00:00:00 | |
| DO2SHX-10 | 2026-09-02 07:35:54 | 56.30212 | 9.83334 | 130° | 9km/h | 23884m | 4.7m/s | -50.3°C | 3.3% | 0hPa | 2.6V | 00:00:00 | 01:18:04 | 00:00:00 | |
| DM0DOS-11 | 2026-09-02 07:35:52 | 56.30219 | 9.83326 | 155° | 11km/h | 23863m | 7.2m/s | -50.6°C | 3.4% | 0hPa | 2.6V | 08:30:00 | 01:18:01 | 00:00:00 | |
| DL1XH-west | 2026-09-02 07:35:48 | 56.30225 | 9.83316 | 119° | 7km/h | 23842m | 8.2m/s | -50.5°C | 0.3% | 0hPa | 2.7V | 18:12:15 | 01:17:58 | 00:00:00 | |
| DJ2DS-15 | 2026-09-02 07:35:48 | 56.30225 | 9.83316 | 119° | 11km/h | 23842m | 8.1m/s | -50.4°C | 3.4% | 0hPa | 2.7V | 00:00:00 | 01:17:58 | 00:00:00 | |
| DO2SHX-10 | 2026-09-02 07:35:45 | 56.30223 | 9.83302 | 74° | 15km/h | 23821m | 7.1m/s | -50.5°C | 3.4% | 0hPa | 2.7V | 00:00:00 | 01:17:55 | 00:00:00 | |
| DL1XH1-15 | 2026-09-02 07:35:44 | 56.30220 | 9.83285 | 67° | 11km/h | 23801m | 5m/s | -50.4°C | 3.3% | 0hPa | 2.7V | 08:30:00 | 01:17:52 | 00:00:00 | |
| AA1-15 | 2026-09-02 07:35:44 | 56.30222 | 9.83296 | 72° | 15km/h | 23814m | 4.9m/s | -50.4°C | 0.3% | 0hPa | 2.6V | 18:12:15 | 01:17:54 | 00:00:00 | |
| DM0DOS-11 | 2026-09-02 07:35:42 | 56.30219 | 9.83280 | 87° | 11km/h | 23796m | 5.2m/s | -50.5°C | 3.3% | 0hPa | 2.7V | 08:30:00 | 01:17:51 | 00:00:00 | |
| DL1XH-west | 2026-09-02 07:35:38 | 56.30222 | 9.83260 | 113° | 16km/h | 23776m | 8.1m/s | -50.4°C | 0.3% | 0hPa | 2.6V | 18:12:15 | 01:17:48 | 00:00:00 | |
| DO2SHX-10 | 2026-09-02 07:35:36 | 56.30225 | 9.83249 | 124° | 15km/h | 23762m | 6.3m/s | -50.2°C | 3.3% | 0hPa | 2.6V | 00:00:00 | 01:17:46 | 00:00:00 | |
| DL1XH1-15 | 2026-09-02 07:35:34 | 56.30232 | 9.83232 | 126° | 5km/h | 23733m | 6.8m/s | -50.4°C | 3.4% | 0hPa | 2.6V | 08:30:00 | 01:17:42 | 00:00:00 | |
| AA1-15 | 2026-09-02 07:35:33 | 56.30231 | 9.83235 | 128° | 9km/h | 23741m | 7.8m/s | -50.3°C | 0.3% | 0hPa | 2.6V | 18:12:15 | 01:17:43 | 00:00:00 | |
| DO2SHX-10 | 2026-09-02 07:35:33 | 56.30231 | 9.83235 | 128° | 7km/h | 23741m | 7.8m/s | -50.3°C | 3.4% | 0hPa | 2.7V | 00:00:00 | 01:17:43 | 00:00:00 | |
| DM0DOS-11 | 2026-09-02 07:35:32 | 56.30233 | 9.83230 | 119° | 5km/h | 23727m | 6.5m/s | -50.2°C | 3.4% | 0hPa | 2.7V | 08:30:00 | 01:17:41 | 00:00:00 | |
| DL1XH-west | 2026-09-02 07:35:28 | 56.30234 | 9.83221 | 94° | 5km/h | 23709m | 6.6m/s | -50.3°C | 0.2% | 0hPa | 2.6V | 18:12:15 | 01:17:38 | 00:00:00 | |
| DJ2DS-15 | 2026-09-02 07:35:28 | 56.30234 | 9.83219 | 73° | 2km/h | 23702m | 8.6m/s | -50.4°C | 0.9% | -1.0hPa | 2.6V | 00:00:00 | 00:00:00 | 00:00:00 | |
| DO2SHX-10 | 2026-09-02 07:35:27 | 56.30234 | 9.83219 | 74° | 5km/h | 23702m | 8.6m/s | -50.3°C | 3.3% | 0hPa | 2.6V | 00:00:00 | 01:17:37 | 00:00:00 | |
| DO2SHX-10 | 2026-09-02 07:35:24 | 56.30233 | 9.83210 | 85° | 13km/h | 23682m | 6.9m/s | -50.4°C | 3.3% | 0hPa | 2.6V | 00:00:00 | 01:17:34 | 00:00:00 | |
| DM0DOS-11 | 2026-09-02 07:35:22 | 56.30233 | 9.83191 | 104° | 15km/h | 23662m | 5.4m/s | -50.5°C | 3.4% | 0hPa | 2.6V | 08:30:00 | 01:17:31 | 00:00:00 | |
| AA1-15 | 2026-09-02 07:35:22 | 56.30233 | 9.83197 | 93° | 13km/h | 23668m | 7.4m/s | -50.5°C | 0.3% | 0hPa | 2.6V | 18:12:15 | 01:17:32 | 00:00:00 | |
| DL1XH-west | 2026-09-02 07:35:17 | 56.30240 | 9.83162 | 122° | 13km/h | 23634m | 7.9m/s | -50.3°C | 0.2% | 0hPa | 2.7V | 18:12:15 | 01:17:27 | 00:00:00 | |
| DO2SHX-10 | 2026-09-02 07:35:15 | 56.30242 | 9.83154 | 112° | 13km/h | 23622m | 6.1m/s | -50.4°C | 3.4% | 0hPa | 2.7V | 00:00:00 | 01:17:25 | 00:00:00 | |
| DL1XH1-15 | 2026-09-02 07:35:14 | 56.30242 | 9.83134 | 75° | 18km/h | 23602m | 6.5m/s | -50.4°C | 3.4% | 0hPa | 2.7V | 08:30:00 | 01:17:22 | 00:00:00 | |
| AA1-15 | 2026-09-02 07:35:11 | 56.30241 | 9.83126 | 68° | 18km/h | 23595m | 7.2m/s | -50.3°C | 0.2% | 0hPa | 2.7V | 18:12:15 | 01:17:21 | 00:00:00 | |
| DL1XH-west | 2026-09-02 07:35:06 | 56.30238 | 9.83078 | 106° | 22km/h | 23565m | 6.7m/s | -50.5°C | 0.2% | 0hPa | 2.7V | 18:12:15 | 01:17:16 | 00:00:00 | |
| DO2SHX-10 | 2026-09-02 07:35:06 | 56.30238 | 9.83078 | 106° | 18km/h | 23565m | 6.6m/s | -50.4°C | 3.4% | 0hPa | 2.6V | 00:00:00 | 01:17:16 | 00:00:00 | |
| SONDE2-11 | 2026-09-02 07:35:05 | 56.30240 | 9.83069 | 106° | 18km/h | 23559m | 6.9m/s | 0°C | -1.0% | -1.0hPa | 2.6V | 00:00:00 | 00:00:00 | 00:00:00 | |
| DL1XH1-15 | 2026-09-02 07:35:04 | 56.30243 | 9.83047 | 97° | 15km/h | 23538m | 5.7m/s | -50.4°C | 3.3% | 0hPa | 2.6V | 08:30:00 | 01:17:12 | 00:00:00 | |
| AA1-15 | 2026-09-02 07:35:00 | 56.30243 | 9.83036 | 73° | 9km/h | 23525m | 7.5m/s | -50.5°C | 0.2% | 0hPa | 2.7V | 18:12:15 | 01:17:10 | 00:00:00 | |
| DL1XH-west | 2026-09-02 07:34:55 | 56.30238 | 9.83013 | 83° | 15km/h | 23495m | 7.2m/s | -50.6°C | 0.2% | 0hPa | 2.7V | 18:12:15 | 01:17:05 | 00:00:00 | |
| DL1XH1-15 | 2026-09-02 07:34:54 | 56.30239 | 9.82995 | 105° | 15km/h | 23475m | 7.3m/s | -50.7°C | 3.4% | 0hPa | 2.6V | 08:30:00 | 01:17:02 | 00:00:00 | |
| DO2SHX-10 | 2026-09-02 07:34:54 | 56.30238 | 9.83007 | 89° | 13km/h | 23488m | 6.9m/s | -50.6°C | 3.3% | 0hPa | 2.7V | 00:00:00 | 01:17:04 | 00:00:00 | |
| DM0DOS-11 | 2026-09-02 07:34:52 | 56.30241 | 9.82988 | 105° | 16km/h | 23469m | 6.4m/s | -50.7°C | 3.4% | 0hPa | 2.6V | 08:30:00 | 01:17:01 | 00:00:00 | |
| AA1-15 | 2026-09-02 07:34:49 | 56.30242 | 9.82975 | 90° | 11km/h | 23456m | 8m/s | -50.9°C | 0.3% | 0hPa | 2.7V | 18:12:15 | 01:16:59 | 00:00:00 | |
| DL1XH-west | 2026-09-02 07:34:45 | 56.30235 | 9.82961 | 18° | 11km/h | 23430m | 5.1m/s | -51.1°C | 0.3% | 0hPa | 2.6V | 18:12:15 | 01:16:55 | 00:00:00 | |
| DO2SHX-10 | 2026-09-02 07:34:45 | 56.30235 | 9.82961 | 19° | 11km/h | 23431m | 5.1m/s | -51.1°C | 3.4% | 0hPa | 2.6V | 00:00:00 | 01:16:55 | 08:30:00 | |
| DL1XH1-15 | 2026-09-02 07:34:44 | 56.30227 | 9.82963 | 343° | 7km/h | 23411m | 6m/s | -51.1°C | 3.4% | 0hPa | 2.7V | 08:30:00 | 01:16:52 | 00:00:00 | |
| DM0DOS-11 | 2026-09-02 07:34:42 | 56.30226 | 9.82963 | 35° | 4km/h | 23404m | 7m/s | -51.2°C | 3.4% | 0hPa | 2.7V | 08:30:00 | 01:16:51 | 00:00:00 | |
| AA1-15 | 2026-09-02 07:34:39 | 56.30228 | 9.82958 | 138° | 11km/h | 23393m | 5.6m/s | -51.1°C | 0.3% | 0hPa | 2.6V | 18:12:15 | 01:16:49 | 00:00:00 | |
| DL1XH-west | 2026-09-02 07:34:34 | 56.30232 | 9.82942 | 60° | 13km/h | 23361m | 4.9m/s | -51.2°C | 0.3% | 0hPa | 2.6V | 18:12:15 | 01:16:44 | 00:00:00 | |
| DL1XH1-15 | 2026-09-02 07:34:34 | 56.30228 | 9.82935 | 32° | 11km/h | 23348m | 6.4m/s | -51.2°C | 3.4% | 0hPa | 2.6V | 08:30:00 | 01:16:42 | 00:00:00 | |
| DM0DOS-11 | 2026-09-02 07:34:32 | 56.30226 | 9.82931 | 39° | 11km/h | 23342m | 5.2m/s | -51.3°C | 3.5% | 0hPa | 2.7V | 08:30:00 | 01:16:41 | 00:00:00 | |
| AA1-15 | 2026-09-02 07:34:28 | 56.30222 | 9.82918 | 103° | 9km/h | 23323m | 6.8m/s | -51.3°C | 0.3% | 0hPa | 2.6V | 18:12:15 | 01:16:38 | 00:00:00 | |
| DL1XH-west | 2026-09-02 07:34:23 | 56.30238 | 9.82893 | 128° | 24km/h | 23292m | 5.8m/s | -51.3°C | 0.3% | 0hPa | 2.7V | 18:12:15 | 01:16:33 | 00:00:00 | |
| DM0DOS-11 | 2026-09-02 07:34:22 | 56.30244 | 9.82878 | 114° | 15km/h | 23280m | 6.6m/s | -51.3°C | 3.5% | 0hPa | 2.6V | 08:30:00 | 01:16:31 | 00:00:00 | |
| AA1-15 | 2026-09-02 07:34:17 | 56.30245 | 9.82851 | 81° | 16km/h | 23254m | 5.1m/s | -51.4°C | 0.4% | 0hPa | 2.7V | 18:12:15 | 01:16:27 | 00:00:00 | |
| DL1XH-west | 2026-09-02 07:34:13 | 56.30244 | 9.82826 | 92° | 15km/h | 23231m | 6.8m/s | -51.5°C | 0.4% | 0hPa | 2.7V | 18:12:15 | 01:16:23 | 00:00:00 | |
| DM0DOS-11 | 2026-09-02 07:34:12 | 56.30244 | 9.82811 | 94° | 20km/h | 23218m | 5.5m/s | -51.5°C | 3.6% | 0hPa | 2.7V | 08:30:00 | 01:16:21 | 00:00:00 | |
| AA1-15 | 2026-09-02 07:34:06 | 56.30252 | 9.82765 | 103° | 27km/h | 23186m | 6.8m/s | -51.5°C | 0.4% | 0hPa | 2.7V | 18:12:15 | 01:16:16 | 00:00:00 | |
| DO2SHX-10 | 2026-09-02 07:34:06 | 56.30252 | 9.82765 | 104° | 27km/h | 23186m | 6.7m/s | -51.4°C | 3.5% | 0hPa | 2.6V | 00:00:00 | 01:16:16 | 00:00:00 | |
| DL1XH1-15 | 2026-09-02 07:34:04 | 56.30255 | 9.82718 | 80° | 24km/h | 23160m | 6.6m/s | -51.4°C | 3.5% | 0hPa | 2.6V | 08:30:00 | 01:16:12 | 00:00:00 | |
| DL1XH-west | 2026-09-02 07:34:03 | 56.30255 | 9.82728 | 91° | 24km/h | 23166m | 6.1m/s | -51.4°C | 0.4% | 0hPa | 2.6V | 18:12:15 | 01:16:13 | 00:00:00 | |
| AA1-15 | 2026-09-02 07:33:56 | 56.30241 | 9.82653 | 76° | 26km/h | 23120m | 7.8m/s | -51.6°C | 0.4% | 0hPa | 2.6V | 18:12:15 | 01:16:06 | 00:00:00 | |
| DL1XH1-15 | 2026-09-02 07:33:54 | 56.30240 | 9.82603 | 85° | 26km/h | 23096m | 4.7m/s | -51.6°C | 3.6% | 0hPa | 2.6V | 08:30:00 | 01:16:02 | 00:00:00 | |
| DL1XH-west | 2026-09-02 07:33:52 | 56.30240 | 9.82603 | 86° | 26km/h | 23096m | 4.7m/s | -51.6°C | 0.4% | 0hPa | 2.6V | 18:12:15 | 01:16:02 | 00:00:00 | |
| AA1-15 | 2026-09-02 07:33:45 | 56.30220 | 9.82512 | 64° | 33km/h | 23049m | 6.2m/s | -51.7°C | 0.4% | 0hPa | 2.6V | 18:12:15 | 01:15:55 | 00:00:00 | |
| DO2SHX-10 | 2026-09-02 07:33:45 | 56.30220 | 9.82512 | 64° | 31km/h | 23050m | 6.1m/s | -51.7°C | 3.6% | 0hPa | 2.7V | 00:00:00 | 01:15:55 | 00:00:00 | |
| DL1XH1-15 | 2026-09-02 07:33:44 | 56.30210 | 9.82475 | 62° | 26km/h | 23029m | 5.4m/s | -51.5°C | 3.6% | 0hPa | 2.7V | 08:30:00 | 01:15:52 | 00:00:00 | |
| DM0DOS-11 | 2026-09-02 07:33:42 | 56.30207 | 9.82465 | 62° | 27km/h | 23024m | 5.2m/s | -51.6°C | 3.6% | 0hPa | 2.7V | 08:30:00 | 01:15:51 | 00:00:00 | |
| DL1XH-west | 2026-09-02 07:33:41 | 56.30207 | 9.82465 | 63° | 27km/h | 23024m | 5.2m/s | -51.6°C | 0.4% | 0hPa | 2.7V | 18:12:15 | 01:15:51 | 00:00:00 | |
| DO2SHX-10 | 2026-09-02 07:33:39 | 56.30200 | 9.82440 | 63° | 33km/h | 23011m | 5.6m/s | -51.5°C | 3.6% | 0hPa | 2.6V | 00:00:00 | 01:15:49 | 00:00:00 | |
| DL1XH-15 | 2026-09-02 07:33:38 | 56.30177 | 9.82380 | 45° | 35km/h | 22978m | 5.8m/s | -51.5°C | 0% | 0hPa | 2.6V | 08:30:00 | 01:15:44 | 00:00:00 | |
| AA1-15 | 2026-09-02 07:33:35 | 56.30182 | 9.82391 | 52° | 33km/h | 22985m | 8.1m/s | -51.5°C | 0.3% | 0hPa | 2.7V | 18:12:15 | 01:15:45 | 00:00:00 | |
| DL1XH1-15 | 2026-09-02 07:33:34 | 56.30164 | 9.82361 | 33° | 29km/h | 22965m | 8.2m/s | -51.6°C | 3.4% | 0hPa | 2.6V | 08:30:00 | 01:15:42 | 00:00:00 | |
| DO2SHX-10 | 2026-09-02 07:33:33 | 56.30170 | 9.82369 | 40° | 29km/h | 22973m | 5.8m/s | -51.5°C | 3.5% | 0hPa | 2.6V | 00:00:00 | 01:15:43 | 00:00:00 | |
| DM0DOS-11 | 2026-09-02 07:33:32 | 56.30158 | 9.82355 | 25° | 24km/h | 22958m | 5.9m/s | -51.7°C | 3.4% | 0hPa | 2.7V | 08:30:00 | 01:15:41 | 00:00:00 | |
| DL1XH-west | 2026-09-02 07:33:30 | 56.30153 | 9.82351 | 26° | 22km/h | 22953m | 5.7m/s | -51.7°C | 0.3% | 0hPa | 2.7V | 18:12:15 | 01:15:40 | 00:00:00 | |
| AA1-15 | 2026-09-02 07:33:24 | 56.30130 | 9.82311 | 61° | 26km/h | 22913m | 7.9m/s | -51.8°C | 0.4% | 0hPa | 2.7V | 18:12:15 | 01:15:34 | 00:00:00 | |
| DL1XH1-15 | 2026-09-02 07:33:24 | 56.30124 | 9.82290 | 57° | 27km/h | 22901m | 5.6m/s | -51.8°C | 3.7% | 0hPa | 2.6V | 08:30:00 | 01:15:32 | 00:00:00 | |
| DO2SHX-10 | 2026-09-02 07:33:24 | 56.30130 | 9.82310 | 61° | 26km/h | 22913m | 7.8m/s | -51.8°C | 3.7% | 0hPa | 2.7V | 00:00:00 | 01:15:34 | 08:30:00 | |
| DM0DOS-11 | 2026-09-02 07:33:22 | 56.30120 | 9.82280 | 50° | 24km/h | 22894m | 7.7m/s | -51.8°C | 3.6% | 0hPa | 2.6V | 08:30:00 | 01:15:31 | 00:00:00 | |
| DL1XH-west | 2026-09-02 07:33:19 | 56.30110 | 9.82268 | 25° | 26km/h | 22881m | 8.3m/s | -51.9°C | 0.4% | 0hPa | 2.7V | 18:12:15 | 01:15:29 | 00:00:00 | |
| DO2SHX-10 | 2026-09-02 07:33:18 | 56.30104 | 9.82264 | 14° | 24km/h | 22874m | 5.7m/s | -51.9°C | 3.7% | 0hPa | 2.6V | 00:00:00 | 01:15:28 | 00:00:00 | |
| DO2SHX-10 | 2026-09-02 07:33:15 | 56.30087 | 9.82267 | 340° | 22km/h | 22855m | 4.9m/s | -52.0°C | 3.6% | 0hPa | 2.6V | 00:00:00 | 01:15:25 | 00:00:00 | |
| DL1XH1-15 | 2026-09-02 07:33:14 | 56.30071 | 9.82275 | 349° | 20km/h | 22836m | 5.6m/s | -51.9°C | 3.7% | 0hPa | 2.7V | 08:30:00 | 01:15:22 | 00:00:00 | |
| AA1-15 | 2026-09-02 07:33:13 | 56.30076 | 9.82273 | 347° | 22km/h | 22842m | 5.9m/s | -52°C | 0.4% | 0hPa | 2.7V | 18:12:15 | 01:15:23 | 00:00:00 | |
| DM0DOS-11 | 2026-09-02 07:33:12 | 56.30067 | 9.82276 | 347° | 18km/h | 22829m | 7.9m/s | -52°C | 3.7% | 0hPa | 2.7V | 08:30:00 | 01:15:21 | 00:00:00 | |
| DL1XH-west | 2026-09-02 07:33:09 | 56.30059 | 9.82276 | 18° | 16km/h | 22818m | 4.5m/s | -51.9°C | 0.4% | 0hPa | 2.6V | 18:12:15 | 01:15:19 | 00:00:00 | |
| DO2SHX-10 | 2026-09-02 07:33:09 | 56.30059 | 9.82276 | 19° | 18km/h | 22818m | 4.5m/s | -51.8°C | 3.6% | 0hPa | 2.7V | 00:00:00 | 01:15:19 | 00:00:00 | |
| DJ2DS-15 | 2026-09-02 07:33:08 | 56.30055 | 9.82273 | 33° | 16km/h | 22812m | 7.3m/s | -51.8°C | 3.6% | 0hPa | 2.7V | 00:00:00 | 01:15:18 | 00:00:00 | |
| DO2SHX-10 | 2026-09-02 07:33:06 | 56.30047 | 9.82261 | 47° | 18km/h | 22800m | 5.3m/s | -51.7°C | 3.6% | 0hPa | 2.7V | 00:00:00 | 01:15:16 | 00:00:00 | |
| DL1XH1-15 | 2026-09-02 07:33:05 | 56.30030 | 9.82248 | 0° | 22km/h | 22775m | 5.8m/s | -51.8°C | 3.6% | 0hPa | 2.6V | 08:30:00 | 01:15:12 | 00:00:00 | |
| AA1-15 | 2026-09-02 07:33:03 | 56.30030 | 9.82248 | 1° | 22km/h | 22776m | 5.8m/s | -51.8°C | 0.4% | 0hPa | 2.6V | 18:12:15 | 01:15:12 | 00:00:00 | |
| DM0DOS-11 | 2026-09-02 07:33:02 | 56.30025 | 9.82249 | 354° | 20km/h | 22769m | 7.7m/s | -51.8°C | 3.7% | 0hPa | 2.7V | 08:30:00 | 01:15:11 | 00:00:00 | |
| DL1XH-west | 2026-09-02 07:32:58 | 56.30013 | 9.82253 | 351° | 15km/h | 22749m | 7.5m/s | -51.6°C | 0.4% | 0hPa | 2.6V | 18:12:15 | 01:15:08 | 00:00:00 | |
| DO2SHX-10 | 2026-09-02 07:32:57 | 56.30009 | 9.82253 | 2° | 13km/h | 22743m | 5.7m/s | -51.5°C | 3.7% | 0hPa | 2.6V | 00:00:00 | 01:15:07 | 08:30:00 | |
| DL1XH1-15 | 2026-09-02 07:32:54 | 56.29996 | 9.82244 | 31° | 13km/h | 22712m | 7.7m/s | -51.5°C | 3.6% | 0hPa | 2.6V | 08:30:00 | 01:15:02 | 00:00:00 | |
| DO2SHX-10 | 2026-09-02 07:32:54 | 56.30001 | 9.82249 | 33° | 11km/h | 22725m | 5.6m/s | -51.5°C | 3.6% | 0hPa | 2.6V | 00:00:00 | 01:15:04 | 00:00:00 | |
| DM0DOS-11 | 2026-09-02 07:32:52 | 56.29993 | 9.82241 | 20° | 16km/h | 22706m | 5.2m/s | -51.5°C | 3.6% | 0hPa | 2.6V | 08:30:00 | 01:15:01 | 00:00:00 | |
| AA1-15 | 2026-09-02 07:32:51 | 56.29993 | 9.82241 | 20° | 16km/h | 22706m | 5.2m/s | -51.5°C | 0.4% | 0hPa | 2.6V | 18:12:15 | 01:15:01 | 00:00:00 | |
| DO2SHX-10 | 2026-09-02 07:32:51 | 56.29993 | 9.82241 | 21° | 15km/h | 22706m | 5.1m/s | -51.4°C | 3.6% | 0hPa | 2.7V | 00:00:00 | 01:15:01 | 00:00:00 | |
| DL1XH-15 | 2026-09-02 07:32:48 | 56.29979 | 9.82236 | 19° | 15km/h | 22680m | 7.4m/s | -51.4°C | 0% | 0hPa | 2.7V | 08:30:00 | 01:14:57 | 00:00:00 | |
| DL1XH-west | 2026-09-02 07:32:47 | 56.29979 | 9.82236 | 19° | 15km/h | 22680m | 7.4m/s | -51.4°C | 0.4% | 0hPa | 2.7V | 18:12:15 | 01:14:57 | 00:00:00 | |
| DO2SHX-10 | 2026-09-02 07:32:45 | 56.29973 | 9.82230 | 41° | 9km/h | 22668m | 5.7m/s | -51.3°C | 3.5% | 0hPa | 2.7V | 00:00:00 | 01:14:55 | 00:00:00 | |
| DL1XH1-15 | 2026-09-02 07:32:44 | 56.29971 | 9.82221 | 79° | 7km/h | 22650m | 5.4m/s | -51.2°C | 3.6% | 0hPa | 2.7V | 08:30:00 | 01:14:52 | 00:00:00 | |
| DM0DOS-11 | 2026-09-02 07:32:42 | 56.29970 | 9.82217 | 64° | 9km/h | 22643m | 7.7m/s | -51.2°C | 3.6% | 0hPa | 2.7V | 08:30:00 | 01:14:51 | 00:00:00 | |
| AA1-15 | 2026-09-02 07:32:40 | 56.29968 | 9.82213 | 38° | 13km/h | 22637m | 5.2m/s | -51°C | 0.4% | 0hPa | 2.6V | 18:12:15 | 01:14:50 | 00:00:00 | |
| DO2SHX-10 | 2026-09-02 07:32:39 | 56.29966 | 9.82211 | 17° | 15km/h | 22630m | 7.4m/s | -50.9°C | 3.5% | 0hPa | 2.6V | 00:00:00 | 01:14:49 | 00:00:00 | |
| DL1XH-15 | 2026-09-02 07:32:38 | 56.29959 | 9.82210 | 356° | 16km/h | 22617m | 5.2m/s | -51°C | 0% | 0hPa | 2.7V | 08:30:00 | 01:14:47 | 00:00:00 | |
| DL1XH-west | 2026-09-02 07:32:37 | 56.29959 | 9.82210 | 357° | 16km/h | 22617m | 5.3m/s | -51°C | 0.4% | 0hPa | 2.7V | 18:12:15 | 01:14:47 | 00:00:00 | |
| DO2SHX-10 | 2026-09-02 07:32:36 | 56.29954 | 9.82210 | 3° | 15km/h | 22610m | 8.0m/s | -50.9°C | 3.5% | 0hPa | 2.6V | 00:00:00 | 01:14:46 | 00:00:00 | |
| DL1XH1-15 | 2026-09-02 07:32:34 | 56.29943 | 9.82206 | 75° | 4km/h | 22583m | 6.3m/s | -51.2°C | 3.6% | 0hPa | 2.6V | 08:30:00 | 01:14:42 | 00:00:00 | |
| DO2SHX-10 | 2026-09-02 07:32:33 | 56.29944 | 9.82208 | 18° | 5km/h | 22590m | 6.3m/s | -51.0°C | 3.5% | 0hPa | 2.7V | 00:00:00 | 01:14:43 | 00:00:00 | |
| DM0DOS-11 | 2026-09-02 07:32:32 | 56.29943 | 9.82204 | 91° | 7km/h | 22576m | 7.7m/s | -51.2°C | 3.6% | 0hPa | 2.7V | 08:30:00 | 01:14:41 | 00:00:00 | |
| AA1-15 | 2026-09-02 07:32:29 | 56.29944 | 9.82196 | 113° | 9km/h | 22564m | 6.6m/s | -51°C | 0.4% | 0hPa | 2.7V | 18:12:15 | 01:14:39 | 00:00:00 | |
| DL1XH-west | 2026-09-02 07:32:27 | 56.29946 | 9.82190 | 116° | 5km/h | 22551m | 5.3m/s | -51.1°C | 0.4% | 0hPa | 2.6V | 18:12:15 | 01:14:37 | 00:00:00 | |
| DO2SHX-10 | 2026-09-02 07:32:27 | 56.29946 | 9.82190 | 117° | 7km/h | 22551m | 5.2m/s | -51.0°C | 3.5% | 0hPa | 2.6V | 00:00:00 | 01:14:37 | 00:00:00 | |
| DL1XH1-15 | 2026-09-02 07:32:24 | 56.29938 | 9.82176 | 30° | 11km/h | 22516m | 5.5m/s | -51°C | 3.5% | 0hPa | 2.6V | 08:30:00 | 01:14:32 | 00:00:00 | |
| DO2SHX-10 | 2026-09-02 07:32:24 | 56.29943 | 9.82181 | 35° | 13km/h | 22531m | 6.0m/s | -51.0°C | 3.5% | 0hPa | 2.6V | 00:00:00 | 01:14:34 | 00:00:00 | |
| DM0DOS-11 | 2026-09-02 07:32:22 | 56.29935 | 9.82173 | 36° | 15km/h | 22509m | 7m/s | -50.9°C | 3.5% | 0hPa | 2.6V | 08:30:00 | 01:14:31 | 00:00:00 | |
| AA1-15 | 2026-09-02 07:32:19 | 56.29930 | 9.82162 | 62° | 15km/h | 22496m | 3.7m/s | -50.8°C | 0.3% | 0hPa | 2.7V | 18:12:15 | 01:14:29 | 00:00:00 | |
| DL1XH-west | 2026-09-02 07:32:17 | 56.29927 | 9.82151 | 85° | 13km/h | 22483m | 5.1m/s | -50.8°C | 0.3% | 0hPa | 2.7V | 18:12:15 | 01:14:27 | 00:00:00 | |
| DO2SHX-10 | 2026-09-02 07:32:15 | 56.29927 | 9.82139 | 82° | 11km/h | 22470m | 6.3m/s | -50.8°C | 3.4% | 0hPa | 2.7V | 00:00:00 | 01:14:25 | 00:00:00 | |
| DM0DOS-11 | 2026-09-02 07:32:12 | 56.29926 | 9.82120 | 74° | 11km/h | 22444m | 7.7m/s | -50.8°C | 3.4% | 0hPa | 2.7V | 08:30:00 | 01:14:21 | 00:00:00 | |
| AA1-15 | 2026-09-02 07:32:09 | 56.29924 | 9.82108 | 70° | 16km/h | 22431m | 5.8m/s | -50.7°C | 0.3% | 0hPa | 2.6V | 18:12:15 | 01:14:19 | 00:00:00 | |
| DL1XH-west | 2026-09-02 07:32:07 | 56.29922 | 9.82094 | 81° | 18km/h | 22417m | 5.7m/s | -50.8°C | 0.3% | 0hPa | 2.7V | 18:12:15 | 01:14:17 | 00:00:00 | |
| DO2SHX-10 | 2026-09-02 07:32:06 | 56.29921 | 9.82085 | 78° | 20km/h | 22411m | 6.7m/s | -50.8°C | 3.5% | 0hPa | 2.6V | 00:00:00 | 01:14:16 | 00:00:00 | |
| DO2SHX-10 | 2026-09-02 07:32:03 | 56.29915 | 9.82062 | 60° | 11km/h | 22393m | 7.3m/s | -50.8°C | 3.4% | 0hPa | 2.6V | 00:00:00 | 01:14:13 | 08:30:00 | |
| DM0DOS-11 | 2026-09-02 07:32:02 | 56.29912 | 9.82054 | 45° | 5km/h | 22379m | 5.8m/s | -50.7°C | 3.4% | 0hPa | 2.7V | 08:30:00 | 01:14:11 | 00:00:00 | |
| AA1-15 | 2026-09-02 07:31:59 | 56.29906 | 9.82048 | 29° | 11km/h | 22359m | 6.2m/s | -50.9°C | 0.3% | 0hPa | 2.6V | 18:12:15 | 01:14:08 | 00:00:00 | |
| DL1XH-west | 2026-09-02 07:31:56 | 56.29902 | 9.82042 | 56° | 11km/h | 22345m | 5.7m/s | -51°C | 0.3% | 0hPa | 2.6V | 18:12:15 | 01:14:06 | 00:00:00 | |
| AA1-15 | 2026-09-02 07:31:47 | 56.29877 | 9.81981 | 71° | 13km/h | 22287m | 7.8m/s | -51.1°C | 0.4% | 0hPa | 2.7V | 18:12:15 | 01:13:57 | 00:00:00 | |
| DL1XH-west | 2026-09-02 07:31:46 | 56.29877 | 9.81975 | 90° | 13km/h | 22280m | 6.3m/s | -51.1°C | 0.3% | 0hPa | 2.6V | 18:12:15 | 01:13:56 | 00:00:00 | |
| AA1-15 | 2026-09-02 07:31:36 | 56.29856 | 9.81922 | 31° | 15km/h | 22216m | 6.5m/s | -51.1°C | 0.4% | 0hPa | 2.7V | 18:12:15 | 01:13:46 | 00:00:00 | |
| DL1XH-west | 2026-09-02 07:31:35 | 56.29853 | 9.81919 | 36° | 13km/h | 22210m | 5.7m/s | -51.1°C | 0.3% | 0hPa | 2.7V | 18:12:15 | 01:13:45 | 00:00:00 | |
| DM0DOS-11 | 2026-09-02 07:31:33 | 56.29845 | 9.81906 | 32° | 5km/h | 22182m | 6.1m/s | -50.9°C | 3.5% | 0hPa | 2.7V | 08:30:00 | 01:13:41 | 00:00:00 | |
| AA1-15 | 2026-09-02 07:31:26 | 56.29839 | 9.81896 | 24° | 5km/h | 22150m | 5.8m/s | -50.8°C | 0.3% | 0hPa | 2.6V | 18:12:15 | 01:13:36 | 00:00:00 | |
| DL1XH-west | 2026-09-02 07:31:25 | 56.29837 | 9.81895 | 36° | 9km/h | 22143m | 7.7m/s | -50.8°C | 0.3% | 0hPa | 2.7V | 18:12:15 | 01:13:35 | 00:00:00 | |
| DJ2DS-15 | 2026-09-02 07:31:25 | 56.29837 | 9.81895 | 36° | 9km/h | 22143m | 7.6m/s | -50.8°C | 3.5% | 0hPa | 2.7V | 00:00:00 | 01:13:35 | 00:00:00 | |
| DL1XH1-15 | 2026-09-02 07:31:24 | 56.29831 | 9.81886 | 31° | 9km/h | 22123m | 7.6m/s | -50.7°C | 3.4% | 0hPa | 2.6V | 08:30:00 | 01:13:32 | 00:00:00 | |
| AA1-15 | 2026-09-02 07:31:16 | 56.29822 | 9.81866 | 67° | 5km/h | 22085m | 5.4m/s | -50.6°C | 0.4% | 0hPa | 2.6V | 18:12:15 | 01:13:26 | 00:00:00 | |
| DO2SHX-10 | 2026-09-02 07:31:15 | 56.29821 | 9.81864 | 61° | 7km/h | 22078m | 7.1m/s | -50.6°C | 3.5% | 0hPa | 2.7V | 00:00:00 | 01:13:25 | 00:00:00 | |
| DL1XH1-15 | 2026-09-02 07:31:14 | 56.29816 | 9.81857 | 14° | 11km/h | 22060m | 6.4m/s | -50.7°C | 3.5% | 0hPa | 2.7V | 08:30:00 | 01:13:22 | 00:00:00 | |
| DL1XH-west | 2026-09-02 07:31:14 | 56.29820 | 9.81862 | 47° | 9km/h | 22071m | 6.4m/s | -50.6°C | 0.3% | 0hPa | 2.6V | 18:12:15 | 01:13:24 | 00:00:00 | |
| DM0DOS-11 | 2026-09-02 07:31:12 | 56.29813 | 9.81857 | 353° | 11km/h | 22053m | 7.2m/s | -50.8°C | 3.5% | 0hPa | 2.7V | 08:30:00 | 01:13:21 | 00:00:00 | |
| AA1-15 | 2026-09-02 07:31:05 | 56.29798 | 9.81854 | 15° | 11km/h | 22015m | 5.1m/s | -50.8°C | 0.3% | 0hPa | 2.7V | 18:12:15 | 01:13:15 | 00:00:00 | |
| DJ2DS-15 | 2026-09-02 07:31:05 | 56.29798 | 9.81854 | 16° | 11km/h | 22016m | 5.0m/s | -50.8°C | 3.4% | 0hPa | 2.6V | 00:00:00 | 01:13:15 | 00:00:00 | |
| DL1XH1-15 | 2026-09-02 07:31:04 | 56.29790 | 9.81847 | 26° | 11km/h | 21997m | 4.5m/s | -50.9°C | 3.4% | 0hPa | 2.6V | 08:30:00 | 01:13:12 | 00:00:00 | |
| DL1XH-west | 2026-09-02 07:31:04 | 56.29796 | 9.81852 | 27° | 11km/h | 22010m | 6.5m/s | -50.8°C | 0.3% | 0hPa | 2.6V | 18:12:15 | 01:13:14 | 00:00:00 | |
| DO2SHX-10 | 2026-09-02 07:31:03 | 56.29793 | 9.81849 | 33° | 11km/h | 22003m | 7.2m/s | -50.8°C | 3.5% | 0hPa | 2.7V | 00:00:00 | 01:13:13 | 00:00:00 | |
| DM0DOS-11 | 2026-09-02 07:31:02 | 56.29788 | 9.81845 | 11° | 9km/h | 21990m | 8.1m/s | -50.9°C | 3.4% | 0hPa | 2.7V | 08:30:00 | 01:13:11 | 00:00:00 | |
| DO2SHX-10 | 2026-09-02 07:31:00 | 56.29786 | 9.81845 | 351° | 9km/h | 21984m | 5.8m/s | -50.8°C | 3.4% | 0hPa | 2.7V | 00:00:00 | 01:13:10 | 00:00:00 | |
| DO2SHX-10 | 2026-09-02 07:30:57 | 56.29779 | 9.81847 | 338° | 9km/h | 21964m | 5.5m/s | -50.8°C | 3.4% | 0hPa | 2.6V | 00:00:00 | 01:13:07 | 00:00:00 | |
| DL1XH1-15 | 2026-09-02 07:30:54 | 56.29771 | 9.81859 | 351° | 9km/h | 21932m | 4.4m/s | -50.6°C | 3.4% | 0hPa | 2.6V | 08:30:00 | 01:13:02 | 00:00:00 | |
| AA1-15 | 2026-09-02 07:30:54 | 56.29775 | 9.81856 | 314° | 9km/h | 21945m | 6.4m/s | -50.8°C | 0.4% | 0hPa | 2.7V | 18:12:15 | 01:13:04 | 00:00:00 | |
| DL1XH-west | 2026-09-02 07:30:53 | 56.29773 | 9.81858 | 339° | 7km/h | 21938m | 7.7m/s | -50.7°C | 0.3% | 0hPa | 2.7V | 18:12:15 | 01:13:03 | 00:00:00 | |
| DM0DOS-11 | 2026-09-02 07:30:52 | 56.29768 | 9.81860 | 342° | 9km/h | 21925m | 8.8m/s | -50.7°C | 3.4% | 0hPa | 2.6V | 08:30:00 | 01:13:01 | 00:00:00 | |
| DO2SHX-10 | 2026-09-02 07:30:51 | 56.29769 | 9.81860 | 343° | 11km/h | 21926m | 8.7m/s | -50.6°C | 3.4% | 0hPa | 2.6V | 00:00:00 | 01:13:01 | 00:00:00 | |
| DO2SHX-10 | 2026-09-02 07:30:48 | 56.29760 | 9.81864 | 360° | 13km/h | 21907m | 7.1m/s | -50.8°C | 3.4% | 0hPa | 2.7V | 00:00:00 | 01:12:58 | 00:00:00 | |
| DJ2DS-15 | 2026-09-02 07:30:45 | 56.29751 | 9.81867 | 328° | 9km/h | 21887m | 5.3m/s | -50.8°C | 3.4% | 0hPa | 2.7V | 00:00:00 | 01:12:55 | 00:00:00 | |
| DL1XH1-15 | 2026-09-02 07:30:44 | 56.29748 | 9.81872 | 290° | 5km/h | 21867m | 7.1m/s | -50.8°C | 3.3% | 0hPa | 2.7V | 08:30:00 | 01:12:52 | 00:00:00 | |
| DL1XH-west | 2026-09-02 07:30:43 | 56.29749 | 9.81870 | 322° | 5km/h | 21874m | 6m/s | -50.7°C | 0.3% | 0hPa | 2.7V | 18:12:15 | 01:12:53 | 00:00:00 | |
| DM0DOS-11 | 2026-09-02 07:30:42 | 56.29748 | 9.81874 | 257° | 5km/h | 21861m | 6m/s | -50.9°C | 3.4% | 0hPa | 2.7V | 08:30:00 | 01:12:51 | 00:00:00 | |
| DO2SHX-10 | 2026-09-02 07:30:42 | 56.29748 | 9.81872 | 291° | 4km/h | 21868m | 7.1m/s | -50.8°C | 3.3% | 0hPa | 2.7V | 00:00:00 | 01:12:52 | 08:30:00 | |
| DO2SHX-10 | 2026-09-02 07:30:39 | 56.29748 | 9.81876 | 120° | 7km/h | 21850m | 7.2m/s | -51.0°C | 3.4% | 0hPa | 2.6V | 00:00:00 | 01:12:49 | 00:00:00 | |
| DO2SHX-10 | 2026-09-02 07:30:36 | 56.29749 | 9.81864 | 100° | 15km/h | 21830m | 9.2m/s | -51.2°C | 3.5% | 0hPa | 2.6V | 00:00:00 | 01:12:46 | 00:00:00 | |
| DL1XH1-15 | 2026-09-02 07:30:34 | 56.29748 | 9.81836 | 76° | 16km/h | 21804m | 6.1m/s | -51.2°C | 3.5% | 0hPa | 2.6V | 08:30:00 | 01:12:42 | 00:00:00 | |
| DO2SHX-10 | 2026-09-02 07:30:33 | 56.29749 | 9.81843 | 81° | 16km/h | 21810m | 6.1m/s | -51.1°C | 3.5% | 0hPa | 2.6V | 00:00:00 | 01:12:43 | 00:00:00 | |
| DM0DOS-11 | 2026-09-02 07:30:32 | 56.29747 | 9.81829 | 77° | 13km/h | 21797m | 7.4m/s | -51.2°C | 3.5% | 0hPa | 2.7V | 08:30:00 | 01:12:41 | 00:00:00 | |
| DL1XH-west | 2026-09-02 07:30:32 | 56.29748 | 9.81836 | 77° | 16km/h | 21804m | 6.1m/s | -51.2°C | 0.3% | 0hPa | 2.6V | 18:12:15 | 01:12:42 | 00:00:00 | |
| DO2SHX-10 | 2026-09-02 07:30:30 | 56.29747 | 9.81824 | 79° | 11km/h | 21790m | 6.3m/s | -51.1°C | 3.5% | 0hPa | 2.7V | 00:00:00 | 01:12:40 | 00:00:00 | |
| DO2SHX-10 | 2026-09-02 07:30:27 | 56.29744 | 9.81808 | 76° | 7km/h | 21771m | 6.0m/s | -51.2°C | 3.5% | 0hPa | 2.7V | 00:00:00 | 01:12:37 | 00:00:00 | |
| DJ2DS-15 | 2026-09-02 07:30:25 | 56.29743 | 9.81801 | 80° | 13km/h | 21757m | 5.4m/s | -51.2°C | 3.5% | 0hPa | 2.7V | 00:00:00 | 01:12:35 | 08:30:00 | |
| DL1XH1-15 | 2026-09-02 07:30:24 | 56.29741 | 9.81791 | 46° | 9km/h | 21738m | 5.9m/s | -51.3°C | 3.5% | 0hPa | 2.6V | 08:30:00 | 01:12:32 | 00:00:00 | |
| DO2SHX-10 | 2026-09-02 07:30:24 | 56.29743 | 9.81798 | 73° | 9km/h | 21751m | 7.8m/s | -51.3°C | 3.5% | 0hPa | 2.7V | 00:00:00 | 01:12:34 | 00:00:00 | |
| DM0DOS-11 | 2026-09-02 07:30:22 | 56.29739 | 9.81788 | 37° | 7km/h | 21732m | 6.6m/s | -51.3°C | 3.5% | 0hPa | 2.6V | 08:30:00 | 01:12:31 | 00:00:00 | |
| DL1XH-west | 2026-09-02 07:30:22 | 56.29741 | 9.81791 | 47° | 9km/h | 21738m | 5.9m/s | -51.3°C | 0.3% | 0hPa | 2.6V | 18:12:15 | 01:12:32 | 00:00:00 | |
| AA1-15 | 2026-09-02 07:30:21 | 56.29739 | 9.81788 | 38° | 7km/h | 21732m | 6.6m/s | -51.3°C | 0.3% | 0hPa | 2.6V | 18:12:15 | 01:12:31 | 00:00:00 | |
| DO2SHX-10 | 2026-09-02 07:30:21 | 56.29739 | 9.81788 | 38° | 7km/h | 21732m | 6.6m/s | -51.2°C | 3.5% | 0hPa | 2.6V | 00:00:00 | 01:12:31 | 00:00:00 | |
| DO2SHX-10 | 2026-09-02 07:30:18 | 56.29735 | 9.81779 | 67° | 11km/h | 21713m | 5.8m/s | -51.2°C | 3.4% | 0hPa | 2.6V | 00:00:00 | 01:12:28 | 00:00:00 | |
| DO2SHX-10 | 2026-09-02 07:30:15 | 56.29733 | 9.81766 | 67° | 7km/h | 21697m | 6.2m/s | -51.4°C | 3.5% | 0hPa | 2.6V | 00:00:00 | 01:12:25 | 08:30:00 | |
| DL1XH1-15 | 2026-09-02 07:30:14 | 56.29727 | 9.81764 | 8° | 15km/h | 21678m | 6m/s | -51.5°C | 3.6% | 0hPa | 2.7V | 08:30:00 | 01:12:22 | 00:00:00 | |
| DM0DOS-11 | 2026-09-02 07:30:12 | 56.29723 | 9.81763 | 7° | 16km/h | 21672m | 5.6m/s | -51.5°C | 3.5% | 0hPa | 2.7V | 08:30:00 | 01:12:21 | 00:00:00 | |
| DL1XH-west | 2026-09-02 07:30:12 | 56.29727 | 9.81764 | 9° | 15km/h | 21678m | 6m/s | -51.5°C | 0.4% | 0hPa | 2.7V | 18:12:15 | 01:12:22 | 00:00:00 | |
| AA1-15 | 2026-09-02 07:30:11 | 56.29724 | 9.81763 | 8° | 16km/h | 21672m | 5.6m/s | -51.5°C | 0.3% | 0hPa | 2.7V | 18:12:15 | 01:12:21 | 00:00:00 | |
| DO2SHX-10 | 2026-09-02 07:30:09 | 56.29716 | 9.81761 | 13° | 20km/h | 21660m | 5.0m/s | -51.6°C | 3.6% | 0hPa | 2.7V | 00:00:00 | 01:12:19 | 00:00:00 | |
| DO2SHX-10 | 2026-09-02 07:30:06 | 56.29701 | 9.81750 | 29° | 22km/h | 21641m | 4.7m/s | -51.7°C | 3.8% | 0hPa | 2.7V | 00:00:00 | 01:12:16 | 00:00:00 | |
| DJ2DS-15 | 2026-09-02 07:30:05 | 56.29696 | 9.81745 | 29° | 16km/h | 21636m | 6.4m/s | -51.7°C | 3.8% | 0hPa | 2.7V | 00:00:00 | 01:12:15 | 00:00:00 | |
| DL1XH1-15 | 2026-09-02 07:30:05 | 56.29682 | 9.81739 | 357° | 18km/h | 21616m | 7.5m/s | -51.6°C | 3.6% | 0hPa | 2.6V | 08:30:00 | 01:12:12 | 00:00:00 | |
| DM0DOS-11 | 2026-09-02 07:30:02 | 56.29678 | 9.81740 | 348° | 18km/h | 21609m | 5.9m/s | -51.6°C | 3.6% | 0hPa | 2.7V | 08:30:00 | 01:12:11 | 00:00:00 | |
| DL1XH-west | 2026-09-02 07:30:02 | 56.29682 | 9.81739 | 358° | 18km/h | 21616m | 7.5m/s | -51.7°C | 0.4% | 0hPa | 2.6V | 18:12:15 | 01:12:12 | 00:00:00 | |
| AA1-15 | 2026-09-02 07:30:00 | 56.29673 | 9.81742 | 337° | 16km/h | 21603m | 7m/s | -51.6°C | 0.4% | 0hPa | 2.7V | 18:12:15 | 01:12:10 | 00:00:00 | |
| DO2SHX-10 | 2026-09-02 07:30:00 | 56.29673 | 9.81742 | 338° | 16km/h | 21603m | 6.9m/s | -51.5°C | 3.6% | 0hPa | 2.6V | 00:00:00 | 01:12:10 | 00:00:00 | |
| DO2SHX-10 | 2026-09-02 07:29:57 | 56.29662 | 9.81755 | 326° | 20km/h | 21582m | 8.1m/s | -51.7°C | 3.6% | 0hPa | 2.6V | 00:00:00 | 01:12:07 | 00:00:00 | |
| DL1XH1-15 | 2026-09-02 07:29:54 | 56.29642 | 9.81782 | 331° | 18km/h | 21552m | 7.1m/s | -51.5°C | 3.6% | 0hPa | 2.6V | 08:30:00 | 01:12:02 | 00:00:00 | |
| DO2SHX-10 | 2026-09-02 07:29:54 | 56.29650 | 9.81773 | 319° | 18km/h | 21564m | 6.2m/s | -51.5°C | 3.6% | 0hPa | 2.6V | 00:00:00 | 01:12:04 | 00:00:00 | |
| DM0DOS-11 | 2026-09-02 07:29:52 | 56.29638 | 9.81786 | 339° | 16km/h | 21546m | 6m/s | -51.5°C | 3.7% | 0hPa | 2.6V | 08:30:00 | 01:12:01 | 00:00:00 | |
| DL1XH-west | 2026-09-02 07:29:51 | 56.29638 | 9.81786 | 339° | 16km/h | 21546m | 6m/s | -51.5°C | 0.5% | 0hPa | 2.6V | 18:12:15 | 01:12:01 | 00:00:00 | |
| AA1-15 | 2026-09-02 07:29:49 | 56.29632 | 9.81788 | 6° | 11km/h | 21532m | 5.8m/s | -51.4°C | 0.5% | 0hPa | 2.7V | 18:12:15 | 01:11:59 | 00:00:00 | |
| DO2SHX-10 | 2026-09-02 07:29:48 | 56.29629 | 9.81787 | 19° | 13km/h | 21526m | 6.6m/s | -51.3°C | 3.7% | 0hPa | 2.7V | 00:00:00 | 01:11:58 | 08:30:00 | |
| DO2SHX-10 | 2026-09-02 07:29:45 | 56.29620 | 9.81785 | 335° | 13km/h | 21509m | 7.1m/s | -51.3°C | 3.6% | 0hPa | 2.7V | 00:00:00 | 01:11:55 | 00:00:00 | |
| DL1XH1-15 | 2026-09-02 07:29:44 | 56.29617 | 9.81802 | 278° | 18km/h | 21488m | 7.8m/s | -51.4°C | 3.6% | 0hPa | 2.7V | 08:30:00 | 01:11:52 | 00:00:00 | |
| DM0DOS-11 | 2026-09-02 07:29:42 | 56.29616 | 9.81811 | 276° | 22km/h | 21481m | 5.5m/s | -51.4°C | 3.6% | 0hPa | 2.7V | 08:30:00 | 01:11:51 | 00:00:00 | |
| DL1XH-west | 2026-09-02 07:29:41 | 56.29616 | 9.81811 | 277° | 22km/h | 21481m | 5.6m/s | -51.4°C | 0.5% | 0hPa | 2.7V | 18:12:15 | 01:11:51 | 00:00:00 | |
| AA1-15 | 2026-09-02 07:29:38 | 56.29616 | 9.81841 | 264° | 20km/h | 21462m | 4.2m/s | -51.3°C | 0.4% | 0hPa | 2.6V | 18:12:15 | 01:11:48 | 00:00:00 | |
| DO2SHX-10 | 2026-09-02 07:29:36 | 56.29615 | 9.81857 | 290° | 15km/h | 21450m | 10.3m/s | -51.2°C | 3.6% | 0hPa | 2.6V | 00:00:00 | 01:11:46 | 00:00:00 | |
| DL1XH1-15 | 2026-09-02 07:29:34 | 56.29605 | 9.81868 | 334° | 5km/h | 21423m | 5.8m/s | -51°C | 3.5% | 0hPa | 2.6V | 08:30:00 | 01:11:42 | 00:00:00 | |
| DO2SHX-10 | 2026-09-02 07:29:33 | 56.29607 | 9.81867 | 344° | 7km/h | 21430m | 10.2m/s | -51.0°C | 3.5% | 0hPa | 2.7V | 00:00:00 | 01:11:43 | 00:00:00 | |
| DM0DOS-11 | 2026-09-02 07:29:32 | 56.29605 | 9.81869 | 299° | 4km/h | 21418m | 3.2m/s | -51.1°C | 3.5% | 0hPa | 2.7V | 08:30:00 | 01:11:41 | 00:00:00 | |
| DL1XH-west | 2026-09-02 07:29:30 | 56.29604 | 9.81870 | 269° | 2km/h | 21413m | 6.3m/s | -51.1°C | 0.4% | 0hPa | 2.7V | 18:12:15 | 01:11:40 | 00:00:00 | |
| AA1-15 | 2026-09-02 07:29:28 | 56.29606 | 9.81870 | 163° | 7km/h | 21397m | 4.1m/s | -50.8°C | 0.4% | 0hPa | 2.6V | 18:12:15 | 01:11:38 | 00:00:00 | |
| DO2SHX-10 | 2026-09-02 07:29:27 | 56.29608 | 9.81870 | 175° | 7km/h | 21391m | 8.0m/s | -50.7°C | 3.5% | 0hPa | 2.7V | 00:00:00 | 01:11:37 | 00:00:00 | |
| DJ2DS-15 | 2026-09-02 07:29:25 | 56.29612 | 9.81872 | 216° | 11km/h | 21376m | 5.5m/s | -50.6°C | 3.4% | 0hPa | 2.7V | 00:00:00 | 01:11:35 | 00:00:00 | |
| DO2SHX-10 | 2026-09-02 07:29:24 | 56.29613 | 9.81874 | 215° | 13km/h | 21370m | 7.6m/s | -50.7°C | 3.5% | 0hPa | 2.6V | 00:00:00 | 01:11:34 | 00:00:00 | |
| DM0DOS-11 | 2026-09-02 07:29:22 | 56.29621 | 9.81888 | 239° | 15km/h | 21347m | 4.8m/s | -50.6°C | 3.5% | 0hPa | 2.6V | 08:30:00 | 01:11:31 | 00:00:00 | |
| DL1XH-west | 2026-09-02 07:29:19 | 56.29625 | 9.81898 | 223° | 13km/h | 21334m | 6.2m/s | -50.6°C | 0.5% | 0hPa | 2.7V | 18:12:15 | 01:11:29 | 00:00:00 | |
| AA1-15 | 2026-09-02 07:29:17 | 56.29628 | 9.81904 | 223° | 5km/h | 21323m | 1.9m/s | -50.6°C | 0.4% | 0hPa | 2.7V | 18:12:15 | 01:11:27 | 00:00:00 | |
| DO2SHX-10 | 2026-09-02 07:29:15 | 56.29630 | 9.81907 | 214° | 9km/h | 21308m | 11.7m/s | -50.6°C | 3.4% | 0hPa | 2.7V | 00:00:00 | 01:11:25 | 00:00:00 | |
| DL1XH1-15 | 2026-09-02 07:29:14 | 56.29636 | 9.81913 | 211° | 9km/h | 21284m | 9.7m/s | -50.6°C | 3.4% | 0hPa | 2.7V | 08:30:00 | 01:11:22 | 00:00:00 | |
| DL1XH-west | 2026-09-02 07:29:09 | 56.29643 | 9.81914 | 168° | 15km/h | 21261m | 5.3m/s | -50.5°C | 0.3% | 0hPa | 2.6V | 18:12:15 | 01:11:19 | 00:00:00 | |
| AA1-15 | 2026-09-02 07:29:06 | 56.29652 | 9.81904 | 138° | 16km/h | 21240m | 8.4m/s | -50.4°C | 0.3% | 0hPa | 2.7V | 18:12:15 | 01:11:16 | 00:00:00 | |
| DO2SHX-10 | 2026-09-02 07:29:06 | 56.29652 | 9.81904 | 139° | 15km/h | 21240m | 8.4m/s | -50.4°C | 3.5% | 0hPa | 2.6V | 00:00:00 | 01:11:16 | 00:00:00 | |
| DJ2DS-15 | 2026-09-02 07:29:05 | 56.29655 | 9.81899 | 138° | 15km/h | 21234m | 4.2m/s | -50.3°C | 3.4% | 0hPa | 2.6V | 00:00:00 | 01:11:15 | 00:00:00 | |
| DL1XH1-15 | 2026-09-02 07:29:04 | 56.29660 | 9.81888 | 104° | 7km/h | 21213m | 5.7m/s | -50.4°C | 3.4% | 0hPa | 2.6V | 08:30:00 | 01:11:12 | 00:00:00 | |
| DO2SHX-10 | 2026-09-02 07:29:03 | 56.29659 | 9.81891 | 120° | 7km/h | 21220m | 8.8m/s | -50.3°C | 3.4% | 0hPa | 2.6V | 00:00:00 | 01:11:13 | 00:00:00 | |
| DM0DOS-11 | 2026-09-02 07:29:02 | 56.29661 | 9.81886 | 128° | 5km/h | 21206m | 8.7m/s | -50.4°C | 3.4% | 0hPa | 2.7V | 08:30:00 | 01:11:11 | 00:00:00 | |
| DL1XH-west | 2026-09-02 07:28:58 | 56.29664 | 9.81880 | 136° | 9km/h | 21185m | 3.9m/s | -50.4°C | 0.3% | 0hPa | 2.6V | 18:12:15 | 01:11:08 | 00:00:00 | |
| AA1-15 | 2026-09-02 07:28:55 | 56.29673 | 9.81868 | 147° | 20km/h | 21166m | 5.1m/s | -50.3°C | 0.3% | 0hPa | 2.7V | 18:12:15 | 01:11:05 | 00:00:00 | |
| DL1XH1-15 | 2026-09-02 07:28:54 | 56.29685 | 9.81848 | 126° | 22km/h | 21145m | 7.2m/s | -50.3°C | 3.5% | 0hPa | 2.6V | 08:30:00 | 01:11:02 | 00:00:00 | |
| DO2SHX-10 | 2026-09-02 07:28:54 | 56.29678 | 9.81863 | 141° | 22km/h | 21159m | 9.2m/s | -50.4°C | 3.5% | 0hPa | 2.7V | 00:00:00 | 01:11:04 | 08:30:00 | |
| DM0DOS-11 | 2026-09-02 07:28:52 | 56.29688 | 9.81839 | 119° | 22km/h | 21138m | 4.5m/s | -50.3°C | 3.4% | 0hPa | 2.6V | 08:30:00 | 01:11:01 | 00:00:00 | |
| DL1XH-west | 2026-09-02 07:28:47 | 56.29693 | 9.81807 | 95° | 15km/h | 21112m | 8.8m/s | -50.4°C | 0.3% | 0hPa | 2.7V | 18:12:15 | 01:10:57 | 00:00:00 | |
| AA1-15 | 2026-09-02 07:28:44 | 56.29695 | 9.81789 | 110° | 16km/h | 21090m | 4.9m/s | -50.3°C | 0.2% | 0hPa | 2.6V | 18:12:15 | 01:10:54 | 00:00:00 | |
| DM0DOS-11 | 2026-09-02 07:28:42 | 56.29703 | 9.81766 | 126° | 27km/h | 21071m | 6.6m/s | -50.1°C | 3.4% | 0hPa | 2.7V | 08:30:00 | 01:10:51 | 00:00:00 | |
| DL1XH-west | 2026-09-02 07:28:37 | 56.29718 | 9.81718 | 114° | 29km/h | 21047m | 6.2m/s | -49.9°C | 0.3% | 0hPa | 2.7V | 18:12:15 | 01:10:47 | 00:00:00 | |
| DO2SHX-10 | 2026-09-02 07:28:36 | 56.29721 | 9.81705 | 110° | 24km/h | 21039m | 11.1m/s | -49.9°C | 3.4% | 0hPa | 2.7V | 00:00:00 | 01:10:46 | 00:00:00 | |
| DL1XH1-15 | 2026-09-02 07:28:34 | 56.29723 | 9.81668 | 98° | 18km/h | 21015m | 6.5m/s | -49.9°C | 3.3% | 0hPa | 2.6V | 08:30:00 | 01:10:42 | 00:00:00 | |
| AA1-15 | 2026-09-02 07:28:33 | 56.29723 | 9.81676 | 95° | 16km/h | 21020m | 3.5m/s | -49.9°C | 0.3% | 0hPa | 2.6V | 18:12:15 | 01:10:43 | 00:00:00 | |
| DL1XH-west | 2026-09-02 07:28:26 | 56.29740 | 9.81599 | 116° | 33km/h | 20971m | 6.4m/s | -49.8°C | 0.3% | 0hPa | 2.6V | 18:12:15 | 01:10:36 | 00:00:00 | |
| DJ2DS-15 | 2026-09-02 07:28:25 | 56.29744 | 9.81585 | 114° | 31km/h | 20965m | 6.6m/s | -49.8°C | 3.3% | 0hPa | 2.7V | 00:00:00 | 01:10:35 | 00:00:00 | |
| DL1XH1-15 | 2026-09-02 07:28:24 | 56.29751 | 9.81546 | 104° | 31km/h | 20944m | 5.2m/s | -49.8°C | 3.3% | 0hPa | 2.6V | 08:30:00 | 01:10:32 | 00:00:00 | |
| AA1-15 | 2026-09-02 07:28:23 | 56.29749 | 9.81559 | 107° | 31km/h | 20951m | 8m/s | -49.8°C | 0.2% | 0hPa | 2.7V | 18:12:15 | 01:10:33 | 00:00:00 | |
| DL1XH-west | 2026-09-02 07:28:15 | 56.29762 | 9.81449 | 96° | 29km/h | 20895m | 8.5m/s | -49.9°C | 0.3% | 0hPa | 2.6V | 18:12:15 | 01:10:25 | 00:00:00 | |
| DO2SHX-10 | 2026-09-02 07:28:15 | 56.29762 | 9.81449 | 96° | 31km/h | 20895m | 8.4m/s | -49.9°C | 3.3% | 0hPa | 2.7V | 00:00:00 | 01:10:25 | 00:00:00 | |
| DL1XH1-15 | 2026-09-02 07:28:14 | 56.29764 | 9.81407 | 96° | 35km/h | 20873m | 5.6m/s | -49.9°C | 3.4% | 0hPa | 2.7V | 08:30:00 | 01:10:22 | 00:00:00 | |
| AA1-15 | 2026-09-02 07:28:12 | 56.29764 | 9.81407 | 97° | 35km/h | 20873m | 5.6m/s | -49.9°C | 0.3% | 0hPa | 2.7V | 18:12:15 | 01:10:22 | 00:00:00 | |
| DL1XH-west | 2026-09-02 07:28:05 | 56.29768 | 9.81303 | 91° | 31km/h | 20827m | 6.7m/s | -49.7°C | 0.2% | 0hPa | 2.7V | 18:12:15 | 01:10:15 | 00:00:00 | |
| DL1XH1-15 | 2026-09-02 07:28:04 | 56.29769 | 9.81261 | 89° | 31km/h | 20805m | 8.9m/s | -49.7°C | 3.3% | 0hPa | 2.6V | 08:30:00 | 01:10:12 | 00:00:00 | |
| AA1-15 | 2026-09-02 07:28:01 | 56.29768 | 9.81247 | 81° | 29km/h | 20798m | 5.5m/s | -49.7°C | 0.2% | 0hPa | 2.7V | 18:12:15 | 01:10:11 | 00:00:00 | |
| DL1XH-west | 2026-09-02 07:27:55 | 56.29757 | 9.81167 | 73° | 29km/h | 20757m | 8.6m/s | -49.8°C | 0.3% | 0hPa | 2.7V | 18:12:15 | 01:10:05 | 00:00:00 | |
| DL1XH1-15 | 2026-09-02 07:27:54 | 56.29752 | 9.81131 | 72° | 26km/h | 20736m | 5.7m/s | -49.6°C | 3.3% | 0hPa | 2.6V | 08:30:00 | 01:10:02 | 00:00:00 | |
| AA1-15 | 2026-09-02 07:27:51 | 56.29750 | 9.81121 | 74° | 24km/h | 20731m | 6.4m/s | -49.7°C | 0.3% | 0hPa | 2.6V | 18:12:15 | 01:10:01 | 00:00:00 | |
| DL1XH-west | 2026-09-02 07:27:45 | 56.29739 | 9.81058 | 75° | 22km/h | 20690m | 5.2m/s | -49.6°C | 0.2% | 0hPa | 2.6V | 18:12:15 | 01:09:55 | 00:00:00 | |
| DO2SHX-10 | 2026-09-02 07:27:45 | 56.29739 | 9.81058 | 75° | 20km/h | 20690m | 5.2m/s | -49.5°C | 3.3% | 0hPa | 2.7V | 00:00:00 | 01:09:55 | 00:00:00 | |
| DL1XH1-15 | 2026-09-02 07:27:44 | 56.29735 | 9.81032 | 78° | 18km/h | 20672m | 6.6m/s | -49.6°C | 3.3% | 0hPa | 2.7V | 08:30:00 | 01:09:52 | 00:00:00 | |
| AA1-15 | 2026-09-02 07:27:40 | 56.29735 | 9.81015 | 97° | 22km/h | 20658m | 5.9m/s | -49.8°C | 0.3% | 0hPa | 2.6V | 18:12:15 | 01:09:50 | 00:00:00 | |
| DL1XH-west | 2026-09-02 07:27:35 | 56.29736 | 9.80964 | 89° | 24km/h | 20626m | 6.7m/s | -49.5°C | 0.3% | 0hPa | 2.7V | 18:12:15 | 01:09:45 | 00:00:00 | |
| DL1XH1-15 | 2026-09-02 07:27:34 | 56.29734 | 9.80936 | 82° | 18km/h | 20604m | 7m/s | -49.4°C | 3.3% | 0hPa | 2.6V | 08:30:00 | 01:09:42 | 00:00:00 | |
| DO2SHX-10 | 2026-09-02 07:27:33 | 56.29734 | 9.80944 | 80° | 18km/h | 20611m | 6.1m/s | -49.4°C | 3.3% | 0hPa | 2.6V | 00:00:00 | 01:09:43 | 08:30:00 | |
| DM0DOS-11 | 2026-09-02 07:27:32 | 56.29734 | 9.80928 | 87° | 16km/h | 20598m | 5.9m/s | -49.5°C | 3.4% | 0hPa | 2.7V | 08:30:00 | 01:09:41 | 00:00:00 | |
| AA1-15 | 2026-09-02 07:27:29 | 56.29733 | 9.80916 | 104° | 11km/h | 20583m | 5m/s | -49.4°C | 0.2% | 0hPa | 2.7V | 18:12:15 | 01:09:39 | 00:00:00 | |
| DL1XH-west | 2026-09-02 07:27:25 | 56.29742 | 9.80891 | 121° | 20km/h | 20555m | 6.1m/s | -49.2°C | 0.2% | 0hPa | 2.7V | 18:12:15 | 01:09:35 | 00:00:00 | |
| DL1XH1-15 | 2026-09-02 07:27:24 | 56.29749 | 9.80861 | 106° | 27km/h | 20536m | 7.8m/s | -49.1°C | 3.2% | 0hPa | 2.6V | 08:30:00 | 01:09:32 | 00:00:00 | |
| DJ2DS-15 | 2026-09-02 07:27:24 | 56.29744 | 9.80882 | 116° | 27km/h | 20548m | 7.9m/s | -49.1°C | 3.3% | 0hPa | 2.7V | 00:00:00 | 01:09:34 | 08:30:00 | |
| DM0DOS-11 | 2026-09-02 07:27:22 | 56.29750 | 9.80849 | 103° | 24km/h | 20526m | 10.9m/s | -49.1°C | 3.3% | 0hPa | 2.6V | 08:30:00 | 01:09:31 | 00:00:00 | |
| AA1-15 | 2026-09-02 07:27:18 | 56.29754 | 9.80817 | 103° | 26km/h | 20505m | 4.7m/s | -48.8°C | 0.1% | 0hPa | 2.6V | 18:12:15 | 01:09:28 | 00:00:00 | |
| DL1XH-west | 2026-09-02 07:27:14 | 56.29763 | 9.80780 | 125° | 22km/h | 20475m | 8.8m/s | -48.8°C | 0.1% | 0hPa | 2.6V | 18:12:15 | 01:09:24 | 00:00:00 | |
| DM0DOS-11 | 2026-09-02 07:27:12 | 56.29775 | 9.80753 | 130° | 26km/h | 20453m | 6.9m/s | -48.8°C | 3.2% | 0hPa | 2.7V | 08:30:00 | 01:09:21 | 00:00:00 | |
| AA1-15 | 2026-09-02 07:27:07 | 56.29792 | 9.80708 | 120° | 33km/h | 20423m | 11.1m/s | -48.7°C | 0.2% | 0hPa | 2.7V | 18:12:15 | 01:09:17 | 00:00:00 | |
| DO2SHX-10 | 2026-09-02 07:27:06 | 56.29796 | 9.80695 | 119° | 35km/h | 20415m | 4.2m/s | -48.6°C | 3.2% | 0hPa | 2.6V | 00:00:00 | 01:09:16 | 08:30:00 | |
| DL1XH1-15 | 2026-09-02 07:27:04 | 56.29813 | 9.80637 | 118° | 35km/h | 20390m | 4.6m/s | -48.8°C | 3.1% | 0hPa | 2.7V | 08:30:00 | 01:09:12 | 00:00:00 | |
| DL1XH-west | 2026-09-02 07:27:04 | 56.29805 | 9.80666 | 117° | 37km/h | 20403m | 6.5m/s | -48.7°C | 0.1% | 0hPa | 2.7V | 18:12:15 | 01:09:14 | 00:00:00 | |
| AA1-15 | 2026-09-02 07:26:56 | 56.29845 | 9.80562 | 132° | 37km/h | 20348m | 8.6m/s | -48.8°C | 0.1% | 0hPa | 2.7V | 18:12:15 | 01:09:06 | 00:00:00 | |
| DL1XH1-15 | 2026-09-02 07:26:54 | 56.29864 | 9.80508 | 113° | 35km/h | 20323m | 6.3m/s | -48.8°C | 3.2% | 0hPa | 2.7V | 08:30:00 | 01:09:02 | 00:00:00 | |
| DL1XH-west | 2026-09-02 07:26:53 | 56.29860 | 9.80522 | 117° | 33km/h | 20328m | 5m/s | -48.8°C | 0.1% | 0hPa | 2.6V | 18:12:15 | 01:09:03 | 00:00:00 | |
| DM0DOS-11 | 2026-09-02 07:26:52 | 56.29867 | 9.80493 | 109° | 38km/h | 20316m | 7m/s | -48.8°C | 3.1% | 0hPa | 2.7V | 08:30:00 | 01:09:01 | 00:00:00 | |
| AA1-15 | 2026-09-02 07:26:45 | 56.29886 | 9.80394 | 113° | 37km/h | 20274m | 7.3m/s | -48.9°C | 0.1% | 0hPa | 2.7V | 18:12:15 | 01:08:55 | 00:00:00 | |
| DO2SHX-10 | 2026-09-02 07:26:45 | 56.29886 | 9.80394 | 113° | 31km/h | 20274m | 7.3m/s | -48.8°C | 3.1% | 0hPa | 2.6V | 00:00:00 | 01:08:55 | 00:00:00 | |
| DL1XH1-15 | 2026-09-02 07:26:44 | 56.29894 | 9.80356 | 109° | 29km/h | 20254m | 11m/s | -48.9°C | 3.1% | 0hPa | 2.6V | 08:30:00 | 01:08:52 | 00:00:00 | |
| DJ2DS-15 | 2026-09-02 07:26:44 | 56.29889 | 9.80380 | 114° | 29km/h | 20269m | 3.6m/s | -48.9°C | 3.2% | 0hPa | 2.6V | 00:00:00 | 01:08:54 | 00:00:00 | |
| DM0DOS-11 | 2026-09-02 07:26:43 | 56.29896 | 9.80344 | 98° | 27km/h | 20245m | 5.6m/s | -48.9°C | 3.1% | 0hPa | 2.6V | 08:30:00 | 01:08:51 | 00:00:00 | |
| DL1XH-west | 2026-09-02 07:26:42 | 56.29894 | 9.80356 | 109° | 29km/h | 20254m | 11m/s | -48.9°C | 0.1% | 0hPa | 2.6V | 18:12:15 | 01:08:52 | 00:00:00 | |
| DO2SHX-10 | 2026-09-02 07:26:42 | 56.29894 | 9.80356 | 110° | 27km/h | 20254m | 11.0m/s | -48.8°C | 3.1% | 0hPa | 2.7V | 00:00:00 | 01:08:52 | 00:00:00 | |
| DO2SHX-10 | 2026-09-02 07:26:39 | 56.29897 | 9.80319 | 89° | 27km/h | 20233m | 5.1m/s | -48.9°C | 3.2% | 0hPa | 2.7V | 00:00:00 | 01:08:49 | 08:30:00 | |
| DO2SHX-10 | 2026-09-02 07:26:36 | 56.29896 | 9.80281 | 90° | 29km/h | 20214m | 6.4m/s | -48.8°C | 3.1% | 0hPa | 2.7V | 00:00:00 | 01:08:46 | 00:00:00 | |
| DL1XH1-15 | 2026-09-02 07:26:34 | 56.29899 | 9.80229 | 96° | 29km/h | 20184m | 6.3m/s | -48.9°C | 3.2% | 0hPa | 2.7V | 08:30:00 | 01:08:42 | 00:00:00 | |
| AA1-15 | 2026-09-02 07:26:34 | 56.29897 | 9.80255 | 97° | 27km/h | 20199m | 5.9m/s | -48.9°C | 0.1% | 0hPa | 2.7V | 18:12:15 | 01:08:44 | 00:00:00 | |
| DO2SHX-10 | 2026-09-02 07:26:33 | 56.29898 | 9.80242 | 98° | 29km/h | 20192m | 8.1m/s | -48.8°C | 3.2% | 0hPa | 2.6V | 00:00:00 | 01:08:43 | 00:00:00 | |
| DM0DOS-11 | 2026-09-02 07:26:32 | 56.29900 | 9.80216 | 94° | 27km/h | 20177m | 8.5m/s | -49°C | 3.3% | 0hPa | 2.6V | 08:30:00 | 01:08:41 | 00:00:00 | |
| DL1XH-west | 2026-09-02 07:26:31 | 56.29900 | 9.80216 | 95° | 27km/h | 20177m | 8.5m/s | -49°C | 0.2% | 0hPa | 2.6V | 18:12:15 | 01:08:41 | 00:00:00 | |
| DO2SHX-10 | 2026-09-02 07:26:30 | 56.29900 | 9.80204 | 89° | 29km/h | 20170m | 6.1m/s | -49.0°C | 3.2% | 0hPa | 2.6V | 00:00:00 | 01:08:40 | 00:00:00 | |
| DO2SHX-10 | 2026-09-02 07:26:27 | 56.29895 | 9.80165 | 67° | 29km/h | 20148m | 8.2m/s | -49.1°C | 3.2% | 0hPa | 2.8V | 00:00:00 | 01:08:37 | 00:00:00 | |
| DL1XH1-15 | 2026-09-02 07:26:24 | 56.29878 | 9.80106 | 67° | 27km/h | 20115m | 5.6m/s | -48.9°C | 3.1% | 0hPa | 2.8V | 08:30:00 | 01:08:32 | 00:00:00 | |
| AA1-15 | 2026-09-02 07:26:24 | 56.29885 | 9.80130 | 62° | 31km/h | 20127m | 4.4m/s | -49°C | 0.1% | 0hPa | 2.6V | 18:12:15 | 01:08:34 | 00:00:00 | |
| DJ2DS-15 | 2026-09-02 07:26:24 | 56.29884 | 9.80130 | 63° | 27km/h | 20128m | 4.4m/s | -48.9°C | 3.1% | 0hPa | 2.6V | 00:00:00 | 01:08:34 | 00:00:00 | |
| DM0DOS-11 | 2026-09-02 07:26:22 | 56.29876 | 9.80095 | 72° | 27km/h | 20109m | 6.5m/s | -49°C | 3.2% | 0hPa | 2.7V | 08:30:00 | 01:08:31 | 00:00:00 | |
| DL1XH-west | 2026-09-02 07:26:20 | 56.29874 | 9.80082 | 76° | 29km/h | 20102m | 8.1m/s | -49°C | 0.1% | 0hPa | 2.7V | 18:12:15 | 01:08:30 | 00:00:00 | |
| DO2SHX-10 | 2026-09-02 07:26:18 | 56.29870 | 9.80056 | 79° | 27km/h | 20088m | 9.2m/s | -49.0°C | 3.2% | 0hPa | 2.6V | 00:00:00 | 01:08:28 | 00:00:00 | |
| DL1XH1-15 | 2026-09-02 07:26:14 | 56.29853 | 9.79990 | 45° | 26km/h | 20046m | 7.4m/s | -48.9°C | 3.2% | 0hPa | 2.6V | 08:30:00 | 01:08:22 | 00:00:00 | |
| AA1-15 | 2026-09-02 07:26:13 | 56.29857 | 9.79998 | 51° | 26km/h | 20052m | 5.1m/s | -48.8°C | 0.2% | 0hPa | 2.6V | 18:12:15 | 01:08:23 | 00:00:00 | |
| DM0DOS-11 | 2026-09-02 07:26:12 | 56.29848 | 9.79982 | 38° | 27km/h | 20040m | 4.2m/s | -48.9°C | 3.2% | 0hPa | 2.6V | 08:30:00 | 01:08:21 | 00:00:00 | |
| DL1XH-west | 2026-09-02 07:26:10 | 56.29843 | 9.79974 | 37° | 27km/h | 20035m | 6.8m/s | -48.9°C | 0.1% | 0hPa | 2.8V | 18:12:15 | 01:08:20 | 00:00:00 | |
| DL1XH1-15 | 2026-09-02 07:26:04 | 56.29816 | 9.79897 | 71° | 31km/h | 19974m | 5.2m/s | -49°C | 3.2% | 0hPa | 2.6V | 08:30:00 | 01:08:12 | 00:00:00 | |
| AA1-15 | 2026-09-02 07:26:02 | 56.29816 | 9.79897 | 71° | 31km/h | 19974m | 5.3m/s | -49°C | 0.2% | 0hPa | 2.6V | 18:12:15 | 01:08:12 | 00:00:00 | |
| DM0DOS-11 | 2026-09-02 07:26:02 | 56.29814 | 9.79884 | 73° | 33km/h | 19967m | 8.4m/s | -49°C | 3.1% | 0hPa | 2.7V | 08:30:00 | 01:08:11 | 00:00:00 | |
| DL1XH-west | 2026-09-02 07:26:00 | 56.29812 | 9.79870 | 75° | 31km/h | 19960m | 5.2m/s | -49.1°C | 0.2% | 0hPa | 2.7V | 18:12:15 | 01:08:10 | 00:00:00 | |
| DO2SHX-10 | 2026-09-02 07:26:00 | 56.29812 | 9.79870 | 75° | 31km/h | 19960m | 5.2m/s | -49.0°C | 3.2% | 0hPa | 2.7V | 00:00:00 | 01:08:10 | 08:30:00 | |
| DO2SHX-10 | 2026-09-02 07:25:57 | 56.29803 | 9.79830 | 64° | 29km/h | 19941m | 7.2m/s | -49.1°C | 3.2% | 0hPa | 2.7V | 00:00:00 | 01:08:07 | 00:00:00 | |
| DL1XH1-15 | 2026-09-02 07:25:54 | 56.29785 | 9.79774 | 60° | 26km/h | 19908m | 4.3m/s | -49.2°C | 3.3% | 0hPa | 2.7V | 08:30:00 | 01:08:02 | 00:00:00 | |
| DO2SHX-10 | 2026-09-02 07:25:54 | 56.29792 | 9.79795 | 58° | 27km/h | 19921m | 4.9m/s | -49.2°C | 3.3% | 0hPa | 2.6V | 00:00:00 | 01:08:04 | 00:00:00 | |
| DM0DOS-11 | 2026-09-02 07:25:52 | 56.29782 | 9.79764 | 63° | 24km/h | 19903m | 6.4m/s | -49.2°C | 3.3% | 0hPa | 2.6V | 08:30:00 | 01:08:01 | 00:00:00 | |
| AA1-15 | 2026-09-02 07:25:52 | 56.29782 | 9.79764 | 64° | 24km/h | 19903m | 6.4m/s | -49.2°C | 0.2% | 0hPa | 2.6V | 18:12:15 | 01:08:01 | 00:00:00 | |
| DL1XH-west | 2026-09-02 07:25:49 | 56.29776 | 9.79745 | 55° | 27km/h | 19888m | 4m/s | -49.2°C | 0.2% | 0hPa | 2.7V | 18:12:15 | 01:07:59 | 00:00:00 | |
| DO2SHX-10 | 2026-09-02 07:25:48 | 56.29772 | 9.79734 | 57° | 27km/h | 19883m | 6.3m/s | -49.0°C | 3.3% | 0hPa | 2.7V | 00:00:00 | 01:07:58 | 00:00:00 | |
| DO2SHX-10 | 2026-09-02 07:25:45 | 56.29760 | 9.79702 | 56° | 31km/h | 19864m | 9.0m/s | -49.0°C | 3.2% | 0hPa | 2.7V | 00:00:00 | 01:07:55 | 00:00:00 | |
| DL1XH1-15 | 2026-09-02 07:25:44 | 56.29749 | 9.79668 | 67° | 27km/h | 19843m | 5.7m/s | -49.2°C | 3.2% | 0hPa | 2.7V | 08:30:00 | 01:07:52 | 00:00:00 | |
| DJ2DS-15 | 2026-09-02 07:25:44 | 56.29756 | 9.79691 | 58° | 27km/h | 19857m | 5.2m/s | -49.1°C | 3.2% | 0hPa | 2.7V | 00:00:00 | 01:07:54 | 00:00:00 | |
| DM0DOS-11 | 2026-09-02 07:25:42 | 56.29747 | 9.79656 | 65° | 27km/h | 19835m | 9.4m/s | -49.3°C | 3.2% | 0hPa | 2.7V | 08:30:00 | 01:07:51 | 00:00:00 | |
| AA1-15 | 2026-09-02 07:25:40 | 56.29744 | 9.79645 | 69° | 26km/h | 19828m | 4.8m/s | -49.2°C | 0.2% | 0hPa | 2.6V | 18:12:15 | 01:07:50 | 00:00:00 | |
| DL1XH-west | 2026-09-02 07:25:38 | 56.29741 | 9.79625 | 80° | 22km/h | 19816m | 4.6m/s | -49.2°C | 0.2% | 0hPa | 2.6V | 18:12:15 | 01:07:48 | 00:00:00 | |
| DO2SHX-10 | 2026-09-02 07:25:36 | 56.29738 | 9.79606 | 76° | 24km/h | 19804m | 4.3m/s | -49.1°C | 3.2% | 0hPa | 2.6V | 00:00:00 | 01:07:46 | 00:00:00 | |
| DL1XH1-15 | 2026-09-02 07:25:34 | 56.29733 | 9.79563 | 72° | 26km/h | 19777m | 8.5m/s | -49.2°C | 3.2% | 0hPa | 2.6V | 08:30:00 | 01:07:42 | 00:00:00 | |
| DO2SHX-10 | 2026-09-02 07:25:33 | 56.29734 | 9.79574 | 78° | 26km/h | 19784m | 5.0m/s | -49.1°C | 3.2% | 0hPa | 2.6V | 00:00:00 | 01:07:43 | 08:30:00 | |
| DM0DOS-11 | 2026-09-02 07:25:32 | 56.29730 | 9.79552 | 64° | 27km/h | 19770m | 5.4m/s | -49.2°C | 3.2% | 0hPa | 2.8V | 08:30:00 | 01:07:41 | 00:00:00 | |
| AA1-15 | 2026-09-02 07:25:29 | 56.29724 | 9.79529 | 65° | 27km/h | 19757m | 4.3m/s | -49.3°C | 0.2% | 0hPa | 2.7V | 18:12:15 | 01:07:39 | 00:00:00 | |
| DL1XH-west | 2026-09-02 07:25:27 | 56.29718 | 9.79505 | 62° | 31km/h | 19746m | 4.5m/s | -49.2°C | 0.2% | 0hPa | 2.6V | 18:12:15 | 01:07:37 | 00:00:00 | |
| DO2SHX-10 | 2026-09-02 07:25:27 | 56.29718 | 9.79505 | 62° | 29km/h | 19746m | 4.4m/s | -49.1°C | 3.2% | 0hPa | 2.6V | 00:00:00 | 01:07:37 | 00:00:00 | |
| DL1XH1-15 | 2026-09-02 07:25:24 | 56.29702 | 9.79449 | 63° | 27km/h | 19712m | 5.8m/s | -49.2°C | 3.2% | 0hPa | 2.6V | 08:30:00 | 01:07:32 | 00:00:00 | |
| DJ2DS-15 | 2026-09-02 07:25:24 | 56.29708 | 9.79471 | 67° | 27km/h | 19726m | 5.3m/s | -49.3°C | 3.2% | 0hPa | 2.7V | 00:00:00 | 01:07:34 | 00:00:00 | |
| DM0DOS-11 | 2026-09-02 07:25:22 | 56.29699 | 9.79437 | 67° | 27km/h | 19705m | 9.1m/s | -49.2°C | 3.3% | 0hPa | 2.6V | 08:30:00 | 01:07:31 | 00:00:00 | |
| AA1-15 | 2026-09-02 07:25:18 | 56.29691 | 9.79404 | 58° | 27km/h | 19685m | 7.3m/s | -49.1°C | 0.2% | 0hPa | 2.7V | 18:12:15 | 01:07:28 | 00:00:00 | |
| DL1XH-west | 2026-09-02 07:25:17 | 56.29686 | 9.79394 | 52° | 29km/h | 19679m | 4.7m/s | -49.2°C | 0.2% | 0hPa | 2.7V | 18:12:15 | 01:07:27 | 00:00:00 | |
| DJ2DS-15 | 2026-09-02 07:25:15 | 56.29672 | 9.79365 | 44° | 29km/h | 19660m | 7.5m/s | -49.3°C | 0.9% | -1.0hPa | 2.7V | 00:00:00 | 00:00:00 | 00:00:00 | |
| DM0DOS-11 | 2026-09-02 07:25:12 | 56.29656 | 9.79336 | 48° | 27km/h | 19641m | 5.2m/s | -49.2°C | 3.2% | 0hPa | 2.7V | 08:30:00 | 01:07:21 | 00:00:00 | |
| DL1XH-west | 2026-09-02 07:25:07 | 56.29640 | 9.79299 | 56° | 24km/h | 19616m | 9.2m/s | -49.4°C | 0.2% | 0hPa | 2.8V | 18:12:15 | 01:07:17 | 00:00:00 | |
| DO2SHX-10 | 2026-09-02 07:25:06 | 56.29637 | 9.79290 | 61° | 22km/h | 19609m | 5.2m/s | -49.4°C | 3.3% | 0hPa | 2.7V | 00:00:00 | 01:07:16 | 08:30:00 | |
| DL1XH1-15 | 2026-09-02 07:25:04 | 56.29624 | 9.79256 | 52° | 22km/h | 19581m | 5.6m/s | -49.4°C | 3.3% | 0hPa | 2.7V | 08:30:00 | 01:07:12 | 00:00:00 | |
| DL1XH-west | 2026-09-02 07:24:56 | 56.29603 | 9.79213 | 57° | 18km/h | 19541m | 4.9m/s | -49.3°C | 0.2% | 0hPa | 2.6V | 18:12:15 | 01:07:06 | 00:00:00 | |
| DL1XH1-15 | 2026-09-02 07:24:54 | 56.29597 | 9.79187 | 81° | 13km/h | 19514m | 7.6m/s | -49.3°C | 3.3% | 0hPa | 2.6V | 08:30:00 | 01:07:02 | 00:00:00 | |
| DO2SHX-10 | 2026-09-02 07:24:54 | 56.29599 | 9.79199 | 66° | 15km/h | 19528m | 9.2m/s | -49.3°C | 3.2% | 0hPa | 2.6V | 00:00:00 | 01:07:04 | 00:00:00 | |
| DM0DOS-11 | 2026-09-02 07:24:52 | 56.29596 | 9.79181 | 78° | 15km/h | 19508m | 5.1m/s | -49.2°C | 3.3% | 0hPa | 2.6V | 08:30:00 | 01:07:01 | 00:00:00 | |
| DL1XH-west | 2026-09-02 07:24:45 | 56.29591 | 9.79148 | 63° | 13km/h | 19470m | 9.3m/s | -48.9°C | 0.2% | 0hPa | 2.6V | 18:12:15 | 01:06:55 | 00:00:00 | |
| DO2SHX-10 | 2026-09-02 07:24:45 | 56.29590 | 9.79148 | 64° | 15km/h | 19471m | 9.2m/s | -48.8°C | 3.2% | 0hPa | 2.7V | 00:00:00 | 01:06:55 | 00:00:00 | |
| DL1XH1-15 | 2026-09-02 07:24:44 | 56.29586 | 9.79130 | 62° | 16km/h | 19449m | 5m/s | -49°C | 3.2% | 0hPa | 2.7V | 08:30:00 | 01:06:52 | 00:00:00 | |
| DJ2DS-15 | 2026-09-02 07:24:44 | 56.29589 | 9.79142 | 71° | 18km/h | 19463m | 5.2m/s | -48.9°C | 3.2% | 0hPa | 2.6V | 00:00:00 | 01:06:54 | 00:00:00 | |
| DM0DOS-11 | 2026-09-02 07:24:42 | 56.29585 | 9.79124 | 68° | 15km/h | 19443m | 7.2m/s | -49°C | 3.2% | 0hPa | 2.6V | 08:30:00 | 01:06:51 | 00:00:00 | |
| DO2SHX-10 | 2026-09-02 07:24:42 | 56.29586 | 9.79130 | 63° | 15km/h | 19450m | 5.0m/s | -49.0°C | 3.2% | 0hPa | 2.8V | 00:00:00 | 01:06:52 | 00:00:00 | |
| DJ2DS-15 | 2026-09-02 07:24:39 | 56.29582 | 9.79104 | 76° | 16km/h | 19426m | 2.9m/s | -49.0°C | 0.9% | -1.0hPa | 2.8V | 00:00:00 | 00:00:00 | 00:00:00 | |
| DO2SHX-10 | 2026-09-02 07:24:36 | 56.29580 | 9.79087 | 81° | 16km/h | 19413m | 10.2m/s | -48.8°C | 3.2% | 0hPa | 2.8V | 00:00:00 | 01:06:46 | 00:00:00 | |
| DL1XH1-15 | 2026-09-02 07:24:34 | 56.29575 | 9.79056 | 66° | 18km/h | 19387m | 6.9m/s | -48.8°C | 3% | 0hPa | 2.8V | 08:30:00 | 01:06:42 | 00:00:00 | |
| DL1XH-west | 2026-09-02 07:24:34 | 56.29578 | 9.79072 | 75° | 18km/h | 19400m | 7.8m/s | -48.8°C | 0.1% | 0hPa | 2.6V | 18:12:15 | 01:06:44 | 00:00:00 | |
| DO2SHX-10 | 2026-09-02 07:24:33 | 56.29577 | 9.79064 | 67° | 18km/h | 19394m | 4.3m/s | -48.7°C | 3.0% | 0hPa | 2.8V | 00:00:00 | 01:06:43 | 00:00:00 | |
| DM0DOS-11 | 2026-09-02 07:24:32 | 56.29573 | 9.79049 | 66° | 18km/h | 19381m | 6.1m/s | -48.9°C | 3.1% | 0hPa | 2.8V | 08:30:00 | 01:06:41 | 00:00:00 | |
| DO2SHX-10 | 2026-09-02 07:24:30 | 56.29571 | 9.79041 | 66° | 22km/h | 19376m | 5.6m/s | -48.9°C | 3.1% | 0hPa | 2.7V | 00:00:00 | 01:06:40 | 00:00:00 | |
| DO2SHX-10 | 2026-09-02 07:24:27 | 56.29564 | 9.79014 | 67° | 22km/h | 19354m | 8.6m/s | -49.0°C | 3.1% | 0hPa | 2.6V | 00:00:00 | 01:06:37 | 00:00:00 | |
| D01LWL | 2026-09-02 07:24:25 | 56.29559 | 9.78985 | 71° | 24km/h | 19334m | 4.7m/s | -49.2°C | 0.9% | -1.0hPa | 2.6V | 00:00:00 | 00:00:00 | 00:00:00 | |
| DL1XH1-15 | 2026-09-02 07:24:24 | 56.29556 | 9.78964 | 77° | 24km/h | 19323m | 5.7m/s | -49.1°C | 3.2% | 0hPa | 2.6V | 08:30:00 | 01:06:32 | 00:00:00 | |
| DL1XH-west | 2026-09-02 07:24:24 | 56.29559 | 9.78985 | 71° | 24km/h | 19334m | 4.7m/s | -49.2°C | 0.2% | 0hPa | 2.7V | 18:12:15 | 01:06:34 | 00:00:00 | |
| AA1-15 | 2026-09-02 07:24:23 | 56.29557 | 9.78975 | 75° | 24km/h | 19329m | 6.2m/s | -49.1°C | 0.1% | 0hPa | 2.6V | 18:12:15 | 01:06:33 | 00:00:00 | |
| DM0DOS-11 | 2026-09-02 07:24:22 | 56.29554 | 9.78954 | 77° | 24km/h | 19317m | 6.7m/s | -49.1°C | 3.1% | 0hPa | 2.7V | 08:30:00 | 01:06:31 | 00:00:00 | |
| DO2SHX-10 | 2026-09-02 07:24:21 | 56.29554 | 9.78953 | 78° | 27km/h | 19317m | 6.7m/s | -49.0°C | 3.1% | 0hPa | 2.7V | 00:00:00 | 01:06:31 | 00:00:00 | |
| DO2SHX-10 | 2026-09-02 07:24:18 | 56.29550 | 9.78917 | 82° | 29km/h | 19297m | 9.2m/s | -49.1°C | 3.2% | 0hPa | 2.6V | 00:00:00 | 01:06:28 | 00:00:00 | |
| DO2SHX-10 | 2026-09-02 07:24:15 | 56.29547 | 9.78878 | 79° | 29km/h | 19276m | 4.7m/s | -49.4°C | 3.3% | 0hPa | 2.6V | 00:00:00 | 01:06:25 | 00:00:00 | |
| DL1XH1-15 | 2026-09-02 07:24:14 | 56.29543 | 9.78841 | 74° | 26km/h | 19257m | 7.7m/s | -49.8°C | 3.3% | 0hPa | 2.6V | 08:30:00 | 01:06:22 | 00:00:00 | |
| DL1XH-west | 2026-09-02 07:24:14 | 56.29545 | 9.78865 | 80° | 29km/h | 19270m | 8.1m/s | -49.6°C | 0.2% | 0hPa | 2.7V | 18:12:15 | 01:06:24 | 00:00:00 | |
| DM0DOS-11 | 2026-09-02 07:24:12 | 56.29540 | 9.78829 | 65° | 27km/h | 19251m | 4.1m/s | -49.8°C | 3.4% | 0hPa | 2.8V | 08:30:00 | 01:06:21 | 00:00:00 | |
| AA1-15 | 2026-09-02 07:24:12 | 56.29543 | 9.78841 | 75° | 26km/h | 19257m | 7.7m/s | -49.8°C | 0.3% | 0hPa | 2.6V | 18:12:15 | 01:06:22 | 00:00:00 | |
| DO2SHX-10 | 2026-09-02 07:24:12 | 56.29542 | 9.78841 | 75° | 27km/h | 19257m | 7.7m/s | -49.7°C | 3.3% | 0hPa | 2.6V | 00:00:00 | 01:06:22 | 08:30:00 | |
| DO2SHX-10 | 2026-09-02 07:24:09 | 56.29534 | 9.78807 | 66° | 29km/h | 19239m | 7.3m/s | -49.7°C | 3.3% | 0hPa | 2.6V | 00:00:00 | 01:06:19 | 00:00:00 | |
| DO2SHX-10 | 2026-09-02 07:24:06 | 56.29525 | 9.78770 | 64° | 33km/h | 19219m | 5.9m/s | -49.8°C | 3.3% | 0hPa | 2.6V | 00:00:00 | 01:06:16 | 00:00:00 | |
| DL1XH1-15 | 2026-09-02 07:24:04 | 56.29511 | 9.78718 | 64° | 31km/h | 19193m | 6.9m/s | -49.7°C | 3.3% | 0hPa | 2.6V | 08:30:00 | 01:06:12 | 00:00:00 | |
| DL1XH-west | 2026-09-02 07:24:03 | 56.29515 | 9.78730 | 65° | 33km/h | 19199m | 6.2m/s | -49.7°C | 0.2% | 0hPa | 2.6V | 18:12:15 | 01:06:13 | 00:00:00 | |
| DO2SHX-10 | 2026-09-02 07:24:03 | 56.29514 | 9.78730 | 65° | 29km/h | 19199m | 6.2m/s | -49.6°C | 3.3% | 0hPa | 2.6V | 00:00:00 | 01:06:13 | 00:00:00 | |
| DM0DOS-11 | 2026-09-02 07:24:02 | 56.29508 | 9.78706 | 66° | 27km/h | 19186m | 6.1m/s | -49.7°C | 3.3% | 0hPa | 2.8V | 08:30:00 | 01:06:11 | 00:00:00 | |
| AA1-15 | 2026-09-02 07:24:01 | 56.29508 | 9.78706 | 66° | 27km/h | 19186m | 6.1m/s | -49.7°C | 0.2% | 0hPa | 2.8V | 18:12:15 | 01:06:11 | 00:00:00 | |
| DO2SHX-10 | 2026-09-02 07:24:00 | 56.29506 | 9.78695 | 68° | 26km/h | 19180m | 7.0m/s | -49.5°C | 3.3% | 0hPa | 2.6V | 00:00:00 | 01:06:10 | 00:00:00 | |
| DO2SHX-10 | 2026-09-02 07:23:57 | 56.29499 | 9.78662 | 75° | 20km/h | 19157m | 8.8m/s | -49.4°C | 3.4% | 0hPa | 2.6V | 00:00:00 | 01:06:07 | 00:00:00 | |
| DL1XH1-15 | 2026-09-02 07:23:54 | 56.29493 | 9.78618 | 78° | 16km/h | 19124m | 6.5m/s | -49.5°C | 3.3% | 0hPa | 2.6V | 08:30:00 | 01:06:02 | 00:00:00 | |
| DL1XH-west | 2026-09-02 07:23:53 | 56.29494 | 9.78626 | 76° | 20km/h | 19130m | 6m/s | -49.5°C | 0.3% | 0hPa | 2.7V | 18:12:15 | 01:06:03 | 00:00:00 | |
| DM0DOS-11 | 2026-09-02 07:23:52 | 56.29493 | 9.78611 | 78° | 16km/h | 19118m | 6.3m/s | -49.5°C | 3.3% | 0hPa | 2.6V | 08:30:00 | 01:06:01 | 00:00:00 | |
| AA1-15 | 2026-09-02 07:23:50 | 56.29491 | 9.78603 | 76° | 18km/h | 19110m | 9.5m/s | -49.5°C | 0.2% | 0hPa | 2.6V | 18:12:15 | 01:06:00 | 00:00:00 | |
| DO2SHX-10 | 2026-09-02 07:23:48 | 56.29489 | 9.78585 | 78° | 20km/h | 19096m | 8.4m/s | -49.6°C | 3.3% | 0hPa | 2.6V | 00:00:00 | 01:05:58 | 00:00:00 | |
| DO2SHX-10 | 2026-09-02 07:23:45 | 56.29486 | 9.78556 | 78° | 27km/h | 19075m | 4.7m/s | -49.7°C | 3.3% | 0hPa | 2.6V | 00:00:00 | 01:05:55 | 08:30:00 | |
| DL1XH1-15 | 2026-09-02 07:23:44 | 56.29482 | 9.78521 | 78° | 24km/h | 19051m | 4.9m/s | -49.7°C | 3.3% | 0hPa | 2.8V | 08:30:00 | 01:05:52 | 00:00:00 | |
| DL1XH-west | 2026-09-02 07:23:44 | 56.29483 | 9.78533 | 77° | 26km/h | 19059m | 11.3m/s | -49.7°C | 0.3% | 0hPa | 2.8V | 18:12:15 | 01:05:53 | 00:00:00 | |
| DM0DOS-11 | 2026-09-02 07:23:42 | 56.29480 | 9.78510 | 77° | 26km/h | 19045m | 7.8m/s | -49.7°C | 3.3% | 0hPa | 2.7V | 08:30:00 | 01:05:51 | 00:00:00 | |
| AA1-15 | 2026-09-02 07:23:40 | 56.29479 | 9.78498 | 79° | 27km/h | 19038m | 5.3m/s | -49.7°C | 0.2% | 0hPa | 2.6V | 18:12:15 | 01:05:50 | 00:00:00 | |
| DO2SHX-10 | 2026-09-02 07:23:39 | 56.29477 | 9.78485 | 81° | 29km/h | 19032m | 7.2m/s | -49.7°C | 3.3% | 0hPa | 2.7V | 00:00:00 | 01:05:49 | 00:00:00 | |
| DO2SHX-10 | 2026-09-02 07:23:36 | 56.29476 | 9.78446 | 90° | 33km/h | 19013m | 5.5m/s | -49.6°C | 3.3% | 0hPa | 2.7V | 00:00:00 | 01:05:46 | 00:00:00 | |
| DL1XH1-15 | 2026-09-02 07:23:34 | 56.29478 | 9.78389 | 98° | 33km/h | 18984m | 8.9m/s | -49.7°C | 3.3% | 0hPa | 2.8V | 08:30:00 | 01:05:42 | 00:00:00 | |
| DO2SHX-10 | 2026-09-02 07:23:33 | 56.29477 | 9.78403 | 100° | 31km/h | 18992m | 5.0m/s | -49.7°C | 3.3% | 0hPa | 2.8V | 00:00:00 | 01:05:43 | 00:00:00 | |
| DM0DOS-11 | 2026-09-02 07:23:32 | 56.29480 | 9.78374 | 97° | 33km/h | 18977m | 5m/s | -49.7°C | 3.4% | 0hPa | 2.8V | 08:30:00 | 01:05:41 | 00:00:00 | |
| DL1XH-west | 2026-09-02 07:23:32 | 56.29478 | 9.78389 | 99° | 33km/h | 18984m | 8.9m/s | -49.7°C | 0.3% | 0hPa | 2.8V | 18:12:15 | 01:05:42 | 00:00:00 | |
| AA1-15 | 2026-09-02 07:23:29 | 56.29482 | 9.78347 | 97° | 26km/h | 18965m | 4m/s | -49.6°C | 0.3% | 0hPa | 2.6V | 18:12:15 | 01:05:39 | 00:00:00 | |
| DJ2DS-15 | 2026-09-02 07:23:27 | 56.29482 | 9.78311 | 86° | 26km/h | 18945m | 5.8m/s | -49.5°C | 0.9% | -1.0hPa | 2.7V | 00:00:00 | 00:00:00 | 00:00:00 | |
| DL1XH1-15 | 2026-09-02 07:23:24 | 56.29478 | 9.78264 | 76° | 29km/h | 18916m | 5.6m/s | -49.3°C | 3.3% | 0hPa | 2.7V | 08:30:00 | 01:05:32 | 00:00:00 | |
| DJ2DS-15 | 2026-09-02 07:23:24 | 56.29481 | 9.78288 | 81° | 24km/h | 18931m | 6.2m/s | -49.4°C | 3.3% | 0hPa | 2.7V | 00:00:00 | 01:05:34 | 00:00:00 | |
| DM0DOS-11 | 2026-09-02 07:23:22 | 56.29477 | 9.78251 | 77° | 27km/h | 18909m | 8.4m/s | -49.3°C | 3.2% | 0hPa | 2.6V | 08:30:00 | 01:05:31 | 00:00:00 | |
| DL1XH-west | 2026-09-02 07:23:22 | 56.29478 | 9.78264 | 77° | 29km/h | 18916m | 5.6m/s | -49.3°C | 0.2% | 0hPa | 2.7V | 18:12:15 | 01:05:32 | 00:00:00 | |
| AA1-15 | 2026-09-02 07:23:18 | 56.29474 | 9.78219 | 84° | 24km/h | 18888m | 6.3m/s | -49.2°C | 0.2% | 0hPa | 2.8V | 18:12:15 | 01:05:28 | 00:00:00 | |
| DO2SHX-10 | 2026-09-02 07:23:18 | 56.29474 | 9.78219 | 85° | 22km/h | 18888m | 6.2m/s | -49.2°C | 3.2% | 0hPa | 2.7V | 00:00:00 | 01:05:28 | 08:30:00 | |
| DO2SHX-10 | 2026-09-02 07:23:15 | 56.29474 | 9.78190 | 91° | 18km/h | 18867m | 7.6m/s | -49.3°C | 3.2% | 0hPa | 2.8V | 00:00:00 | 01:05:25 | 00:00:00 | |
| DM0DOS-11 | 2026-09-02 07:23:12 | 56.29470 | 9.78160 | 71° | 16km/h | 18838m | 5.3m/s | -49.5°C | 3.2% | 0hPa | 2.8V | 08:30:00 | 01:05:21 | 00:00:00 | |
| DL1XH-west | 2026-09-02 07:23:11 | 56.29470 | 9.78160 | 72° | 16km/h | 18838m | 5.3m/s | -49.5°C | 0.2% | 0hPa | 2.8V | 18:12:15 | 01:05:21 | 00:00:00 | |
| DO2SHX-10 | 2026-09-02 07:23:10 | 56.29466 | 9.78143 | 64° | 24km/h | 18824m | 5.3m/s | -49.5°C | 3.2% | 0hPa | 2.6V | 00:00:00 | 01:05:19 | 00:00:00 | |
| DO2SHX-10 | 2026-09-02 07:23:09 | 56.29460 | 9.78112 | 74° | 26km/h | 18804m | 7.5m/s | -49.4°C | 3.2% | 0hPa | 2.6V | 00:00:00 | 01:05:16 | 00:00:00 | |
| AA1-15 | 2026-09-02 07:23:09 | 56.29461 | 9.78123 | 74° | 24km/h | 18810m | 4.6m/s | -49.4°C | 0.1% | 0hPa | 2.6V | 18:12:15 | 01:05:17 | 00:00:00 | |
| DL1XH1-15 | 2026-09-02 07:23:04 | 56.29455 | 9.78069 | 86° | 22km/h | 18779m | 7.5m/s | -49.4°C | 3.2% | 0hPa | 2.6V | 08:30:00 | 01:05:12 | 00:00:00 | |
| DL1XH-west | 2026-09-02 07:23:01 | 56.29455 | 9.78059 | 79° | 22km/h | 18771m | 7.2m/s | -49.7°C | 0.2% | 0hPa | 2.6V | 18:12:15 | 01:05:11 | 00:00:00 | |
| AA1-15 | 2026-09-02 07:22:56 | 56.29445 | 9.78012 | 57° | 27km/h | 18740m | 7m/s | -49.9°C | 0.3% | 0hPa | 2.6V | 18:12:15 | 01:05:06 | 00:00:00 | |
| DL1XH1-15 | 2026-09-02 07:22:54 | 56.29429 | 9.77973 | 53° | 26km/h | 18711m | 4.8m/s | -49.8°C | 3.4% | 0hPa | 2.6V | 08:30:00 | 01:05:02 | 00:00:00 | |
| DO2SHX-10 | 2026-09-02 07:22:54 | 56.29437 | 9.77992 | 55° | 26km/h | 18724m | 5.0m/s | -49.9°C | 3.4% | 0hPa | 2.8V | 00:00:00 | 01:05:04 | 00:00:00 | |
| DM0DOS-11 | 2026-09-02 07:22:52 | 56.29425 | 9.77964 | 55° | 24km/h | 18705m | 7.7m/s | -49.7°C | 3.4% | 0hPa | 2.8V | 08:30:00 | 01:05:01 | 00:00:00 | |
| DL1XH-west | 2026-09-02 07:22:50 | 56.29423 | 9.77955 | 63° | 20km/h | 18698m | 6m/s | -49.7°C | 0.3% | 0hPa | 2.8V | 18:12:15 | 01:05:00 | 00:00:00 | |
| AA1-15 | 2026-09-02 07:22:45 | 56.29409 | 9.77911 | 60° | 24km/h | 18663m | 5.5m/s | -49.4°C | 0.2% | 0hPa | 2.7V | 18:12:15 | 01:04:55 | 00:00:00 | |
| DO2SHX-10 | 2026-09-02 07:22:45 | 56.29409 | 9.77911 | 60° | 27km/h | 18663m | 5.5m/s | -49.4°C | 3.3% | 0hPa | 2.6V | 00:00:00 | 01:04:55 | 00:00:00 | |
| DL1XH1-15 | 2026-09-02 07:22:44 | 56.29398 | 9.77879 | 54° | 29km/h | 18641m | 9.7m/s | -49.4°C | 3.2% | 0hPa | 2.6V | 08:30:00 | 01:04:52 | 00:00:00 | |
| DM0DOS-11 | 2026-09-02 07:22:42 | 56.29394 | 9.77869 | 59° | 24km/h | 18634m | 4.1m/s | -49.5°C | 3.3% | 0hPa | 2.8V | 08:30:00 | 01:04:51 | 00:00:00 | |
| DL1XH-west | 2026-09-02 07:22:39 | 56.29389 | 9.77850 | 67° | 24km/h | 18621m | 9.2m/s | -49.4°C | 0.2% | 0hPa | 2.7V | 18:12:15 | 01:04:49 | 00:00:00 | |
| AA1-15 | 2026-09-02 07:22:34 | 56.29386 | 9.77802 | 92° | 20km/h | 18583m | 4.8m/s | -49.2°C | 0.2% | 0hPa | 2.8V | 18:12:15 | 01:04:44 | 00:00:00 | |
| DL1XH1-15 | 2026-09-02 07:22:34 | 56.29386 | 9.77784 | 97° | 20km/h | 18571m | 4.6m/s | -49.2°C | 3.2% | 0hPa | 2.6V | 08:30:00 | 01:04:42 | 00:00:00 | |
| DO2SHX-10 | 2026-09-02 07:22:33 | 56.29386 | 9.77793 | 95° | 20km/h | 18577m | 7.7m/s | -49.1°C | 3.2% | 0hPa | 2.7V | 00:00:00 | 01:04:43 | 00:00:00 | |
| DM0DOS-11 | 2026-09-02 07:22:32 | 56.29387 | 9.77775 | 93° | 22km/h | 18564m | 8.1m/s | -49.2°C | 3.2% | 0hPa | 2.6V | 08:30:00 | 01:04:41 | 00:00:00 | |
| DL1XH-west | 2026-09-02 07:22:28 | 56.29385 | 9.77743 | 84° | 24km/h | 18545m | 8.2m/s | -49.2°C | 0.1% | 0hPa | 2.8V | 18:12:15 | 01:04:38 | 00:00:00 | |
| AA1-15 | 2026-09-02 07:22:23 | 56.29379 | 9.77688 | 83° | 22km/h | 18510m | 5.3m/s | -49.3°C | 0.2% | 0hPa | 2.8V | 18:12:15 | 01:04:33 | 00:00:00 | |
| DM0DOS-11 | 2026-09-02 07:22:22 | 56.29378 | 9.77668 | 83° | 24km/h | 18496m | 4.2m/s | -49.2°C | 3.2% | 0hPa | 2.8V | 08:30:00 | 01:04:31 | 00:00:00 | |
| DL1XH-west | 2026-09-02 07:22:17 | 56.29377 | 9.77628 | 90° | 24km/h | 18471m | 6.9m/s | -49.1°C | 0.2% | 0hPa | 2.8V | 18:12:15 | 01:04:27 | 00:00:00 | |
| DJ2DS-15 | 2026-09-02 07:22:15 | 56.29378 | 9.77596 | 93° | 22km/h | 18450m | 5.0m/s | -49.1°C | 1.0% | -1.0hPa | 2.6V | 00:00:00 | 00:00:00 | 00:00:00 | |
| DL1XH1-15 | 2026-09-02 07:22:14 | 56.29377 | 9.77575 | 86° | 26km/h | 18436m | 5m/s | -49°C | 3.3% | 0hPa | 2.6V | 08:30:00 | 01:04:22 | 00:00:00 | |
| AA1-15 | 2026-09-02 07:22:12 | 56.29377 | 9.77575 | 87° | 26km/h | 18436m | 5m/s | -49°C | 0.2% | 0hPa | 2.6V | 18:12:15 | 01:04:22 | 00:00:00 | |
| DL1XH-west | 2026-09-02 07:22:06 | 56.29375 | 9.77511 | 88° | 18km/h | 18395m | 5.6m/s | -48.8°C | 0.2% | 0hPa | 2.6V | 18:12:15 | 01:04:16 | 00:00:00 | |
| DO2SHX-10 | 2026-09-02 07:22:06 | 56.29375 | 9.77511 | 88° | 20km/h | 18395m | 5.6m/s | -48.7°C | 3.2% | 0hPa | 2.6V | 00:00:00 | 01:04:16 | 00:00:00 | |
| DL1XH1-15 | 2026-09-02 07:22:04 | 56.29375 | 9.77471 | 94° | 26km/h | 18369m | 4.8m/s | -48.7°C | 3.2% | 0hPa | 2.8V | 08:30:00 | 01:04:12 | 00:00:00 | |
| DJ2DS-15 | 2026-09-02 07:22:04 | 56.29374 | 9.77493 | 88° | 29km/h | 18382m | 5.2m/s | -48.6°C | 3.2% | 0hPa | 2.6V | 00:00:00 | 01:04:14 | 00:00:00 | |
| DO2SHX-10 | 2026-09-02 07:22:03 | 56.29374 | 9.77482 | 91° | 26km/h | 18375m | 7.6m/s | -48.6°C | 3.2% | 0hPa | 2.6V | 00:00:00 | 01:04:13 | 00:00:00 | |
| DM0DOS-11 | 2026-09-02 07:22:02 | 56.29375 | 9.77459 | 93° | 29km/h | 18363m | 7.2m/s | -48.8°C | 3.2% | 0hPa | 2.6V | 08:30:00 | 01:04:11 | 00:00:00 | |
| AA1-15 | 2026-09-02 07:22:01 | 56.29375 | 9.77459 | 93° | 29km/h | 18363m | 7.2m/s | -48.8°C | 0.2% | 0hPa | 2.6V | 18:12:15 | 01:04:11 | 00:00:00 | |
| DL1XH-west | 2026-09-02 07:21:55 | 56.29375 | 9.77368 | 84° | 31km/h | 18324m | 5.7m/s | -48.6°C | 0.1% | 0hPa | 2.6V | 18:12:15 | 01:04:05 | 00:00:00 | |
| DL1XH1-15 | 2026-09-02 07:21:54 | 56.29373 | 9.77332 | 83° | 24km/h | 18302m | 9.1m/s | -48.5°C | 3.1% | 0hPa | 2.8V | 08:30:00 | 01:04:02 | 00:00:00 | |
| DO2SHX-10 | 2026-09-02 07:21:54 | 56.29374 | 9.77354 | 86° | 26km/h | 18317m | 8.6m/s | -48.5°C | 3.2% | 0hPa | 2.8V | 00:00:00 | 01:04:04 | 00:00:00 | |
| DM0DOS-11 | 2026-09-02 07:21:52 | 56.29372 | 9.77321 | 83° | 22km/h | 18295m | 4.6m/s | -48.5°C | 3.1% | 0hPa | 2.8V | 08:30:00 | 01:04:01 | 00:00:00 | |
| AA1-15 | 2026-09-02 07:21:50 | 56.29372 | 9.77311 | 90° | 22km/h | 18289m | 7.9m/s | -48.5°C | 0.1% | 0hPa | 2.8V | 18:12:15 | 01:04:00 | 00:00:00 | |
| DO2SHX-10 | 2026-09-02 07:21:48 | 56.29373 | 9.77289 | 96° | 29km/h | 18277m | 7.1m/s | -48.5°C | 3.1% | 0hPa | 2.6V | 00:00:00 | 01:03:58 | 00:00:00 | |
| DO2SHX-10 | 2026-09-02 07:21:45 | 56.29373 | 9.77248 | 91° | 33km/h | 18258m | 9.9m/s | -48.4°C | 3.2% | 0hPa | 2.7V | 00:00:00 | 01:03:55 | 00:00:00 | |
| DL1XH1-15 | 2026-09-02 07:21:44 | 56.29370 | 9.77204 | 76° | 33km/h | 18239m | 6.3m/s | -48.5°C | 3.3% | 0hPa | 2.7V | 08:30:00 | 01:03:52 | 00:00:00 | |
| DL1XH-west | 2026-09-02 07:21:44 | 56.29373 | 9.77233 | 86° | 33km/h | 18250m | 5.8m/s | -48.4°C | 0.2% | 0hPa | 2.8V | 18:12:15 | 01:03:54 | 00:00:00 | |
| DJ2DS-15 | 2026-09-02 07:21:44 | 56.29373 | 9.77233 | 86° | 31km/h | 18250m | 5.7m/s | -48.3°C | 3.2% | 0hPa | 2.8V | 00:00:00 | 01:03:54 | 00:00:00 | |
| DM0DOS-11 | 2026-09-02 07:21:42 | 56.29369 | 9.77190 | 78° | 31km/h | 18231m | 9.1m/s | -48.5°C | 3.2% | 0hPa | 2.8V | 08:30:00 | 01:03:51 | 00:00:00 | |
| AA1-15 | 2026-09-02 07:21:39 | 56.29365 | 9.77165 | 73° | 27km/h | 18217m | 9m/s | -48.4°C | 0.2% | 0hPa | 2.6V | 18:12:15 | 01:03:49 | 00:00:00 | |
| DO2SHX-10 | 2026-09-02 07:21:39 | 56.29365 | 9.77165 | 73° | 26km/h | 18217m | 9.0m/s | -48.4°C | 3.2% | 0hPa | 2.6V | 00:00:00 | 01:03:49 | 00:00:00 | |
| DJ2DS-15 | 2026-09-02 07:21:38 | 56.29363 | 9.77154 | 68° | 26km/h | 18210m | 4.5m/s | -48.5°C | 0.9% | -1.0hPa | 2.7V | 00:00:00 | 00:00:00 | 00:00:00 | |
| DO2SHX-10 | 2026-09-02 07:21:36 | 56.29359 | 9.77132 | 78° | 27km/h | 18198m | 5.3m/s | -48.4°C | 3.1% | 0hPa | 2.7V | 00:00:00 | 01:03:46 | 00:00:00 | |
| DL1XH1-15 | 2026-09-02 07:21:34 | 56.29354 | 9.77078 | 86° | 35km/h | 18174m | 8.5m/s | -48.2°C | 3.1% | 0hPa | 2.7V | 08:30:00 | 01:03:42 | 00:00:00 | |
| DL1XH-west | 2026-09-02 07:21:33 | 56.29354 | 9.77078 | 86° | 35km/h | 18174m | 8.5m/s | -48.3°C | 0.1% | 0hPa | 2.7V | 18:12:15 | 01:03:42 | 00:00:00 | |
| DM0DOS-11 | 2026-09-02 07:21:33 | 56.29353 | 9.77062 | 86° | 37km/h | 18167m | 6.4m/s | -48.2°C | 3% | 0hPa | 2.8V | 08:30:00 | 01:03:41 | 00:00:00 | |
| AA1-15 | 2026-09-02 07:21:29 | 56.29352 | 9.77029 | 85° | 37km/h | 18154m | 6m/s | -48.3°C | 0.1% | 0hPa | 2.8V | 18:12:15 | 01:03:39 | 00:00:00 | |
| DO2SHX-10 | 2026-09-02 07:21:27 | 56.29351 | 9.76999 | 88° | 31km/h | 18143m | 6.3m/s | -48.3°C | 3.2% | 0hPa | 2.6V | 00:00:00 | 01:03:37 | 00:00:00 | |
| DL1XH1-15 | 2026-09-02 07:21:24 | 56.29349 | 9.76934 | 86° | 26km/h | 18107m | 8.3m/s | -48°C | 3.1% | 0hPa | 2.6V | 08:30:00 | 01:03:32 | 00:00:00 | |
| DJ2DS-15 | 2026-09-02 07:21:24 | 56.29349 | 9.76957 | 88° | 29km/h | 18121m | 8.5m/s | -48.1°C | 3.2% | 0hPa | 2.7V | 00:00:00 | 01:03:34 | 00:00:00 | |
| DM0DOS-11 | 2026-09-02 07:21:22 | 56.29349 | 9.76923 | 84° | 26km/h | 18101m | 5m/s | -48°C | 3.1% | 0hPa | 2.6V | 08:30:00 | 01:03:31 | 00:00:00 | |
| DL1XH-west | 2026-09-02 07:21:21 | 56.29349 | 9.76923 | 85° | 26km/h | 18101m | 5.1m/s | -48°C | 0.1% | 0hPa | 2.6V | 18:12:15 | 01:03:31 | 00:00:00 | |
| AA1-15 | 2026-09-02 07:21:18 | 56.29348 | 9.76889 | 88° | 26km/h | 18081m | 7.8m/s | -48°C | 0% | 0hPa | 2.8V | 18:12:15 | 01:03:28 | 00:00:00 | |
| DO2SHX-10 | 2026-09-02 07:21:18 | 56.29348 | 9.76889 | 89° | 26km/h | 18082m | 7.8m/s | -47.9°C | 3.0% | 0hPa | 2.8V | 00:00:00 | 01:03:28 | 00:00:00 | |
| DO2SHX-10 | 2026-09-02 07:21:15 | 56.29346 | 9.76853 | 87° | 27km/h | 18063m | 8.3m/s | -47.9°C | 3.0% | 0hPa | 2.8V | 00:00:00 | 01:03:25 | 00:00:00 | |
| DM0DOS-11 | 2026-09-02 07:21:12 | 56.29346 | 9.76800 | 96° | 31km/h | 18036m | 7.8m/s | -47.9°C | 3% | 0hPa | 2.8V | 08:30:00 | 01:03:21 | 00:00:00 | |
| DL1XH-west | 2026-09-02 07:21:10 | 56.29348 | 9.76787 | 103° | 31km/h | 18029m | 6m/s | -47.9°C | 0.1% | 0hPa | 2.6V | 18:12:15 | 01:03:20 | 00:00:00 | |
| AA1-15 | 2026-09-02 07:21:07 | 56.29352 | 9.76746 | 101° | 31km/h | 18008m | 8.1m/s | -48.1°C | 0% | 0hPa | 2.8V | 18:12:15 | 01:03:17 | 00:00:00 | |
| DO2SHX-10 | 2026-09-02 07:21:06 | 56.29353 | 9.76733 | 105° | 31km/h | 18002m | 3.7m/s | -48.2°C | 3.0% | 0hPa | 2.7V | 00:00:00 | 01:03:16 | 00:00:00 | |
| DJ2DS-15 | 2026-09-02 07:21:04 | 56.29357 | 9.76706 | 99° | 33km/h | 17991m | 7.2m/s | -48.3°C | 3.0% | 0hPa | 2.7V | 00:00:00 | 01:03:14 | 00:00:00 | |
| DO2SHX-10 | 2026-09-02 07:21:03 | 56.29358 | 9.76692 | 98° | 33km/h | 17985m | 5.4m/s | -48.3°C | 3.0% | 0hPa | 2.7V | 00:00:00 | 01:03:13 | 08:30:00 | |
| DM0DOS-11 | 2026-09-02 07:21:02 | 56.29361 | 9.76663 | 100° | 35km/h | 17971m | 6.1m/s | -48.3°C | 3.1% | 0hPa | 2.6V | 08:30:00 | 01:03:11 | 00:00:00 | |
| DL1XH-west | 2026-09-02 07:21:00 | 56.29362 | 9.76648 | 97° | 35km/h | 17965m | 6.4m/s | -48.3°C | 0.1% | 0hPa | 2.7V | 18:12:15 | 01:03:10 | 00:00:00 | |
| AA1-15 | 2026-09-02 07:20:56 | 56.29366 | 9.76582 | 93° | 38km/h | 17938m | 7.7m/s | -48.4°C | 0.1% | 0hPa | 2.8V | 18:12:15 | 01:03:06 | 00:00:00 | |
| DL1XH1-15 | 2026-09-02 07:20:55 | 56.29365 | 9.76515 | 87° | 37km/h | 17912m | 8.5m/s | -48.5°C | 3.1% | 0hPa | 2.8V | 08:30:00 | 01:03:02 | 00:00:00 | |
| DO2SHX-10 | 2026-09-02 07:20:54 | 56.29365 | 9.76548 | 89° | 37km/h | 17925m | 8.1m/s | -48.4°C | 3.1% | 0hPa | 2.7V | 00:00:00 | 01:03:04 | 00:00:00 | |
| DM0DOS-11 | 2026-09-02 07:20:52 | 56.29362 | 9.76482 | 82° | 37km/h | 17902m | 6.4m/s | -48.5°C | 3.1% | 0hPa | 2.8V | 08:30:00 | 01:03:00 | 00:00:00 | |
| DL1XH-west | 2026-09-02 07:20:50 | 56.29363 | 9.76482 | 82° | 37km/h | 17902m | 6.4m/s | -48.5°C | 0.1% | 0hPa | 2.8V | 18:12:15 | 01:03:00 | 00:00:00 | |
| AA1-15 | 2026-09-02 07:20:46 | 56.29362 | 9.76427 | 91° | 26km/h | 17873m | 5.8m/s | -48.7°C | 0.1% | 0hPa | 2.8V | 18:12:15 | 01:02:56 | 00:00:00 | |
| DO2SHX-10 | 2026-09-02 07:20:45 | 56.29362 | 9.76416 | 97° | 26km/h | 17866m | 8.6m/s | -48.7°C | 3.1% | 0hPa | 2.7V | 00:00:00 | 01:02:55 | 00:00:00 | |
| DL1XH1-15 | 2026-09-02 07:20:44 | 56.29363 | 9.76380 | 85° | 29km/h | 17845m | 5m/s | -48.5°C | 3.1% | 0hPa | 2.7V | 08:30:00 | 01:02:52 | 00:00:00 | |
| DL1XH-west | 2026-09-02 07:20:39 | 56.29360 | 9.76335 | 79° | 37km/h | 17826m | 7.3m/s | -48.6°C | 0.1% | 0hPa | 2.7V | 18:12:15 | 01:02:49 | 00:00:00 | |
| AA1-15 | 2026-09-02 07:20:35 | 56.29354 | 9.76279 | 91° | 22km/h | 17803m | 5.8m/s | -48.8°C | 0.1% | 0hPa | 2.6V | 18:12:15 | 01:02:45 | 00:00:00 | |
| DL1XH1-15 | 2026-09-02 07:20:34 | 56.29357 | 9.76255 | 117° | 18km/h | 17783m | 8.5m/s | -48.8°C | 3.1% | 0hPa | 2.8V | 08:30:00 | 01:02:42 | 00:00:00 | |
| DL1XH-west | 2026-09-02 07:20:29 | 56.29363 | 9.76231 | 109° | 20km/h | 17766m | 6.9m/s | -48.9°C | 0.1% | 0hPa | 2.6V | 18:12:15 | 01:02:39 | 00:00:00 | |
| AA1-15 | 2026-09-02 07:20:24 | 56.29367 | 9.76167 | 86° | 37km/h | 17730m | 10m/s | -49°C | 0.1% | 0hPa | 2.7V | 18:12:15 | 01:02:34 | 00:00:00 | |
| DL1XH1-15 | 2026-09-02 07:20:24 | 56.29365 | 9.76133 | 81° | 38km/h | 17716m | 8.6m/s | -49.1°C | 3.2% | 0hPa | 2.7V | 08:30:00 | 01:02:32 | 00:00:00 | |
| DJ2DS-15 | 2026-09-02 07:20:24 | 56.29367 | 9.76167 | 86° | 33km/h | 17730m | 9.9m/s | -48.9°C | 3.1% | 0hPa | 2.7V | 00:00:00 | 01:02:34 | 08:30:00 | |
| DO2SHX-10 | 2026-09-02 07:20:23 | 56.29366 | 9.76150 | 85° | 38km/h | 17723m | 5.0m/s | -49.0°C | 3.2% | 0hPa | 2.8V | 00:00:00 | 01:02:33 | 00:00:00 | |
| DM0DOS-11 | 2026-09-02 07:20:22 | 56.29362 | 9.76100 | 85° | 35km/h | 17702m | 8.5m/s | -49.1°C | 3.2% | 0hPa | 2.8V | 08:30:00 | 01:02:30 | 00:00:00 | |
| DL1XH-west | 2026-09-02 07:20:19 | 56.29363 | 9.76085 | 97° | 31km/h | 17695m | 5.1m/s | -49.1°C | 0.1% | 0hPa | 2.8V | 18:12:15 | 01:02:29 | 00:00:00 | |
| DO2SHX-10 | 2026-09-02 07:20:17 | 56.29365 | 9.76059 | 105° | 29km/h | 17683m | 5.1m/s | -48.9°C | 3.2% | 0hPa | 2.7V | 00:00:00 | 01:02:27 | 00:00:00 | |
| DL1XH1-15 | 2026-09-02 07:20:14 | 56.29373 | 9.75989 | 95° | 35km/h | 17649m | 9.4m/s | -49°C | 3.2% | 0hPa | 2.7V | 08:30:00 | 01:02:22 | 00:00:00 | |
| AA1-15 | 2026-09-02 07:20:14 | 56.29371 | 9.76019 | 101° | 33km/h | 17663m | 6.2m/s | -49°C | 0.1% | 0hPa | 2.8V | 18:12:15 | 01:02:24 | 00:00:00 | |
| DO2SHX-10 | 2026-09-02 07:20:14 | 56.29371 | 9.76019 | 101° | 33km/h | 17663m | 6.2m/s | -48.9°C | 3.1% | 0hPa | 2.8V | 00:00:00 | 01:02:24 | 00:00:00 | |
| DM0DOS-11 | 2026-09-02 07:20:12 | 56.29375 | 9.75958 | 91° | 33km/h | 17635m | 8m/s | -48.9°C | 3.2% | 0hPa | 2.8V | 08:30:00 | 01:02:20 | 00:00:00 | |
| DL1XH-west | 2026-09-02 07:20:08 | 56.29374 | 9.75929 | 86° | 31km/h | 17623m | 7.1m/s | -48.9°C | 0.1% | 0hPa | 2.7V | 18:12:15 | 01:02:18 | 00:00:00 | |
| AA1-15 | 2026-09-02 07:20:03 | 56.29380 | 9.75861 | 110° | 29km/h | 17585m | 7.3m/s | -48.9°C | 0.1% | 0hPa | 2.6V | 18:12:15 | 01:02:13 | 00:00:00 | |
| DM0DOS-11 | 2026-09-02 07:20:02 | 56.29387 | 9.75827 | 104° | 24km/h | 17565m | 4.9m/s | -49°C | 3.2% | 0hPa | 2.8V | 08:30:00 | 01:02:10 | 00:00:00 | |
| DL1XH-west | 2026-09-02 07:19:59 | 56.29390 | 9.75792 | 91° | 31km/h | 17547m | 4.2m/s | -49.2°C | 0.2% | 0hPa | 2.6V | 18:12:15 | 01:02:07 | 00:00:00 | |
| DO2SHX-10 | 2026-09-02 07:19:59 | 56.29388 | 9.75816 | 102° | 27km/h | 17560m | 5.8m/s | -49.0°C | 3.2% | 0hPa | 2.7V | 00:00:00 | 01:02:09 | 00:00:00 | |
| DO2SHX-10 | 2026-09-02 07:19:56 | 56.29390 | 9.75778 | 87° | 33km/h | 17542m | 6.1m/s | -49.3°C | 3.2% | 0hPa | 2.7V | 00:00:00 | 01:02:06 | 00:00:00 | |
| DO2SHX-10 | 2026-09-02 07:19:53 | 56.29391 | 9.75731 | 97° | 38km/h | 17518m | 8.4m/s | -49.2°C | 3.3% | 0hPa | 2.7V | 00:00:00 | 01:02:03 | 00:00:00 | |
| DM0DOS-11 | 2026-09-02 07:19:52 | 56.29397 | 9.75680 | 104° | 40km/h | 17498m | 4.7m/s | -49.1°C | 3.3% | 0hPa | 2.7V | 08:30:00 | 01:02:00 | 00:00:00 | |
| AA1-15 | 2026-09-02 07:19:52 | 56.29393 | 9.75714 | 101° | 37km/h | 17511m | 4.9m/s | -49.3°C | 0.2% | 0hPa | 2.8V | 18:12:15 | 01:02:02 | 00:00:00 | |
| DL1XH-west | 2026-09-02 07:19:46 | 56.29405 | 9.75613 | 98° | 38km/h | 17474m | 8.5m/s | -49°C | 0.2% | 0hPa | 2.8V | 18:12:15 | 01:01:56 | 00:00:00 | |
| DJ2DS-15 | 2026-09-02 07:19:44 | 56.29407 | 9.75579 | 96° | 42km/h | 17460m | 7.2m/s | -48.9°C | 3.2% | 0hPa | 2.7V | 00:00:00 | 01:01:54 | 00:00:00 | |
| DM0DOS-11 | 2026-09-02 07:19:42 | 56.29410 | 9.75506 | 94° | 42km/h | 17434m | 5.1m/s | -48.6°C | 3.1% | 0hPa | 2.7V | 08:30:00 | 01:01:50 | 00:00:00 | |
| AA1-15 | 2026-09-02 07:19:41 | 56.29409 | 9.75525 | 94° | 42km/h | 17439m | 6m/s | -48.8°C | 0.2% | 0hPa | 2.7V | 18:12:15 | 01:01:51 | 00:00:00 | |
| DO2SHX-10 | 2026-09-02 07:19:41 | 56.29409 | 9.75525 | 94° | 42km/h | 17440m | 5.9m/s | -48.7°C | 3.2% | 0hPa | 2.7V | 00:00:00 | 01:01:51 | 08:30:00 | |
| DO2SHX-10 | 2026-09-02 07:19:38 | 56.29412 | 9.75468 | 96° | 44km/h | 17420m | 8.9m/s | -48.6°C | 3.1% | 0hPa | 2.8V | 00:00:00 | 01:01:48 | 00:00:00 | |
| DL1XH1-15 | 2026-09-02 07:19:37 | 56.29419 | 9.75352 | 94° | 42km/h | 17380m | 7.2m/s | -48.7°C | 3.1% | 0hPa | 2.8V | 08:30:00 | 01:01:42 | 00:00:00 | |
| DL1XH-west | 2026-09-02 07:19:36 | 56.29414 | 9.75429 | 96° | 44km/h | 17406m | 8.4m/s | -48.5°C | 0% | 0hPa | 2.7V | 18:12:15 | 01:01:46 | 00:00:00 | |
| DO2SHX-10 | 2026-09-02 07:19:35 | 56.29416 | 9.75410 | 98° | 42km/h | 17399m | 5.0m/s | -48.4°C | 3.0% | 0hPa | 2.7V | 00:00:00 | 01:01:45 | 00:00:00 | |
| DM0DOS-11 | 2026-09-02 07:19:32 | 56.29420 | 9.75315 | 91° | 42km/h | 17368m | 6.5m/s | -48.7°C | 3.1% | 0hPa | 2.7V | 08:30:00 | 01:01:40 | 00:00:00 | |
| AA1-15 | 2026-09-02 07:19:30 | 56.29420 | 9.75315 | 92° | 42km/h | 17368m | 6.5m/s | -48.7°C | 0.1% | 0hPa | 2.7V | 18:12:15 | 01:01:40 | 00:00:00 | |
| DO2SHX-10 | 2026-09-02 07:19:29 | 56.29420 | 9.75295 | 89° | 46km/h | 17362m | 5.9m/s | -48.7°C | 3.1% | 0hPa | 2.7V | 00:00:00 | 01:01:39 | 00:00:00 | |
| DL1XH1-15 | 2026-09-02 07:19:27 | 56.29420 | 9.75149 | 88° | 44km/h | 17318m | 5.9m/s | -49°C | 3.1% | 0hPa | 2.7V | 08:30:00 | 01:01:32 | 00:00:00 | |
| DL1XH-west | 2026-09-02 07:19:26 | 56.29420 | 9.75233 | 91° | 46km/h | 17344m | 6.8m/s | -49.1°C | 0.2% | 0hPa | 2.8V | 18:12:15 | 01:01:36 | 00:00:00 | |
| DO2SHX-10 | 2026-09-02 07:19:26 | 56.29419 | 9.75233 | 91° | 47km/h | 17345m | 6.8m/s | -49.0°C | 3.2% | 0hPa | 2.7V | 00:00:00 | 01:01:36 | 00:00:00 | |
| DJ2DS-15 | 2026-09-02 07:19:24 | 56.29420 | 9.75190 | 91° | 42km/h | 17330m | 6.2m/s | -49.0°C | 3.2% | 0hPa | 2.7V | 00:00:00 | 01:01:34 | 00:00:00 | |
| DO2SHX-10 | 2026-09-02 07:19:23 | 56.29420 | 9.75169 | 91° | 44km/h | 17324m | 5.9m/s | -48.9°C | 3.2% | 0hPa | 2.7V | 00:00:00 | 01:01:33 | 00:00:00 | |
| DM0DOS-11 | 2026-09-02 07:19:22 | 56.29418 | 9.75109 | 81° | 44km/h | 17304m | 5m/s | -49°C | 3.1% | 0hPa | 2.8V | 08:30:00 | 01:01:30 | 00:00:00 | |
| AA1-15 | 2026-09-02 07:19:19 | 56.29416 | 9.75089 | 81° | 42km/h | 17297m | 8.9m/s | -49.1°C | 0.1% | 0hPa | 2.8V | 18:12:15 | 01:01:29 | 00:00:00 | |
| DL1XH1-15 | 2026-09-02 07:19:17 | 56.29411 | 9.74958 | 97° | 44km/h | 17250m | 5m/s | -49.3°C | 3.2% | 0hPa | 2.8V | 08:30:00 | 01:01:22 | 00:00:00 | |
| DL1XH-west | 2026-09-02 07:19:15 | 56.29410 | 9.75015 | 86° | 40km/h | 17271m | 8.1m/s | -49.2°C | 0.1% | 0hPa | 2.8V | 18:12:15 | 01:01:25 | 00:00:00 | |
| AA1-15 | 2026-09-02 07:19:08 | 56.29418 | 9.74880 | 101° | 42km/h | 17225m | 4.6m/s | -49.3°C | 0.1% | 0hPa | 2.7V | 18:12:15 | 01:01:18 | 00:00:00 | |
| DL1XH-west | 2026-09-02 07:19:05 | 56.29422 | 9.74831 | 96° | 31km/h | 17207m | 7.4m/s | -49.5°C | 0.2% | 0hPa | 2.8V | 18:12:15 | 01:01:15 | 00:00:00 | |
| DO2SHX-10 | 2026-09-02 07:19:05 | 56.29422 | 9.74831 | 96° | 33km/h | 17207m | 7.4m/s | -49.4°C | 3.2% | 0hPa | 2.7V | 00:00:00 | 01:01:15 | 00:00:00 | |
| DJ2DS-15 | 2026-09-02 07:19:04 | 56.29422 | 9.74817 | 92° | 40km/h | 17200m | 5.4m/s | -49.4°C | 3.2% | 0hPa | 2.8V | 00:00:00 | 01:01:14 | 00:00:00 | |
| DO2SHX-10 | 2026-09-02 07:19:02 | 56.29421 | 9.74786 | 81° | 37km/h | 17189m | 5.1m/s | -49.6°C | 3.2% | 0hPa | 2.8V | 00:00:00 | 01:01:12 | 00:00:00 | |
| DO2SHX-10 | 2026-09-02 07:18:59 | 56.29418 | 9.74735 | 85° | 40km/h | 17168m | 7.7m/s | -49.6°C | 3.3% | 0hPa | 2.8V | 00:00:00 | 01:01:09 | 00:00:00 | |
| DL1XH1-15 | 2026-09-02 07:18:57 | 56.29418 | 9.74602 | 94° | 44km/h | 17124m | 9.2m/s | -49.8°C | 3.3% | 0hPa | 2.8V | 08:30:00 | 01:01:02 | 00:00:00 | |
| AA1-15 | 2026-09-02 07:18:57 | 56.29416 | 9.74700 | 87° | 42km/h | 17155m | 7.3m/s | -49.7°C | 0.2% | 0hPa | 2.7V | 18:12:15 | 01:01:07 | 00:00:00 | |
| DL1XH-west | 2026-09-02 07:18:54 | 56.29417 | 9.74641 | 94° | 42km/h | 17137m | 4.1m/s | -49.7°C | 0.2% | 0hPa | 2.8V | 18:12:15 | 01:01:04 | 00:00:00 | |
| DO2SHX-10 | 2026-09-02 07:18:53 | 56.29417 | 9.74622 | 95° | 42km/h | 17132m | 6.7m/s | -49.7°C | 3.3% | 0hPa | 2.7V | 00:00:00 | 01:01:03 | 00:00:00 | |
| DO2SHX-10 | 2026-09-02 07:18:50 | 56.29419 | 9.74564 | 92° | 42km/h | 17110m | 6.8m/s | -49.7°C | 3.3% | 0hPa | 2.7V | 00:00:00 | 01:01:00 | 00:00:00 | |
| DL1XH1-15 | 2026-09-02 07:18:47 | 56.29417 | 9.74416 | 88° | 38km/h | 17054m | 7.9m/s | -49.5°C | 3.2% | 0hPa | 2.7V | 08:30:00 | 01:00:52 | 00:00:00 | |
| AA1-15 | 2026-09-02 07:18:46 | 56.29419 | 9.74488 | 87° | 40km/h | 17082m | 9m/s | -49.6°C | 0.2% | 0hPa | 2.7V | 18:12:15 | 01:00:56 | 00:00:00 | |
| DL1XH-west | 2026-09-02 07:18:44 | 56.29417 | 9.74452 | 87° | 40km/h | 17068m | 8.6m/s | -49.5°C | 0.1% | 0hPa | 2.8V | 18:12:15 | 01:00:54 | 00:00:00 | |
| DJ2DS-15 | 2026-09-02 07:18:44 | 56.29417 | 9.74452 | 88° | 37km/h | 17068m | 8.6m/s | -49.5°C | 3.2% | 0hPa | 2.7V | 00:00:00 | 01:00:54 | 00:00:00 | |
| DO2SHX-10 | 2026-09-02 07:18:41 | 56.29417 | 9.74399 | 89° | 37km/h | 17048m | 5.1m/s | -49.4°C | 3.2% | 0hPa | 2.7V | 00:00:00 | 01:00:51 | 00:00:00 | |
| DO2SHX-10 | 2026-09-02 07:18:38 | 56.29415 | 9.74348 | 84° | 35km/h | 17029m | 7.1m/s | -49.5°C | 3.3% | 0hPa | 2.7V | 00:00:00 | 01:00:48 | 00:00:00 | |
| DL1XH1-15 | 2026-09-02 07:18:37 | 56.29403 | 9.74257 | 78° | 33km/h | 16994m | 6.2m/s | -49.5°C | 3.3% | 0hPa | 2.8V | 08:30:00 | 01:00:42 | 00:00:00 | |
| AA1-15 | 2026-09-02 07:18:35 | 56.29410 | 9.74302 | 75° | 37km/h | 17010m | 4.3m/s | -49.5°C | 0.3% | 0hPa | 2.7V | 18:12:15 | 01:00:45 | 00:00:00 | |
| DL1XH-west | 2026-09-02 07:18:34 | 56.29408 | 9.74286 | 75° | 35km/h | 17004m | 7.1m/s | -49.5°C | 0.2% | 0hPa | 2.7V | 18:12:15 | 01:00:44 | 00:00:00 | |
| DM0DOS-11 | 2026-09-02 07:18:32 | 56.29401 | 9.74226 | 84° | 37km/h | 16979m | 6.6m/s | -49.7°C | 3.3% | 0hPa | 2.7V | 08:30:00 | 01:00:40 | 00:00:00 | |
| DO2SHX-10 | 2026-09-02 07:18:32 | 56.29403 | 9.74257 | 79° | 35km/h | 16994m | 6.2m/s | -49.5°C | 3.3% | 0hPa | 2.7V | 00:00:00 | 01:00:42 | 00:00:00 | |
| DO2SHX-10 | 2026-09-02 07:18:28 | 56.29399 | 9.74193 | 87° | 38km/h | 16967m | 6.9m/s | -49.7°C | 3.3% | 0hPa | 2.7V | 00:00:00 | 01:00:38 | 00:00:00 | |
| DL1XH1-15 | 2026-09-02 07:18:27 | 56.29392 | 9.74087 | 77° | 40km/h | 16922m | 5.3m/s | -49.5°C | 3.3% | 0hPa | 2.8V | 08:30:00 | 01:00:32 | 00:00:00 | |
| AA1-15 | 2026-09-02 07:18:24 | 56.29396 | 9.74122 | 78° | 38km/h | 16937m | 6.9m/s | -49.5°C | 0.2% | 0hPa | 2.7V | 18:12:15 | 01:00:34 | 00:00:00 | |
| DL1XH-west | 2026-09-02 07:18:23 | 56.29394 | 9.74105 | 77° | 40km/h | 16930m | 9.3m/s | -49.5°C | 0.2% | 0hPa | 2.7V | 18:12:15 | 01:00:33 | 00:00:00 | |
| DM0DOS-11 | 2026-09-02 07:18:22 | 56.29386 | 9.74051 | 72° | 42km/h | 16908m | 4.4m/s | -49.3°C | 3.2% | 0hPa | 2.7V | 08:30:00 | 01:00:30 | 00:00:00 | |
| DO2SHX-10 | 2026-09-02 07:18:22 | 56.29392 | 9.74087 | 78° | 40km/h | 16922m | 5.2m/s | -49.4°C | 3.3% | 0hPa | 2.7V | 00:00:00 | 01:00:32 | 00:00:00 | |
| DO2SHX-10 | 2026-09-02 07:18:19 | 56.29383 | 9.74033 | 75° | 42km/h | 16903m | 6.9m/s | -49.3°C | 3.2% | 0hPa | 2.7V | 00:00:00 | 01:00:29 | 08:30:00 | |
| DL1XH1-15 | 2026-09-02 07:18:17 | 56.29372 | 9.73912 | 87° | 35km/h | 16858m | 8m/s | -49.4°C | 3.3% | 0hPa | 2.8V | 08:30:00 | 01:00:22 | 00:00:00 | |
| AA1-15 | 2026-09-02 07:18:13 | 56.29373 | 9.73928 | 88° | 37km/h | 16865m | 5.8m/s | -49.4°C | 0.2% | 0hPa | 2.7V | 18:12:15 | 01:00:23 | 00:00:00 | |
| DO2SHX-10 | 2026-09-02 07:18:13 | 56.29373 | 9.73927 | 89° | 35km/h | 16865m | 5.7m/s | -49.3°C | 3.3% | 0hPa | 2.8V | 00:00:00 | 01:00:23 | 00:00:00 | |
| DM0DOS-11 | 2026-09-02 07:18:12 | 56.29372 | 9.73883 | 89° | 31km/h | 16844m | 9.2m/s | -49.4°C | 3.2% | 0hPa | 2.8V | 08:30:00 | 01:00:20 | 00:00:00 | |
| DO2SHX-10 | 2026-09-02 07:18:10 | 56.29371 | 9.73882 | 90° | 31km/h | 16844m | 9.1m/s | -49.3°C | 3.2% | 0hPa | 2.7V | 00:00:00 | 01:00:20 | 00:00:00 | |
| DL1XH1-15 | 2026-09-02 07:18:07 | 56.29363 | 9.73770 | 71° | 37km/h | 16789m | 8.1m/s | -49.5°C | 3.2% | 0hPa | 2.7V | 08:30:00 | 01:00:12 | 00:00:00 | |
| DL1XH-west | 2026-09-02 07:18:03 | 56.29366 | 9.73785 | 72° | 33km/h | 16796m | 5.1m/s | -49.5°C | 0.2% | 0hPa | 2.7V | 18:12:15 | 01:00:13 | 00:00:00 | |
| DM0DOS-11 | 2026-09-02 07:18:02 | 56.29357 | 9.73737 | 72° | 40km/h | 16776m | 7.5m/s | -49.4°C | 3.2% | 0hPa | 2.8V | 08:30:00 | 01:00:10 | 00:00:00 | |
| DJ2DS-15 | 2026-09-02 07:18:02 | 56.29363 | 9.73770 | 72° | 37km/h | 16790m | 8.1m/s | -49.5°C | 3.2% | 0hPa | 2.7V | 00:00:00 | 01:00:12 | 00:00:00 | |
| DO2SHX-10 | 2026-09-02 07:18:01 | 56.29360 | 9.73754 | 74° | 40km/h | 16783m | 4.9m/s | -49.4°C | 3.2% | 0hPa | 2.7V | 00:00:00 | 01:00:11 | 00:00:00 | |
| DO2SHX-10 | 2026-09-02 07:17:58 | 56.29351 | 9.73701 | 75° | 44km/h | 16764m | 8.0m/s | -49.3°C | 3.2% | 0hPa | 2.7V | 00:00:00 | 01:00:08 | 00:00:00 | |
| DL1XH1-15 | 2026-09-02 07:17:57 | 56.29337 | 9.73596 | 75° | 33km/h | 16723m | 8.3m/s | -49.2°C | 3.2% | 0hPa | 2.7V | 08:30:00 | 01:00:02 | 00:00:00 | |
| DO2SHX-10 | 2026-09-02 07:17:55 | 56.29343 | 9.73645 | 76° | 38km/h | 16744m | 5.3m/s | -49.2°C | 3.2% | 0hPa | 2.8V | 00:00:00 | 01:00:05 | 00:00:00 | |
| DM0DOS-11 | 2026-09-02 07:17:52 | 56.29332 | 9.73569 | 71° | 29km/h | 16710m | 7m/s | -49.3°C | 3.3% | 0hPa | 2.8V | 08:30:00 | 01:00:00 | 00:00:00 | |
| AA1-15 | 2026-09-02 07:17:52 | 56.29337 | 9.73596 | 75° | 33km/h | 16723m | 8.3m/s | -49.2°C | 0.2% | 0hPa | 2.7V | 18:12:15 | 01:00:02 | 00:00:00 | |
| DO2SHX-10 | 2026-09-02 07:17:52 | 56.29337 | 9.73595 | 76° | 31km/h | 16723m | 8.3m/s | -49.2°C | 3.2% | 0hPa | 2.7V | 00:00:00 | 01:00:02 | 08:30:00 | |
| DO2SHX-10 | 2026-09-02 07:17:49 | 56.29330 | 9.73557 | 77° | 31km/h | 16705m | 5.6m/s | -49.3°C | 3.3% | 0hPa | 2.7V | 00:00:00 | 00:59:59 | 00:00:00 | |
| DL1XH1-15 | 2026-09-02 07:17:47 | 56.29319 | 9.73454 | 78° | 33km/h | 16660m | 7.3m/s | -49.7°C | 3.4% | 0hPa | 2.7V | 08:30:00 | 00:59:52 | 00:00:00 | |
| DO2SHX-10 | 2026-09-02 07:17:46 | 56.29325 | 9.73516 | 79° | 35km/h | 16685m | 7.2m/s | -49.7°C | 3.3% | 0hPa | 2.7V | 00:00:00 | 00:59:56 | 00:00:00 | |
| DO2SHX-10 | 2026-09-02 07:17:43 | 56.29321 | 9.73469 | 80° | 33km/h | 16666m | 4.9m/s | -49.7°C | 3.4% | 0hPa | 2.7V | 00:00:00 | 00:59:53 | 00:00:00 | |
| DM0DOS-11 | 2026-09-02 07:17:42 | 56.29317 | 9.73427 | 76° | 27km/h | 16647m | 7.5m/s | -49.6°C | 3.4% | 0hPa | 2.8V | 08:30:00 | 00:59:50 | 00:00:00 | |
| DL1XH-west | 2026-09-02 07:17:41 | 56.29318 | 9.73440 | 81° | 29km/h | 16654m | 6m/s | -49.6°C | 0.3% | 0hPa | 2.7V | 18:12:15 | 00:59:51 | 00:00:00 | |
| DJ2DS-15 | 2026-09-02 07:17:41 | 56.29318 | 9.73440 | 81° | 29km/h | 16654m | 5.9m/s | -49.6°C | 3.4% | 0hPa | 2.7V | 00:00:00 | 00:59:51 | 00:00:00 | |
| DO2SHX-10 | 2026-09-02 07:17:40 | 56.29317 | 9.73427 | 77° | 27km/h | 16648m | 7.5m/s | -49.5°C | 3.4% | 0hPa | 2.7V | 00:00:00 | 00:59:50 | 00:00:00 | |
| DL1XH1-15 | 2026-09-02 07:17:37 | 56.29308 | 9.73331 | 92° | 29km/h | 16592m | 5.2m/s | -49.1°C | 3.3% | 0hPa | 2.7V | 08:30:00 | 00:59:42 | 00:00:00 | |
| DO2SHX-10 | 2026-09-02 07:17:37 | 56.29311 | 9.73393 | 78° | 26km/h | 16629m | 9.7m/s | -49.4°C | 3.4% | 0hPa | 2.7V | 00:00:00 | 00:59:47 | 00:00:00 | |
| DO2SHX-10 | 2026-09-02 07:17:34 | 56.29308 | 9.73358 | 83° | 29km/h | 16606m | 5.9m/s | -49.2°C | 3.3% | 0hPa | 2.7V | 00:00:00 | 00:59:44 | 00:00:00 | |
| DM0DOS-11 | 2026-09-02 07:17:32 | 56.29308 | 9.73304 | 89° | 29km/h | 16579m | 6.6m/s | -49.1°C | 3.2% | 0hPa | 2.8V | 08:30:00 | 00:59:40 | 00:00:00 | |
| DL1XH-west | 2026-09-02 07:17:31 | 56.29308 | 9.73318 | 91° | 29km/h | 16586m | 7.1m/s | -49.1°C | 0.2% | 0hPa | 2.7V | 18:12:15 | 00:59:41 | 00:00:00 | |
| AA1-15 | 2026-09-02 07:17:30 | 56.29308 | 9.73304 | 89° | 29km/h | 16579m | 6.6m/s | -49.2°C | 0.2% | 0hPa | 2.8V | 18:12:15 | 00:59:40 | 00:00:00 | |
| DL1XH-15 | 2026-09-02 07:17:28 | 56.29307 | 9.73247 | 87° | 26km/h | 16544m | 8.6m/s | -49°C | 0% | 0hPa | 2.7V | 08:30:00 | 00:59:35 | 00:00:00 | |
| DO2SHX-10 | 2026-09-02 07:17:28 | 56.29308 | 9.73280 | 92° | 24km/h | 16564m | 4.1m/s | -49.0°C | 3.2% | 0hPa | 2.8V | 00:00:00 | 00:59:38 | 00:00:00 | |
| DL1XH1-15 | 2026-09-02 07:17:27 | 56.29307 | 9.73208 | 88° | 31km/h | 16524m | 6.7m/s | -49.1°C | 3.1% | 0hPa | 2.8V | 08:30:00 | 00:59:32 | 00:00:00 | |
| DJ2DS-15 | 2026-09-02 07:17:26 | 56.29307 | 9.73258 | 84° | 26km/h | 16551m | 6.0m/s | -49.0°C | 1.0% | -1.0hPa | 2.7V | 00:00:00 | 00:00:00 | 00:00:00 | |
| DO2SHX-10 | 2026-09-02 07:17:25 | 56.29307 | 9.73247 | 88° | 27km/h | 16544m | 8.6m/s | -48.9°C | 3.1% | 0hPa | 2.7V | 00:00:00 | 00:59:35 | 08:30:00 | |
| DM0DOS-11 | 2026-09-02 07:17:22 | 56.29307 | 9.73181 | 91° | 29km/h | 16511m | 5.8m/s | -49.2°C | 3.2% | 0hPa | 2.7V | 08:30:00 | 00:59:30 | 00:00:00 | |
| DL1XH-west | 2026-09-02 07:17:21 | 56.29307 | 9.73194 | 90° | 29km/h | 16517m | 7.1m/s | -49.3°C | 0.2% | 0hPa | 2.7V | 18:12:15 | 00:59:31 | 00:00:00 | |
| AA1-15 | 2026-09-02 07:17:19 | 56.29307 | 9.73167 | 92° | 31km/h | 16504m | 8m/s | -49.2°C | 0.2% | 0hPa | 2.8V | 18:12:15 | 00:59:29 | 00:00:00 | |
| DL1XH-15 | 2026-09-02 07:17:19 | 56.29311 | 9.73109 | 101° | 33km/h | 16476m | 6.6m/s | -49°C | 0% | 0hPa | 2.8V | 08:30:00 | 00:59:25 | 00:00:00 | |
| DO2SHX-10 | 2026-09-02 07:17:19 | 56.29307 | 9.73167 | 93° | 33km/h | 16504m | 8.0m/s | -49.2°C | 3.3% | 0hPa | 2.7V | 00:00:00 | 00:59:29 | 00:00:00 | |
| DL1XH1-15 | 2026-09-02 07:17:17 | 56.29317 | 9.73067 | 103° | 31km/h | 16457m | 6.3m/s | -49.1°C | 3.2% | 0hPa | 2.7V | 08:30:00 | 00:59:22 | 00:00:00 | |
| DJ2DS-15 | 2026-09-02 07:17:16 | 56.29310 | 9.73123 | 99° | 33km/h | 16484m | 7.5m/s | -49.1°C | 3.2% | 0hPa | 2.7V | 00:00:00 | 00:59:26 | 08:30:00 | |
| DO2SHX-10 | 2026-09-02 07:17:13 | 56.29315 | 9.73080 | 106° | 33km/h | 16464m | 7.1m/s | -49.0°C | 3.3% | 0hPa | 2.7V | 00:00:00 | 00:59:23 | 00:00:00 | |
| DM0DOS-11 | 2026-09-02 07:17:12 | 56.29321 | 9.73038 | 102° | 33km/h | 16443m | 5.8m/s | -49.1°C | 3.2% | 0hPa | 2.7V | 08:30:00 | 00:59:20 | 00:00:00 | |
| DL1XH-west | 2026-09-02 07:17:11 | 56.29321 | 9.73038 | 102° | 33km/h | 16443m | 5.8m/s | -49.1°C | 0.2% | 0hPa | 2.7V | 18:12:15 | 00:59:20 | 00:00:00 | |
| AA1-15 | 2026-09-02 07:17:08 | 56.29324 | 9.73009 | 100° | 33km/h | 16431m | 7m/s | -49.2°C | 0.2% | 0hPa | 2.8V | 18:12:15 | 00:59:18 | 00:00:00 | |
| DO2SHX-10 | 2026-09-02 07:17:07 | 56.29325 | 9.72993 | 100° | 35km/h | 16426m | 3.5m/s | -49.1°C | 3.3% | 0hPa | 2.7V | 00:00:00 | 00:59:17 | 00:00:00 | |
| DO2SHX-10 | 2026-09-02 07:17:04 | 56.29329 | 9.72947 | 94° | 33km/h | 16405m | 5.4m/s | -49.2°C | 3.2% | 0hPa | 2.7V | 00:00:00 | 00:59:14 | 00:00:00 | |
| DM0DOS-11 | 2026-09-02 07:17:02 | 56.29332 | 9.72890 | 95° | 29km/h | 16377m | 5.4m/s | -49°C | 3.2% | 0hPa | 2.7V | 08:30:00 | 00:59:10 | 00:00:00 | |
| DL1XH-west | 2026-09-02 07:17:00 | 56.29332 | 9.72890 | 96° | 29km/h | 16377m | 5.4m/s | -49°C | 0.2% | 0hPa | 2.7V | 18:12:15 | 00:59:10 | 00:00:00 | |
| AA1-15 | 2026-09-02 07:16:57 | 56.29335 | 9.72849 | 100° | 29km/h | 16357m | 10m/s | -49°C | 0.1% | 0hPa | 2.8V | 18:12:15 | 00:59:07 | 00:00:00 | |
| DL1XH1-15 | 2026-09-02 07:16:57 | 56.29344 | 9.72790 | 108° | 22km/h | 16322m | 5.8m/s | -49.2°C | 3.3% | 0hPa | 2.8V | 08:30:00 | 00:59:02 | 00:00:00 | |
| DJ2DS-15 | 2026-09-02 07:16:55 | 56.29338 | 9.72824 | 104° | 27km/h | 16344m | 6.7m/s | -48.9°C | 3.2% | 0hPa | 2.7V | 00:00:00 | 00:59:05 | 00:00:00 | |
| DM0DOS-11 | 2026-09-02 07:16:52 | 56.29347 | 9.72772 | 106° | 20km/h | 16310m | 6.1m/s | -49.2°C | 3.3% | 0hPa | 2.7V | 08:30:00 | 00:59:00 | 00:00:00 | |
| DL1XH-west | 2026-09-02 07:16:49 | 56.29348 | 9.72763 | 102° | 18km/h | 16302m | 10.3m/s | -49.4°C | 0.3% | 0hPa | 2.7V | 18:12:15 | 00:58:59 | 00:00:00 | |
| DO2SHX-10 | 2026-09-02 07:16:49 | 56.29348 | 9.72763 | 102° | 18km/h | 16302m | 10.3m/s | -49.4°C | 3.3% | 0hPa | 2.7V | 00:00:00 | 00:58:59 | 00:00:00 | |
| DL1XH1-15 | 2026-09-02 07:16:47 | 56.29354 | 9.72693 | 102° | 31km/h | 16252m | 5.4m/s | -49.5°C | 3.4% | 0hPa | 2.8V | 08:30:00 | 00:58:52 | 00:00:00 | |
| AA1-15 | 2026-09-02 07:16:46 | 56.29350 | 9.72737 | 97° | 22km/h | 16281m | 6.5m/s | -49.6°C | 0.3% | 0hPa | 2.8V | 18:12:15 | 00:58:56 | 00:00:00 | |
| DL1XH-west | 2026-09-02 07:16:39 | 56.29358 | 9.72649 | 100° | 35km/h | 16231m | 8.1m/s | -49.3°C | 0.3% | 0hPa | 2.7V | 18:12:15 | 00:58:49 | 00:00:00 | |
| DL1XH1-15 | 2026-09-02 07:16:37 | 56.29367 | 9.72544 | 93° | 29km/h | 16182m | 5.5m/s | -49.1°C | 3.3% | 0hPa | 2.7V | 08:30:00 | 00:58:42 | 00:00:00 | |
| AA1-15 | 2026-09-02 07:16:35 | 56.29364 | 9.72587 | 99° | 33km/h | 16202m | 9.1m/s | -49.2°C | 0.3% | 0hPa | 2.8V | 18:12:15 | 00:58:45 | 00:00:00 | |
| DJ2DS-15 | 2026-09-02 07:16:34 | 56.29365 | 9.72572 | 100° | 31km/h | 16196m | 4.5m/s | -49.1°C | 3.3% | 0hPa | 2.8V | 00:00:00 | 00:58:44 | 00:00:00 | |
| DM0DOS-11 | 2026-09-02 07:16:32 | 56.29369 | 9.72518 | 99° | 29km/h | 16168m | 5.4m/s | -49.1°C | 3.3% | 0hPa | 2.8V | 08:30:00 | 00:58:40 | 00:00:00 | |
| DL1XH-west | 2026-09-02 07:16:29 | 56.29370 | 9.72506 | 98° | 27km/h | 16161m | 8.2m/s | -49.1°C | 0.3% | 0hPa | 2.8V | 18:12:15 | 00:58:39 | 00:00:00 | |
| DL1XH-15 | 2026-09-02 07:16:28 | 56.29375 | 9.72436 | 95° | 33km/h | 16126m | 5.1m/s | -48.9°C | 0% | 0hPa | 2.8V | 08:30:00 | 00:58:34 | 00:00:00 | |
| DO2SHX-10 | 2026-09-02 07:16:28 | 56.29371 | 9.72493 | 96° | 31km/h | 16154m | 5.1m/s | -49.0°C | 3.3% | 0hPa | 2.7V | 00:00:00 | 00:58:38 | 00:00:00 | |
| DL1XH1-15 | 2026-09-02 07:16:27 | 56.29377 | 9.72406 | 100° | 35km/h | 16113m | 5.1m/s | -48.8°C | 3.3% | 0hPa | 2.7V | 08:30:00 | 00:58:32 | 00:00:00 | |
| AA1-15 | 2026-09-02 07:16:24 | 56.29375 | 9.72436 | 95° | 33km/h | 16126m | 5.1m/s | -48.9°C | 0.2% | 0hPa | 2.8V | 18:12:15 | 00:58:34 | 00:00:00 | |
| DM0DOS-11 | 2026-09-02 07:16:22 | 56.29380 | 9.72377 | 99° | 29km/h | 16099m | 5.2m/s | -48.7°C | 3.3% | 0hPa | 2.8V | 08:30:00 | 00:58:30 | 00:00:00 | |
| DL1XH-west | 2026-09-02 07:16:18 | 56.29383 | 9.72351 | 100° | 29km/h | 16086m | 4.7m/s | -48.7°C | 0.3% | 0hPa | 2.7V | 18:12:15 | 00:58:28 | 00:00:00 | |
| DL1XH-15 | 2026-09-02 07:16:18 | 56.29387 | 9.72303 | 100° | 29km/h | 16059m | 4.4m/s | -48.4°C | 0% | 0hPa | 2.8V | 08:30:00 | 00:58:24 | 00:00:00 | |
| DL1XH1-15 | 2026-09-02 07:16:17 | 56.29390 | 9.72277 | 102° | 29km/h | 16047m | 5m/s | -48.4°C | 3.2% | 0hPa | 2.7V | 08:30:00 | 00:58:22 | 00:00:00 | |
| AA1-15 | 2026-09-02 07:16:13 | 56.29388 | 9.72290 | 101° | 29km/h | 16053m | 7.5m/s | -48.4°C | 0.2% | 0hPa | 2.7V | 18:12:15 | 00:58:23 | 00:00:00 | |
| DO2SHX-10 | 2026-09-02 07:16:13 | 56.29388 | 9.72290 | 102° | 29km/h | 16053m | 7.5m/s | -48.4°C | 3.2% | 0hPa | 2.7V | 00:00:00 | 00:58:23 | 00:00:00 | |
| DM0DOS-11 | 2026-09-02 07:16:12 | 56.29393 | 9.72249 | 96° | 33km/h | 16035m | 4.7m/s | -48.4°C | 3.1% | 0hPa | 2.8V | 08:30:00 | 00:58:20 | 00:00:00 | |
| DL1XH-west | 2026-09-02 07:16:07 | 56.29396 | 9.72204 | 98° | 35km/h | 16016m | 7m/s | -48.4°C | 0.2% | 0hPa | 2.7V | 18:12:15 | 00:58:17 | 00:00:00 | |
| DL1XH-15 | 2026-09-02 07:16:07 | 56.29400 | 9.72143 | 100° | 31km/h | 15990m | 7.1m/s | -48.2°C | 0% | 0hPa | 2.8V | 08:30:00 | 00:58:13 | 00:00:00 | |
| DO2SHX-10 | 2026-09-02 07:16:07 | 56.29396 | 9.72204 | 98° | 35km/h | 16016m | 6.9m/s | -48.3°C | 3.1% | 0hPa | 2.7V | 00:00:00 | 00:58:17 | 00:00:00 | |
| DO2SHX-10 | 2026-09-02 07:16:04 | 56.29399 | 9.72157 | 100° | 33km/h | 15997m | 7.2m/s | -48.2°C | 3.0% | 0hPa | 2.7V | 00:00:00 | 00:58:14 | 08:30:00 | |
| DM0DOS-11 | 2026-09-02 07:16:02 | 56.29405 | 9.72101 | 104° | 31km/h | 15971m | 6.2m/s | -48.4°C | 3.1% | 0hPa | 2.7V | 08:30:00 | 00:58:10 | 00:00:00 | |
| AA1-15 | 2026-09-02 07:16:02 | 56.29402 | 9.72129 | 99° | 31km/h | 15983m | 5.7m/s | -48.2°C | 0.1% | 0hPa | 2.8V | 18:12:15 | 00:58:12 | 00:00:00 | |
| DO2SHX-10 | 2026-09-02 07:16:01 | 56.29403 | 9.72115 | 102° | 31km/h | 15978m | 6.1m/s | -48.3°C | 3.0% | 0hPa | 2.8V | 00:00:00 | 00:58:11 | 00:00:00 | |
| DO2SHX-10 | 2026-09-02 07:15:58 | 56.29409 | 9.72073 | 103° | 38km/h | 15959m | 4.6m/s | -48.5°C | 3.2% | 0hPa | 2.8V | 00:00:00 | 00:58:08 | 00:00:00 | |
| DL1XH-15 | 2026-09-02 07:15:57 | 56.29418 | 9.71986 | 92° | 38km/h | 15928m | 7.3m/s | -49°C | 0% | 0hPa | 2.8V | 08:30:00 | 00:58:03 | 00:00:00 | |
| DL1XH-west | 2026-09-02 07:15:57 | 56.29411 | 9.72056 | 103° | 38km/h | 15953m | 6.1m/s | -48.8°C | 0.3% | 0hPa | 2.8V | 18:12:15 | 00:58:07 | 00:00:00 | |
| DO2SHX-10 | 2026-09-02 07:15:55 | 56.29416 | 9.72022 | 102° | 40km/h | 15940m | 6.9m/s | -48.9°C | 3.3% | 0hPa | 2.7V | 00:00:00 | 00:58:05 | 00:00:00 | |
| DJ2DS-15 | 2026-09-02 07:15:54 | 56.29417 | 9.72004 | 95° | 37km/h | 15934m | 4.7m/s | -48.9°C | 3.3% | 0hPa | 2.7V | 00:00:00 | 00:58:04 | 00:00:00 | |
| DM0DOS-11 | 2026-09-02 07:15:52 | 56.29418 | 9.71933 | 83° | 38km/h | 15908m | 5m/s | -49.3°C | 3.3% | 0hPa | 2.7V | 08:30:00 | 00:58:00 | 00:00:00 | |
| AA1-15 | 2026-09-02 07:15:52 | 56.29418 | 9.71969 | 92° | 38km/h | 15921m | 5.9m/s | -49.1°C | 0.3% | 0hPa | 2.8V | 18:12:15 | 00:58:02 | 00:00:00 | |
| DO2SHX-10 | 2026-09-02 07:15:52 | 56.29418 | 9.71969 | 92° | 38km/h | 15921m | 5.9m/s | -49.1°C | 0% | 0hPa | 2.7V | 00:00:00 | 00:58:02 | 00:00:00 | |
| DO2SHX-10 | 2026-09-02 07:15:49 | 56.29417 | 9.71916 | 85° | 35km/h | 15902m | 8.3m/s | 0°C | 0% | 0hPa | 2.7V | 00:00:00 | 00:57:59 | 00:00:00 | |
| DL1XH-15 | 2026-09-02 07:15:47 | 56.29420 | 9.71824 | 105° | 35km/h | 15863m | 8.5m/s | -49.6°C | 0% | 0hPa | 2.7V | 08:30:00 | 00:57:53 | 00:00:00 | |
| DL1XH-west | 2026-09-02 07:15:46 | 56.29416 | 9.71869 | 92° | 33km/h | 15883m | 4.5m/s | -49.7°C | 0.4% | 0hPa | 2.8V | 18:12:15 | 00:57:56 | 00:00:00 | |
| DO2SHX-10 | 2026-09-02 07:15:46 | 56.29416 | 9.71869 | 92° | 33km/h | 15883m | 4.5m/s | 0°C | 0% | 0hPa | 2.7V | 00:00:00 | 00:57:56 | 00:00:00 | |
| DO2SHX-10 | 2026-09-02 07:15:43 | 56.29421 | 9.71824 | 106° | 35km/h | 15863m | 8.4m/s | 0°C | 0% | 0hPa | 2.7V | 00:00:00 | 00:57:53 | 00:00:00 | |
| DM0DOS-11 | 2026-09-02 07:15:42 | 56.29430 | 9.71779 | 114° | 37km/h | 15842m | 4.9m/s | -49.5°C | 3.5% | 0hPa | 2.7V | 08:30:00 | 00:57:50 | 00:00:00 | |
| AA1-15 | 2026-09-02 07:15:41 | 56.29426 | 9.71794 | 112° | 35km/h | 15849m | 9.3m/s | -49.6°C | 0.5% | 0hPa | 2.8V | 18:12:15 | 00:57:51 | 00:00:00 | |
| DO2SHX-10 | 2026-09-02 07:15:40 | 56.29430 | 9.71779 | 115° | 35km/h | 15842m | 4.8m/s | 0°C | 0% | 0hPa | 2.7V | 00:00:00 | 00:57:50 | 00:00:00 | |
| DJ2DS-15 | 2026-09-02 07:15:38 | 56.29437 | 9.71750 | 106° | 33km/h | 15829m | 5.2m/s | -49.4°C | 1.2% | -1.0hPa | 2.7V | 00:00:00 | 00:00:00 | 00:00:00 | |
| DL1XH-15 | 2026-09-02 07:15:37 | 56.29445 | 9.71672 | 96° | 35km/h | 15793m | 9.1m/s | -49.1°C | 0% | 0hPa | 2.7V | 08:30:00 | 00:57:43 | 00:00:00 | |
| DL1XH1-15 | 2026-09-02 07:15:37 | 56.29446 | 9.71656 | 96° | 33km/h | 15785m | 6.7m/s | -49.1°C | 3.3% | 0hPa | 2.8V | 08:30:00 | 00:57:42 | 00:00:00 | |
| DL1XH-west | 2026-09-02 07:15:36 | 56.29441 | 9.71719 | 104° | 37km/h | 15814m | 5.2m/s | -49.2°C | 0.5% | 0hPa | 2.8V | 18:12:15 | 00:57:46 | 00:00:00 | |
| AA1-15 | 2026-09-02 07:15:30 | 56.29447 | 9.71625 | 93° | 37km/h | 15771m | 5.9m/s | -49.1°C | 0.4% | 0hPa | 2.8V | 18:12:15 | 00:57:40 | 00:00:00 | |
| DO2SHX-10 | 2026-09-02 07:15:28 | 56.29449 | 9.71593 | 100° | 38km/h | 15756m | 6.0m/s | 0°C | 0% | 0hPa | 2.8V | 00:00:00 | 00:57:38 | 00:00:00 | |
| DL1XH-15 | 2026-09-02 07:15:27 | 56.29457 | 9.71504 | 98° | 44km/h | 15723m | 5.2m/s | -49°C | 0% | 0hPa | 2.8V | 08:30:00 | 00:57:33 | 00:00:00 | |
| DL1XH1-15 | 2026-09-02 07:15:27 | 56.29459 | 9.71484 | 97° | 46km/h | 15717m | 7m/s | -49°C | 3.4% | 0hPa | 2.7V | 08:30:00 | 00:57:32 | 00:00:00 | |
| DL1XH-west | 2026-09-02 07:15:26 | 56.29452 | 9.71559 | 98° | 40km/h | 15744m | 7.1m/s | -49.1°C | 0.4% | 0hPa | 2.8V | 18:12:15 | 00:57:36 | 00:00:00 | |
| DO2SHX-10 | 2026-09-02 07:15:25 | 56.29454 | 9.71541 | 101° | 42km/h | 15737m | 7.9m/s | 0°C | 0% | 0hPa | 2.7V | 00:00:00 | 00:57:35 | 00:00:00 | |
| DM0DOS-11 | 2026-09-02 07:15:22 | 56.29462 | 9.71444 | 97° | 46km/h | 15703m | 7m/s | -48.8°C | 3.4% | 0hPa | 2.7V | 08:30:00 | 00:57:30 | 00:00:00 | |
| AA1-15 | 2026-09-02 07:15:20 | 56.29462 | 9.71444 | 97° | 46km/h | 15703m | 7m/s | -48.8°C | 0.4% | 0hPa | 2.7V | 18:12:15 | 00:57:30 | 00:00:00 | |
| DO2SHX-10 | 2026-09-02 07:15:19 | 56.29463 | 9.71423 | 97° | 44km/h | 15697m | 4.4m/s | 0°C | 0% | 0hPa | 2.8V | 00:00:00 | 00:57:29 | 00:00:00 | |
| DL1XH1-15 | 2026-09-02 07:15:17 | 56.29473 | 9.71296 | 100° | 37km/h | 15651m | 8.4m/s | -48.4°C | 3.3% | 0hPa | 2.8V | 08:30:00 | 00:57:22 | 00:00:00 | |
| DL1XH-west | 2026-09-02 07:15:15 | 56.29470 | 9.71329 | 101° | 38km/h | 15664m | 8.5m/s | -48.4°C | 0.3% | 0hPa | 2.7V | 18:12:15 | 00:57:24 | 00:00:00 | |
| AA1-15 | 2026-09-02 07:15:09 | 56.29478 | 9.71243 | 98° | 40km/h | 15631m | 5m/s | -48.2°C | 0.2% | 0hPa | 2.7V | 18:12:15 | 00:57:19 | 00:00:00 | |
| DL1XH1-15 | 2026-09-02 07:15:07 | 56.29489 | 9.71104 | 93° | 42km/h | 15583m | 8.2m/s | -47.9°C | 3.1% | 0hPa | 2.8V | 08:30:00 | 00:57:12 | 00:00:00 | |
| DL1XH-west | 2026-09-02 07:15:05 | 56.29485 | 9.71163 | 97° | 46km/h | 15603m | 5.1m/s | -47.9°C | 0.2% | 0hPa | 2.7V | 18:12:15 | 00:57:15 | 00:00:00 | |
| DO2SHX-10 | 2026-09-02 07:15:04 | 56.29487 | 9.71143 | 98° | 44km/h | 15596m | 8.0m/s | 0°C | 0% | 0hPa | 2.7V | 00:00:00 | 00:57:14 | 00:00:00 | |
| DM0DOS-11 | 2026-09-02 07:15:02 | 56.29489 | 9.71066 | 89° | 40km/h | 15569m | 8.9m/s | -47.7°C | 3.1% | 0hPa | 2.7V | 08:30:00 | 00:57:10 | 00:00:00 | |
| AA1-15 | 2026-09-02 07:14:58 | 56.29489 | 9.71031 | 90° | 37km/h | 15555m | 8.1m/s | -47.7°C | 0.2% | 0hPa | 2.8V | 18:12:15 | 00:57:08 | 00:00:00 | |
| DL1XH-15 | 2026-09-02 07:14:57 | 56.29493 | 9.70966 | 96° | 38km/h | 15529m | 5.4m/s | -48°C | 0% | 0hPa | 2.7V | 08:30:00 | 00:57:04 | 00:00:00 | |
| DL1XH-west | 2026-09-02 07:14:54 | 56.29493 | 9.70966 | 97° | 40km/h | 15529m | 5.4m/s | -48°C | 0.2% | 0hPa | 2.7V | 18:12:15 | 00:57:04 | 00:00:00 | |
| DO2SHX-10 | 2026-09-02 07:14:53 | 56.29494 | 9.70948 | 100° | 42km/h | 15522m | 7.8m/s | 0°C | 0% | 0hPa | 2.7V | 00:00:00 | 00:57:03 | 00:00:00 | |
| DM0DOS-11 | 2026-09-02 07:14:51 | 56.29500 | 9.70819 | 83° | 42km/h | 15475m | 5.7m/s | -48°C | 3.2% | 0hPa | 2.7V | 08:30:00 | 00:56:56 | 00:00:00 | |
| DO2SHX-10 | 2026-09-02 07:14:50 | 56.29499 | 9.70892 | 95° | 40km/h | 15502m | 5.1m/s | 0°C | 0% | 0hPa | 2.8V | 00:00:00 | 00:57:00 | 00:00:00 | |
| DL1XH-15 | 2026-09-02 07:14:47 | 56.29497 | 9.70779 | 82° | 46km/h | 15461m | 6.1m/s | -48.1°C | 0% | 0hPa | 2.8V | 08:30:00 | 00:56:54 | 00:00:00 | |
| AA1-15 | 2026-09-02 07:14:47 | 56.29501 | 9.70837 | 89° | 42km/h | 15482m | 8.3m/s | -48°C | 0.2% | 0hPa | 2.7V | 18:12:15 | 00:56:57 | 00:00:00 | |
| DL1XH-west | 2026-09-02 07:14:43 | 56.29495 | 9.70759 | 81° | 46km/h | 15453m | 8.7m/s | -48°C | 0.3% | 0hPa | 2.8V | 18:12:15 | 00:56:53 | 00:00:00 | |
| DM0DOS-11 | 2026-09-02 07:14:41 | 56.29493 | 9.70616 | 95° | 40km/h | 15406m | 7m/s | -47.8°C | 3.1% | 0hPa | 2.7V | 08:30:00 | 00:56:46 | 00:00:00 | |
| DO2SHX-10 | 2026-09-02 07:14:41 | 56.29492 | 9.70717 | 86° | 47km/h | 15440m | 6.7m/s | 0°C | 0% | 0hPa | 2.7V | 00:00:00 | 00:56:51 | 00:00:00 | |
| DO2SHX-10 | 2026-09-02 07:14:38 | 56.29492 | 9.70654 | 94° | 42km/h | 15418m | 6.7m/s | 0°C | 0% | 0hPa | 2.7V | 00:00:00 | 00:56:48 | 00:00:00 | |
| DL1XH1-15 | 2026-09-02 07:14:37 | 56.29496 | 9.70550 | 91° | 35km/h | 15377m | 6.4m/s | -47.9°C | 3.1% | 0hPa | 2.7V | 08:30:00 | 00:56:42 | 00:00:00 | |
| DL1XH-15 | 2026-09-02 07:14:37 | 56.29496 | 9.70582 | 95° | 35km/h | 15391m | 6.9m/s | -47.8°C | 0% | 0hPa | 2.8V | 08:30:00 | 00:56:44 | 00:00:00 | |
| AA1-15 | 2026-09-02 07:14:36 | 56.29494 | 9.70616 | 96° | 40km/h | 15406m | 7m/s | -47.8°C | 0.2% | 0hPa | 2.7V | 18:12:15 | 00:56:46 | 00:00:00 | |
| DL1XH-west | 2026-09-02 07:14:32 | 56.29496 | 9.70550 | 91° | 35km/h | 15377m | 6.4m/s | -47.9°C | 0.1% | 0hPa | 2.7V | 18:12:15 | 00:56:42 | 00:00:00 | |
| DO2SHX-10 | 2026-09-02 07:14:32 | 56.29496 | 9.70550 | 92° | 37km/h | 15377m | 6.4m/s | 0°C | 0% | 0hPa | 2.8V | 00:00:00 | 00:56:42 | 00:00:00 | |
| DO2SHX-10 | 2026-09-02 07:14:29 | 56.29496 | 9.70500 | 87° | 42km/h | 15359m | 5.0m/s | 0°C | 0% | 0hPa | 2.8V | 00:00:00 | 00:56:39 | 00:00:00 | |
| DM0DOS-11 | 2026-09-02 07:14:28 | 56.29499 | 9.70374 | 96° | 51km/h | 15320m | 5.2m/s | -48.1°C | 3.1% | 0hPa | 2.8V | 08:30:00 | 00:56:33 | 00:00:00 | |
| AA1-15 | 2026-09-02 07:14:26 | 56.29497 | 9.70441 | 94° | 47km/h | 15341m | 7.3m/s | -48.3°C | 0.2% | 0hPa | 2.7V | 18:12:15 | 00:56:36 | 00:00:00 | |
| DL1XH-west | 2026-09-02 07:14:22 | 56.29502 | 9.70329 | 96° | 47km/h | 15308m | 2.9m/s | -48.1°C | 0.2% | 0hPa | 2.7V | 18:12:15 | 00:56:31 | 00:00:00 | |
| DO2SHX-10 | 2026-09-02 07:14:20 | 56.29503 | 9.70307 | 97° | 40km/h | 15302m | 8.4m/s | 0°C | 0% | 0hPa | 2.8V | 00:00:00 | 00:56:30 | 00:00:00 | |
| DM0DOS-11 | 2026-09-02 07:14:18 | 56.29510 | 9.70185 | 94° | 38km/h | 15256m | 5.4m/s | -48.1°C | 3.1% | 0hPa | 2.8V | 08:30:00 | 00:56:23 | 00:00:00 | |
| AA1-15 | 2026-09-02 07:14:15 | 56.29509 | 9.70220 | 97° | 38km/h | 15269m | 4.4m/s | -48°C | 0.2% | 0hPa | 2.8V | 18:12:15 | 00:56:25 | 00:00:00 | |
| DL1XH-west | 2026-09-02 07:14:12 | 56.29512 | 9.70167 | 98° | 40km/h | 15249m | 7.2m/s | -48.1°C | 0.2% | 0hPa | 2.7V | 18:12:15 | 00:56:22 | 00:00:00 | |
| DO2SHX-10 | 2026-09-02 07:14:12 | 56.29512 | 9.70167 | 99° | 44km/h | 15250m | 7.2m/s | 0°C | 0% | 0hPa | 2.8V | 00:00:00 | 00:56:22 | 00:00:00 | |
| DM0DOS-11 | 2026-09-02 07:14:08 | 56.29535 | 9.69984 | 100° | 42km/h | 15188m | 6.6m/s | -48.2°C | 3.1% | 0hPa | 2.8V | 08:30:00 | 00:56:13 | 00:00:00 | |
| AA1-15 | 2026-09-02 07:14:04 | 56.29533 | 9.70003 | 105° | 44km/h | 15194m | 5m/s | -48.1°C | 0.2% | 0hPa | 2.8V | 18:12:15 | 00:56:14 | 00:00:00 | |
| DL1XH1-15 | 2026-09-02 07:14:02 | 56.29536 | 9.69909 | 88° | 42km/h | 15163m | 6.9m/s | -48.1°C | 3.1% | 0hPa | 2.8V | 08:30:00 | 00:56:09 | 00:00:00 | |
| DL1XH-west | 2026-09-02 07:14:02 | 56.29536 | 9.69965 | 93° | 42km/h | 15181m | 6.2m/s | -48.1°C | 0.2% | 0hPa | 2.7V | 18:12:15 | 00:56:12 | 00:00:00 | |
| DM0DOS-11 | 2026-09-02 07:13:58 | 56.29541 | 9.69780 | 99° | 47km/h | 15122m | 8.1m/s | -48.3°C | 3.2% | 0hPa | 2.8V | 08:30:00 | 00:56:03 | 00:00:00 | |
| AA1-15 | 2026-09-02 07:13:53 | 56.29541 | 9.69780 | 99° | 47km/h | 15122m | 8.1m/s | -48.3°C | 0.2% | 0hPa | 2.8V | 18:12:15 | 00:56:03 | 00:00:00 | |
| DL1XH1-15 | 2026-09-02 07:13:52 | 56.29549 | 9.69706 | 108° | 37km/h | 15097m | 6.8m/s | -48.3°C | 3.2% | 0hPa | 2.8V | 08:30:00 | 00:55:59 | 00:00:00 | |
| DL1XH-west | 2026-09-02 07:13:51 | 56.29544 | 9.69740 | 101° | 40km/h | 15110m | 3m/s | -48.3°C | 0.2% | 0hPa | 2.7V | 18:12:15 | 00:56:01 | 00:00:00 | |
| DJ2DS-15 | 2026-09-02 07:13:50 | 56.29555 | 9.69674 | 110° | 37km/h | 15085m | 5.1m/s | -48.3°C | 1.1% | -1.0hPa | 2.8V | 00:00:00 | 00:00:00 | 00:00:00 | |
| DL1XH1-15 | 2026-09-02 07:13:42 | 56.29585 | 9.69535 | 107° | 42km/h | 15034m | 8.7m/s | -48.5°C | 3.3% | 0hPa | 2.8V | 08:30:00 | 00:55:49 | 00:00:00 | |
| AA1-15 | 2026-09-02 07:13:42 | 56.29575 | 9.69589 | 111° | 42km/h | 15053m | 6.1m/s | -48.6°C | 0.3% | 0hPa | 2.7V | 18:12:15 | 00:55:52 | 00:00:00 | |
| DL1XH-west | 2026-09-02 07:13:40 | 56.29582 | 9.69553 | 108° | 40km/h | 15041m | 4.4m/s | -48.5°C | 0.2% | 0hPa | 2.7V | 18:12:15 | 00:55:50 | 00:00:00 | |
| DJ2DS-15 | 2026-09-02 07:13:34 | 56.29597 | 9.69437 | 102° | 42km/h | 15001m | 6.1m/s | -48.3°C | 3.2% | 0hPa | 2.7V | 00:00:00 | 00:55:44 | 08:30:00 | |
| DM0DOS-11 | 2026-09-02 07:13:32 | 56.29608 | 9.69366 | 107° | 38km/h | 14973m | 6.2m/s | -48.2°C | 3.1% | 0hPa | 2.8V | 08:30:00 | 00:55:40 | 00:00:00 | |
| DL1XH1-15 | 2026-09-02 07:13:32 | 56.29615 | 9.69334 | 111° | 38km/h | 14958m | 6.2m/s | -48.2°C | 3.1% | 0hPa | 2.8V | 08:30:00 | 00:55:38 | 00:00:00 | |
| AA1-15 | 2026-09-02 07:13:31 | 56.29605 | 9.69383 | 107° | 40km/h | 14981m | 8.8m/s | -48.2°C | 0.1% | 0hPa | 2.7V | 18:12:15 | 00:55:41 | 00:00:00 | |
| DL1XH-west | 2026-09-02 07:13:29 | 56.29611 | 9.69349 | 111° | 37km/h | 14966m | 8.9m/s | -48.2°C | 0.1% | 0hPa | 2.8V | 18:12:15 | 00:55:39 | 00:00:00 | |
| DL1XH-15 | 2026-09-02 07:13:23 | 56.29642 | 9.69116 | 104° | 49km/h | 14897m | 8.1m/s | 0°C | 0% | 0hPa | 2.8V | 00:00:00 | 00:55:28 | 00:00:00 | |
| DM0DOS-11 | 2026-09-02 07:13:22 | 56.29636 | 9.69162 | 101° | 55km/h | 14910m | 7.1m/s | -48°C | 3.2% | 0hPa | 2.7V | 08:30:00 | 00:55:30 | 00:00:00 | |
| AA1-15 | 2026-09-02 07:13:20 | 56.29636 | 9.69162 | 102° | 55km/h | 14910m | 7.1m/s | -48°C | 0.2% | 0hPa | 2.7V | 18:12:15 | 00:55:30 | 00:00:00 | |
| DL1XH-west | 2026-09-02 07:13:19 | 56.29639 | 9.69138 | 104° | 51km/h | 14904m | 4.9m/s | -48°C | 0.2% | 0hPa | 2.8V | 18:12:15 | 00:55:29 | 00:00:00 | |
| DJ2DS-15 | 2026-09-02 07:13:14 | 56.29659 | 9.69018 | 106° | 44km/h | 14868m | 7.9m/s | -47.7°C | 1.1% | -1.0hPa | 2.7V | 00:00:00 | 00:00:00 | 00:00:00 | |
| DM0DOS-11 | 2026-09-02 07:13:12 | 56.29669 | 9.68963 | 107° | 37km/h | 14845m | 4.5m/s | -47.6°C | 3.1% | 0hPa | 2.7V | 08:30:00 | 00:55:20 | 00:00:00 | |
| DL1XH1-15 | 2026-09-02 07:13:12 | 56.29666 | 9.68980 | 107° | 40km/h | 14850m | 7.2m/s | -47.6°C | 3.1% | 0hPa | 2.7V | 08:30:00 | 00:55:21 | 00:00:00 | |
| AA1-15 | 2026-09-02 07:13:09 | 56.29672 | 9.68948 | 108° | 33km/h | 14839m | 6.9m/s | -47.5°C | 0.1% | 0hPa | 2.8V | 18:12:15 | 00:55:19 | 00:00:00 | |
| DL1XH-west | 2026-09-02 07:13:08 | 56.29675 | 9.68934 | 111° | 35km/h | 14831m | 11m/s | -47.5°C | 0.1% | 0hPa | 2.8V | 18:12:15 | 00:55:18 | 00:00:00 | |
| DL1XH1-15 | 2026-09-02 07:13:02 | 56.29692 | 9.68769 | 95° | 49km/h | 14774m | 7.4m/s | -47.1°C | 2.9% | 0hPa | 2.8V | 08:30:00 | 00:55:10 | 00:00:00 | |
| AA1-15 | 2026-09-02 07:12:58 | 56.29693 | 9.68727 | 88° | 44km/h | 14760m | 5.5m/s | -47.2°C | 0% | 0hPa | 2.8V | 18:12:15 | 00:55:08 | 00:00:00 | |
| DL1XH-15 | 2026-09-02 07:12:56 | 56.29692 | 9.68671 | 89° | 40km/h | 14740m | 7.7m/s | 0°C | 0% | 0hPa | 2.7V | 00:00:00 | 00:55:05 | 00:00:00 | |
| DL1XH-west | 2026-09-02 07:12:48 | 56.29702 | 9.68515 | 91° | 58km/h | 14689m | 4.6m/s | -47.6°C | 0.1% | 0hPa | 2.8V | 18:12:15 | 00:54:58 | 00:00:00 | |
| AA1-15 | 2026-09-02 07:12:47 | 56.29702 | 9.68488 | 88° | 60km/h | 14683m | 8.2m/s | -47.6°C | 0.1% | 0hPa | 2.8V | 18:12:15 | 00:54:57 | 00:00:00 | |
| DJ2DS-15 | 2026-09-02 07:12:45 | 56.29699 | 9.68432 | 84° | 49km/h | 14668m | 9.1m/s | -47.6°C | 3.0% | 0hPa | 2.7V | 00:00:00 | 00:54:55 | 00:00:00 | |
| DM0DOS-11 | 2026-09-02 07:12:42 | 56.29696 | 9.68321 | 91° | 44km/h | 14635m | 8.1m/s | -47.9°C | 3.1% | 0hPa | 2.7V | 08:30:00 | 00:54:50 | 00:00:00 | |
| AA1-15 | 2026-09-02 07:12:36 | 56.29702 | 9.68236 | 97° | 53km/h | 14609m | 5.7m/s | -48.1°C | 0.2% | 0hPa | 2.8V | 18:12:15 | 00:54:46 | 00:00:00 | |
| DL1XH-west | 2026-09-02 07:12:34 | 56.29705 | 9.68186 | 94° | 55km/h | 14596m | 7.4m/s | -48°C | 0.2% | 0hPa | 2.8V | 18:12:15 | 00:54:44 | 00:00:00 | |
| DM0DOS-11 | 2026-09-02 07:12:32 | 56.29707 | 9.68091 | 87° | 47km/h | 14570m | 4.7m/s | -47.8°C | 3.1% | 0hPa | 2.8V | 08:30:00 | 00:54:40 | 00:00:00 | |
| AA1-15 | 2026-09-02 07:12:26 | 56.29706 | 9.68011 | 89° | 42km/h | 14545m | 5.5m/s | -47.8°C | 0.1% | 0hPa | 2.7V | 18:12:15 | 00:54:36 | 00:00:00 | |
| DJ2DS-15 | 2026-09-02 07:12:25 | 56.29706 | 9.67992 | 94° | 38km/h | 14540m | 4.7m/s | -47.7°C | 3.1% | 0hPa | 2.7V | 00:00:00 | 00:54:35 | 00:00:00 | |
| DL1XH1-15 | 2026-09-02 07:12:19 | 56.29715 | 9.67786 | 85° | 26km/h | 14475m | 6.1m/s | -47.6°C | 3.1% | 0hPa | 2.7V | 08:30:00 | 00:54:24 | 00:00:00 | |
| AA1-15 | 2026-09-02 07:12:15 | 56.29716 | 9.67799 | 88° | 35km/h | 14481m | 7.1m/s | -47.6°C | 0.2% | 0hPa | 2.8V | 18:12:15 | 00:54:25 | 00:00:00 | |
| DM0DOS-11 | 2026-09-02 07:12:12 | 56.29713 | 9.67737 | 81° | 33km/h | 14448m | 7.6m/s | -47.5°C | 3% | 0hPa | 2.8V | 08:30:00 | 00:54:20 | 00:00:00 | |
| DL1XH-west | 2026-09-02 07:12:06 | 56.29713 | 9.67677 | 101° | 35km/h | 14419m | 10.3m/s | -47.6°C | 0.1% | 0hPa | 2.8V | 18:12:15 | 00:54:16 | 00:00:00 | |
| AA1-15 | 2026-09-02 07:12:04 | 56.29716 | 9.67642 | 100° | 42km/h | 14404m | 4.5m/s | -47.8°C | 0.2% | 0hPa | 2.8V | 18:12:15 | 00:54:14 | 00:00:00 | |
| DM0DOS-11 | 2026-09-02 07:12:02 | 56.29728 | 9.67569 | 109° | 40km/h | 14375m | 5.6m/s | -47.8°C | 3.1% | 0hPa | 2.8V | 08:30:00 | 00:54:10 | 00:00:00 | |
| DL1XH-west | 2026-09-02 07:11:55 | 56.29748 | 9.67480 | 112° | 46km/h | 14341m | 5.7m/s | -47.6°C | 0.2% | 0hPa | 2.8V | 18:12:15 | 00:54:05 | 00:00:00 | |
| AA1-15 | 2026-09-02 07:11:53 | 56.29757 | 9.67443 | 113° | 42km/h | 14329m | 5.5m/s | -47.6°C | 0.2% | 0hPa | 2.7V | 18:12:15 | 00:54:03 | 00:00:00 | |
| DL1XH1-15 | 2026-09-02 07:11:52 | 56.29771 | 9.67391 | 117° | 42km/h | 14309m | 10.3m/s | -47.6°C | 3% | 0hPa | 2.8V | 08:30:00 | 00:54:00 | 00:00:00 | |
| DL1XH-west | 2026-09-02 07:11:45 | 56.29794 | 9.67308 | 114° | 42km/h | 14276m | 4.9m/s | -47.6°C | 0.1% | 0hPa | 2.8V | 18:12:15 | 00:53:55 | 00:00:00 | |
| AA1-15 | 2026-09-02 07:11:42 | 56.29807 | 9.67255 | 112° | 44km/h | 14259m | 7.3m/s | -47.6°C | 0.1% | 0hPa | 2.7V | 18:12:15 | 00:53:52 | 00:00:00 | |
| DL1XH1-15 | 2026-09-02 07:11:42 | 56.29814 | 9.67221 | 106° | 38km/h | 14247m | 2.9m/s | -47.6°C | 3% | 0hPa | 2.8V | 08:30:00 | 00:53:50 | 00:00:00 | |
| DL1XH-west | 2026-09-02 07:11:35 | 56.29820 | 9.67125 | 89° | 47km/h | 14214m | 5.3m/s | -48.4°C | 0.3% | 0hPa | 2.7V | 18:12:15 | 00:53:45 | 00:00:00 | |
| DL1XH1-15 | 2026-09-02 07:11:32 | 56.29818 | 9.67003 | 89° | 51km/h | 14182m | 4.9m/s | -48.3°C | 3.3% | 0hPa | 2.7V | 08:30:00 | 00:53:40 | 00:00:00 | |
| AA1-15 | 2026-09-02 07:11:31 | 56.29818 | 9.67028 | 86° | 57km/h | 14188m | 8.7m/s | -48.4°C | 0.3% | 0hPa | 2.7V | 18:12:15 | 00:53:41 | 00:00:00 | |
| DJ2DS-15 | 2026-09-02 07:11:26 | 56.29820 | 9.66900 | 94° | 44km/h | 14148m | 6.7m/s | -48.2°C | 1.2% | -1.0hPa | 2.7V | 00:00:00 | 00:00:00 | 00:00:00 | |
| DJ2DS-15 | 2026-09-02 07:11:24 | 56.29821 | 9.66878 | 96° | 47km/h | 14143m | 4.9m/s | -48.1°C | 3.3% | 0hPa | 2.7V | 00:00:00 | 00:53:34 | 00:00:00 | |
| DL1XH1-15 | 2026-09-02 07:11:22 | 56.29829 | 9.66721 | 106° | 49km/h | 14098m | 6.7m/s | -48°C | 3.3% | 0hPa | 2.8V | 08:30:00 | 00:53:27 | 00:00:00 | |
| DM0DOS-11 | 2026-09-02 07:11:22 | 56.29823 | 9.66786 | 93° | 51km/h | 14118m | 8.9m/s | -48.1°C | 3.2% | 0hPa | 2.7V | 08:30:00 | 00:53:30 | 00:00:00 | |
| DL1XH-west | 2026-09-02 07:11:21 | 56.29823 | 9.66809 | 92° | 53km/h | 14125m | 3.9m/s | -48.2°C | 0.3% | 0hPa | 2.7V | 18:12:15 | 00:53:31 | 00:00:00 | |
| AA1-15 | 2026-09-02 07:11:20 | 56.29823 | 9.66786 | 93° | 51km/h | 14118m | 8.9m/s | -48.1°C | 0.3% | 0hPa | 2.7V | 18:12:15 | 00:53:30 | 00:00:00 | |
| DM0DOS-11 | 2026-09-02 07:11:12 | 56.29852 | 9.66569 | 106° | 46km/h | 14050m | 4.4m/s | -47.6°C | 3.1% | 0hPa | 2.7V | 08:30:00 | 00:53:20 | 00:00:00 | |
| DL1XH1-15 | 2026-09-02 07:11:12 | 56.29865 | 9.66511 | 116° | 47km/h | 14028m | 7.7m/s | -47.7°C | 3.2% | 0hPa | 2.8V | 08:30:00 | 00:53:17 | 00:00:00 | |
| DL1XH-west | 2026-09-02 07:11:09 | 56.29856 | 9.66550 | 108° | 46km/h | 14042m | 10.4m/s | -47.7°C | 0.2% | 0hPa | 2.7V | 18:12:15 | 00:53:19 | 00:00:00 | |
| DJ2DS-15 | 2026-09-02 07:11:04 | 56.29883 | 9.66449 | 119° | 57km/h | 14007m | 4.5m/s | -47.7°C | 3.2% | 0hPa | 2.7V | 00:00:00 | 00:53:14 | 00:00:00 | |
| DM0DOS-11 | 2026-09-02 07:11:02 | 56.29909 | 9.66356 | 115° | 55km/h | 13981m | 5.1m/s | -47.6°C | 3.1% | 0hPa | 2.7V | 08:30:00 | 00:53:10 | 00:00:00 | |
| DL1XH-west | 2026-09-02 07:10:59 | 56.29915 | 9.66334 | 114° | 53km/h | 13973m | 10.6m/s | -47.7°C | 0.3% | 0hPa | 2.8V | 18:12:15 | 00:53:09 | 00:00:00 | |
| AA1-15 | 2026-09-02 07:10:58 | 56.29920 | 9.66312 | 111° | 53km/h | 13965m | 5.3m/s | -47.6°C | 0.2% | 0hPa | 2.8V | 18:12:15 | 00:53:08 | 00:00:00 | |
| DM0DOS-11 | 2026-09-02 07:10:52 | 56.29957 | 9.66119 | 105° | 60km/h | 13914m | 8.1m/s | -47.6°C | 3.1% | 0hPa | 2.7V | 08:30:00 | 00:53:00 | 00:00:00 | |
| DL1XH1-15 | 2026-09-02 07:10:52 | 56.29969 | 9.66041 | 106° | 57km/h | 13892m | 7.9m/s | -47.6°C | 3.1% | 0hPa | 2.8V | 08:30:00 | 00:52:57 | 00:00:00 | |
| DL1XH-west | 2026-09-02 07:10:49 | 56.29961 | 9.66093 | 104° | 60km/h | 13906m | 7.2m/s | -47.6°C | 0.3% | 0hPa | 2.7V | 18:12:15 | 00:52:59 | 00:00:00 | |
| AA1-15 | 2026-09-02 07:10:47 | 56.29969 | 9.66041 | 107° | 57km/h | 13892m | 7.9m/s | -47.7°C | 0.3% | 0hPa | 2.8V | 18:12:15 | 00:52:57 | 00:00:00 | |
| BIOWL1-15 | 2026-09-02 07:10:43 | 56.29996 | 9.65905 | 110° | 51km/h | 13852m | 5.9m/s | -47.9°C | 0.4% | 0hPa | 2.8V | 18:12:15 | 00:52:51 | 00:00:00 | |
| DL1XH1-15 | 2026-09-02 07:10:42 | 56.30010 | 9.65818 | 102° | 47km/h | 13824m | 5.8m/s | -48.1°C | 3.3% | 0hPa | 2.8V | 08:30:00 | 00:52:47 | 00:00:00 | |
| DM0DOS-11 | 2026-09-02 07:10:42 | 56.30000 | 9.65884 | 107° | 51km/h | 13846m | 7.2m/s | -48°C | 3.3% | 0hPa | 2.8V | 08:30:00 | 00:52:50 | 00:00:00 | |
| DL1XH-west | 2026-09-02 07:10:38 | 56.30007 | 9.65839 | 104° | 49km/h | 13831m | 8.1m/s | -48.1°C | 0.5% | 0hPa | 2.7V | 18:12:15 | 00:52:48 | 00:00:00 | |
| AA1-15 | 2026-09-02 07:10:36 | 56.30012 | 9.65797 | 103° | 47km/h | 13818m | 6.2m/s | -48°C | 0.4% | 0hPa | 2.8V | 18:12:15 | 00:52:46 | 00:00:00 | |
| DM0DOS-11 | 2026-09-02 07:10:33 | 56.30025 | 9.65674 | 95° | 47km/h | 13776m | 5.8m/s | -48.6°C | 3.4% | 0hPa | 2.7V | 08:30:00 | 00:52:40 | 00:00:00 | |
| DL1XH1-15 | 2026-09-02 07:10:33 | 56.30028 | 9.65601 | 91° | 60km/h | 13756m | 7.8m/s | -48.5°C | 3.4% | 0hPa | 2.8V | 08:30:00 | 00:52:37 | 00:00:00 | |
| BIOWL1-15 | 2026-09-02 07:10:32 | 56.30025 | 9.65674 | 96° | 47km/h | 13776m | 5.8m/s | 0°C | 0% | 0hPa | 2.7V | 18:12:15 | 00:52:40 | 00:00:00 | |
| DL1XH-west | 2026-09-02 07:10:27 | 56.30028 | 9.65601 | 92° | 60km/h | 13756m | 7.8m/s | -48.6°C | 0.5% | 0hPa | 2.8V | 18:12:15 | 00:52:37 | 00:00:00 | |
| AA1-15 | 2026-09-02 07:10:25 | 56.30028 | 9.65541 | 92° | 68km/h | 13743m | 7.1m/s | -48.5°C | 0.5% | 0hPa | 2.8V | 18:12:15 | 00:52:35 | 00:00:00 | |
| DL1XH1-15 | 2026-09-02 07:10:22 | 56.30047 | 9.65313 | 97° | 57km/h | 13696m | 4.8m/s | -48.5°C | 3.4% | 0hPa | 2.7V | 08:30:00 | 00:52:27 | 00:00:00 | |
| BIOWL1-15 | 2026-09-02 07:10:20 | 56.30038 | 9.65395 | 102° | 64km/h | 13714m | 6.8m/s | 0°C | 0% | 0hPa | 2.8V | 18:12:15 | 00:52:30 | 00:00:00 | |
| DL1XH-west | 2026-09-02 07:10:16 | 56.30049 | 9.65289 | 98° | 55km/h | 13690m | 6.4m/s | -48.5°C | 0.5% | 0hPa | 2.7V | 18:12:15 | 00:52:26 | 00:00:00 | |
| AA1-15 | 2026-09-02 07:10:15 | 56.30051 | 9.65265 | 97° | 53km/h | 13685m | 4.9m/s | -48.5°C | 0.5% | 0hPa | 2.7V | 18:12:15 | 00:52:25 | 00:00:00 | |
| BIOWL1-15 | 2026-09-02 07:10:13 | 56.30056 | 9.65110 | 95° | 60km/h | 13648m | 7.4m/s | 0°C | 0% | 0hPa | 2.7V | 18:12:15 | 00:52:19 | 00:00:00 | |
| DM0DOS-11 | 2026-09-02 07:10:12 | 56.30055 | 9.65137 | 95° | 60km/h | 13655m | 5.9m/s | -48.5°C | 3.4% | 0hPa | 2.7V | 08:30:00 | 00:52:20 | 00:00:00 | |
| DL1XH1-15 | 2026-09-02 07:10:12 | 56.30060 | 9.65056 | 98° | 58km/h | 13636m | 6.5m/s | -48.6°C | 3.3% | 0hPa | 2.8V | 08:30:00 | 00:52:17 | 00:00:00 | |
| DL1XH-west | 2026-09-02 07:10:05 | 56.30064 | 9.65003 | 99° | 60km/h | 13621m | 6.4m/s | -48.6°C | 0.5% | 0hPa | 2.8V | 18:12:15 | 00:52:15 | 00:00:00 | |
| AA1-15 | 2026-09-02 07:10:04 | 56.30066 | 9.64976 | 101° | 60km/h | 13615m | 6.8m/s | -48.6°C | 0.5% | 0hPa | 2.7V | 18:12:15 | 00:52:14 | 00:00:00 | |
| DL1XH1-15 | 2026-09-02 07:10:02 | 56.30086 | 9.64800 | 100° | 49km/h | 13571m | 3.4m/s | -48.4°C | 3.4% | 0hPa | 2.8V | 08:30:00 | 00:52:07 | 00:00:00 | |
| DL1XH-west | 2026-09-02 07:09:55 | 56.30091 | 9.64756 | 103° | 51km/h | 13558m | 5.6m/s | -48.5°C | 0.5% | 0hPa | 2.7V | 18:12:15 | 00:52:05 | 00:00:00 | |
| AA1-15 | 2026-09-02 07:09:53 | 56.30096 | 9.64710 | 101° | 53km/h | 13544m | 5.5m/s | -48.4°C | 0.5% | 0hPa | 2.7V | 18:12:15 | 00:52:03 | 00:00:00 | |
| DM0DOS-11 | 2026-09-02 07:09:52 | 56.30106 | 9.64637 | 103° | 55km/h | 13522m | 12.1m/s | -48.4°C | 3.4% | 0hPa | 2.8V | 08:30:00 | 00:52:00 | 00:00:00 | |
| DL1XH1-15 | 2026-09-02 07:09:52 | 56.30118 | 9.64566 | 110° | 55km/h | 13501m | 7.3m/s | -48.2°C | 3.3% | 0hPa | 2.8V | 08:30:00 | 00:51:57 | 00:00:00 | |
| DL1XH-west | 2026-09-02 07:09:44 | 56.30132 | 9.64488 | 108° | 64km/h | 13484m | 4.3m/s | -48.2°C | 0.4% | 0hPa | 2.7V | 18:12:15 | 00:51:54 | 00:00:00 | |
| AA1-15 | 2026-09-02 07:09:43 | 56.30138 | 9.64461 | 109° | 64km/h | 13477m | 9.6m/s | -48.3°C | 0.4% | 0hPa | 2.7V | 18:12:15 | 00:51:53 | 00:00:00 | |
| DM0DOS-11 | 2026-09-02 07:09:42 | 56.30153 | 9.64380 | 107° | 62km/h | 13457m | 6.9m/s | -48.2°C | 3.3% | 0hPa | 2.8V | 08:30:00 | 00:51:50 | 00:00:00 | |
| DL1XH-west | 2026-09-02 07:09:33 | 56.30172 | 9.64193 | 96° | 66km/h | 13410m | 6.5m/s | -48.1°C | 0.5% | 0hPa | 2.7V | 18:12:15 | 00:51:43 | 00:00:00 | |
| DM0DOS-11 | 2026-09-02 07:09:32 | 56.30178 | 9.64103 | 95° | 66km/h | 13390m | 5.2m/s | -47.9°C | 3.3% | 0hPa | 2.8V | 08:30:00 | 00:51:40 | 00:00:00 | |
| AA1-15 | 2026-09-02 07:09:32 | 56.30174 | 9.64163 | 98° | 68km/h | 13404m | 4.5m/s | -48°C | 0.4% | 0hPa | 2.7V | 18:12:15 | 00:51:42 | 00:00:00 | |
| DM0DOS-11 | 2026-09-02 07:09:22 | 56.30199 | 9.63821 | 96° | 64km/h | 13325m | 6m/s | -47.5°C | 3.2% | 0hPa | 2.7V | 08:30:00 | 00:51:30 | 00:00:00 | |
| DL1XH-west | 2026-09-02 07:09:22 | 56.30194 | 9.63877 | 99° | 60km/h | 13336m | 6.3m/s | -47.6°C | 0.3% | 0hPa | 2.7V | 18:12:15 | 00:51:32 | 00:00:00 | |
| AA1-15 | 2026-09-02 07:09:21 | 56.30197 | 9.63850 | 98° | 62km/h | 13330m | 5.1m/s | -47.6°C | 0.3% | 0hPa | 2.7V | 18:12:15 | 00:51:31 | 00:00:00 | |
| DL1XH1-15 | 2026-09-02 07:09:18 | 56.30208 | 9.63615 | 101° | 60km/h | 13285m | 5.4m/s | -47.3°C | 3.1% | 0hPa | 2.8V | 08:30:00 | 00:51:23 | 00:00:00 | |
| DJ2DS-15 | 2026-09-02 07:09:16 | 56.30203 | 9.63703 | 93° | 58km/h | 13301m | 6.6m/s | -47.3°C | 3.1% | 0hPa | 2.7V | 00:00:00 | 00:51:26 | 00:00:00 | |
| DM0DOS-11 | 2026-09-02 07:09:12 | 56.30217 | 9.63539 | 102° | 51km/h | 13269m | 5.7m/s | -47.6°C | 3.1% | 0hPa | 2.7V | 08:30:00 | 00:51:20 | 00:00:00 | |
| DL1XH-west | 2026-09-02 07:09:11 | 56.30214 | 9.63563 | 103° | 57km/h | 13274m | 4.8m/s | -47.5°C | 0.3% | 0hPa | 2.7V | 18:12:15 | 00:51:21 | 00:00:00 | |
| AA1-15 | 2026-09-02 07:09:10 | 56.30217 | 9.63539 | 102° | 51km/h | 13269m | 5.7m/s | -47.6°C | 0.3% | 0hPa | 2.7V | 18:12:15 | 00:51:20 | 00:00:00 | |
| DM0DOS-11 | 2026-09-02 07:09:02 | 56.30238 | 9.63280 | 94° | 60km/h | 13209m | 5.5m/s | -48.2°C | 3.3% | 0hPa | 2.7V | 08:30:00 | 00:51:10 | 00:00:00 | |
| DL1XH1-15 | 2026-09-02 07:09:02 | 56.30237 | 9.63308 | 93° | 64km/h | 13214m | 6.4m/s | -48.2°C | 3.3% | 0hPa | 2.8V | 08:30:00 | 00:51:11 | 00:00:00 | |
| DL1XH-west | 2026-09-02 07:09:01 | 56.30237 | 9.63308 | 93° | 64km/h | 13215m | 6.4m/s | -48.2°C | 0.5% | 0hPa | 2.8V | 18:12:15 | 00:51:11 | 00:00:00 | |
| AA1-15 | 2026-09-02 07:08:59 | 56.30239 | 9.63253 | 95° | 58km/h | 13204m | 2.9m/s | -48.1°C | 0.4% | 0hPa | 2.7V | 18:12:15 | 00:51:09 | 00:00:00 | |
| DJ2DS-15 | 2026-09-02 07:08:56 | 56.30243 | 9.63173 | 95° | 55km/h | 13187m | 2.9m/s | -48.0°C | 3.3% | 0hPa | 2.8V | 00:00:00 | 00:51:06 | 00:00:00 | |
| DM0DOS-11 | 2026-09-02 07:08:52 | 56.30245 | 9.63027 | 91° | 51km/h | 13148m | 6.6m/s | -48.3°C | 3.3% | 0hPa | 2.8V | 08:30:00 | 00:51:00 | 00:00:00 | |
| BIOWL1-15 | 2026-09-02 07:08:51 | 56.30245 | 9.63050 | 89° | 51km/h | 13155m | 6.8m/s | 0°C | 0% | 0hPa | 2.8V | 18:12:15 | 00:51:01 | 00:00:00 | |
| DL1XH-west | 2026-09-02 07:08:50 | 56.30245 | 9.63027 | 92° | 51km/h | 13148m | 6.6m/s | -48.3°C | 0.5% | 0hPa | 2.8V | 18:12:15 | 00:51:00 | 00:00:00 | |
| AA1-15 | 2026-09-02 07:08:49 | 56.30246 | 9.63004 | 96° | 53km/h | 13143m | 3.9m/s | -48.3°C | 0.5% | 0hPa | 2.7V | 18:12:15 | 00:50:59 | 00:00:00 | |
| DM0DOS-11 | 2026-09-02 07:08:42 | 56.30256 | 9.62770 | 81° | 58km/h | 13088m | 5.4m/s | -48.5°C | 3.4% | 0hPa | 2.8V | 08:30:00 | 00:50:50 | 00:00:00 | |
| AA1-15 | 2026-09-02 07:08:38 | 56.30252 | 9.62720 | 82° | 53km/h | 13076m | 6m/s | -48.5°C | 0.6% | 0hPa | 2.7V | 18:12:15 | 00:50:48 | 00:00:00 | |
| DL1XH-west | 2026-09-02 07:08:37 | 56.30250 | 9.62696 | 79° | 51km/h | 13070m | 5.9m/s | -48.6°C | 0.6% | 0hPa | 2.7V | 18:12:15 | 00:50:47 | 00:00:00 | |
| DJ2DS-15 | 2026-09-02 07:08:36 | 56.30248 | 9.62672 | 81° | 51km/h | 13063m | 8.7m/s | -48.5°C | 3.4% | 0hPa | 2.7V | 00:00:00 | 00:50:46 | 00:00:00 | |
| DM0DOS-11 | 2026-09-02 07:08:32 | 56.30251 | 9.62537 | 97° | 51km/h | 13027m | 7.4m/s | -48.5°C | 3.4% | 0hPa | 2.7V | 08:30:00 | 00:50:40 | 00:00:00 | |
| AA1-15 | 2026-09-02 07:08:27 | 56.30253 | 9.62467 | 87° | 53km/h | 13008m | 4.2m/s | -48.4°C | 0.7% | 0hPa | 2.8V | 18:12:15 | 00:50:37 | 00:00:00 | |
| DL1XH-west | 2026-09-02 07:08:25 | 56.30251 | 9.62418 | 87° | 55km/h | 12997m | 5.6m/s | -48.4°C | 0.7% | 0hPa | 2.7V | 18:12:15 | 00:50:35 | 00:00:00 | |
| DM0DOS-11 | 2026-09-02 07:08:22 | 56.30246 | 9.62302 | 82° | 51km/h | 12968m | 9.5m/s | -48.4°C | 3.4% | 0hPa | 2.7V | 08:30:00 | 00:50:30 | 00:00:00 | |
| DL1XH1-15 | 2026-09-02 07:08:20 | 56.30239 | 9.62179 | 89° | 53km/h | 12931m | 5.4m/s | -48.3°C | 3.4% | 0hPa | 2.7V | 08:30:00 | 00:50:25 | 00:00:00 | |
| AA1-15 | 2026-09-02 07:08:17 | 56.30240 | 9.62228 | 87° | 57km/h | 12945m | 5.6m/s | -48.3°C | 0.7% | 0hPa | 2.8V | 18:12:15 | 00:50:27 | 00:00:00 | |
| DL1XH-west | 2026-09-02 07:08:15 | 56.30239 | 9.62179 | 90° | 53km/h | 12931m | 5.4m/s | -48.3°C | 0.6% | 0hPa | 2.7V | 18:12:15 | 00:50:25 | 00:00:00 | |
| DM0DOS-11 | 2026-09-02 07:08:12 | 56.30238 | 9.62059 | 88° | 49km/h | 12897m | 4.9m/s | -48.2°C | 3.4% | 0hPa | 2.8V | 08:30:00 | 00:50:20 | 00:00:00 | |
| AA1-15 | 2026-09-02 07:08:06 | 56.30235 | 9.61973 | 86° | 49km/h | 12872m | 4.8m/s | -48.4°C | 0.6% | 0hPa | 2.8V | 18:12:15 | 00:50:16 | 00:00:00 | |
| DL1XH1-15 | 2026-09-02 07:07:58 | 56.30212 | 9.61649 | 75° | 53km/h | 12799m | 5.3m/s | -48.3°C | 3.5% | 0hPa | 2.8V | 08:30:00 | 00:50:03 | 00:00:00 | |
| AA1-15 | 2026-09-02 07:07:55 | 56.30218 | 9.61697 | 78° | 57km/h | 12810m | 6.9m/s | -48.3°C | 0.8% | 0hPa | 2.8V | 18:12:15 | 00:50:05 | 00:00:00 | |
| DL1XH-west | 2026-09-02 07:07:50 | 56.30200 | 9.61581 | 69° | 53km/h | 12778m | 9.9m/s | -48.6°C | 0.8% | 0hPa | 2.8V | 18:12:15 | 00:50:00 | 00:00:00 | |
| DJ2DS-15 | 2026-09-02 07:07:49 | 56.30196 | 9.61558 | 71° | 49km/h | 12771m | 4.6m/s | -48.6°C | 1.6% | -1.0hPa | 2.8V | 00:00:00 | 00:00:00 | 00:00:00 | |
| DL1XH1-15 | 2026-09-02 07:07:47 | 56.30193 | 9.61386 | 95° | 62km/h | 12726m | 9.6m/s | -48.5°C | 3.6% | 0hPa | 2.8V | 08:30:00 | 00:49:52 | 00:00:00 | |
| AA1-15 | 2026-09-02 07:07:44 | 56.30190 | 9.61442 | 95° | 60km/h | 12739m | 6m/s | -48.6°C | 0.8% | 0hPa | 2.8V | 18:12:15 | 00:49:54 | 00:00:00 | |
| DM0DOS-11 | 2026-09-02 07:07:42 | 56.30194 | 9.61335 | 89° | 53km/h | 12713m | 6.2m/s | -48.3°C | 3.5% | 0hPa | 2.7V | 08:30:00 | 00:49:50 | 00:00:00 | |
| DL1XH-west | 2026-09-02 07:07:40 | 56.30194 | 9.61335 | 90° | 53km/h | 12713m | 6.2m/s | -48.3°C | 0.7% | 0hPa | 2.7V | 18:12:15 | 00:49:50 | 00:00:00 | |
| AA1-15 | 2026-09-02 07:07:34 | 56.30190 | 9.61209 | 94° | 47km/h | 12671m | 6.4m/s | -48.1°C | 0.6% | 0hPa | 2.7V | 18:12:15 | 00:49:44 | 00:00:00 | |
| DL1XH1-15 | 2026-09-02 07:07:32 | 56.30192 | 9.61163 | 96° | 51km/h | 12655m | 9m/s | -48.2°C | 3.3% | 0hPa | 2.8V | 08:30:00 | 00:49:42 | 00:00:00 | |
| DM0DOS-11 | 2026-09-02 07:07:32 | 56.30195 | 9.61114 | 97° | 57km/h | 12639m | 9.5m/s | -48.5°C | 3.4% | 0hPa | 2.8V | 08:30:00 | 00:49:40 | 00:00:00 | |
| DL1XH-west | 2026-09-02 07:07:30 | 56.30195 | 9.61114 | 97° | 57km/h | 12639m | 9.5m/s | -48.5°C | 0.7% | 0hPa | 2.8V | 18:12:15 | 00:49:40 | 00:00:00 | |
| DL1XH1-15 | 2026-09-02 07:07:27 | 56.30212 | 9.60907 | 99° | 51km/h | 12587m | 7.8m/s | -48.9°C | 3.6% | 0hPa | 2.7V | 08:30:00 | 00:49:32 | 00:00:00 | |
| AA1-15 | 2026-09-02 07:07:23 | 56.30210 | 9.60930 | 98° | 51km/h | 12593m | 3.9m/s | -48.9°C | 0.9% | 0hPa | 2.7V | 18:12:15 | 00:49:33 | 00:00:00 | |
| DM0DOS-11 | 2026-09-02 07:07:22 | 56.30216 | 9.60859 | 98° | 55km/h | 12575m | 3.9m/s | -48.9°C | 3.6% | 0hPa | 2.8V | 08:30:00 | 00:49:30 | 00:00:00 | |
| DL1XH-west | 2026-09-02 07:07:20 | 56.30216 | 9.60859 | 99° | 55km/h | 12576m | 3.9m/s | -48.9°C | 0.9% | 0hPa | 2.8V | 18:12:15 | 00:49:30 | 00:00:00 | |
| DL1XH1-15 | 2026-09-02 07:07:17 | 56.30245 | 9.60654 | 96° | 57km/h | 12523m | 5.4m/s | -49.2°C | 3.8% | 0hPa | 2.7V | 08:30:00 | 00:49:22 | 00:00:00 | |
| DJ2DS-15 | 2026-09-02 07:07:16 | 56.30229 | 9.60756 | 109° | 55km/h | 12546m | 5.5m/s | -49.0°C | 3.6% | 0hPa | 2.7V | 00:00:00 | 00:49:26 | 08:30:00 | |
| DJ2DS-15 | 2026-09-02 07:07:13 | 56.30243 | 9.60680 | 101° | 55km/h | 12528m | 4.4m/s | -49.2°C | 1.8% | -1.0hPa | 2.8V | 00:00:00 | 00:00:00 | 00:00:00 | |
| DM0DOS-11 | 2026-09-02 07:07:12 | 56.30246 | 9.60604 | 90° | 53km/h | 12511m | 4.3m/s | -49.2°C | 3.8% | 0hPa | 2.8V | 08:30:00 | 00:49:20 | 00:00:00 | |
| AA1-15 | 2026-09-02 07:07:12 | 56.30245 | 9.60654 | 97° | 57km/h | 12523m | 5.4m/s | -49.2°C | 1% | 0hPa | 2.7V | 18:12:15 | 00:49:22 | 00:00:00 | |
| DL1XH-west | 2026-09-02 07:07:09 | 56.30246 | 9.60581 | 91° | 51km/h | 12506m | 7.9m/s | -49.2°C | 1.1% | 0hPa | 2.8V | 18:12:15 | 00:49:19 | 00:00:00 | |
| DL1XH1-15 | 2026-09-02 07:07:07 | 56.30254 | 9.60416 | 101° | 53km/h | 12457m | 6m/s | -49°C | 3.7% | 0hPa | 2.8V | 08:30:00 | 00:49:12 | 00:00:00 | |
| DM0DOS-11 | 2026-09-02 07:07:02 | 56.30259 | 9.60366 | 102° | 57km/h | 12444m | 8.6m/s | -49.1°C | 3.8% | 0hPa | 2.7V | 08:30:00 | 00:49:10 | 00:00:00 | |
| AA1-15 | 2026-09-02 07:07:01 | 56.30256 | 9.60391 | 101° | 57km/h | 12451m | 6m/s | -49.1°C | 1% | 0hPa | 2.8V | 18:12:15 | 00:49:11 | 00:00:00 | |
| DL1XH-west | 2026-09-02 07:06:59 | 56.30262 | 9.60340 | 99° | 60km/h | 12437m | 4.6m/s | -49°C | 1% | 0hPa | 2.7V | 18:12:15 | 00:49:09 | 00:00:00 | |
| DL1XH1-15 | 2026-09-02 07:06:57 | 56.30265 | 9.60148 | 91° | 66km/h | 12391m | 10.2m/s | -48.9°C | 3.8% | 0hPa | 2.8V | 08:30:00 | 00:49:02 | 00:00:00 | |
| DJ2DS-15 | 2026-09-02 07:06:56 | 56.30264 | 9.60261 | 88° | 62km/h | 12419m | 5.8m/s | -49.0°C | 3.8% | 0hPa | 2.8V | 00:00:00 | 00:49:06 | 00:00:00 | |
| DM0DOS-11 | 2026-09-02 07:06:52 | 56.30267 | 9.60088 | 95° | 66km/h | 12379m | 4.1m/s | -48.8°C | 3.9% | 0hPa | 2.8V | 08:30:00 | 00:49:00 | 00:00:00 | |
| AA1-15 | 2026-09-02 07:06:50 | 56.30267 | 9.60088 | 96° | 66km/h | 12379m | 4.1m/s | -48.8°C | 1.1% | 0hPa | 2.8V | 18:12:15 | 00:49:00 | 00:00:00 | |
| DL1XH-west | 2026-09-02 07:06:48 | 56.30269 | 9.60031 | 92° | 58km/h | 12367m | 4.9m/s | -48.7°C | 1.2% | 0hPa | 2.7V | 18:12:15 | 00:48:58 | 00:00:00 | |
| DL1XH1-15 | 2026-09-02 07:06:47 | 56.30267 | 9.59885 | 86° | 58km/h | 12329m | 7.4m/s | -48.5°C | 3.8% | 0hPa | 2.7V | 08:30:00 | 00:48:52 | 00:00:00 | |
| DM0DOS-11 | 2026-09-02 07:06:42 | 56.30264 | 9.59826 | 83° | 69km/h | 12315m | 7m/s | -48.4°C | 3.7% | 0hPa | 2.7V | 08:30:00 | 00:48:50 | 00:00:00 | |
| AA1-15 | 2026-09-02 07:06:39 | 56.30262 | 9.59794 | 87° | 73km/h | 12308m | 7.6m/s | -48.3°C | 1.2% | 0hPa | 2.8V | 18:12:15 | 00:48:49 | 00:00:00 | |
| DL1XH-west | 2026-09-02 07:06:37 | 56.30261 | 9.59729 | 90° | 68km/h | 12294m | 4m/s | -48.3°C | 1.3% | 0hPa | 2.8V | 18:12:15 | 00:48:47 | 00:00:00 | |
| DJ2DS-15 | 2026-09-02 07:06:36 | 56.30262 | 9.59699 | 92° | 57km/h | 12290m | 5.3m/s | -48.3°C | 3.7% | 0hPa | 2.7V | 00:00:00 | 00:48:46 | 00:00:00 | |
| DM0DOS-11 | 2026-09-02 07:06:32 | 56.30258 | 9.59550 | 86° | 44km/h | 12250m | 10.2m/s | -48.4°C | 3.9% | 0hPa | 2.7V | 08:30:00 | 00:48:40 | 00:00:00 | |
| AA1-15 | 2026-09-02 07:06:28 | 56.30257 | 9.59506 | 88° | 53km/h | 12237m | 6.2m/s | -48.4°C | 1.5% | 0hPa | 2.8V | 18:12:15 | 00:48:38 | 00:00:00 | |
| DL1XH-west | 2026-09-02 07:06:27 | 56.30256 | 9.59480 | 88° | 58km/h | 12231m | 5.6m/s | -48.4°C | 1.6% | 0hPa | 2.8V | 18:12:15 | 00:48:37 | 00:00:00 | |
| DM0DOS-11 | 2026-09-02 07:06:22 | 56.30256 | 9.59285 | 83° | 57km/h | 12184m | 7.7m/s | -49°C | 4.2% | 0hPa | 2.8V | 08:30:00 | 00:48:30 | 00:00:00 | |
| DL1XH1-15 | 2026-09-02 07:06:17 | 56.30252 | 9.59082 | 98° | 57km/h | 12130m | 7.6m/s | -48.7°C | 4.1% | 0hPa | 2.7V | 08:30:00 | 00:48:22 | 00:00:00 | |
| AA1-15 | 2026-09-02 07:06:17 | 56.30250 | 9.59208 | 81° | 57km/h | 12163m | 4m/s | -48.9°C | 1.7% | 0hPa | 2.7V | 18:12:15 | 00:48:27 | 00:00:00 | |
| DJ2DS-15 | 2026-09-02 07:06:16 | 56.30249 | 9.59184 | 84° | 62km/h | 12157m | 8.2m/s | -48.8°C | 4.1% | 0hPa | 2.7V | 00:00:00 | 00:48:26 | 00:00:00 | |
| DL1XH-west | 2026-09-02 07:06:16 | 56.30249 | 9.59184 | 84° | 55km/h | 12157m | 8.2m/s | -48.8°C | 1.7% | 0hPa | 2.8V | 18:12:15 | 00:48:26 | 00:00:00 | |
| DL1XH1-15 | 2026-09-02 07:06:07 | 56.30264 | 9.58796 | 88° | 69km/h | 12069m | 5.7m/s | -48.8°C | 4.3% | 0hPa | 2.8V | 08:30:00 | 00:48:12 | 00:00:00 | |
| AA1-15 | 2026-09-02 07:06:06 | 56.30264 | 9.58920 | 95° | 66km/h | 12095m | 8.2m/s | -48.7°C | 1.8% | 0hPa | 2.7V | 18:12:15 | 00:48:16 | 00:00:00 | |
| DL1XH-west | 2026-09-02 07:06:05 | 56.30265 | 9.58890 | 92° | 68km/h | 12089m | 5.2m/s | -48.7°C | 1.9% | 0hPa | 2.7V | 18:12:15 | 00:48:15 | 00:00:00 | |
| DJ2DS-15 | 2026-09-02 07:06:01 | 56.30264 | 9.58764 | 90° | 68km/h | 12063m | 6.6m/s | -49.0°C | 2.3% | -1.0hPa | 2.8V | 00:00:00 | 00:00:00 | 00:00:00 | |
| DL1XH1-15 | 2026-09-02 07:05:57 | 56.30274 | 9.58481 | 91° | 77km/h | 11999m | 5.4m/s | -49.3°C | 4.4% | 0hPa | 2.8V | 08:30:00 | 00:48:02 | 00:00:00 | |
| AA1-15 | 2026-09-02 07:05:55 | 56.30272 | 9.58581 | 93° | 68km/h | 12019m | 6.3m/s | -49.4°C | 2% | 0hPa | 2.7V | 18:12:15 | 00:48:05 | 00:00:00 | |
| DL1XH-west | 2026-09-02 07:05:54 | 56.30273 | 9.58549 | 92° | 71km/h | 12012m | 8.9m/s | -49.4°C | 2% | 0hPa | 2.7V | 18:12:15 | 00:48:04 | 00:00:00 | |
| DL1XH1-15 | 2026-09-02 07:05:47 | 56.30270 | 9.58170 | 96° | 66km/h | 11930m | 6m/s | -49.1°C | 4.3% | 0hPa | 2.8V | 08:30:00 | 00:47:52 | 00:00:00 | |
| AA1-15 | 2026-09-02 07:05:44 | 56.30268 | 9.58227 | 88° | 62km/h | 11943m | 7.4m/s | -49.1°C | 2% | 0hPa | 2.8V | 18:12:15 | 00:47:54 | 00:00:00 | |
| DL1XH-west | 2026-09-02 07:05:43 | 56.30268 | 9.58199 | 95° | 62km/h | 11937m | 5.3m/s | -49.1°C | 2% | 0hPa | 2.8V | 18:12:15 | 00:47:53 | 00:00:00 | |
| DM0DOS-11 | 2026-09-02 07:05:42 | 56.30275 | 9.58112 | 99° | 64km/h | 11918m | 5.2m/s | -49.1°C | 4.4% | 0hPa | 2.7V | 08:30:00 | 00:47:50 | 00:00:00 | |
| AA1-15 | 2026-09-02 07:05:34 | 56.30278 | 9.57945 | 85° | 60km/h | 11877m | 4.7m/s | -49.1°C | 2.2% | 0hPa | 2.7V | 18:12:15 | 00:47:44 | 00:00:00 | |
| DM0DOS-11 | 2026-09-02 07:05:32 | 56.30271 | 9.57837 | 86° | 58km/h | 11852m | 5.6m/s | -49.4°C | 4.6% | 0hPa | 2.7V | 08:30:00 | 00:47:40 | 00:00:00 | |
| DL1XH1-15 | 2026-09-02 07:05:32 | 56.30274 | 9.57891 | 81° | 60km/h | 11863m | 5.7m/s | -49.2°C | 4.5% | 0hPa | 2.8V | 08:30:00 | 00:47:42 | 00:00:00 | |
| DL1XH-west | 2026-09-02 07:05:32 | 56.30274 | 9.57891 | 81° | 60km/h | 11863m | 5.7m/s | -49.2°C | 2.3% | 0hPa | 2.8V | 18:12:15 | 00:47:42 | 00:00:00 | |
| AA1-15 | 2026-09-02 07:05:23 | 56.30272 | 9.57679 | 88° | 53km/h | 11807m | 5.9m/s | -49.5°C | 2.4% | 0hPa | 2.7V | 18:12:15 | 00:47:33 | 00:00:00 | |
| DM0DOS-11 | 2026-09-02 07:05:22 | 56.30271 | 9.57601 | 90° | 58km/h | 11787m | 7.6m/s | -49.6°C | 4.7% | 0hPa | 2.8V | 08:30:00 | 00:47:30 | 00:00:00 | |
| DL1XH1-15 | 2026-09-02 07:05:22 | 56.30272 | 9.57654 | 87° | 57km/h | 11801m | 7.4m/s | -49.5°C | 4.6% | 0hPa | 2.7V | 08:30:00 | 00:47:32 | 00:00:00 | |
| DL1XH-west | 2026-09-02 07:05:22 | 56.30272 | 9.57654 | 87° | 57km/h | 11801m | 7.4m/s | -49.5°C | 2.4% | 0hPa | 2.7V | 18:12:15 | 00:47:32 | 00:00:00 | |
| DJ2DS-15 | 2026-09-02 07:05:16 | 56.30271 | 9.57492 | 91° | 57km/h | 11762m | 7.0m/s | -49.6°C | 4.8% | 0hPa | 2.7V | 00:00:00 | 00:47:26 | 00:00:00 | |
| DM0DOS-11 | 2026-09-02 07:05:12 | 56.30271 | 9.57335 | 92° | 58km/h | 11726m | 5.1m/s | -49.6°C | 4.9% | 0hPa | 2.7V | 08:30:00 | 00:47:20 | 00:00:00 | |
| DL1XH1-15 | 2026-09-02 07:05:12 | 56.30273 | 9.57278 | 93° | 64km/h | 11714m | 4.8m/s | -49.5°C | 4.9% | 0hPa | 2.8V | 08:30:00 | 00:47:18 | 00:00:00 | |
| AA1-15 | 2026-09-02 07:05:12 | 56.30270 | 9.57387 | 91° | 58km/h | 11739m | 7.1m/s | -49.6°C | 2.6% | 0hPa | 2.8V | 18:12:15 | 00:47:22 | 00:00:00 | |
| DL1XH-west | 2026-09-02 07:05:11 | 56.30270 | 9.57361 | 93° | 57km/h | 11732m | 7.1m/s | -49.6°C | 2.7% | 0hPa | 2.8V | 18:12:15 | 00:47:21 | 00:00:00 | |
| DM0DOS-11 | 2026-09-02 07:05:02 | 56.30285 | 9.57061 | 99° | 51km/h | 11668m | 7.1m/s | -49.5°C | 4.9% | 0hPa | 2.8V | 08:30:00 | 00:47:10 | 00:00:00 | |
| DL1XH1-15 | 2026-09-02 07:05:02 | 56.30288 | 9.57018 | 94° | 47km/h | 11657m | 4.1m/s | -49.5°C | 5% | 0hPa | 2.7V | 08:30:00 | 00:47:08 | 00:00:00 | |
| DL1XH-west | 2026-09-02 07:05:01 | 56.30283 | 9.57084 | 102° | 55km/h | 11674m | 4.8m/s | -49.5°C | 2.9% | 0hPa | 2.8V | 18:12:15 | 00:47:11 | 00:00:00 | |
| DJ2DS-15 | 2026-09-02 07:04:56 | 56.30290 | 9.56975 | 98° | 64km/h | 11642m | 5.7m/s | -49.5°C | 5.0% | 0hPa | 2.7V | 00:00:00 | 00:47:06 | 00:00:00 | |
| DM0DOS-11 | 2026-09-02 07:04:52 | 56.30297 | 9.56816 | 92° | 64km/h | 11599m | 8.2m/s | -49.7°C | 5.2% | 0hPa | 2.7V | 08:30:00 | 00:47:00 | 00:00:00 | |
| DL1XH1-15 | 2026-09-02 07:04:52 | 56.30301 | 9.56760 | 99° | 60km/h | 11581m | 8m/s | -49.9°C | 5.3% | 0hPa | 2.8V | 08:30:00 | 00:46:58 | 00:00:00 | |
| DL1XH-west | 2026-09-02 07:04:51 | 56.30296 | 9.56844 | 93° | 62km/h | 11606m | 7.7m/s | -49.6°C | 3.3% | 0hPa | 2.7V | 18:12:15 | 00:47:01 | 00:00:00 | |
| DJ2DS-15 | 2026-09-02 07:04:49 | 56.30298 | 9.56787 | 97° | 62km/h | 11590m | 8.6m/s | -49.8°C | 3.1% | -1.0hPa | 2.8V | 00:00:00 | 00:00:00 | 00:00:00 | |
| DM0DOS-11 | 2026-09-02 07:04:42 | 56.30322 | 9.56535 | 91° | 68km/h | 11530m | 6.7m/s | -50.4°C | 0% | 0hPa | 2.8V | 08:30:00 | 00:46:50 | 00:00:00 | |
| DL1XH1-15 | 2026-09-02 07:04:42 | 56.30323 | 9.56474 | 89° | 69km/h | 11517m | 7.6m/s | -50.4°C | 6.1% | 0hPa | 2.8V | 08:30:00 | 00:46:48 | 00:00:00 | |
| DL1XH-west | 2026-09-02 07:04:41 | 56.30321 | 9.56566 | 94° | 69km/h | 11536m | 4.8m/s | -50.3°C | 4.3% | 0hPa | 2.8V | 18:12:15 | 00:46:51 | 00:00:00 | |
| AA1-15 | 2026-09-02 07:04:40 | 56.30322 | 9.56535 | 92° | 68km/h | 11530m | 6.7m/s | -50.4°C | 4.4% | 0hPa | 2.8V | 18:12:15 | 00:46:50 | 00:00:00 | |
| DJ2DS-15 | 2026-09-02 07:04:35 | 56.30321 | 9.56377 | 86° | 71km/h | 11496m | 8.3m/s | -50.4°C | 6.4% | 0hPa | 2.7V | 00:00:00 | 00:46:45 | 00:00:00 | |
| DM0DOS-11 | 2026-09-02 07:04:32 | 56.30333 | 9.56225 | 103° | 69km/h | 11460m | 6.9m/s | 0°C | 0% | 0hPa | 2.7V | 00:00:00 | 00:46:40 | 00:00:00 | |
| DL1XH1-15 | 2026-09-02 07:04:32 | 56.30339 | 9.56164 | 96° | 68km/h | 11449m | 6.2m/s | -51°C | 7.4% | 0hPa | 2.7V | 08:30:00 | 00:46:38 | 00:00:00 | |
| DL1XH-west | 2026-09-02 07:04:31 | 56.30329 | 9.56255 | 104° | 68km/h | 11468m | 9.4m/s | -50.8°C | 5.8% | 0hPa | 2.8V | 18:12:15 | 00:46:41 | 00:00:00 | |
| AA1-15 | 2026-09-02 07:04:29 | 56.30337 | 9.56195 | 101° | 69km/h | 11454m | 4.2m/s | -50.9°C | 6.1% | 0hPa | 2.7V | 18:12:15 | 00:46:39 | 00:00:00 | |
| DM0DOS-11 | 2026-09-02 07:04:22 | 56.30349 | 9.55916 | 96° | 77km/h | 11396m | 4.9m/s | 0°C | 0% | 0hPa | 2.8V | 00:00:00 | 00:46:30 | 00:00:00 | |
| DL1XH1-15 | 2026-09-02 07:04:22 | 56.30354 | 9.55844 | 97° | 82km/h | 11384m | 8m/s | -50.9°C | 8.5% | 0hPa | 2.8V | 08:30:00 | 00:46:28 | 00:00:00 | |
| DL1XH-west | 2026-09-02 07:04:20 | 56.30349 | 9.55916 | 96° | 77km/h | 11396m | 4.9m/s | -50.9°C | 7.7% | 0hPa | 2.8V | 18:12:15 | 00:46:30 | 00:00:00 | |
| AA1-15 | 2026-09-02 07:04:18 | 56.30354 | 9.55844 | 98° | 82km/h | 11384m | 8m/s | -50.9°C | 8.1% | 0hPa | 2.8V | 18:12:15 | 00:46:28 | 00:00:00 | |
| DJ2DS-15 | 2026-09-02 07:04:15 | 56.30362 | 9.55743 | 99° | 73km/h | 11362m | 7.4m/s | -51.0°C | 8.8% | 0hPa | 2.7V | 00:00:00 | 00:46:25 | 08:30:00 | |
| DJ2DS-15 | 2026-09-02 07:04:13 | 56.30367 | 9.55683 | 98° | 64km/h | 11346m | 8.0m/s | -51.1°C | 6.6% | -1.0hPa | 2.8V | 00:00:00 | 00:00:00 | 00:00:00 | |
| DM0DOS-11 | 2026-09-02 07:04:12 | 56.30375 | 9.55598 | 95° | 66km/h | 11325m | 6.5m/s | 0°C | 0% | 0hPa | 2.8V | 00:00:00 | 00:46:20 | 00:00:00 | |
| DL1XH1-15 | 2026-09-02 07:04:12 | 56.30379 | 9.55502 | 94° | 77km/h | 11307m | 4m/s | -51.4°C | 10.7% | 0hPa | 2.7V | 08:30:00 | 00:46:17 | 00:00:00 | |
| DL1XH-west | 2026-09-02 07:04:10 | 56.30375 | 9.55598 | 96° | 66km/h | 11325m | 6.5m/s | -51.2°C | 10.3% | 0hPa | 2.8V | 18:12:15 | 00:46:20 | 00:00:00 | |
| AA1-15 | 2026-09-02 07:04:07 | 56.30379 | 9.55502 | 94° | 77km/h | 11307m | 4m/s | -51.4°C | 11.3% | 0hPa | 2.7V | 18:12:15 | 00:46:17 | 00:00:00 | |
| DM0DOS-11 | 2026-09-02 07:04:02 | 56.30388 | 9.55254 | 89° | 75km/h | 11270m | 5.2m/s | 0°C | 0% | 0hPa | 2.7V | 00:00:00 | 00:46:10 | 00:00:00 | |
| DL1XH1-15 | 2026-09-02 07:04:02 | 56.30387 | 9.55152 | 90° | 73km/h | 11250m | 7.6m/s | -52.2°C | 13.6% | 0hPa | 2.8V | 08:30:00 | 00:46:07 | 00:00:00 | |
| DL1XH-west | 2026-09-02 07:03:59 | 56.30388 | 9.55219 | 88° | 75km/h | 11264m | 7.4m/s | -52.3°C | 14.2% | 0hPa | 2.8V | 18:12:15 | 00:46:09 | 00:00:00 | |
| AA1-15 | 2026-09-02 07:03:57 | 56.30387 | 9.55152 | 90° | 73km/h | 11250m | 7.6m/s | -52.2°C | 15.2% | 0hPa | 2.8V | 18:12:15 | 00:46:07 | 00:00:00 | |
| DJ2DS-15 | 2026-09-02 07:03:55 | 56.30387 | 9.55084 | 91° | 77km/h | 11235m | 7.1m/s | -52.2°C | 14.3% | 0hPa | 2.7V | 00:00:00 | 00:46:05 | 00:00:00 | |
| DM0DOS-11 | 2026-09-02 07:03:53 | 56.30397 | 9.54866 | 91° | 80km/h | 11193m | 8.1m/s | 0°C | 0% | 0hPa | 2.7V | 00:00:00 | 00:45:59 | 00:00:00 | |
| DL1XH1-15 | 2026-09-02 07:03:52 | 56.30396 | 9.54796 | 84° | 75km/h | 11180m | 8.8m/s | -53.8°C | 19.7% | 0hPa | 2.9V | 08:30:00 | 00:45:57 | 00:00:00 | |
| DL1XH-west | 2026-09-02 07:03:48 | 56.30397 | 9.54830 | 86° | 78km/h | 11186m | 5.2m/s | -53.6°C | 21.2% | 0hPa | 2.7V | 18:12:15 | 00:45:58 | 00:00:00 | |
| AA1-15 | 2026-09-02 07:03:46 | 56.30393 | 9.54762 | 80° | 75km/h | 11172m | 9.1m/s | -54°C | 22.6% | 0hPa | 2.8V | 18:12:15 | 00:45:56 | 00:00:00 | |
| DL1XH1-15 | 2026-09-02 07:03:42 | 56.30389 | 9.54462 | 89° | 78km/h | 11102m | 4.8m/s | -54.8°C | 26.7% | 0hPa | 2.7V | 08:30:00 | 00:45:47 | 00:00:00 | |
| DM0DOS-11 | 2026-09-02 07:03:41 | 56.30389 | 9.54427 | 88° | 75km/h | 11097m | 5m/s | 0°C | 0% | 0hPa | 2.7V | 00:00:00 | 00:45:46 | 00:00:00 | |
| DL1XH-west | 2026-09-02 07:03:38 | 56.30388 | 9.54497 | 95° | 78km/h | 11109m | 8.4m/s | -54.8°C | 27.5% | 0hPa | 2.7V | 18:12:15 | 00:45:48 | 00:00:00 | |
| AA1-15 | 2026-09-02 07:03:35 | 56.30388 | 9.54394 | 87° | 71km/h | 11092m | 5.5m/s | -54.8°C | 28.5% | 0hPa | 2.8V | 18:12:15 | 00:45:45 | 00:00:00 | |
| DJ2DS-15 | 2026-09-02 07:03:35 | 56.30388 | 9.54394 | 88° | 75km/h | 11092m | 5.5m/s | -54.8°C | 26.9% | 0hPa | 2.7V | 00:00:00 | 00:45:45 | 00:00:00 | |
| DL1XH1-15 | 2026-09-02 07:03:32 | 56.30379 | 9.54128 | 93° | 86km/h | 11040m | 7.8m/s | -55.1°C | 32.4% | 0hPa | 2.7V | 08:30:00 | 00:45:37 | 00:00:00 | |
| DM0DOS-11 | 2026-09-02 07:03:29 | 56.30379 | 9.54024 | 88° | 69km/h | 11018m | 9.3m/s | 0°C | 0% | 0hPa | 2.8V | 00:00:00 | 00:45:34 | 00:00:00 | |
| DL1XH-west | 2026-09-02 07:03:27 | 56.30379 | 9.54128 | 94° | 86km/h | 11040m | 7.9m/s | -55.2°C | 32.9% | 0hPa | 2.7V | 18:12:15 | 00:45:37 | 00:00:00 | |
| AA1-15 | 2026-09-02 07:03:24 | 56.30379 | 9.54024 | 88° | 69km/h | 11018m | 9.3m/s | -55.1°C | 33.5% | 0hPa | 2.8V | 18:12:15 | 00:45:34 | 00:00:00 | |
| DL1XH1-15 | 2026-09-02 07:03:22 | 56.30376 | 9.53796 | 90° | 86km/h | 10968m | 8.5m/s | -55°C | 33.5% | 0hPa | 2.7V | 08:30:00 | 00:45:27 | 00:00:00 | |
| DM0DOS-11 | 2026-09-02 07:03:19 | 56.30373 | 9.53675 | 85° | 93km/h | 10947m | 6.6m/s | 0°C | 0% | 0hPa | 2.8V | 00:00:00 | 00:45:24 | 00:00:00 | |
| DL1XH-west | 2026-09-02 07:03:16 | 56.30376 | 9.53757 | 87° | 88km/h | 10959m | 8.5m/s | -55°C | 35.4% | 0hPa | 2.7V | 18:12:15 | 00:45:26 | 00:00:00 | |
| AA1-15 | 2026-09-02 07:03:13 | 56.30372 | 9.53632 | 90° | 93km/h | 10940m | 7.6m/s | -55°C | 36.3% | 0hPa | 2.8V | 18:12:15 | 00:45:23 | 00:00:00 | |
| DL1XH1-15 | 2026-09-02 07:03:02 | 56.30365 | 9.53224 | 90° | 68km/h | 10844m | 8.7m/s | -55.1°C | 37.6% | 0hPa | 2.7V | 08:30:00 | 00:45:11 | 00:00:00 | |
| AA1-15 | 2026-09-02 07:03:02 | 56.30365 | 9.53255 | 89° | 69km/h | 10851m | 6.6m/s | -55.2°C | 39.5% | 0hPa | 2.7V | 18:12:15 | 00:45:12 | 00:00:00 | |
| DL1XH-west | 2026-09-02 07:02:59 | 56.30366 | 9.53162 | 90° | 68km/h | 10831m | 5.3m/s | -55.1°C | 40.6% | 0hPa | 2.9V | 18:12:15 | 00:45:09 | 00:00:00 | |
| DJ2DS-15 | 2026-09-02 07:02:55 | 56.30360 | 9.53026 | 79° | 77km/h | 10810m | 7.1m/s | -55.2°C | 40.2% | 0hPa | 2.8V | 00:00:00 | 00:45:05 | 00:00:00 | |
| DL1XH1-15 | 2026-09-02 07:02:52 | 56.30345 | 9.52869 | 87° | 80km/h | 10791m | 5.2m/s | -55.3°C | 44.8% | 0hPa | 2.8V | 08:30:00 | 00:45:01 | 00:00:00 | |
| AA1-15 | 2026-09-02 07:02:51 | 56.30345 | 9.52869 | 87° | 80km/h | 10791m | 5.2m/s | -55.3°C | 46.5% | 0hPa | 2.8V | 18:12:15 | 00:45:01 | 00:00:00 | |
| DL1XH-west | 2026-09-02 07:02:48 | 56.30343 | 9.52764 | 87° | 75km/h | 10768m | 10.6m/s | -55.4°C | 49.1% | 0hPa | 2.8V | 18:12:15 | 00:44:58 | 00:00:00 | |
| DL1XH1-15 | 2026-09-02 07:02:42 | 56.30335 | 9.52527 | 99° | 71km/h | 10712m | 4.9m/s | -56.1°C | 54.2% | 0hPa | 2.8V | 08:30:00 | 00:44:51 | 00:00:00 | |
| AA1-15 | 2026-09-02 07:02:40 | 56.30339 | 9.52496 | 103° | 69km/h | 10706m | 7.4m/s | -56.2°C | 56% | 0hPa | 2.9V | 18:12:15 | 00:44:50 | 00:00:00 | |
| DL1XH-west | 2026-09-02 07:02:37 | 56.30351 | 9.52405 | 97° | 71km/h | 10692m | 5.9m/s | -56.3°C | 57.8% | 0hPa | 2.7V | 18:12:15 | 00:44:47 | 00:00:00 | |
| DL1XH1-15 | 2026-09-02 07:02:32 | 56.30337 | 9.52187 | 78° | 89km/h | 10641m | 4.9m/s | -56.2°C | 62.6% | 0hPa | 2.8V | 08:30:00 | 00:44:41 | 00:00:00 | |
| AA1-15 | 2026-09-02 07:02:29 | 56.30328 | 9.52112 | 80° | 77km/h | 10629m | 5m/s | -56.3°C | 62.2% | 0hPa | 2.9V | 18:12:15 | 00:44:39 | 00:00:00 | |
| DL1XH-west | 2026-09-02 07:02:26 | 56.30324 | 9.52009 | 92° | 78km/h | 10606m | 10.2m/s | -56.4°C | 63.2% | 0hPa | 2.7V | 18:12:15 | 00:44:36 | 00:00:00 | |
| AA1-15 | 2026-09-02 07:02:18 | 56.30327 | 9.51752 | 89° | 60km/h | 10544m | 6.2m/s | -56.6°C | 67.2% | 0hPa | 2.8V | 18:12:15 | 00:44:28 | 00:00:00 | |
| DL1XH-west | 2026-09-02 07:02:16 | 56.30326 | 9.51692 | 88° | 69km/h | 10534m | 4.1m/s | -56.6°C | 68.2% | 0hPa | 2.9V | 18:12:15 | 00:44:26 | 00:00:00 | |
| DJ2DS-15 | 2026-09-02 07:02:15 | 56.30325 | 9.51660 | 84° | 77km/h | 10528m | 7.3m/s | -56.5°C | 69.8% | 0hPa | 2.9V | 00:00:00 | 00:44:25 | 00:00:00 | |
| DL1XH1-15 | 2026-09-02 07:02:12 | 56.30305 | 9.51397 | 82° | 82km/h | 10492m | 5.6m/s | -56.6°C | 77.2% | 0hPa | 2.8V | 08:30:00 | 00:44:18 | 00:00:00 | |
| AA1-15 | 2026-09-02 07:02:07 | 56.30303 | 9.51360 | 84° | 80km/h | 10486m | 5.6m/s | -56.6°C | 72.7% | 0hPa | 2.9V | 18:12:15 | 00:44:17 | 00:00:00 | |
| DL1XH-west | 2026-09-02 07:02:05 | 56.30300 | 9.51290 | 87° | 75km/h | 10475m | 3.2m/s | -56.6°C | 73.6% | 0hPa | 2.9V | 18:12:15 | 00:44:15 | 00:00:00 | |
| AA1-15 | 2026-09-02 07:01:57 | 56.30282 | 9.51038 | 79° | 82km/h | 10426m | 10.7m/s | -56.6°C | 76.9% | 0hPa | 2.8V | 18:12:15 | 00:44:07 | 00:00:00 | |
| DL1XH-west | 2026-09-02 07:01:53 | 56.30268 | 9.50895 | 77° | 78km/h | 10391m | 7.4m/s | -56.5°C | 76.8% | 0hPa | 2.8V | 18:12:15 | 00:44:03 | 00:00:00 | |
| DJ2DS-15 | 2026-09-02 07:01:49 | 56.30245 | 9.50715 | 79° | 86km/h | 10358m | 7.4m/s | -56.3°C | 75.3% | -1.0hPa | 2.8V | 00:00:00 | 00:00:00 | 00:00:00 | |
| DL1XH1-15 | 2026-09-02 07:01:47 | 56.30228 | 9.50527 | 77° | 71km/h | 10317m | 7.8m/s | -56°C | 81.7% | 0hPa | 2.8V | 08:30:00 | 00:43:52 | 00:00:00 | |
| AA1-15 | 2026-09-02 07:01:46 | 56.30239 | 9.50644 | 80° | 73km/h | 10347m | 5.4m/s | -56.2°C | 77.2% | 0hPa | 2.8V | 18:12:15 | 00:43:56 | 00:00:00 | |
| DL1XH-west | 2026-09-02 07:01:42 | 56.30228 | 9.50527 | 78° | 71km/h | 10317m | 7.9m/s | -56°C | 77.6% | 0hPa | 2.8V | 18:12:15 | 00:43:52 | 00:00:00 | |
| AA1-15 | 2026-09-02 07:01:35 | 56.30193 | 9.50310 | 79° | 68km/h | 10267m | 5m/s | -55.9°C | 79.1% | 0hPa | 2.8V | 18:12:15 | 00:43:45 | 00:00:00 | |
| DJ2DS-15 | 2026-09-02 07:01:35 | 56.30193 | 9.50310 | 79° | 68km/h | 10267m | 5.0m/s | -55.8°C | 85.1% | 0hPa | 2.9V | 00:00:00 | 00:43:45 | 00:00:00 | |
| DL1XH1-15 | 2026-09-02 07:01:32 | 56.30182 | 9.50219 | 74° | 69km/h | 10246m | 6.8m/s | -55.8°C | 84.2% | 0hPa | 2.9V | 08:30:00 | 00:43:42 | 00:00:00 | |
| DL1XH-west | 2026-09-02 07:01:31 | 56.30177 | 9.50189 | 76° | 68km/h | 10239m | 5.7m/s | -55.8°C | 77.8% | 0hPa | 2.8V | 18:12:15 | 00:43:41 | 00:00:00 | |
| AA1-15 | 2026-09-02 07:01:24 | 56.30155 | 9.49990 | 93° | 75km/h | 10206m | 5.5m/s | -55.5°C | 77% | 0hPa | 2.8V | 18:12:15 | 00:43:34 | 00:00:00 | |
| DL1XH1-15 | 2026-09-02 07:01:22 | 56.30158 | 9.49926 | 96° | 68km/h | 10190m | 9.9m/s | -55.4°C | 85.9% | 0hPa | 2.9V | 08:30:00 | 00:43:32 | 00:00:00 | |
| DL1XH-west | 2026-09-02 07:01:21 | 56.30160 | 9.49896 | 92° | 62km/h | 10181m | 8.2m/s | -55.3°C | 76.7% | 0hPa | 2.8V | 18:12:15 | 00:43:31 | 00:00:00 | |
| DL1XH1-15 | 2026-09-02 07:01:17 | 56.30149 | 9.49610 | 82° | 60km/h | 10103m | 8.9m/s | -54.5°C | 77.5% | 0hPa | 2.9V | 08:30:00 | 00:43:22 | 00:00:00 | |
| AA1-15 | 2026-09-02 07:01:13 | 56.30151 | 9.49637 | 84° | 62km/h | 10111m | 7.1m/s | -54.6°C | 73.3% | 0hPa | 2.8V | 18:12:15 | 00:43:23 | 00:00:00 | |
| DL1XH-west | 2026-09-02 07:01:10 | 56.30146 | 9.49553 | 86° | 68km/h | 10088m | 2.5m/s | -54.4°C | 72.7% | 0hPa | 2.9V | 18:12:15 | 00:43:20 | 00:00:00 | |
| AA1-15 | 2026-09-02 07:01:02 | 56.30154 | 9.49300 | 89° | 71km/h | 10040m | 7.2m/s | -53.9°C | 72.4% | 0hPa | 2.8V | 18:12:15 | 00:43:12 | 00:00:00 | |
| DL1XH-west | 2026-09-02 07:01:00 | 56.30149 | 9.49236 | 78° | 73km/h | 10028m | 7.8m/s | -53.8°C | 72.3% | 0hPa | 2.9V | 18:12:15 | 00:43:10 | 00:00:00 | |
| AA1-15 | 2026-09-02 07:00:51 | 56.30143 | 9.48916 | 90° | 86km/h | 9959m | 4.3m/s | -53.3°C | 73.3% | 0hPa | 2.8V | 18:12:15 | 00:43:01 | 00:00:00 | |
| DL1XH-west | 2026-09-02 07:00:46 | 56.30148 | 9.48745 | 93° | 77km/h | 9926m | 8.6m/s | -53°C | 72.5% | 0hPa | 2.8V | 18:12:15 | 00:42:56 | 00:00:00 | |
| AA1-15 | 2026-09-02 07:00:40 | 56.30139 | 9.48533 | 90° | 73km/h | 9880m | 6.7m/s | -52.6°C | 70.4% | 0hPa | 2.8V | 18:12:15 | 00:42:50 | 00:00:00 | |
| DL1XH1-15 | 2026-09-02 07:00:37 | 56.30145 | 9.48372 | 87° | 73km/h | 9856m | 5.3m/s | -52.4°C | 77.9% | 0hPa | 2.9V | 08:30:00 | 00:42:45 | 00:00:00 | |
| DL1XH-west | 2026-09-02 07:00:36 | 56.30145 | 9.48404 | 92° | 71km/h | 9862m | 6.4m/s | -52.5°C | 71% | 0hPa | 2.9V | 18:12:15 | 00:42:46 | 00:00:00 | |
| AA1-15 | 2026-09-02 07:00:29 | 56.30149 | 9.48180 | 95° | 69km/h | 9812m | 6.6m/s | -52.1°C | 72.7% | 0hPa | 2.9V | 18:12:15 | 00:42:39 | 00:00:00 | |
| DL1XH1-15 | 2026-09-02 07:00:27 | 56.30142 | 9.48065 | 70° | 68km/h | 9788m | 6.5m/s | -52°C | 73.6% | 0hPa | 2.9V | 08:30:00 | 00:42:35 | 00:00:00 | |
| DL1XH-west | 2026-09-02 07:00:26 | 56.30147 | 9.48094 | 76° | 64km/h | 9794m | 5.2m/s | -52°C | 72% | 0hPa | 2.9V | 18:12:15 | 00:42:36 | 00:00:00 | |
| AA1-15 | 2026-09-02 07:00:18 | 56.30119 | 9.47823 | 89° | 75km/h | 9730m | 8m/s | -51.6°C | 73.6% | 0hPa | 2.9V | 18:12:15 | 00:42:28 | 00:00:00 | |
| DL1XH1-15 | 2026-09-02 07:00:17 | 56.30119 | 9.47732 | 86° | 58km/h | 9707m | 6.2m/s | -51.4°C | 79.5% | 0hPa | 2.8V | 08:30:00 | 00:42:25 | 00:00:00 | |
| DL1XH-west | 2026-09-02 07:00:15 | 56.30119 | 9.47732 | 87° | 58km/h | 9708m | 6.2m/s | -51.4°C | 75.2% | 0hPa | 2.8V | 18:12:15 | 00:42:25 | 00:00:00 | |
| AA1-15 | 2026-09-02 07:00:07 | 56.30107 | 9.47502 | 90° | 73km/h | 9651m | 5.7m/s | -51.1°C | 79.8% | 0hPa | 2.9V | 18:12:15 | 00:42:17 | 00:00:00 | |
| DL1XH1-15 | 2026-09-02 07:00:07 | 56.30105 | 9.47434 | 84° | 77km/h | 9637m | 8.8m/s | -51.1°C | 86.2% | 0hPa | 2.9V | 08:30:00 | 00:42:15 | 00:00:00 | |
| DL1XH-west | 2026-09-02 07:00:04 | 56.30103 | 9.47400 | 81° | 77km/h | 9630m | 5.7m/s | -51°C | 80.1% | 0hPa | 2.8V | 18:12:15 | 00:42:14 | 00:00:00 | |
| AA1-15 | 2026-09-02 06:59:57 | 56.30084 | 9.47195 | 90° | 49km/h | 9592m | 4.7m/s | -50.7°C | 84.1% | 0hPa | 2.8V | 18:12:15 | 00:42:07 | 00:00:00 | |
| DL1XH-west | 2026-09-02 06:59:53 | 56.30078 | 9.47087 | 75° | 71km/h | 9557m | 8.6m/s | -50.5°C | 84.2% | 0hPa | 2.9V | 18:12:15 | 00:42:03 | 00:00:00 | |
| AA1-15 | 2026-09-02 06:59:46 | 56.30053 | 9.46889 | 82° | 57km/h | 9503m | 8.9m/s | -50°C | 82% | 0hPa | 2.8V | 18:12:15 | 00:41:56 | 00:00:00 | |
| DL1XH-west | 2026-09-02 06:59:42 | 56.30047 | 9.46781 | 91° | 64km/h | 9476m | 7.8m/s | -49.7°C | 82.3% | 0hPa | 2.9V | 18:12:15 | 00:41:52 | 00:00:00 | |
| AA1-15 | 2026-09-02 06:59:35 | 56.30052 | 9.46589 | 91° | 62km/h | 9434m | 12.9m/s | -49.5°C | 84.8% | 0hPa | 2.9V | 18:12:15 | 00:41:45 | 00:00:00 | |
| DL1XH-west | 2026-09-02 06:59:26 | 56.30040 | 9.46361 | 71° | 53km/h | 9364m | 6.7m/s | -48.9°C | 82.3% | 0hPa | 2.8V | 18:12:15 | 00:41:36 | 00:00:00 | |
| AA1-15 | 2026-09-02 06:59:24 | 56.30031 | 9.46311 | 72° | 60km/h | 9355m | 5.7m/s | -48.9°C | 82% | 0hPa | 2.9V | 18:12:15 | 00:41:34 | 00:00:00 | |
| DL1XH-west | 2026-09-02 06:59:16 | 56.30026 | 9.46085 | 94° | 55km/h | 9292m | 9.7m/s | -48.3°C | 79.7% | 0hPa | 2.9V | 18:12:15 | 00:41:26 | 00:00:00 | |
| AA1-15 | 2026-09-02 06:59:13 | 56.30024 | 9.46022 | 82° | 44km/h | 9265m | 7.8m/s | -48.1°C | 77.8% | 0hPa | 2.8V | 18:12:15 | 00:41:23 | 00:00:00 | |
| DL1XH1-15 | 2026-09-02 06:59:12 | 56.30024 | 9.45929 | 99° | 60km/h | 9236m | 7.4m/s | -47.8°C | 81.5% | 0hPa | 2.9V | 08:30:00 | 00:41:19 | 00:00:00 | |
| DL1XH-west | 2026-09-02 06:59:05 | 56.30035 | 9.45804 | 94° | 77km/h | 9214m | 5.1m/s | -47.6°C | 74.4% | 0hPa | 2.9V | 18:12:15 | 00:41:15 | 00:00:00 | |
| DL1XH1-15 | 2026-09-02 06:59:02 | 56.30042 | 9.45627 | 92° | 47km/h | 9172m | 9.1m/s | -47.2°C | 77.4% | 0hPa | 2.9V | 08:30:00 | 00:41:09 | 00:00:00 | |
| AA1-15 | 2026-09-02 06:59:02 | 56.30037 | 9.45702 | 95° | 68km/h | 9196m | 8.4m/s | -47.4°C | 73.1% | 0hPa | 2.9V | 18:12:15 | 00:41:12 | 00:00:00 | |
| DL1XH1-15 | 2026-09-02 06:58:54 | 56.30036 | 9.45372 | 100° | 62km/h | 9092m | 7.5m/s | -46.4°C | 68.2% | 0hPa | 2.9V | 08:30:00 | 00:40:59 | 00:00:00 | |
| DL1XH-west | 2026-09-02 06:58:54 | 56.30039 | 9.45498 | 87° | 60km/h | 9135m | 6.3m/s | -46.8°C | 70.3% | 0hPa | 2.8V | 18:12:15 | 00:41:04 | 00:00:00 | |
| AA1-15 | 2026-09-02 06:58:51 | 56.30035 | 9.45422 | 86° | 51km/h | 9110m | 5.7m/s | -46.6°C | 68.4% | 0hPa | 2.9V | 18:12:15 | 00:41:01 | 00:00:00 | |
| DL1XH-west | 2026-09-02 06:58:44 | 56.30049 | 9.45234 | 96° | 58km/h | 9053m | 10.7m/s | -46.1°C | 61% | 0hPa | 2.9V | 18:12:15 | 00:40:54 | 00:00:00 | |
| AA1-15 | 2026-09-02 06:58:40 | 56.30047 | 9.45134 | 84° | 58km/h | 9025m | 6.9m/s | -45.9°C | 58.1% | 0hPa | 2.8V | 18:12:15 | 00:40:50 | 00:00:00 | |
| AA1-15 | 2026-09-02 06:58:29 | 56.30051 | 9.44817 | 87° | 62km/h | 8959m | 10.8m/s | -45.3°C | 50.6% | 0hPa | 2.9V | 18:12:15 | 00:40:39 | 00:00:00 | |
| DL1XH-west | 2026-09-02 06:58:20 | 56.30053 | 9.44570 | 96° | 60km/h | 8902m | 9.3m/s | -44.7°C | 47.5% | 0hPa | 2.8V | 18:12:15 | 00:40:30 | 00:00:00 | |
| AA1-15 | 2026-09-02 06:58:18 | 56.30055 | 9.44514 | 90° | 62km/h | 8887m | 8.2m/s | -44.5°C | 46.8% | 0hPa | 2.9V | 18:12:15 | 00:40:28 | 00:00:00 | |
| DL1XH-west | 2026-09-02 06:58:08 | 56.30041 | 9.44223 | 89° | 71km/h | 8818m | 5.4m/s | -43.9°C | 41.7% | 0hPa | 2.9V | 18:12:15 | 00:40:18 | 00:00:00 | |
| AA1-15 | 2026-09-02 06:58:07 | 56.30040 | 9.44190 | 85° | 73km/h | 8812m | 6.9m/s | -43.8°C | 41.4% | 0hPa | 2.9V | 18:12:15 | 00:40:17 | 00:00:00 | |
| DL1XH1-15 | 2026-09-02 06:58:02 | 56.30029 | 9.43933 | 88° | 58km/h | 8745m | 4.8m/s | -43.2°C | 38.3% | 0hPa | 2.9V | 08:30:00 | 00:40:07 | 00:00:00 | |
| DL1XH-west | 2026-09-02 06:57:58 | 56.30030 | 9.43958 | 86° | 53km/h | 8751m | 4.9m/s | -43.2°C | 37.6% | 0hPa | 2.8V | 18:12:15 | 00:40:08 | 00:00:00 | |
| AA1-15 | 2026-09-02 06:57:56 | 56.30028 | 9.43905 | 85° | 64km/h | 8740m | 5.6m/s | -43.1°C | 36.8% | 0hPa | 2.9V | 18:12:15 | 00:40:06 | 00:00:00 | |
| DL1XH-west | 2026-09-02 06:57:48 | 56.30020 | 9.43651 | 95° | 53km/h | 8697m | 10.1m/s | -42.8°C | 38% | 0hPa | 2.9V | 18:12:15 | 00:39:58 | 00:00:00 | |
| AA1-15 | 2026-09-02 06:57:45 | 56.30021 | 9.43591 | 89° | 42km/h | 8671m | 7m/s | 0°C | 0% | 0hPa | 2.9V | 18:12:15 | 00:39:55 | 00:00:00 | |
| DL1XH-west | 2026-09-02 06:57:37 | 56.30011 | 9.43408 | 81° | 58km/h | 8613m | 2m/s | -42°C | 36.2% | 0hPa | 2.8V | 18:12:15 | 00:39:47 | 00:00:00 | |
| AA1-15 | 2026-09-02 06:57:30 | 56.30003 | 9.43208 | 84° | 46km/h | 8577m | 6.6m/s | 0°C | 0% | 0hPa | 2.8V | 18:12:15 | 00:39:40 | 00:00:00 | |
| DL1XH-west | 2026-09-02 06:57:26 | 56.29992 | 9.43131 | 69° | 51km/h | 8542m | 5.8m/s | -41.4°C | 34.7% | 0hPa | 2.9V | 18:12:15 | 00:39:36 | 00:00:00 | |
| DL1XH1-15 | 2026-09-02 06:57:22 | 56.29957 | 9.42924 | 84° | 53km/h | 8493m | 4.8m/s | -40.9°C | 33.6% | 0hPa | 2.9V | 08:30:00 | 00:39:27 | 00:00:00 | |
| AA1-15 | 2026-09-02 06:57:20 | 56.29966 | 9.42988 | 70° | 47km/h | 8509m | 7.6m/s | 0°C | 0% | 0hPa | 2.9V | 18:12:15 | 00:39:30 | 00:00:00 | |
| DL1XH-west | 2026-09-02 06:57:16 | 56.29956 | 9.42899 | 88° | 58km/h | 8487m | 6.4m/s | -40.9°C | 34.5% | 0hPa | 2.9V | 18:12:15 | 00:39:26 | 00:00:00 | |
| DL1XH1-15 | 2026-09-02 06:57:12 | 56.29944 | 9.42677 | 90° | 44km/h | 8439m | 3.4m/s | -40.4°C | 41.5% | 0hPa | 2.8V | 08:30:00 | 00:39:17 | 00:00:00 | |
| AA1-15 | 2026-09-02 06:57:06 | 56.29945 | 9.42658 | 93° | 40km/h | 8435m | 5m/s | 0°C | 0% | 0hPa | 2.8V | 18:12:15 | 00:39:16 | 00:00:00 | |
| DL1XH-west | 2026-09-02 06:57:05 | 56.29945 | 9.42641 | 92° | 38km/h | 8431m | 3.1m/s | -40.4°C | 41.5% | 0hPa | 2.9V | 18:12:15 | 00:39:15 | 00:00:00 | |
| DL1XH1-15 | 2026-09-02 06:57:02 | 56.29942 | 9.42435 | 67° | 60km/h | 8377m | 8.2m/s | -39.9°C | 47.3% | 0hPa | 2.9V | 08:30:00 | 00:39:07 | 00:00:00 | |
| AA1-15 | 2026-09-02 06:56:55 | 56.29930 | 9.42389 | 64° | 53km/h | 8366m | 6.1m/s | 0°C | 0% | 0hPa | 2.9V | 18:12:15 | 00:39:05 | 00:00:00 | |
| DL1XH-west | 2026-09-02 06:56:54 | 56.29925 | 9.42368 | 68° | 49km/h | 8361m | 4.8m/s | -39.7°C | 46.4% | 0hPa | 2.9V | 18:12:15 | 00:39:04 | 00:00:00 | |
| DL1XH1-15 | 2026-09-02 06:56:52 | 56.29908 | 9.42253 | 69° | 51km/h | 8318m | 6.7m/s | -39.3°C | 50.8% | 0hPa | 2.9V | 08:30:00 | 00:38:57 | 00:00:00 | |
| DL1XH-west | 2026-09-02 06:56:44 | 56.29897 | 9.42179 | 79° | 58km/h | 8297m | 10.6m/s | -39.2°C | 51.3% | 0hPa | 2.8V | 18:12:15 | 00:38:54 | 00:00:00 | |
| DL1XH1-15 | 2026-09-02 06:56:43 | 56.29888 | 9.42019 | 74° | 51km/h | 8249m | 7m/s | -38.8°C | 54.5% | 0hPa | 2.9V | 08:30:00 | 00:38:47 | 00:00:00 | |
| AA1-15 | 2026-09-02 06:56:37 | 56.29888 | 9.42019 | 75° | 51km/h | 8249m | 7m/s | 0°C | 0% | 0hPa | 2.9V | 18:12:15 | 00:38:47 | 00:00:00 | |
| DL1XH-west | 2026-09-02 06:56:33 | 56.29863 | 9.41931 | 66° | 62km/h | 8230m | 2.8m/s | -38.6°C | 54.7% | 0hPa | 2.9V | 18:12:15 | 00:38:43 | 00:00:00 | |
| DL1XH1-15 | 2026-09-02 06:56:32 | 56.29849 | 9.41774 | 86° | 49km/h | 8190m | 9.4m/s | -38.5°C | 56.1% | 0hPa | 2.8V | 08:30:00 | 00:38:37 | 00:00:00 | |
| DL1XH-west | 2026-09-02 06:56:23 | 56.29838 | 9.41679 | 81° | 60km/h | 8163m | 5.1m/s | -38.3°C | 54.9% | 0hPa | 2.9V | 18:12:15 | 00:38:33 | 00:00:00 | |
| DJ2DS-15 | 2026-09-02 06:56:23 | 56.29838 | 9.41679 | 81° | 60km/h | 8163m | 5.0m/s | 0°C | 0% | 0hPa | 2.9V | 00:00:00 | 00:38:33 | 00:00:00 | |
| DL1XH1-15 | 2026-09-02 06:56:22 | 56.29839 | 9.41503 | 91° | 62km/h | 8133m | 4.3m/s | -38°C | 59.5% | 0hPa | 2.9V | 08:30:00 | 00:38:27 | 00:00:00 | |
| DL1XH-west | 2026-09-02 06:56:12 | 56.29837 | 9.41391 | 88° | 51km/h | 8101m | 7.1m/s | -38.1°C | 58.5% | 0hPa | 2.8V | 18:12:15 | 00:38:22 | 00:00:00 | |
| DJ2DS-15 | 2026-09-02 06:56:03 | 56.29819 | 9.41156 | 89° | 69km/h | 8042m | 7.4m/s | 0°C | 0% | 0hPa | 2.8V | 00:00:00 | 00:38:13 | 00:00:00 | |
| DL1XH1-15 | 2026-09-02 06:56:02 | 56.29807 | 9.41001 | 81° | 75km/h | 8008m | 8.5m/s | -37.7°C | 77.9% | 0hPa | 2.8V | 08:30:00 | 00:38:08 | 00:00:00 | |
| DL1XH-west | 2026-09-02 06:56:00 | 56.29814 | 9.41067 | 80° | 71km/h | 8020m | 6.5m/s | -37.8°C | 72.1% | 0hPa | 2.9V | 18:12:15 | 00:38:10 | 00:00:00 | |
| DL1XH1-15 | 2026-09-02 06:55:52 | 56.29777 | 9.40707 | 83° | 66km/h | 7964m | 4.4m/s | -37.3°C | 82.8% | 0hPa | 2.9V | 08:30:00 | 00:37:58 | 00:00:00 | |
| DL1XH-west | 2026-09-02 06:55:49 | 56.29779 | 9.40735 | 82° | 60km/h | 7967m | 3.4m/s | -37.4°C | 73.2% | 0hPa | 2.9V | 18:12:15 | 00:37:59 | 00:00:00 | |
| DJ2DS-15 | 2026-09-02 06:55:43 | 56.29766 | 9.40537 | 77° | 78km/h | 7931m | 8.2m/s | 0°C | 0% | 0hPa | 2.8V | 00:00:00 | 00:37:53 | 08:30:00 | |
| DL1XH1-15 | 2026-09-02 06:55:42 | 56.29747 | 9.40349 | 84° | 93km/h | 7896m | 4.9m/s | -36.8°C | 82.4% | 0hPa | 2.8V | 08:30:00 | 00:37:48 | 00:00:00 | |
| DL1XH-west | 2026-09-02 06:55:39 | 56.29749 | 9.40390 | 85° | 91km/h | 7900m | 5.8m/s | -36.8°C | 76.8% | 0hPa | 2.9V | 18:12:15 | 00:37:49 | 00:00:00 | |
| DL1XH1-15 | 2026-09-02 06:55:33 | 56.29716 | 9.40017 | 90° | 75km/h | 7830m | 6.3m/s | -36.1°C | 82.4% | 0hPa | 2.9V | 08:30:00 | 00:37:37 | 00:00:00 | |
| DL1XH-west | 2026-09-02 06:55:28 | 56.29716 | 9.40049 | 92° | 66km/h | 7836m | 6.4m/s | -36.2°C | 76% | 0hPa | 2.8V | 18:12:15 | 00:37:38 | 00:00:00 | |
| DL1XH-west | 2026-09-02 06:55:18 | 56.29705 | 9.39674 | 83° | 82km/h | 7766m | 7.3m/s | -35.7°C | 81.1% | 0hPa | 2.9V | 18:12:15 | 00:37:28 | 00:00:00 | |
| DL1XH1-15 | 2026-09-02 06:55:17 | 56.29704 | 9.39608 | 91° | 68km/h | 7753m | 7.2m/s | -35.6°C | 88.1% | 0hPa | 2.9V | 08:30:00 | 00:37:26 | 00:00:00 | |
| DL1XH-west | 2026-09-02 06:55:08 | 56.29715 | 9.39334 | 80° | 82km/h | 7701m | 6.6m/s | -35.4°C | 85.9% | 0hPa | 2.9V | 18:12:15 | 00:37:18 | 00:00:00 | |
| DL1XH1-15 | 2026-09-02 06:55:07 | 56.29706 | 9.39265 | 77° | 75km/h | 7687m | 8.3m/s | -35.3°C | 91.2% | 0hPa | 2.9V | 08:30:00 | 00:37:16 | 00:00:00 | |
| DL1XH-west | 2026-09-02 06:54:57 | 56.29683 | 9.38977 | 90° | 82km/h | 7633m | 3.5m/s | -34.8°C | 82.9% | 0hPa | 2.9V | 18:12:15 | 00:37:07 | 00:00:00 | |
| DL1XH1-15 | 2026-09-02 06:54:57 | 56.29683 | 9.38940 | 89° | 82km/h | 7628m | 8.1m/s | -34.8°C | 89.3% | 0hPa | 2.9V | 08:30:00 | 00:37:06 | 00:00:00 | |
| DL1XH1-15 | 2026-09-02 06:54:47 | 56.29639 | 9.38476 | 75° | 58km/h | 7532m | 8.9m/s | -33.9°C | 82.9% | 0hPa | 2.9V | 08:30:00 | 00:36:52 | 00:00:00 | |
| DL1XH-west | 2026-09-02 06:54:46 | 56.29652 | 9.38584 | 81° | 75km/h | 7558m | 7m/s | -34.1°C | 80.4% | 0hPa | 2.8V | 18:12:15 | 00:36:56 | 00:00:00 | |
| DL1XH1-15 | 2026-09-02 06:54:38 | 56.29614 | 9.38194 | 87° | 71km/h | 7462m | 4.5m/s | -33.3°C | 84.8% | 0hPa | 2.9V | 08:30:00 | 00:36:42 | 00:00:00 | |
| DL1XH-west | 2026-09-02 06:54:36 | 56.29624 | 9.38309 | 77° | 60km/h | 7484m | 5.6m/s | -33.5°C | 75.7% | 0hPa | 2.9V | 18:12:15 | 00:36:46 | 00:00:00 | |
| DL1XH1-15 | 2026-09-02 06:54:27 | 56.29620 | 9.37928 | 88° | 77km/h | 7394m | 6.3m/s | -32.8°C | 83.5% | 0hPa | 2.9V | 08:30:00 | 00:36:32 | 00:00:00 | |
| DL1XH-west | 2026-09-02 06:54:26 | 56.29618 | 9.38038 | 87° | 47km/h | 7423m | 5.3m/s | -33°C | 79.3% | 0hPa | 2.9V | 18:12:15 | 00:36:36 | 00:00:00 | |
| DL1XH1-15 | 2026-09-02 06:54:17 | 56.29598 | 9.37598 | 70° | 64km/h | 7328m | 9.3m/s | -32.3°C | 84.3% | 0hPa | 2.9V | 08:30:00 | 00:36:22 | 00:00:00 | |
| DL1XH-west | 2026-09-02 06:54:16 | 56.29608 | 9.37705 | 88° | 69km/h | 7358m | 6.6m/s | -32.5°C | 79.3% | 0hPa | 2.9V | 18:12:15 | 00:36:26 | 00:00:00 | |
| DL1XH1-15 | 2026-09-02 06:54:07 | 56.29585 | 9.37289 | 94° | 82km/h | 7259m | 6.3m/s | -31.6°C | 82.2% | 0hPa | 2.9V | 08:30:00 | 00:36:12 | 00:00:00 | |
| DL1XH-west | 2026-09-02 06:54:05 | 56.29579 | 9.37394 | 98° | 69km/h | 7280m | 9m/s | -31.8°C | 78.5% | 0hPa | 2.9V | 18:12:15 | 00:36:15 | 00:00:00 | |
| DL1XH1-15 | 2026-09-02 06:53:57 | 56.29605 | 9.36985 | 84° | 58km/h | 7189m | 7.8m/s | -31°C | 79.2% | 0hPa | 2.8V | 08:30:00 | 00:36:02 | 00:00:00 | |
| DL1XH-west | 2026-09-02 06:53:54 | 56.29607 | 9.37038 | 92° | 60km/h | 7203m | 9.7m/s | -31.1°C | 72.6% | 0hPa | 2.9V | 18:12:15 | 00:36:04 | 00:00:00 | |
| DL1XH1-15 | 2026-09-02 06:53:47 | 56.29615 | 9.36708 | 100° | 51km/h | 7123m | 6.9m/s | -30.4°C | 76% | 0hPa | 2.9V | 08:30:00 | 00:35:52 | 00:00:00 | |
| DL1XH-west | 2026-09-02 06:53:44 | 56.29611 | 9.36750 | 95° | 46km/h | 7134m | 5m/s | -30.5°C | 72.9% | 0hPa | 2.9V | 18:12:15 | 00:35:54 | 00:00:00 | |
| DL1XH1-15 | 2026-09-02 06:53:37 | 56.29628 | 9.36379 | 89° | 68km/h | 7059m | 6.4m/s | -29.8°C | 74.2% | 0hPa | 2.9V | 08:30:00 | 00:35:42 | 00:00:00 | |
| DL1XH-west | 2026-09-02 06:53:33 | 56.29628 | 9.36410 | 90° | 73km/h | 7065m | 6.5m/s | -29.8°C | 68.7% | 0hPa | 2.9V | 18:12:15 | 00:35:43 | 00:00:00 | |
| DL1XH1-15 | 2026-09-02 06:53:26 | 56.29617 | 9.36128 | 83° | 51km/h | 6982m | 8.1m/s | -29.1°C | 71.9% | 0hPa | 2.9V | 08:30:00 | 00:35:32 | 00:00:00 | |
| DL1XH-west | 2026-09-02 06:53:23 | 56.29618 | 9.36150 | 83° | 49km/h | 6989m | 7.1m/s | -29.2°C | 67.1% | 0hPa | 2.9V | 18:12:15 | 00:35:33 | 00:00:00 | |
| DL1XH1-15 | 2026-09-02 06:53:15 | 56.29617 | 9.35877 | 80° | 51km/h | 6912m | 6.9m/s | -28.5°C | 70.6% | 0hPa | 2.9V | 08:30:00 | 00:35:22 | 00:00:00 | |
| DL1XH-west | 2026-09-02 06:53:13 | 56.29619 | 9.35900 | 80° | 53km/h | 6919m | 6m/s | -28.6°C | 69.5% | 0hPa | 2.8V | 18:12:15 | 00:35:23 | 00:00:00 | |
| DL1XH1-15 | 2026-09-02 06:53:05 | 56.29607 | 9.35640 | 83° | 71km/h | 6845m | 4m/s | -27.9°C | 70.1% | 0hPa | 2.9V | 08:30:00 | 00:35:12 | 00:00:00 | |
| DL1XH-west | 2026-09-02 06:53:02 | 56.29605 | 9.35607 | 86° | 75km/h | 6840m | 6.6m/s | -27.9°C | 66.7% | 0hPa | 2.9V | 18:12:15 | 00:35:11 | 00:00:00 | |
| DL1XH1-15 | 2026-09-02 06:52:56 | 56.29592 | 9.35331 | 75° | 66km/h | 6779m | 4.5m/s | -27.5°C | 71.5% | 0hPa | 2.9V | 08:30:00 | 00:35:02 | 00:00:00 | |
| DL1XH-west | 2026-09-02 06:52:50 | 56.29586 | 9.35272 | 81° | 68km/h | 6769m | 6m/s | -27.4°C | 67.6% | 0hPa | 2.8V | 18:12:15 | 00:35:00 | 00:00:00 | |
| DL1XH1-15 | 2026-09-02 06:52:47 | 56.29582 | 9.35031 | 95° | 46km/h | 6717m | 10.5m/s | -26.9°C | 68.4% | 0hPa | 2.9V | 08:30:00 | 00:34:52 | 00:00:00 | |
| DL1XH-west | 2026-09-02 06:52:39 | 56.29582 | 9.34969 | 83° | 53km/h | 6689m | 6m/s | -26.7°C | 68.4% | 0hPa | 2.9V | 18:12:15 | 00:34:49 | 00:00:00 | |
| DL1XH1-15 | 2026-09-02 06:52:35 | 56.29571 | 9.34790 | 94° | 47km/h | 6650m | 3.8m/s | -26.3°C | 73.9% | 0hPa | 2.9V | 08:30:00 | 00:34:42 | 00:00:00 | |
| DL1XH-west | 2026-09-02 06:52:28 | 56.29565 | 9.34707 | 69° | 57km/h | 6625m | 6m/s | -26.1°C | 71% | 0hPa | 2.9V | 18:12:15 | 00:34:38 | 00:00:00 | |
| DL1XH1-15 | 2026-09-02 06:52:24 | 56.29535 | 9.34485 | 84° | 66km/h | 6570m | 4.6m/s | -25.8°C | 75.8% | 0hPa | 2.9V | 08:30:00 | 00:34:29 | 00:00:00 | |
| DL1XH-west | 2026-09-02 06:52:18 | 56.29534 | 9.34455 | 88° | 66km/h | 6564m | 7.4m/s | -25.8°C | 71.7% | 0hPa | 2.9V | 18:12:15 | 00:34:28 | 00:00:00 | |
| DL1XH1-15 | 2026-09-02 06:52:10 | 56.29515 | 9.34231 | 84° | 68km/h | 6509m | 6.4m/s | -25.3°C | 74.4% | 0hPa | 2.9V | 08:30:00 | 00:34:19 | 00:00:00 | |
| DL1XH-west | 2026-09-02 06:52:08 | 56.29515 | 9.34201 | 92° | 66km/h | 6503m | 5.4m/s | -25.3°C | 70.6% | 0hPa | 2.9V | 18:12:15 | 00:34:18 | 00:00:00 | |
| DL1XH1-15 | 2026-09-02 06:52:00 | 56.29512 | 9.33932 | 84° | 53km/h | 6430m | 4.5m/s | -24.6°C | 72.2% | 0hPa | 2.9V | 08:30:00 | 00:34:07 | 00:00:00 | |
| DL1XH-west | 2026-09-02 06:51:58 | 56.29514 | 9.33955 | 82° | 51km/h | 6436m | 6.9m/s | -24.7°C | 67.8% | 0hPa | 2.9V | 18:12:15 | 00:34:08 | 00:00:00 | |
| DL1XH1-15 | 2026-09-02 06:51:52 | 56.29502 | 9.33676 | 93° | 66km/h | 6361m | 6.4m/s | -24°C | 67.3% | 0hPa | 2.9V | 08:30:00 | 00:33:57 | 00:00:00 | |
| DL1XH-west | 2026-09-02 06:51:47 | 56.29502 | 9.33676 | 94° | 66km/h | 6361m | 6.4m/s | -24°C | 63.9% | 0hPa | 2.9V | 18:12:15 | 00:33:57 | 00:00:00 | |
| DL1XH1-15 | 2026-09-02 06:51:42 | 56.29498 | 9.33395 | 82° | 69km/h | 6296m | 7.2m/s | -23.6°C | 68.3% | 0hPa | 2.9V | 08:30:00 | 00:33:47 | 00:00:00 | |
| DL1XH-west | 2026-09-02 06:51:36 | 56.29497 | 9.33365 | 88° | 64km/h | 6288m | 8.7m/s | -23.5°C | 64.5% | 0hPa | 2.9V | 18:12:15 | 00:33:46 | 00:00:00 | |
| DL1XH1-15 | 2026-09-02 06:51:26 | 56.29517 | 9.32970 | 101° | 62km/h | 6187m | 6.8m/s | -22.5°C | 65.4% | 0hPa | 2.9V | 08:30:00 | 00:33:31 | 00:00:00 | |
| DL1XH-west | 2026-09-02 06:51:25 | 56.29505 | 9.33073 | 92° | 47km/h | 6213m | 8.2m/s | -22.8°C | 63.2% | 0hPa | 2.9V | 18:12:15 | 00:33:35 | 00:00:00 | |
| DL1XH1-15 | 2026-09-02 06:51:16 | 56.29563 | 9.32715 | 93° | 68km/h | 6133m | 5.4m/s | -22.1°C | 64.1% | 0hPa | 2.9V | 08:30:00 | 00:33:21 | 00:00:00 | |
| DL1XH-west | 2026-09-02 06:51:15 | 56.29548 | 9.32828 | 114° | 58km/h | 6155m | 4.7m/s | -22.3°C | 61.6% | 0hPa | 2.9V | 18:12:15 | 00:33:25 | 00:00:00 | |
| DL1XH1-15 | 2026-09-02 06:51:06 | 56.29578 | 9.32423 | 81° | 55km/h | 6068m | 5.6m/s | -21.7°C | 65.1% | 0hPa | 2.9V | 08:30:00 | 00:33:11 | 00:00:00 | |
| DL1XH-west | 2026-09-02 06:51:05 | 56.29578 | 9.32540 | 103° | 69km/h | 6096m | 6.8m/s | -21.9°C | 64.9% | 0hPa | 2.9V | 18:12:15 | 00:33:15 | 00:00:00 | |
| DL1XH1-15 | 2026-09-02 06:50:56 | 56.29573 | 9.32182 | 96° | 58km/h | 6002m | 6.8m/s | -21.5°C | 70.9% | 0hPa | 2.9V | 08:30:00 | 00:33:01 | 00:00:00 | |
| DL1XH-west | 2026-09-02 06:50:54 | 56.29572 | 9.32254 | 89° | 47km/h | 6024m | 6.3m/s | -21.5°C | 63.5% | 0hPa | 2.8V | 18:12:15 | 00:33:04 | 00:00:00 | |
| DL1XH1-15 | 2026-09-02 06:50:46 | 56.29573 | 9.31944 | 100° | 66km/h | 5939m | 9.1m/s | -21°C | 68.8% | 0hPa | 2.9V | 08:30:00 | 00:32:51 | 00:00:00 | |
| DL1XH-west | 2026-09-02 06:50:43 | 56.29571 | 9.31998 | 87° | 57km/h | 5953m | 5.4m/s | -21.1°C | 66.3% | 0hPa | 2.9V | 18:12:15 | 00:32:53 | 00:00:00 | |
| DL1XH1-15 | 2026-09-02 06:50:36 | 56.29583 | 9.31637 | 97° | 57km/h | 5868m | 7.2m/s | -20.4°C | 67.2% | 0hPa | 2.9V | 08:30:00 | 00:32:41 | 00:00:00 | |
| DL1XH-west | 2026-09-02 06:50:32 | 56.29581 | 9.31662 | 94° | 53km/h | 5875m | 7.8m/s | -20.5°C | 63.5% | 0hPa | 2.9V | 18:12:15 | 00:32:42 | 00:00:00 | |
| DL1XH1-15 | 2026-09-02 06:50:26 | 56.29607 | 9.31378 | 95° | 73km/h | 5800m | 6.7m/s | -19.9°C | 64.8% | 0hPa | 2.9V | 08:30:00 | 00:32:31 | 00:00:00 | |
| DL1XH-west | 2026-09-02 06:50:22 | 56.29605 | 9.31410 | 102° | 69km/h | 5807m | 7.4m/s | -19.9°C | 60.8% | 0hPa | 2.9V | 18:12:15 | 00:32:32 | 00:00:00 | |
| DL1XH1-15 | 2026-09-02 06:50:16 | 56.29611 | 9.31118 | 101° | 55km/h | 5735m | 5.5m/s | -19.4°C | 65.9% | 0hPa | 2.9V | 08:30:00 | 00:32:21 | 00:00:00 | |
| DL1XH-west | 2026-09-02 06:50:11 | 56.29611 | 9.31118 | 102° | 55km/h | 5736m | 5.5m/s | -19.4°C | 62.5% | 0hPa | 2.9V | 18:12:15 | 00:32:21 | 00:00:00 | |
| DL1XH1-15 | 2026-09-02 06:50:06 | 56.29617 | 9.30849 | 87° | 71km/h | 5672m | 6m/s | -18.8°C | 63.9% | 0hPa | 2.9V | 08:30:00 | 00:32:11 | 00:00:00 | |
| DL1XH-west | 2026-09-02 06:50:00 | 56.29616 | 9.30818 | 89° | 66km/h | 5666m | 6.4m/s | -18.8°C | 60.4% | 0hPa | 2.9V | 18:12:15 | 00:32:10 | 00:00:00 | |
| DL1XH1-15 | 2026-09-02 06:49:56 | 56.29615 | 9.30574 | 85° | 68km/h | 5596m | 8m/s | -18.2°C | 62.1% | 0hPa | 2.9V | 08:30:00 | 00:32:01 | 00:00:00 | |
| DL1XH-west | 2026-09-02 06:49:50 | 56.29614 | 9.30542 | 90° | 73km/h | 5590m | 5.8m/s | -18.1°C | 59.3% | 0hPa | 2.9V | 18:12:15 | 00:32:00 | 00:00:00 | |
| DL1XH1-15 | 2026-09-02 06:49:46 | 56.29608 | 9.30313 | 78° | 66km/h | 5530m | 6.3m/s | -17.6°C | 60.7% | 0hPa | 2.9V | 08:30:00 | 00:31:51 | 00:00:00 | |
| DL1XH-west | 2026-09-02 06:49:40 | 56.29605 | 9.30282 | 83° | 73km/h | 5524m | 6.7m/s | -17.6°C | 58% | 0hPa | 2.9V | 18:12:15 | 00:31:50 | 00:00:00 | |
| DL1XH-west | 2026-09-02 06:49:30 | 56.29613 | 9.30020 | 72° | 51km/h | 5460m | 7m/s | -17°C | 57.8% | 0hPa | 2.9V | 18:12:15 | 00:31:40 | 00:00:00 | |
| DL1XH1-15 | 2026-09-02 06:49:24 | 56.29591 | 9.29754 | 87° | 55km/h | 5400m | 5.5m/s | -16.5°C | 59.1% | 0hPa | 2.9V | 08:30:00 | 00:31:31 | 00:00:00 | |
| DL1XH-west | 2026-09-02 06:49:22 | 56.29581 | 9.29609 | 75° | 71km/h | 5364m | 6m/s | -16.3°C | 59.2% | 0hPa | 2.9V | 18:12:15 | 00:31:26 | 00:00:00 | |
| DL1XH1-15 | 2026-09-02 06:49:15 | 56.29568 | 9.29464 | 88° | 69km/h | 5330m | 6.9m/s | -16°C | 63.6% | 0hPa | 2.9V | 08:30:00 | 00:31:21 | 00:00:00 | |
| DL1XH-west | 2026-09-02 06:49:08 | 56.29562 | 9.29276 | 79° | 77km/h | 5282m | 6.8m/s | -15.6°C | 62.4% | 0hPa | 2.9V | 18:12:15 | 00:31:15 | 00:00:00 | |
| DL1XH1-15 | 2026-09-02 06:49:06 | 56.29548 | 9.29156 | 85° | 60km/h | 5256m | 7m/s | -15.4°C | 64.5% | 0hPa | 2.9V | 08:30:00 | 00:31:11 | 00:00:00 | |
| DL1XH-west | 2026-09-02 06:48:57 | 56.29545 | 9.29037 | 87° | 68km/h | 5228m | 10.4m/s | -15.3°C | 65.7% | 0hPa | 2.9V | 18:12:15 | 00:31:07 | 00:00:00 | |
| DL1XH-west | 2026-09-02 06:48:47 | 56.29505 | 9.28745 | 79° | 73km/h | 5155m | 7.6m/s | -14.7°C | 67.3% | 0hPa | 2.9V | 18:12:15 | 00:30:57 | 00:00:00 | |
| DL1XH1-15 | 2026-09-02 06:48:44 | 56.29485 | 9.28575 | 82° | 57km/h | 5116m | 6.2m/s | -14.5°C | 0% | 0hPa | 2.9V | 08:30:00 | 00:30:51 | 00:00:00 | |
| DL1XH-west | 2026-09-02 06:48:36 | 56.29460 | 9.28431 | 73° | 73km/h | 5080m | 6.2m/s | -14.3°C | 72.7% | 0hPa | 2.9V | 18:12:15 | 00:30:46 | 00:00:00 | |
| DL1XH1-15 | 2026-09-02 06:48:34 | 56.29450 | 9.28295 | 91° | 62km/h | 5051m | 9.9m/s | 0°C | 0% | 0hPa | 2.9V | 08:30:00 | 00:30:41 | 00:00:00 | |
| DL1XH1-15 | 2026-09-02 06:48:29 | 56.29447 | 9.27964 | 92° | 57km/h | 4984m | 4.5m/s | 0°C | 0% | 0hPa | 2.9V | 00:00:00 | 00:30:31 | 00:00:00 | |
| DL1XH1-15 | 2026-09-02 06:48:29 | 56.29442 | 9.27755 | 82° | 69km/h | 4938m | 8.6m/s | 0°C | 0% | 0hPa | 2.9V | 00:00:00 | 00:30:24 | 00:00:00 | |
| DL1XH1-15 | 2026-09-02 06:48:29 | 56.29434 | 9.27608 | 80° | 73km/h | 4905m | 6.2m/s | 0°C | 0% | 0hPa | 2.8V | 00:00:00 | 00:30:19 | 00:00:00 | |
| DL1XH1-15 | 2026-09-02 06:47:58 | 56.29418 | 9.27077 | 82° | 64km/h | 4796m | 6.7m/s | 0°C | 0% | 0hPa | 2.8V | 00:00:00 | 00:30:03 | 00:00:00 | |
| DL1XH-west | 2026-09-02 06:47:51 | 56.29416 | 9.27024 | 92° | 55km/h | 4784m | 6.9m/s | 0°C | 0% | 0hPa | 2.9V | 18:12:15 | 00:30:01 | 00:00:00 | |
| DL1XH1-15 | 2026-09-02 06:47:45 | 56.29420 | 9.26709 | 89° | 69km/h | 4709m | 6.3m/s | 0°C | 0% | 0hPa | 2.9V | 00:00:00 | 00:29:50 | 00:00:00 | |
| DL1XH-west | 2026-09-02 06:47:37 | 56.29422 | 9.26620 | 90° | 62km/h | 4690m | 8.6m/s | 0°C | 0% | 0hPa | 2.9V | 18:12:15 | 00:29:47 | 00:00:00 | |
| DL1XH-west | 2026-09-02 06:47:26 | 56.29418 | 9.26309 | 95° | 60km/h | 4616m | 8.1m/s | 0°C | 0% | 0hPa | 2.9V | 18:12:15 | 00:29:36 | 00:00:00 | |
| DL1XH-west | 2026-09-02 06:47:15 | 56.29424 | 9.26009 | 87° | 58km/h | 4546m | 4.6m/s | 0°C | 0% | 0hPa | 2.9V | 18:12:15 | 00:29:25 | 00:00:00 | |
| DL1XH-west | 2026-09-02 06:47:03 | 56.29422 | 9.25665 | 80° | 53km/h | 4464m | 8.1m/s | 0°C | 0% | 0hPa | 2.9V | 18:12:15 | 00:29:13 | 00:00:00 |